<?xml version="1.0" encoding="UTF-8" standalone="no" ?>
<gpx xmlns="http://www.topografix.com/GPX/1/1" xmlns:xsi="http://www.w3.org/2001/XMLSchema-instance" xsi:schemaLocation="http://www.topografix.com/GPX/1/1 http://www.topografix.com/GPX/1/1/gpx.xsd" version="1.1" creator="VisuGPX - https://www.visugpx.com">
  <metadata>
    <name>Pornichet 04/11/2021</name>
    <desc><![CDATA[Sortie VTT du jeudi 04 novembre 2021]]></desc>
  </metadata>
  <trk>
    <name><![CDATA[Pornichet Cyclisme]]></name>
    <trkseg>
      <trkpt lat="47.2639" lon="-2.31518">
        <ele>10</ele>
        <time>2021-11-04T08:10:47.000Z</time>
      </trkpt>
      <trkpt lat="47.26389" lon="-2.3153">
        <ele>10</ele>
        <time>2021-11-04T08:10:50.000Z</time>
      </trkpt>
      <trkpt lat="47.26389" lon="-2.31534">
        <ele>9.8</ele>
        <time>2021-11-04T08:10:51.000Z</time>
      </trkpt>
      <trkpt lat="47.26389" lon="-2.31539">
        <ele>-0.40000000596046</ele>
        <time>2021-11-04T08:10:52.000Z</time>
      </trkpt>
      <trkpt lat="47.26393" lon="-2.31565">
        <ele>-0.40000000596046</ele>
        <time>2021-11-04T08:10:55.000Z</time>
      </trkpt>
      <trkpt lat="47.26395" lon="-2.31592">
        <ele>-0.40000000596046</ele>
        <time>2021-11-04T08:11:01.000Z</time>
      </trkpt>
      <trkpt lat="47.26395" lon="-2.31619">
        <ele>-0.40000000596046</ele>
        <time>2021-11-04T08:11:07.000Z</time>
      </trkpt>
      <trkpt lat="47.26393" lon="-2.31622">
        <ele>-0.40000000596046</ele>
        <time>2021-11-04T08:11:08.000Z</time>
      </trkpt>
      <trkpt lat="47.26387" lon="-2.31628">
        <ele>-0.40000000596046</ele>
        <time>2021-11-04T08:11:11.000Z</time>
      </trkpt>
      <trkpt lat="47.26373" lon="-2.31631">
        <ele>-0.40000000596046</ele>
        <time>2021-11-04T08:11:16.000Z</time>
      </trkpt>
      <trkpt lat="47.2635" lon="-2.31635">
        <ele>-0.40000000596046</ele>
        <time>2021-11-04T08:11:22.000Z</time>
      </trkpt>
      <trkpt lat="47.26327" lon="-2.31645">
        <ele>-0.40000000596046</ele>
        <time>2021-11-04T08:11:28.000Z</time>
      </trkpt>
      <trkpt lat="47.26324" lon="-2.31648">
        <ele>-0.80000001192093</ele>
        <time>2021-11-04T08:11:29.000Z</time>
      </trkpt>
      <trkpt lat="47.26321" lon="-2.31651">
        <ele>-1</ele>
        <time>2021-11-04T08:11:30.000Z</time>
      </trkpt>
      <trkpt lat="47.26319" lon="-2.31655">
        <ele>-1.3999999761581</ele>
        <time>2021-11-04T08:11:31.000Z</time>
      </trkpt>
      <trkpt lat="47.26317" lon="-2.31659">
        <ele>-1.6000000238419</ele>
        <time>2021-11-04T08:11:32.000Z</time>
      </trkpt>
      <trkpt lat="47.26315" lon="-2.31663">
        <ele>-2</ele>
        <time>2021-11-04T08:11:33.000Z</time>
      </trkpt>
      <trkpt lat="47.26304" lon="-2.31671">
        <ele>-2</ele>
        <time>2021-11-04T08:11:36.000Z</time>
      </trkpt>
      <trkpt lat="47.26296" lon="-2.31676">
        <ele>-2.4000000953674</ele>
        <time>2021-11-04T08:11:38.000Z</time>
      </trkpt>
      <trkpt lat="47.26292" lon="-2.31678">
        <ele>-2.7999999523163</ele>
        <time>2021-11-04T08:11:39.000Z</time>
      </trkpt>
      <trkpt lat="47.26289" lon="-2.31681">
        <ele>-3.2000000476837</ele>
        <time>2021-11-04T08:11:40.000Z</time>
      </trkpt>
      <trkpt lat="47.26287" lon="-2.31684">
        <ele>-3.5999999046326</ele>
        <time>2021-11-04T08:11:41.000Z</time>
      </trkpt>
      <trkpt lat="47.26286" lon="-2.31687">
        <ele>-4</ele>
        <time>2021-11-04T08:11:42.000Z</time>
      </trkpt>
      <trkpt lat="47.26287" lon="-2.31709">
        <ele>-4</ele>
        <time>2021-11-04T08:11:47.000Z</time>
      </trkpt>
      <trkpt lat="47.26288" lon="-2.31715">
        <ele>-4</ele>
        <time>2021-11-04T08:11:48.000Z</time>
      </trkpt>
      <trkpt lat="47.26291" lon="-2.31747">
        <ele>-4</ele>
        <time>2021-11-04T08:11:54.000Z</time>
      </trkpt>
      <trkpt lat="47.26291" lon="-2.31784">
        <ele>-4</ele>
        <time>2021-11-04T08:12:01.000Z</time>
      </trkpt>
      <trkpt lat="47.26292" lon="-2.31816">
        <ele>-4</ele>
        <time>2021-11-04T08:12:07.000Z</time>
      </trkpt>
      <trkpt lat="47.26291" lon="-2.31835">
        <ele>-4</ele>
        <time>2021-11-04T08:12:13.000Z</time>
      </trkpt>
      <trkpt lat="47.26291" lon="-2.31838">
        <ele>-4</ele>
        <time>2021-11-04T08:12:14.000Z</time>
      </trkpt>
      <trkpt lat="47.26291" lon="-2.31853">
        <ele>-4</ele>
        <time>2021-11-04T08:12:20.000Z</time>
      </trkpt>
      <trkpt lat="47.26292" lon="-2.31868">
        <ele>-4</ele>
        <time>2021-11-04T08:12:27.000Z</time>
      </trkpt>
      <trkpt lat="47.26292" lon="-2.31869">
        <ele>-4</ele>
        <time>2021-11-04T08:12:28.000Z</time>
      </trkpt>
      <trkpt lat="47.26292" lon="-2.31866">
        <ele>-4</ele>
        <time>2021-11-04T08:12:40.000Z</time>
      </trkpt>
      <trkpt lat="47.26291" lon="-2.31863">
        <ele>-4</ele>
        <time>2021-11-04T08:12:42.000Z</time>
      </trkpt>
      <trkpt lat="47.2629" lon="-2.31856">
        <ele>-4</ele>
        <time>2021-11-04T08:12:46.000Z</time>
      </trkpt>
      <trkpt lat="47.2629" lon="-2.31852">
        <ele>-4</ele>
        <time>2021-11-04T08:12:48.000Z</time>
      </trkpt>
      <trkpt lat="47.26289" lon="-2.3185">
        <ele>-4</ele>
        <time>2021-11-04T08:12:49.000Z</time>
      </trkpt>
      <trkpt lat="47.26282" lon="-2.31848">
        <ele>-4</ele>
        <time>2021-11-04T08:12:52.000Z</time>
      </trkpt>
      <trkpt lat="47.26279" lon="-2.31849">
        <ele>-4.4000000953674</ele>
        <time>2021-11-04T08:12:53.000Z</time>
      </trkpt>
      <trkpt lat="47.26277" lon="-2.31851">
        <ele>-4.8000001907349</ele>
        <time>2021-11-04T08:12:54.000Z</time>
      </trkpt>
      <trkpt lat="47.26275" lon="-2.31852">
        <ele>-5.1999998092651</ele>
        <time>2021-11-04T08:12:55.000Z</time>
      </trkpt>
      <trkpt lat="47.26272" lon="-2.31854">
        <ele>-5.5999999046326</ele>
        <time>2021-11-04T08:12:56.000Z</time>
      </trkpt>
      <trkpt lat="47.26269" lon="-2.31856">
        <ele>-6</ele>
        <time>2021-11-04T08:12:57.000Z</time>
      </trkpt>
      <trkpt lat="47.26266" lon="-2.31858">
        <ele>-6</ele>
        <time>2021-11-04T08:12:58.000Z</time>
      </trkpt>
      <trkpt lat="47.26252" lon="-2.31876">
        <ele>-6</ele>
        <time>2021-11-04T08:13:04.000Z</time>
      </trkpt>
      <trkpt lat="47.26244" lon="-2.31897">
        <ele>-6</ele>
        <time>2021-11-04T08:13:09.000Z</time>
      </trkpt>
      <trkpt lat="47.26235" lon="-2.31919">
        <ele>-6</ele>
        <time>2021-11-04T08:13:15.000Z</time>
      </trkpt>
      <trkpt lat="47.2623" lon="-2.31922">
        <ele>-6</ele>
        <time>2021-11-04T08:13:17.000Z</time>
      </trkpt>
      <trkpt lat="47.26225" lon="-2.31922">
        <ele>-6</ele>
        <time>2021-11-04T08:13:19.000Z</time>
      </trkpt>
      <trkpt lat="47.26217" lon="-2.31924">
        <ele>-6</ele>
        <time>2021-11-04T08:13:24.000Z</time>
      </trkpt>
      <trkpt lat="47.26205" lon="-2.31934">
        <ele>-6</ele>
        <time>2021-11-04T08:13:29.000Z</time>
      </trkpt>
      <trkpt lat="47.26194" lon="-2.31945">
        <ele>-6</ele>
        <time>2021-11-04T08:13:33.000Z</time>
      </trkpt>
      <trkpt lat="47.26193" lon="-2.31948">
        <ele>-6</ele>
        <time>2021-11-04T08:13:34.000Z</time>
      </trkpt>
      <trkpt lat="47.26185" lon="-2.31966">
        <ele>-6</ele>
        <time>2021-11-04T08:13:40.000Z</time>
      </trkpt>
      <trkpt lat="47.26173" lon="-2.31967">
        <ele>-6</ele>
        <time>2021-11-04T08:13:45.000Z</time>
      </trkpt>
      <trkpt lat="47.26159" lon="-2.31964">
        <ele>-6</ele>
        <time>2021-11-04T08:13:51.000Z</time>
      </trkpt>
      <trkpt lat="47.26139" lon="-2.3196">
        <ele>-6</ele>
        <time>2021-11-04T08:13:56.000Z</time>
      </trkpt>
      <trkpt lat="47.26136" lon="-2.31963">
        <ele>-6</ele>
        <time>2021-11-04T08:13:58.000Z</time>
      </trkpt>
      <trkpt lat="47.26132" lon="-2.31973">
        <ele>-6</ele>
        <time>2021-11-04T08:14:01.000Z</time>
      </trkpt>
      <trkpt lat="47.26123" lon="-2.32">
        <ele>-6</ele>
        <time>2021-11-04T08:14:06.000Z</time>
      </trkpt>
      <trkpt lat="47.26112" lon="-2.32038">
        <ele>-6</ele>
        <time>2021-11-04T08:14:12.000Z</time>
      </trkpt>
      <trkpt lat="47.26102" lon="-2.32076">
        <ele>-6</ele>
        <time>2021-11-04T08:14:18.000Z</time>
      </trkpt>
      <trkpt lat="47.2609" lon="-2.32115">
        <ele>-6</ele>
        <time>2021-11-04T08:14:24.000Z</time>
      </trkpt>
      <trkpt lat="47.26081" lon="-2.32132">
        <ele>-6</ele>
        <time>2021-11-04T08:14:27.000Z</time>
      </trkpt>
      <trkpt lat="47.26073" lon="-2.32148">
        <ele>-6</ele>
        <time>2021-11-04T08:14:30.000Z</time>
      </trkpt>
      <trkpt lat="47.26047" lon="-2.32183">
        <ele>-6</ele>
        <time>2021-11-04T08:14:38.000Z</time>
      </trkpt>
      <trkpt lat="47.2603" lon="-2.32202">
        <ele>-6</ele>
        <time>2021-11-04T08:14:43.000Z</time>
      </trkpt>
      <trkpt lat="47.26019" lon="-2.32214">
        <ele>-6</ele>
        <time>2021-11-04T08:14:46.000Z</time>
      </trkpt>
      <trkpt lat="47.2599" lon="-2.32247">
        <ele>-6</ele>
        <time>2021-11-04T08:14:54.000Z</time>
      </trkpt>
      <trkpt lat="47.25967" lon="-2.3228">
        <ele>-6</ele>
        <time>2021-11-04T08:15:01.000Z</time>
      </trkpt>
      <trkpt lat="47.25938" lon="-2.32317">
        <ele>-6</ele>
        <time>2021-11-04T08:15:09.000Z</time>
      </trkpt>
      <trkpt lat="47.25935" lon="-2.32322">
        <ele>-6</ele>
        <time>2021-11-04T08:15:10.000Z</time>
      </trkpt>
      <trkpt lat="47.25916" lon="-2.32349">
        <ele>-6</ele>
        <time>2021-11-04T08:15:16.000Z</time>
      </trkpt>
      <trkpt lat="47.2589" lon="-2.32386">
        <ele>-6</ele>
        <time>2021-11-04T08:15:24.000Z</time>
      </trkpt>
      <trkpt lat="47.25876" lon="-2.32407">
        <ele>-6</ele>
        <time>2021-11-04T08:15:30.000Z</time>
      </trkpt>
      <trkpt lat="47.2588" lon="-2.3241">
        <ele>-6</ele>
        <time>2021-11-04T08:15:33.000Z</time>
      </trkpt>
      <trkpt lat="47.25893" lon="-2.32424">
        <ele>-6</ele>
        <time>2021-11-04T08:15:40.000Z</time>
      </trkpt>
      <trkpt lat="47.25902" lon="-2.3245">
        <ele>-6</ele>
        <time>2021-11-04T08:15:46.000Z</time>
      </trkpt>
      <trkpt lat="47.25909" lon="-2.32485">
        <ele>-6</ele>
        <time>2021-11-04T08:15:53.000Z</time>
      </trkpt>
      <trkpt lat="47.25917" lon="-2.32522">
        <ele>-6</ele>
        <time>2021-11-04T08:16:00.000Z</time>
      </trkpt>
      <trkpt lat="47.25928" lon="-2.32551">
        <ele>-6</ele>
        <time>2021-11-04T08:16:05.000Z</time>
      </trkpt>
      <trkpt lat="47.25964" lon="-2.32636">
        <ele>-6</ele>
        <time>2021-11-04T08:16:09.000Z</time>
      </trkpt>
      <trkpt lat="47.25971" lon="-2.32644">
        <ele>-6</ele>
        <time>2021-11-04T08:16:12.000Z</time>
      </trkpt>
      <trkpt lat="47.25973" lon="-2.32649">
        <ele>-6</ele>
        <time>2021-11-04T08:16:14.000Z</time>
      </trkpt>
      <trkpt lat="47.25975" lon="-2.32652">
        <ele>-6</ele>
        <time>2021-11-04T08:16:18.000Z</time>
      </trkpt>
      <trkpt lat="47.25985" lon="-2.32656">
        <ele>-6</ele>
        <time>2021-11-04T08:16:23.000Z</time>
      </trkpt>
      <trkpt lat="47.25988" lon="-2.32657">
        <ele>-6</ele>
        <time>2021-11-04T08:16:24.000Z</time>
      </trkpt>
      <trkpt lat="47.26011" lon="-2.32657">
        <ele>-6</ele>
        <time>2021-11-04T08:16:30.000Z</time>
      </trkpt>
      <trkpt lat="47.2604" lon="-2.32654">
        <ele>-6</ele>
        <time>2021-11-04T08:16:37.000Z</time>
      </trkpt>
      <trkpt lat="47.26048" lon="-2.32652">
        <ele>-6</ele>
        <time>2021-11-04T08:16:39.000Z</time>
      </trkpt>
      <trkpt lat="47.26067" lon="-2.32649">
        <ele>-6</ele>
        <time>2021-11-04T08:16:43.000Z</time>
      </trkpt>
      <trkpt lat="47.26093" lon="-2.32644">
        <ele>-6</ele>
        <time>2021-11-04T08:16:49.000Z</time>
      </trkpt>
      <trkpt lat="47.26129" lon="-2.32641">
        <ele>-6</ele>
        <time>2021-11-04T08:16:57.000Z</time>
      </trkpt>
      <trkpt lat="47.2616" lon="-2.32649">
        <ele>-6</ele>
        <time>2021-11-04T08:17:04.000Z</time>
      </trkpt>
      <trkpt lat="47.26184" lon="-2.32664">
        <ele>-6</ele>
        <time>2021-11-04T08:17:10.000Z</time>
      </trkpt>
      <trkpt lat="47.26213" lon="-2.32694">
        <ele>-6</ele>
        <time>2021-11-04T08:17:18.000Z</time>
      </trkpt>
      <trkpt lat="47.26243" lon="-2.32733">
        <ele>-6</ele>
        <time>2021-11-04T08:17:26.000Z</time>
      </trkpt>
      <trkpt lat="47.26262" lon="-2.32762">
        <ele>-6.5999999046326</ele>
        <time>2021-11-04T08:17:31.000Z</time>
      </trkpt>
      <trkpt lat="47.26265" lon="-2.32768">
        <ele>-7</ele>
        <time>2021-11-04T08:17:32.000Z</time>
      </trkpt>
      <trkpt lat="47.26269" lon="-2.32774">
        <ele>-7.4000000953674</ele>
        <time>2021-11-04T08:17:33.000Z</time>
      </trkpt>
      <trkpt lat="47.26272" lon="-2.3278">
        <ele>-7.8000001907349</ele>
        <time>2021-11-04T08:17:34.000Z</time>
      </trkpt>
      <trkpt lat="47.26275" lon="-2.32786">
        <ele>-8.1999998092651</ele>
        <time>2021-11-04T08:17:35.000Z</time>
      </trkpt>
      <trkpt lat="47.26288" lon="-2.32827">
        <ele>-8.1999998092651</ele>
        <time>2021-11-04T08:17:41.000Z</time>
      </trkpt>
      <trkpt lat="47.26299" lon="-2.32859">
        <ele>-8.1999998092651</ele>
        <time>2021-11-04T08:17:46.000Z</time>
      </trkpt>
      <trkpt lat="47.26313" lon="-2.32867">
        <ele>-8.1999998092651</ele>
        <time>2021-11-04T08:17:49.000Z</time>
      </trkpt>
      <trkpt lat="47.26317" lon="-2.32871">
        <ele>-8.1999998092651</ele>
        <time>2021-11-04T08:17:50.000Z</time>
      </trkpt>
      <trkpt lat="47.26327" lon="-2.32887">
        <ele>-8.6000003814697</ele>
        <time>2021-11-04T08:17:53.000Z</time>
      </trkpt>
      <trkpt lat="47.26329" lon="-2.32894">
        <ele>-9</ele>
        <time>2021-11-04T08:17:54.000Z</time>
      </trkpt>
      <trkpt lat="47.26331" lon="-2.32901">
        <ele>-9.3999996185303</ele>
        <time>2021-11-04T08:17:55.000Z</time>
      </trkpt>
      <trkpt lat="47.26332" lon="-2.32908">
        <ele>-9.8000001907349</ele>
        <time>2021-11-04T08:17:56.000Z</time>
      </trkpt>
      <trkpt lat="47.26335" lon="-2.32915">
        <ele>-10.199999809265</ele>
        <time>2021-11-04T08:17:57.000Z</time>
      </trkpt>
      <trkpt lat="47.26339" lon="-2.32928">
        <ele>-10.199999809265</ele>
        <time>2021-11-04T08:17:59.000Z</time>
      </trkpt>
      <trkpt lat="47.26355" lon="-2.32972">
        <ele>-10.199999809265</ele>
        <time>2021-11-04T08:18:06.000Z</time>
      </trkpt>
      <trkpt lat="47.26362" lon="-2.32982">
        <ele>-10.199999809265</ele>
        <time>2021-11-04T08:18:08.000Z</time>
      </trkpt>
      <trkpt lat="47.26368" lon="-2.32992">
        <ele>-10.199999809265</ele>
        <time>2021-11-04T08:18:10.000Z</time>
      </trkpt>
      <trkpt lat="47.2637" lon="-2.33004">
        <ele>-10.199999809265</ele>
        <time>2021-11-04T08:18:12.000Z</time>
      </trkpt>
      <trkpt lat="47.26372" lon="-2.33031">
        <ele>-10.199999809265</ele>
        <time>2021-11-04T08:18:16.000Z</time>
      </trkpt>
      <trkpt lat="47.26372" lon="-2.33046">
        <ele>-10.199999809265</ele>
        <time>2021-11-04T08:18:18.000Z</time>
      </trkpt>
      <trkpt lat="47.26373" lon="-2.33068">
        <ele>-10.199999809265</ele>
        <time>2021-11-04T08:18:21.000Z</time>
      </trkpt>
      <trkpt lat="47.26376" lon="-2.33118">
        <ele>-10.199999809265</ele>
        <time>2021-11-04T08:18:28.000Z</time>
      </trkpt>
      <trkpt lat="47.26378" lon="-2.33175">
        <ele>-10.199999809265</ele>
        <time>2021-11-04T08:18:36.000Z</time>
      </trkpt>
      <trkpt lat="47.2638" lon="-2.33224">
        <ele>-10.199999809265</ele>
        <time>2021-11-04T08:18:43.000Z</time>
      </trkpt>
      <trkpt lat="47.26382" lon="-2.33238">
        <ele>-10.60000038147</ele>
        <time>2021-11-04T08:18:45.000Z</time>
      </trkpt>
      <trkpt lat="47.26383" lon="-2.33245">
        <ele>-11.199999809265</ele>
        <time>2021-11-04T08:18:46.000Z</time>
      </trkpt>
      <trkpt lat="47.26384" lon="-2.33252">
        <ele>-11.60000038147</ele>
        <time>2021-11-04T08:18:47.000Z</time>
      </trkpt>
      <trkpt lat="47.26387" lon="-2.33258">
        <ele>-12</ele>
        <time>2021-11-04T08:18:48.000Z</time>
      </trkpt>
      <trkpt lat="47.2639" lon="-2.33262">
        <ele>-12.39999961853</ele>
        <time>2021-11-04T08:18:49.000Z</time>
      </trkpt>
      <trkpt lat="47.26403" lon="-2.33268">
        <ele>-12.39999961853</ele>
        <time>2021-11-04T08:18:52.000Z</time>
      </trkpt>
      <trkpt lat="47.26412" lon="-2.33269">
        <ele>-12.39999961853</ele>
        <time>2021-11-04T08:18:54.000Z</time>
      </trkpt>
      <trkpt lat="47.26439" lon="-2.33272">
        <ele>-12.39999961853</ele>
        <time>2021-11-04T08:19:00.000Z</time>
      </trkpt>
      <trkpt lat="47.26474" lon="-2.33278">
        <ele>-12.39999961853</ele>
        <time>2021-11-04T08:19:08.000Z</time>
      </trkpt>
      <trkpt lat="47.26489" lon="-2.33279">
        <ele>-12.39999961853</ele>
        <time>2021-11-04T08:19:13.000Z</time>
      </trkpt>
      <trkpt lat="47.26492" lon="-2.33281">
        <ele>-12.39999961853</ele>
        <time>2021-11-04T08:19:16.000Z</time>
      </trkpt>
      <trkpt lat="47.26493" lon="-2.33281">
        <ele>-14</ele>
        <time>2021-11-04T08:19:37.000Z</time>
      </trkpt>
      <trkpt lat="47.26494" lon="-2.33282">
        <ele>-14.39999961853</ele>
        <time>2021-11-04T08:19:38.000Z</time>
      </trkpt>
      <trkpt lat="47.26498" lon="-2.33282">
        <ele>-14.39999961853</ele>
        <time>2021-11-04T08:19:40.000Z</time>
      </trkpt>
      <trkpt lat="47.26504" lon="-2.33285">
        <ele>-14.39999961853</ele>
        <time>2021-11-04T08:19:42.000Z</time>
      </trkpt>
      <trkpt lat="47.2652" lon="-2.3329">
        <ele>-14.39999961853</ele>
        <time>2021-11-04T08:19:46.000Z</time>
      </trkpt>
      <trkpt lat="47.26524" lon="-2.3329">
        <ele>-14.39999961853</ele>
        <time>2021-11-04T08:19:47.000Z</time>
      </trkpt>
      <trkpt lat="47.26537" lon="-2.33297">
        <ele>-14.39999961853</ele>
        <time>2021-11-04T08:19:51.000Z</time>
      </trkpt>
      <trkpt lat="47.2654" lon="-2.33298">
        <ele>-14.39999961853</ele>
        <time>2021-11-04T08:19:52.000Z</time>
      </trkpt>
      <trkpt lat="47.26546" lon="-2.33293">
        <ele>-14.39999961853</ele>
        <time>2021-11-04T08:19:54.000Z</time>
      </trkpt>
      <trkpt lat="47.26569" lon="-2.33269">
        <ele>-14.39999961853</ele>
        <time>2021-11-04T08:20:01.000Z</time>
      </trkpt>
      <trkpt lat="47.26596" lon="-2.3324">
        <ele>-14.39999961853</ele>
        <time>2021-11-04T08:20:08.000Z</time>
      </trkpt>
      <trkpt lat="47.26626" lon="-2.33208">
        <ele>-14.39999961853</ele>
        <time>2021-11-04T08:20:16.000Z</time>
      </trkpt>
      <trkpt lat="47.26657" lon="-2.33178">
        <ele>-14.39999961853</ele>
        <time>2021-11-04T08:20:24.000Z</time>
      </trkpt>
      <trkpt lat="47.26683" lon="-2.33152">
        <ele>-14.39999961853</ele>
        <time>2021-11-04T08:20:31.000Z</time>
      </trkpt>
      <trkpt lat="47.2671" lon="-2.33124">
        <ele>-14.39999961853</ele>
        <time>2021-11-04T08:20:38.000Z</time>
      </trkpt>
      <trkpt lat="47.26739" lon="-2.33096">
        <ele>-14.39999961853</ele>
        <time>2021-11-04T08:20:46.000Z</time>
      </trkpt>
      <trkpt lat="47.26751" lon="-2.33086">
        <ele>-14.39999961853</ele>
        <time>2021-11-04T08:20:50.000Z</time>
      </trkpt>
      <trkpt lat="47.26756" lon="-2.33089">
        <ele>-14.39999961853</ele>
        <time>2021-11-04T08:20:51.000Z</time>
      </trkpt>
      <trkpt lat="47.26762" lon="-2.33097">
        <ele>-14.800000190735</ele>
        <time>2021-11-04T08:20:53.000Z</time>
      </trkpt>
      <trkpt lat="47.26765" lon="-2.33104">
        <ele>-15.199999809265</ele>
        <time>2021-11-04T08:20:54.000Z</time>
      </trkpt>
      <trkpt lat="47.26766" lon="-2.33111">
        <ele>-15.60000038147</ele>
        <time>2021-11-04T08:20:55.000Z</time>
      </trkpt>
      <trkpt lat="47.26767" lon="-2.33118">
        <ele>-16.200000762939</ele>
        <time>2021-11-04T08:20:56.000Z</time>
      </trkpt>
      <trkpt lat="47.26766" lon="-2.33126">
        <ele>-16.60000038147</ele>
        <time>2021-11-04T08:20:57.000Z</time>
      </trkpt>
      <trkpt lat="47.26761" lon="-2.33148">
        <ele>-16.60000038147</ele>
        <time>2021-11-04T08:21:00.000Z</time>
      </trkpt>
      <trkpt lat="47.26759" lon="-2.33155">
        <ele>-16.60000038147</ele>
        <time>2021-11-04T08:21:01.000Z</time>
      </trkpt>
      <trkpt lat="47.26748" lon="-2.33196">
        <ele>-16.60000038147</ele>
        <time>2021-11-04T08:21:07.000Z</time>
      </trkpt>
      <trkpt lat="47.26734" lon="-2.33243">
        <ele>-16.60000038147</ele>
        <time>2021-11-04T08:21:14.000Z</time>
      </trkpt>
      <trkpt lat="47.26733" lon="-2.33249">
        <ele>-16.60000038147</ele>
        <time>2021-11-04T08:21:15.000Z</time>
      </trkpt>
      <trkpt lat="47.26731" lon="-2.33272">
        <ele>-16.60000038147</ele>
        <time>2021-11-04T08:21:18.000Z</time>
      </trkpt>
      <trkpt lat="47.26733" lon="-2.3328">
        <ele>-16.60000038147</ele>
        <time>2021-11-04T08:21:19.000Z</time>
      </trkpt>
      <trkpt lat="47.26738" lon="-2.33302">
        <ele>-16.60000038147</ele>
        <time>2021-11-04T08:21:22.000Z</time>
      </trkpt>
      <trkpt lat="47.26743" lon="-2.33317">
        <ele>-16.60000038147</ele>
        <time>2021-11-04T08:21:24.000Z</time>
      </trkpt>
      <trkpt lat="47.26752" lon="-2.33363">
        <ele>-16.60000038147</ele>
        <time>2021-11-04T08:21:30.000Z</time>
      </trkpt>
      <trkpt lat="47.26754" lon="-2.33385">
        <ele>-17</ele>
        <time>2021-11-04T08:21:33.000Z</time>
      </trkpt>
      <trkpt lat="47.26755" lon="-2.33392">
        <ele>-17.39999961853</ele>
        <time>2021-11-04T08:21:34.000Z</time>
      </trkpt>
      <trkpt lat="47.26756" lon="-2.33399">
        <ele>-17.799999237061</ele>
        <time>2021-11-04T08:21:35.000Z</time>
      </trkpt>
      <trkpt lat="47.26757" lon="-2.33407">
        <ele>-18.200000762939</ele>
        <time>2021-11-04T08:21:36.000Z</time>
      </trkpt>
      <trkpt lat="47.26757" lon="-2.33414">
        <ele>-18.60000038147</ele>
        <time>2021-11-04T08:21:37.000Z</time>
      </trkpt>
      <trkpt lat="47.26766" lon="-2.33457">
        <ele>-18.60000038147</ele>
        <time>2021-11-04T08:21:43.000Z</time>
      </trkpt>
      <trkpt lat="47.26772" lon="-2.335">
        <ele>-18.60000038147</ele>
        <time>2021-11-04T08:21:49.000Z</time>
      </trkpt>
      <trkpt lat="47.26781" lon="-2.33565">
        <ele>-18.60000038147</ele>
        <time>2021-11-04T08:21:58.000Z</time>
      </trkpt>
      <trkpt lat="47.26783" lon="-2.33608">
        <ele>-18.60000038147</ele>
        <time>2021-11-04T08:22:04.000Z</time>
      </trkpt>
      <trkpt lat="47.26783" lon="-2.33615">
        <ele>-18.60000038147</ele>
        <time>2021-11-04T08:22:05.000Z</time>
      </trkpt>
      <trkpt lat="47.26782" lon="-2.33669">
        <ele>-18.60000038147</ele>
        <time>2021-11-04T08:22:13.000Z</time>
      </trkpt>
      <trkpt lat="47.26786" lon="-2.33703">
        <ele>-18.60000038147</ele>
        <time>2021-11-04T08:22:19.000Z</time>
      </trkpt>
      <trkpt lat="47.26802" lon="-2.33724">
        <ele>-18.60000038147</ele>
        <time>2021-11-04T08:22:24.000Z</time>
      </trkpt>
      <trkpt lat="47.26805" lon="-2.33728">
        <ele>-18.200000762939</ele>
        <time>2021-11-04T08:22:25.000Z</time>
      </trkpt>
      <trkpt lat="47.26808" lon="-2.33732">
        <ele>-17.799999237061</ele>
        <time>2021-11-04T08:22:26.000Z</time>
      </trkpt>
      <trkpt lat="47.26811" lon="-2.33736">
        <ele>-17.39999961853</ele>
        <time>2021-11-04T08:22:27.000Z</time>
      </trkpt>
      <trkpt lat="47.26815" lon="-2.33739">
        <ele>-17</ele>
        <time>2021-11-04T08:22:28.000Z</time>
      </trkpt>
      <trkpt lat="47.26819" lon="-2.33744">
        <ele>-16.60000038147</ele>
        <time>2021-11-04T08:22:29.000Z</time>
      </trkpt>
      <trkpt lat="47.26823" lon="-2.33748">
        <ele>-16.60000038147</ele>
        <time>2021-11-04T08:22:30.000Z</time>
      </trkpt>
      <trkpt lat="47.26844" lon="-2.33774">
        <ele>-16.60000038147</ele>
        <time>2021-11-04T08:22:36.000Z</time>
      </trkpt>
      <trkpt lat="47.26848" lon="-2.33777">
        <ele>-16.60000038147</ele>
        <time>2021-11-04T08:22:37.000Z</time>
      </trkpt>
      <trkpt lat="47.26862" lon="-2.33782">
        <ele>-16.60000038147</ele>
        <time>2021-11-04T08:22:40.000Z</time>
      </trkpt>
      <trkpt lat="47.26876" lon="-2.33787">
        <ele>-16.60000038147</ele>
        <time>2021-11-04T08:22:43.000Z</time>
      </trkpt>
      <trkpt lat="47.26896" lon="-2.33802">
        <ele>-16.60000038147</ele>
        <time>2021-11-04T08:22:48.000Z</time>
      </trkpt>
      <trkpt lat="47.26898" lon="-2.33807">
        <ele>-16.60000038147</ele>
        <time>2021-11-04T08:22:49.000Z</time>
      </trkpt>
      <trkpt lat="47.26903" lon="-2.33827">
        <ele>-16.60000038147</ele>
        <time>2021-11-04T08:22:52.000Z</time>
      </trkpt>
      <trkpt lat="47.26906" lon="-2.3384">
        <ele>-16.60000038147</ele>
        <time>2021-11-04T08:22:54.000Z</time>
      </trkpt>
      <trkpt lat="47.26918" lon="-2.33887">
        <ele>-16.60000038147</ele>
        <time>2021-11-04T08:23:01.000Z</time>
      </trkpt>
      <trkpt lat="47.2693" lon="-2.33941">
        <ele>-16.60000038147</ele>
        <time>2021-11-04T08:23:09.000Z</time>
      </trkpt>
      <trkpt lat="47.26942" lon="-2.33993">
        <ele>-16.60000038147</ele>
        <time>2021-11-04T08:23:17.000Z</time>
      </trkpt>
      <trkpt lat="47.26951" lon="-2.34032">
        <ele>-16.60000038147</ele>
        <time>2021-11-04T08:23:23.000Z</time>
      </trkpt>
      <trkpt lat="47.2696" lon="-2.34071">
        <ele>-16.60000038147</ele>
        <time>2021-11-04T08:23:29.000Z</time>
      </trkpt>
      <trkpt lat="47.26971" lon="-2.34119">
        <ele>-16.60000038147</ele>
        <time>2021-11-04T08:23:36.000Z</time>
      </trkpt>
      <trkpt lat="47.26983" lon="-2.34174">
        <ele>-16.60000038147</ele>
        <time>2021-11-04T08:23:44.000Z</time>
      </trkpt>
      <trkpt lat="47.26994" lon="-2.34221">
        <ele>-16.60000038147</ele>
        <time>2021-11-04T08:23:51.000Z</time>
      </trkpt>
      <trkpt lat="47.27006" lon="-2.34275">
        <ele>-16.60000038147</ele>
        <time>2021-11-04T08:23:59.000Z</time>
      </trkpt>
      <trkpt lat="47.27008" lon="-2.34307">
        <ele>-16.60000038147</ele>
        <time>2021-11-04T08:24:05.000Z</time>
      </trkpt>
      <trkpt lat="47.27009" lon="-2.34314">
        <ele>-16.60000038147</ele>
        <time>2021-11-04T08:24:07.000Z</time>
      </trkpt>
      <trkpt lat="47.27014" lon="-2.34319">
        <ele>-16.60000038147</ele>
        <time>2021-11-04T08:24:09.000Z</time>
      </trkpt>
      <trkpt lat="47.27028" lon="-2.34323">
        <ele>-16.60000038147</ele>
        <time>2021-11-04T08:24:13.000Z</time>
      </trkpt>
      <trkpt lat="47.27032" lon="-2.34324">
        <ele>-16.60000038147</ele>
        <time>2021-11-04T08:24:14.000Z</time>
      </trkpt>
      <trkpt lat="47.27041" lon="-2.34334">
        <ele>-16.60000038147</ele>
        <time>2021-11-04T08:24:17.000Z</time>
      </trkpt>
      <trkpt lat="47.27043" lon="-2.3434">
        <ele>-16.60000038147</ele>
        <time>2021-11-04T08:24:18.000Z</time>
      </trkpt>
      <trkpt lat="47.2705" lon="-2.34374">
        <ele>-16.60000038147</ele>
        <time>2021-11-04T08:24:23.000Z</time>
      </trkpt>
      <trkpt lat="47.27062" lon="-2.34427">
        <ele>-16.60000038147</ele>
        <time>2021-11-04T08:24:31.000Z</time>
      </trkpt>
      <trkpt lat="47.27074" lon="-2.34474">
        <ele>-16.60000038147</ele>
        <time>2021-11-04T08:24:38.000Z</time>
      </trkpt>
      <trkpt lat="47.27087" lon="-2.34543">
        <ele>-16.60000038147</ele>
        <time>2021-11-04T08:24:48.000Z</time>
      </trkpt>
      <trkpt lat="47.271" lon="-2.34603">
        <ele>-16.60000038147</ele>
        <time>2021-11-04T08:24:57.000Z</time>
      </trkpt>
      <trkpt lat="47.27107" lon="-2.34633">
        <ele>-17</ele>
        <time>2021-11-04T08:25:01.000Z</time>
      </trkpt>
      <trkpt lat="47.27109" lon="-2.3464">
        <ele>-17.39999961853</ele>
        <time>2021-11-04T08:25:02.000Z</time>
      </trkpt>
      <trkpt lat="47.27111" lon="-2.34648">
        <ele>-17.799999237061</ele>
        <time>2021-11-04T08:25:03.000Z</time>
      </trkpt>
      <trkpt lat="47.27113" lon="-2.34655">
        <ele>-18.200000762939</ele>
        <time>2021-11-04T08:25:04.000Z</time>
      </trkpt>
      <trkpt lat="47.27115" lon="-2.34663">
        <ele>-18.60000038147</ele>
        <time>2021-11-04T08:25:05.000Z</time>
      </trkpt>
      <trkpt lat="47.27131" lon="-2.34738">
        <ele>-18.60000038147</ele>
        <time>2021-11-04T08:25:15.000Z</time>
      </trkpt>
      <trkpt lat="47.2714" lon="-2.34788">
        <ele>-18.60000038147</ele>
        <time>2021-11-04T08:25:22.000Z</time>
      </trkpt>
      <trkpt lat="47.27152" lon="-2.34846">
        <ele>-18.60000038147</ele>
        <time>2021-11-04T08:25:30.000Z</time>
      </trkpt>
      <trkpt lat="47.27167" lon="-2.34901">
        <ele>-18.60000038147</ele>
        <time>2021-11-04T08:25:38.000Z</time>
      </trkpt>
      <trkpt lat="47.27186" lon="-2.34961">
        <ele>-18.60000038147</ele>
        <time>2021-11-04T08:25:47.000Z</time>
      </trkpt>
      <trkpt lat="47.27203" lon="-2.35012">
        <ele>-18.60000038147</ele>
        <time>2021-11-04T08:25:55.000Z</time>
      </trkpt>
      <trkpt lat="47.27222" lon="-2.35062">
        <ele>-18.60000038147</ele>
        <time>2021-11-04T08:26:03.000Z</time>
      </trkpt>
      <trkpt lat="47.27242" lon="-2.35106">
        <ele>-18.60000038147</ele>
        <time>2021-11-04T08:26:10.000Z</time>
      </trkpt>
      <trkpt lat="47.27256" lon="-2.35127">
        <ele>-18.60000038147</ele>
        <time>2021-11-04T08:26:15.000Z</time>
      </trkpt>
      <trkpt lat="47.27261" lon="-2.35125">
        <ele>-18.60000038147</ele>
        <time>2021-11-04T08:26:16.000Z</time>
      </trkpt>
      <trkpt lat="47.27279" lon="-2.35113">
        <ele>-18.60000038147</ele>
        <time>2021-11-04T08:26:21.000Z</time>
      </trkpt>
      <trkpt lat="47.27295" lon="-2.35107">
        <ele>-18.60000038147</ele>
        <time>2021-11-04T08:26:27.000Z</time>
      </trkpt>
      <trkpt lat="47.27304" lon="-2.35108">
        <ele>-18.60000038147</ele>
        <time>2021-11-04T08:26:32.000Z</time>
      </trkpt>
      <trkpt lat="47.27314" lon="-2.35096">
        <ele>-18.60000038147</ele>
        <time>2021-11-04T08:26:36.000Z</time>
      </trkpt>
      <trkpt lat="47.2733" lon="-2.35089">
        <ele>-18.60000038147</ele>
        <time>2021-11-04T08:26:41.000Z</time>
      </trkpt>
      <trkpt lat="47.27346" lon="-2.35082">
        <ele>-18.200000762939</ele>
        <time>2021-11-04T08:26:46.000Z</time>
      </trkpt>
      <trkpt lat="47.27349" lon="-2.3508">
        <ele>-17.799999237061</ele>
        <time>2021-11-04T08:26:47.000Z</time>
      </trkpt>
      <trkpt lat="47.27353" lon="-2.35079">
        <ele>-17.39999961853</ele>
        <time>2021-11-04T08:26:48.000Z</time>
      </trkpt>
      <trkpt lat="47.27356" lon="-2.35077">
        <ele>-17</ele>
        <time>2021-11-04T08:26:49.000Z</time>
      </trkpt>
      <trkpt lat="47.2736" lon="-2.35076">
        <ele>-16.60000038147</ele>
        <time>2021-11-04T08:26:50.000Z</time>
      </trkpt>
      <trkpt lat="47.27377" lon="-2.35066">
        <ele>-16.60000038147</ele>
        <time>2021-11-04T08:26:55.000Z</time>
      </trkpt>
      <trkpt lat="47.27388" lon="-2.35058">
        <ele>-16.200000762939</ele>
        <time>2021-11-04T08:26:59.000Z</time>
      </trkpt>
      <trkpt lat="47.27391" lon="-2.35057">
        <ele>-15.800000190735</ele>
        <time>2021-11-04T08:27:00.000Z</time>
      </trkpt>
      <trkpt lat="47.27394" lon="-2.35056">
        <ele>-15.39999961853</ele>
        <time>2021-11-04T08:27:01.000Z</time>
      </trkpt>
      <trkpt lat="47.27397" lon="-2.35058">
        <ele>-14.800000190735</ele>
        <time>2021-11-04T08:27:02.000Z</time>
      </trkpt>
      <trkpt lat="47.274" lon="-2.35061">
        <ele>-14.39999961853</ele>
        <time>2021-11-04T08:27:03.000Z</time>
      </trkpt>
      <trkpt lat="47.27404" lon="-2.35067">
        <ele>-14.39999961853</ele>
        <time>2021-11-04T08:27:05.000Z</time>
      </trkpt>
      <trkpt lat="47.27411" lon="-2.35091">
        <ele>-14.39999961853</ele>
        <time>2021-11-04T08:27:10.000Z</time>
      </trkpt>
      <trkpt lat="47.27418" lon="-2.35124">
        <ele>-14.39999961853</ele>
        <time>2021-11-04T08:27:16.000Z</time>
      </trkpt>
      <trkpt lat="47.2743" lon="-2.35166">
        <ele>-14.39999961853</ele>
        <time>2021-11-04T08:27:24.000Z</time>
      </trkpt>
      <trkpt lat="47.27438" lon="-2.3517">
        <ele>-14.39999961853</ele>
        <time>2021-11-04T08:27:27.000Z</time>
      </trkpt>
      <trkpt lat="47.27448" lon="-2.35164">
        <ele>-14.39999961853</ele>
        <time>2021-11-04T08:27:30.000Z</time>
      </trkpt>
      <trkpt lat="47.27455" lon="-2.3516">
        <ele>-14.39999961853</ele>
        <time>2021-11-04T08:27:32.000Z</time>
      </trkpt>
      <trkpt lat="47.27478" lon="-2.35149">
        <ele>-14.39999961853</ele>
        <time>2021-11-04T08:27:39.000Z</time>
      </trkpt>
      <trkpt lat="47.27495" lon="-2.35141">
        <ele>-14</ele>
        <time>2021-11-04T08:27:44.000Z</time>
      </trkpt>
      <trkpt lat="47.27499" lon="-2.35137">
        <ele>-13.60000038147</ele>
        <time>2021-11-04T08:27:45.000Z</time>
      </trkpt>
      <trkpt lat="47.27501" lon="-2.35133">
        <ele>-13.199999809265</ele>
        <time>2021-11-04T08:27:46.000Z</time>
      </trkpt>
      <trkpt lat="47.27504" lon="-2.3513">
        <ele>-12.800000190735</ele>
        <time>2021-11-04T08:27:47.000Z</time>
      </trkpt>
      <trkpt lat="47.27508" lon="-2.35129">
        <ele>-12.39999961853</ele>
        <time>2021-11-04T08:27:48.000Z</time>
      </trkpt>
      <trkpt lat="47.27511" lon="-2.3513">
        <ele>-12.39999961853</ele>
        <time>2021-11-04T08:27:49.000Z</time>
      </trkpt>
      <trkpt lat="47.27515" lon="-2.35131">
        <ele>-12.39999961853</ele>
        <time>2021-11-04T08:27:50.000Z</time>
      </trkpt>
      <trkpt lat="47.27541" lon="-2.3514">
        <ele>-12.39999961853</ele>
        <time>2021-11-04T08:27:57.000Z</time>
      </trkpt>
      <trkpt lat="47.27569" lon="-2.35138">
        <ele>-12.39999961853</ele>
        <time>2021-11-04T08:28:04.000Z</time>
      </trkpt>
      <trkpt lat="47.27599" lon="-2.35134">
        <ele>-12.39999961853</ele>
        <time>2021-11-04T08:28:11.000Z</time>
      </trkpt>
      <trkpt lat="47.27604" lon="-2.35138">
        <ele>-12.39999961853</ele>
        <time>2021-11-04T08:28:12.000Z</time>
      </trkpt>
      <trkpt lat="47.27611" lon="-2.35156">
        <ele>-12.39999961853</ele>
        <time>2021-11-04T08:28:15.000Z</time>
      </trkpt>
      <trkpt lat="47.27618" lon="-2.35178">
        <ele>-12.39999961853</ele>
        <time>2021-11-04T08:28:19.000Z</time>
      </trkpt>
      <trkpt lat="47.2763" lon="-2.35178">
        <ele>-12.39999961853</ele>
        <time>2021-11-04T08:28:22.000Z</time>
      </trkpt>
      <trkpt lat="47.27636" lon="-2.35177">
        <ele>-12.39999961853</ele>
        <time>2021-11-04T08:28:23.000Z</time>
      </trkpt>
      <trkpt lat="47.27646" lon="-2.35175">
        <ele>-12.800000190735</ele>
        <time>2021-11-04T08:28:25.000Z</time>
      </trkpt>
      <trkpt lat="47.27652" lon="-2.35174">
        <ele>-13.39999961853</ele>
        <time>2021-11-04T08:28:26.000Z</time>
      </trkpt>
      <trkpt lat="47.27657" lon="-2.35174">
        <ele>-13.800000190735</ele>
        <time>2021-11-04T08:28:27.000Z</time>
      </trkpt>
      <trkpt lat="47.27662" lon="-2.35174">
        <ele>-14.199999809265</ele>
        <time>2021-11-04T08:28:28.000Z</time>
      </trkpt>
      <trkpt lat="47.27666" lon="-2.35173">
        <ele>-14.60000038147</ele>
        <time>2021-11-04T08:28:29.000Z</time>
      </trkpt>
      <trkpt lat="47.27671" lon="-2.35176">
        <ele>-14.60000038147</ele>
        <time>2021-11-04T08:28:30.000Z</time>
      </trkpt>
      <trkpt lat="47.27674" lon="-2.35181">
        <ele>-14.60000038147</ele>
        <time>2021-11-04T08:28:31.000Z</time>
      </trkpt>
      <trkpt lat="47.27676" lon="-2.35202">
        <ele>-14.60000038147</ele>
        <time>2021-11-04T08:28:34.000Z</time>
      </trkpt>
      <trkpt lat="47.27676" lon="-2.35209">
        <ele>-15</ele>
        <time>2021-11-04T08:28:35.000Z</time>
      </trkpt>
      <trkpt lat="47.27677" lon="-2.35215">
        <ele>-15.39999961853</ele>
        <time>2021-11-04T08:28:36.000Z</time>
      </trkpt>
      <trkpt lat="47.27678" lon="-2.35219">
        <ele>-15.800000190735</ele>
        <time>2021-11-04T08:28:37.000Z</time>
      </trkpt>
      <trkpt lat="47.2768" lon="-2.35221">
        <ele>-16.200000762939</ele>
        <time>2021-11-04T08:28:38.000Z</time>
      </trkpt>
      <trkpt lat="47.27683" lon="-2.35223">
        <ele>-16.60000038147</ele>
        <time>2021-11-04T08:28:39.000Z</time>
      </trkpt>
      <trkpt lat="47.27692" lon="-2.35219">
        <ele>-16.60000038147</ele>
        <time>2021-11-04T08:28:41.000Z</time>
      </trkpt>
      <trkpt lat="47.27706" lon="-2.35215">
        <ele>-16.60000038147</ele>
        <time>2021-11-04T08:28:44.000Z</time>
      </trkpt>
      <trkpt lat="47.27716" lon="-2.35212">
        <ele>-16.60000038147</ele>
        <time>2021-11-04T08:28:46.000Z</time>
      </trkpt>
      <trkpt lat="47.27721" lon="-2.35211">
        <ele>-17.200000762939</ele>
        <time>2021-11-04T08:28:47.000Z</time>
      </trkpt>
      <trkpt lat="47.27726" lon="-2.3521">
        <ele>-17.60000038147</ele>
        <time>2021-11-04T08:28:48.000Z</time>
      </trkpt>
      <trkpt lat="47.27732" lon="-2.35209">
        <ele>-18</ele>
        <time>2021-11-04T08:28:49.000Z</time>
      </trkpt>
      <trkpt lat="47.27737" lon="-2.35207">
        <ele>-18.39999961853</ele>
        <time>2021-11-04T08:28:50.000Z</time>
      </trkpt>
      <trkpt lat="47.27742" lon="-2.35206">
        <ele>-18.799999237061</ele>
        <time>2021-11-04T08:28:51.000Z</time>
      </trkpt>
      <trkpt lat="47.27753" lon="-2.35205">
        <ele>-18.799999237061</ele>
        <time>2021-11-04T08:28:53.000Z</time>
      </trkpt>
      <trkpt lat="47.27771" lon="-2.35201">
        <ele>-19.39999961853</ele>
        <time>2021-11-04T08:28:57.000Z</time>
      </trkpt>
      <trkpt lat="47.27773" lon="-2.35202">
        <ele>-19.799999237061</ele>
        <time>2021-11-04T08:28:58.000Z</time>
      </trkpt>
      <trkpt lat="47.27775" lon="-2.35203">
        <ele>-20.200000762939</ele>
        <time>2021-11-04T08:28:59.000Z</time>
      </trkpt>
      <trkpt lat="47.27777" lon="-2.35206">
        <ele>-20.60000038147</ele>
        <time>2021-11-04T08:29:00.000Z</time>
      </trkpt>
      <trkpt lat="47.27779" lon="-2.3521">
        <ele>-21</ele>
        <time>2021-11-04T08:29:01.000Z</time>
      </trkpt>
      <trkpt lat="47.27781" lon="-2.35215">
        <ele>-21</ele>
        <time>2021-11-04T08:29:02.000Z</time>
      </trkpt>
      <trkpt lat="47.27782" lon="-2.35227">
        <ele>-21</ele>
        <time>2021-11-04T08:29:04.000Z</time>
      </trkpt>
      <trkpt lat="47.27784" lon="-2.35241">
        <ele>-21</ele>
        <time>2021-11-04T08:29:06.000Z</time>
      </trkpt>
      <trkpt lat="47.27787" lon="-2.35259">
        <ele>-21</ele>
        <time>2021-11-04T08:29:09.000Z</time>
      </trkpt>
      <trkpt lat="47.27791" lon="-2.35279">
        <ele>-21</ele>
        <time>2021-11-04T08:29:12.000Z</time>
      </trkpt>
      <trkpt lat="47.27794" lon="-2.35292">
        <ele>-21</ele>
        <time>2021-11-04T08:29:14.000Z</time>
      </trkpt>
      <trkpt lat="47.27802" lon="-2.35327">
        <ele>-21</ele>
        <time>2021-11-04T08:29:19.000Z</time>
      </trkpt>
      <trkpt lat="47.2781" lon="-2.35354">
        <ele>-21</ele>
        <time>2021-11-04T08:29:23.000Z</time>
      </trkpt>
      <trkpt lat="47.27818" lon="-2.35361">
        <ele>-21</ele>
        <time>2021-11-04T08:29:25.000Z</time>
      </trkpt>
      <trkpt lat="47.27836" lon="-2.35361">
        <ele>-21</ele>
        <time>2021-11-04T08:29:29.000Z</time>
      </trkpt>
      <trkpt lat="47.27862" lon="-2.35361">
        <ele>-21</ele>
        <time>2021-11-04T08:29:35.000Z</time>
      </trkpt>
      <trkpt lat="47.27875" lon="-2.35361">
        <ele>-21</ele>
        <time>2021-11-04T08:29:38.000Z</time>
      </trkpt>
      <trkpt lat="47.27883" lon="-2.35367">
        <ele>-21</ele>
        <time>2021-11-04T08:29:40.000Z</time>
      </trkpt>
      <trkpt lat="47.27893" lon="-2.35381">
        <ele>-21</ele>
        <time>2021-11-04T08:29:43.000Z</time>
      </trkpt>
      <trkpt lat="47.279" lon="-2.35389">
        <ele>-21</ele>
        <time>2021-11-04T08:29:45.000Z</time>
      </trkpt>
      <trkpt lat="47.27929" lon="-2.3543">
        <ele>-21</ele>
        <time>2021-11-04T08:29:54.000Z</time>
      </trkpt>
      <trkpt lat="47.27953" lon="-2.35456">
        <ele>-21</ele>
        <time>2021-11-04T08:30:01.000Z</time>
      </trkpt>
      <trkpt lat="47.27966" lon="-2.35463">
        <ele>-21</ele>
        <time>2021-11-04T08:30:04.000Z</time>
      </trkpt>
      <trkpt lat="47.27979" lon="-2.35471">
        <ele>-21</ele>
        <time>2021-11-04T08:30:07.000Z</time>
      </trkpt>
      <trkpt lat="47.27987" lon="-2.35491">
        <ele>-21</ele>
        <time>2021-11-04T08:30:10.000Z</time>
      </trkpt>
      <trkpt lat="47.27989" lon="-2.35498">
        <ele>-21</ele>
        <time>2021-11-04T08:30:11.000Z</time>
      </trkpt>
      <trkpt lat="47.28002" lon="-2.35529">
        <ele>-21</ele>
        <time>2021-11-04T08:30:17.000Z</time>
      </trkpt>
      <trkpt lat="47.28008" lon="-2.3555">
        <ele>-21</ele>
        <time>2021-11-04T08:30:22.000Z</time>
      </trkpt>
      <trkpt lat="47.28017" lon="-2.35566">
        <ele>-21</ele>
        <time>2021-11-04T08:30:27.000Z</time>
      </trkpt>
      <trkpt lat="47.28026" lon="-2.35567">
        <ele>-21</ele>
        <time>2021-11-04T08:30:30.000Z</time>
      </trkpt>
      <trkpt lat="47.2803" lon="-2.35568">
        <ele>-21</ele>
        <time>2021-11-04T08:30:31.000Z</time>
      </trkpt>
      <trkpt lat="47.28043" lon="-2.35578">
        <ele>-21</ele>
        <time>2021-11-04T08:30:35.000Z</time>
      </trkpt>
      <trkpt lat="47.28048" lon="-2.3558">
        <ele>-20.60000038147</ele>
        <time>2021-11-04T08:30:37.000Z</time>
      </trkpt>
      <trkpt lat="47.28051" lon="-2.35581">
        <ele>-20.200000762939</ele>
        <time>2021-11-04T08:30:38.000Z</time>
      </trkpt>
      <trkpt lat="47.28053" lon="-2.35583">
        <ele>-19.799999237061</ele>
        <time>2021-11-04T08:30:39.000Z</time>
      </trkpt>
      <trkpt lat="47.28056" lon="-2.35585">
        <ele>-19.39999961853</ele>
        <time>2021-11-04T08:30:40.000Z</time>
      </trkpt>
      <trkpt lat="47.28059" lon="-2.35585">
        <ele>-19</ele>
        <time>2021-11-04T08:30:41.000Z</time>
      </trkpt>
      <trkpt lat="47.28072" lon="-2.35595">
        <ele>-19</ele>
        <time>2021-11-04T08:30:47.000Z</time>
      </trkpt>
      <trkpt lat="47.28077" lon="-2.35603">
        <ele>-19</ele>
        <time>2021-11-04T08:30:53.000Z</time>
      </trkpt>
      <trkpt lat="47.28077" lon="-2.35606">
        <ele>-31.200000762939</ele>
        <time>2021-11-04T08:39:55.000Z</time>
      </trkpt>
      <trkpt lat="47.28074" lon="-2.35614">
        <ele>-31.200000762939</ele>
        <time>2021-11-04T08:39:59.000Z</time>
      </trkpt>
      <trkpt lat="47.28075" lon="-2.3563">
        <ele>-31.200000762939</ele>
        <time>2021-11-04T08:40:04.000Z</time>
      </trkpt>
      <trkpt lat="47.28078" lon="-2.35644">
        <ele>-31.200000762939</ele>
        <time>2021-11-04T08:40:09.000Z</time>
      </trkpt>
      <trkpt lat="47.28078" lon="-2.35647">
        <ele>-30.799999237061</ele>
        <time>2021-11-04T08:40:10.000Z</time>
      </trkpt>
      <trkpt lat="47.28079" lon="-2.35651">
        <ele>-30.39999961853</ele>
        <time>2021-11-04T08:40:11.000Z</time>
      </trkpt>
      <trkpt lat="47.2808" lon="-2.35654">
        <ele>-29.799999237061</ele>
        <time>2021-11-04T08:40:12.000Z</time>
      </trkpt>
      <trkpt lat="47.28081" lon="-2.35657">
        <ele>-29.39999961853</ele>
        <time>2021-11-04T08:40:13.000Z</time>
      </trkpt>
      <trkpt lat="47.28081" lon="-2.3566">
        <ele>-29</ele>
        <time>2021-11-04T08:40:14.000Z</time>
      </trkpt>
      <trkpt lat="47.28082" lon="-2.35663">
        <ele>-29</ele>
        <time>2021-11-04T08:40:15.000Z</time>
      </trkpt>
      <trkpt lat="47.28087" lon="-2.35677">
        <ele>-29</ele>
        <time>2021-11-04T08:40:20.000Z</time>
      </trkpt>
      <trkpt lat="47.28088" lon="-2.35679">
        <ele>-28.60000038147</ele>
        <time>2021-11-04T08:40:21.000Z</time>
      </trkpt>
      <trkpt lat="47.28089" lon="-2.35682">
        <ele>-28.200000762939</ele>
        <time>2021-11-04T08:40:22.000Z</time>
      </trkpt>
      <trkpt lat="47.28089" lon="-2.35685">
        <ele>-27.799999237061</ele>
        <time>2021-11-04T08:40:23.000Z</time>
      </trkpt>
      <trkpt lat="47.2809" lon="-2.35687">
        <ele>-27.200000762939</ele>
        <time>2021-11-04T08:40:24.000Z</time>
      </trkpt>
      <trkpt lat="47.2809" lon="-2.3569">
        <ele>-26.799999237061</ele>
        <time>2021-11-04T08:40:25.000Z</time>
      </trkpt>
      <trkpt lat="47.28091" lon="-2.35692">
        <ele>-26.799999237061</ele>
        <time>2021-11-04T08:40:26.000Z</time>
      </trkpt>
      <trkpt lat="47.28093" lon="-2.35714">
        <ele>-26.799999237061</ele>
        <time>2021-11-04T08:40:34.000Z</time>
      </trkpt>
      <trkpt lat="47.28088" lon="-2.35738">
        <ele>-26.799999237061</ele>
        <time>2021-11-04T08:40:39.000Z</time>
      </trkpt>
      <trkpt lat="47.28082" lon="-2.35775">
        <ele>-26.799999237061</ele>
        <time>2021-11-04T08:40:44.000Z</time>
      </trkpt>
      <trkpt lat="47.28077" lon="-2.358">
        <ele>-27.39999961853</ele>
        <time>2021-11-04T08:40:48.000Z</time>
      </trkpt>
      <trkpt lat="47.28079" lon="-2.35806">
        <ele>-27.799999237061</ele>
        <time>2021-11-04T08:40:49.000Z</time>
      </trkpt>
      <trkpt lat="47.28081" lon="-2.35811">
        <ele>-28.799999237061</ele>
        <time>2021-11-04T08:40:50.000Z</time>
      </trkpt>
      <trkpt lat="47.28084" lon="-2.35816">
        <ele>-29.39999961853</ele>
        <time>2021-11-04T08:40:51.000Z</time>
      </trkpt>
      <trkpt lat="47.28088" lon="-2.35821">
        <ele>-29.39999961853</ele>
        <time>2021-11-04T08:40:52.000Z</time>
      </trkpt>
      <trkpt lat="47.28099" lon="-2.35834">
        <ele>-29.39999961853</ele>
        <time>2021-11-04T08:40:56.000Z</time>
      </trkpt>
      <trkpt lat="47.28115" lon="-2.35861">
        <ele>-29.39999961853</ele>
        <time>2021-11-04T08:41:03.000Z</time>
      </trkpt>
      <trkpt lat="47.28126" lon="-2.3588">
        <ele>-29.39999961853</ele>
        <time>2021-11-04T08:41:08.000Z</time>
      </trkpt>
      <trkpt lat="47.28137" lon="-2.35902">
        <ele>-29.39999961853</ele>
        <time>2021-11-04T08:41:16.000Z</time>
      </trkpt>
      <trkpt lat="47.28145" lon="-2.35912">
        <ele>-29.39999961853</ele>
        <time>2021-11-04T08:41:21.000Z</time>
      </trkpt>
      <trkpt lat="47.28154" lon="-2.35925">
        <ele>-29.799999237061</ele>
        <time>2021-11-04T08:41:27.000Z</time>
      </trkpt>
      <trkpt lat="47.28156" lon="-2.35928">
        <ele>-30.200000762939</ele>
        <time>2021-11-04T08:41:28.000Z</time>
      </trkpt>
      <trkpt lat="47.28159" lon="-2.35931">
        <ele>-30.60000038147</ele>
        <time>2021-11-04T08:41:29.000Z</time>
      </trkpt>
      <trkpt lat="47.28161" lon="-2.35934">
        <ele>-31</ele>
        <time>2021-11-04T08:41:30.000Z</time>
      </trkpt>
      <trkpt lat="47.28163" lon="-2.35937">
        <ele>-31.39999961853</ele>
        <time>2021-11-04T08:41:31.000Z</time>
      </trkpt>
      <trkpt lat="47.28165" lon="-2.3594">
        <ele>-31.39999961853</ele>
        <time>2021-11-04T08:41:32.000Z</time>
      </trkpt>
      <trkpt lat="47.28168" lon="-2.35945">
        <ele>-31.39999961853</ele>
        <time>2021-11-04T08:41:35.000Z</time>
      </trkpt>
      <trkpt lat="47.2817" lon="-2.35946">
        <ele>-31.39999961853</ele>
        <time>2021-11-04T08:41:37.000Z</time>
      </trkpt>
      <trkpt lat="47.28175" lon="-2.35946">
        <ele>-31.39999961853</ele>
        <time>2021-11-04T08:41:42.000Z</time>
      </trkpt>
      <trkpt lat="47.28181" lon="-2.3596">
        <ele>-31.799999237061</ele>
        <time>2021-11-04T08:41:45.000Z</time>
      </trkpt>
      <trkpt lat="47.28182" lon="-2.35965">
        <ele>-32.400001525879</ele>
        <time>2021-11-04T08:41:46.000Z</time>
      </trkpt>
      <trkpt lat="47.28183" lon="-2.35973">
        <ele>-32.799999237061</ele>
        <time>2021-11-04T08:41:47.000Z</time>
      </trkpt>
      <trkpt lat="47.28185" lon="-2.35978">
        <ele>-33.200000762939</ele>
        <time>2021-11-04T08:41:48.000Z</time>
      </trkpt>
      <trkpt lat="47.28188" lon="-2.35984">
        <ele>-33.599998474121</ele>
        <time>2021-11-04T08:41:49.000Z</time>
      </trkpt>
      <trkpt lat="47.28192" lon="-2.35995">
        <ele>-33.599998474121</ele>
        <time>2021-11-04T08:41:51.000Z</time>
      </trkpt>
      <trkpt lat="47.28208" lon="-2.36019">
        <ele>-33.599998474121</ele>
        <time>2021-11-04T08:41:56.000Z</time>
      </trkpt>
      <trkpt lat="47.28218" lon="-2.36031">
        <ele>-33.599998474121</ele>
        <time>2021-11-04T08:42:01.000Z</time>
      </trkpt>
      <trkpt lat="47.28223" lon="-2.3603">
        <ele>-33.599998474121</ele>
        <time>2021-11-04T08:42:03.000Z</time>
      </trkpt>
      <trkpt lat="47.28227" lon="-2.36026">
        <ele>-33.599998474121</ele>
        <time>2021-11-04T08:42:05.000Z</time>
      </trkpt>
      <trkpt lat="47.28244" lon="-2.36018">
        <ele>-33.599998474121</ele>
        <time>2021-11-04T08:42:11.000Z</time>
      </trkpt>
      <trkpt lat="47.28247" lon="-2.36019">
        <ele>-33.599998474121</ele>
        <time>2021-11-04T08:42:12.000Z</time>
      </trkpt>
      <trkpt lat="47.28251" lon="-2.36025">
        <ele>-33.599998474121</ele>
        <time>2021-11-04T08:42:14.000Z</time>
      </trkpt>
      <trkpt lat="47.28249" lon="-2.3604">
        <ele>-33.599998474121</ele>
        <time>2021-11-04T08:42:18.000Z</time>
      </trkpt>
      <trkpt lat="47.28249" lon="-2.36051">
        <ele>-33.599998474121</ele>
        <time>2021-11-04T08:42:21.000Z</time>
      </trkpt>
      <trkpt lat="47.28249" lon="-2.36055">
        <ele>-33.200000762939</ele>
        <time>2021-11-04T08:42:22.000Z</time>
      </trkpt>
      <trkpt lat="47.28249" lon="-2.36058">
        <ele>-32.799999237061</ele>
        <time>2021-11-04T08:42:23.000Z</time>
      </trkpt>
      <trkpt lat="47.28249" lon="-2.36061">
        <ele>-32.400001525879</ele>
        <time>2021-11-04T08:42:24.000Z</time>
      </trkpt>
      <trkpt lat="47.28248" lon="-2.36062">
        <ele>-32</ele>
        <time>2021-11-04T08:42:25.000Z</time>
      </trkpt>
      <trkpt lat="47.28248" lon="-2.36063">
        <ele>-31.60000038147</ele>
        <time>2021-11-04T08:42:26.000Z</time>
      </trkpt>
      <trkpt lat="47.28247" lon="-2.36069">
        <ele>-31.60000038147</ele>
        <time>2021-11-04T08:42:54.000Z</time>
      </trkpt>
      <trkpt lat="47.28245" lon="-2.36077">
        <ele>-31.60000038147</ele>
        <time>2021-11-04T08:43:00.000Z</time>
      </trkpt>
      <trkpt lat="47.28243" lon="-2.36081">
        <ele>-31.60000038147</ele>
        <time>2021-11-04T08:43:02.000Z</time>
      </trkpt>
      <trkpt lat="47.28242" lon="-2.36089">
        <ele>-31.60000038147</ele>
        <time>2021-11-04T08:43:14.000Z</time>
      </trkpt>
      <trkpt lat="47.28242" lon="-2.36097">
        <ele>-31.60000038147</ele>
        <time>2021-11-04T08:43:16.000Z</time>
      </trkpt>
      <trkpt lat="47.28244" lon="-2.36106">
        <ele>-31.60000038147</ele>
        <time>2021-11-04T08:43:18.000Z</time>
      </trkpt>
      <trkpt lat="47.28251" lon="-2.3612">
        <ele>-31.60000038147</ele>
        <time>2021-11-04T08:43:21.000Z</time>
      </trkpt>
      <trkpt lat="47.28265" lon="-2.36153">
        <ele>-31.60000038147</ele>
        <time>2021-11-04T08:43:28.000Z</time>
      </trkpt>
      <trkpt lat="47.28268" lon="-2.36161">
        <ele>-32</ele>
        <time>2021-11-04T08:43:30.000Z</time>
      </trkpt>
      <trkpt lat="47.28269" lon="-2.36165">
        <ele>-32.400001525879</ele>
        <time>2021-11-04T08:43:31.000Z</time>
      </trkpt>
      <trkpt lat="47.28269" lon="-2.36171">
        <ele>-32.799999237061</ele>
        <time>2021-11-04T08:43:32.000Z</time>
      </trkpt>
      <trkpt lat="47.28269" lon="-2.36175">
        <ele>-33.200000762939</ele>
        <time>2021-11-04T08:43:33.000Z</time>
      </trkpt>
      <trkpt lat="47.28269" lon="-2.36179">
        <ele>-33.599998474121</ele>
        <time>2021-11-04T08:43:34.000Z</time>
      </trkpt>
      <trkpt lat="47.28272" lon="-2.36207">
        <ele>-33.599998474121</ele>
        <time>2021-11-04T08:43:39.000Z</time>
      </trkpt>
      <trkpt lat="47.28278" lon="-2.36228">
        <ele>-33.599998474121</ele>
        <time>2021-11-04T08:43:42.000Z</time>
      </trkpt>
      <trkpt lat="47.28285" lon="-2.3624">
        <ele>-34.599998474121</ele>
        <time>2021-11-04T08:43:44.000Z</time>
      </trkpt>
      <trkpt lat="47.28288" lon="-2.36244">
        <ele>-35</ele>
        <time>2021-11-04T08:43:45.000Z</time>
      </trkpt>
      <trkpt lat="47.28292" lon="-2.36246">
        <ele>-35.400001525879</ele>
        <time>2021-11-04T08:43:46.000Z</time>
      </trkpt>
      <trkpt lat="47.28296" lon="-2.36246">
        <ele>-35.799999237061</ele>
        <time>2021-11-04T08:43:47.000Z</time>
      </trkpt>
      <trkpt lat="47.283" lon="-2.36246">
        <ele>-35.799999237061</ele>
        <time>2021-11-04T08:43:48.000Z</time>
      </trkpt>
      <trkpt lat="47.28321" lon="-2.36252">
        <ele>-35.799999237061</ele>
        <time>2021-11-04T08:43:54.000Z</time>
      </trkpt>
      <trkpt lat="47.28343" lon="-2.36259">
        <ele>-35.799999237061</ele>
        <time>2021-11-04T08:44:01.000Z</time>
      </trkpt>
      <trkpt lat="47.28364" lon="-2.3627">
        <ele>-35.799999237061</ele>
        <time>2021-11-04T08:44:08.000Z</time>
      </trkpt>
      <trkpt lat="47.28366" lon="-2.36271">
        <ele>-35</ele>
        <time>2021-11-04T08:44:09.000Z</time>
      </trkpt>
      <trkpt lat="47.28368" lon="-2.36271">
        <ele>-34.599998474121</ele>
        <time>2021-11-04T08:44:10.000Z</time>
      </trkpt>
      <trkpt lat="47.28369" lon="-2.36272">
        <ele>-34.200000762939</ele>
        <time>2021-11-04T08:44:11.000Z</time>
      </trkpt>
      <trkpt lat="47.2837" lon="-2.36272">
        <ele>-33.799999237061</ele>
        <time>2021-11-04T08:44:12.000Z</time>
      </trkpt>
      <trkpt lat="47.28373" lon="-2.36273">
        <ele>-33.799999237061</ele>
        <time>2021-11-04T08:44:14.000Z</time>
      </trkpt>
      <trkpt lat="47.28377" lon="-2.36274">
        <ele>-33.799999237061</ele>
        <time>2021-11-04T08:44:17.000Z</time>
      </trkpt>
      <trkpt lat="47.28382" lon="-2.36277">
        <ele>-33.799999237061</ele>
        <time>2021-11-04T08:44:20.000Z</time>
      </trkpt>
      <trkpt lat="47.28394" lon="-2.36281">
        <ele>-33.799999237061</ele>
        <time>2021-11-04T08:44:26.000Z</time>
      </trkpt>
      <trkpt lat="47.28396" lon="-2.36281">
        <ele>-33.799999237061</ele>
        <time>2021-11-04T08:44:27.000Z</time>
      </trkpt>
      <trkpt lat="47.28405" lon="-2.36285">
        <ele>-33.200000762939</ele>
        <time>2021-11-04T08:44:30.000Z</time>
      </trkpt>
      <trkpt lat="47.28408" lon="-2.36286">
        <ele>-32.799999237061</ele>
        <time>2021-11-04T08:44:31.000Z</time>
      </trkpt>
      <trkpt lat="47.28411" lon="-2.36287">
        <ele>-32.400001525879</ele>
        <time>2021-11-04T08:44:32.000Z</time>
      </trkpt>
      <trkpt lat="47.28414" lon="-2.36287">
        <ele>-31.60000038147</ele>
        <time>2021-11-04T08:44:33.000Z</time>
      </trkpt>
      <trkpt lat="47.28416" lon="-2.36288">
        <ele>-31.60000038147</ele>
        <time>2021-11-04T08:44:34.000Z</time>
      </trkpt>
      <trkpt lat="47.28434" lon="-2.36294">
        <ele>-31.60000038147</ele>
        <time>2021-11-04T08:44:40.000Z</time>
      </trkpt>
      <trkpt lat="47.28451" lon="-2.36299">
        <ele>-31.200000762939</ele>
        <time>2021-11-04T08:44:46.000Z</time>
      </trkpt>
      <trkpt lat="47.28454" lon="-2.36299">
        <ele>-30.799999237061</ele>
        <time>2021-11-04T08:44:47.000Z</time>
      </trkpt>
      <trkpt lat="47.28456" lon="-2.36301">
        <ele>-30.39999961853</ele>
        <time>2021-11-04T08:44:48.000Z</time>
      </trkpt>
      <trkpt lat="47.28458" lon="-2.36302">
        <ele>-30</ele>
        <time>2021-11-04T08:44:49.000Z</time>
      </trkpt>
      <trkpt lat="47.2846" lon="-2.36305">
        <ele>-29.60000038147</ele>
        <time>2021-11-04T08:44:50.000Z</time>
      </trkpt>
      <trkpt lat="47.28462" lon="-2.36307">
        <ele>-29.60000038147</ele>
        <time>2021-11-04T08:44:51.000Z</time>
      </trkpt>
      <trkpt lat="47.28469" lon="-2.36335">
        <ele>-29.60000038147</ele>
        <time>2021-11-04T08:44:57.000Z</time>
      </trkpt>
      <trkpt lat="47.28468" lon="-2.36386">
        <ele>-29.60000038147</ele>
        <time>2021-11-04T08:45:05.000Z</time>
      </trkpt>
      <trkpt lat="47.28471" lon="-2.36414">
        <ele>-29.60000038147</ele>
        <time>2021-11-04T08:45:11.000Z</time>
      </trkpt>
      <trkpt lat="47.28473" lon="-2.36417">
        <ele>-29.60000038147</ele>
        <time>2021-11-04T08:45:12.000Z</time>
      </trkpt>
      <trkpt lat="47.28484" lon="-2.36427">
        <ele>-29.60000038147</ele>
        <time>2021-11-04T08:45:15.000Z</time>
      </trkpt>
      <trkpt lat="47.2851" lon="-2.36447">
        <ele>-29.60000038147</ele>
        <time>2021-11-04T08:45:21.000Z</time>
      </trkpt>
      <trkpt lat="47.28519" lon="-2.36465">
        <ele>-29.60000038147</ele>
        <time>2021-11-04T08:45:25.000Z</time>
      </trkpt>
      <trkpt lat="47.2852" lon="-2.36488">
        <ele>-29.60000038147</ele>
        <time>2021-11-04T08:45:29.000Z</time>
      </trkpt>
      <trkpt lat="47.2852" lon="-2.36503">
        <ele>-29.60000038147</ele>
        <time>2021-11-04T08:45:32.000Z</time>
      </trkpt>
      <trkpt lat="47.28518" lon="-2.36507">
        <ele>-29.60000038147</ele>
        <time>2021-11-04T08:45:33.000Z</time>
      </trkpt>
      <trkpt lat="47.28512" lon="-2.36516">
        <ele>-30</ele>
        <time>2021-11-04T08:45:35.000Z</time>
      </trkpt>
      <trkpt lat="47.28508" lon="-2.3652">
        <ele>-30.39999961853</ele>
        <time>2021-11-04T08:45:36.000Z</time>
      </trkpt>
      <trkpt lat="47.28504" lon="-2.36524">
        <ele>-30.799999237061</ele>
        <time>2021-11-04T08:45:37.000Z</time>
      </trkpt>
      <trkpt lat="47.285" lon="-2.36529">
        <ele>-31.200000762939</ele>
        <time>2021-11-04T08:45:38.000Z</time>
      </trkpt>
      <trkpt lat="47.28496" lon="-2.36533">
        <ele>-31.60000038147</ele>
        <time>2021-11-04T08:45:39.000Z</time>
      </trkpt>
      <trkpt lat="47.28472" lon="-2.36564">
        <ele>-31.60000038147</ele>
        <time>2021-11-04T08:45:45.000Z</time>
      </trkpt>
      <trkpt lat="47.2847" lon="-2.36569">
        <ele>-32</ele>
        <time>2021-11-04T08:45:46.000Z</time>
      </trkpt>
      <trkpt lat="47.2847" lon="-2.36575">
        <ele>-32.799999237061</ele>
        <time>2021-11-04T08:45:47.000Z</time>
      </trkpt>
      <trkpt lat="47.28471" lon="-2.36582">
        <ele>-33.400001525879</ele>
        <time>2021-11-04T08:45:48.000Z</time>
      </trkpt>
      <trkpt lat="47.28473" lon="-2.36588">
        <ele>-33.799999237061</ele>
        <time>2021-11-04T08:45:49.000Z</time>
      </trkpt>
      <trkpt lat="47.28481" lon="-2.36622">
        <ele>-33.799999237061</ele>
        <time>2021-11-04T08:45:55.000Z</time>
      </trkpt>
      <trkpt lat="47.28489" lon="-2.36644">
        <ele>-33.799999237061</ele>
        <time>2021-11-04T08:46:01.000Z</time>
      </trkpt>
      <trkpt lat="47.28497" lon="-2.36662">
        <ele>-33.799999237061</ele>
        <time>2021-11-04T08:46:09.000Z</time>
      </trkpt>
      <trkpt lat="47.2851" lon="-2.36668">
        <ele>-33.799999237061</ele>
        <time>2021-11-04T08:46:14.000Z</time>
      </trkpt>
      <trkpt lat="47.2853" lon="-2.36667">
        <ele>-33.799999237061</ele>
        <time>2021-11-04T08:46:19.000Z</time>
      </trkpt>
      <trkpt lat="47.28556" lon="-2.36667">
        <ele>-33.799999237061</ele>
        <time>2021-11-04T08:46:25.000Z</time>
      </trkpt>
      <trkpt lat="47.28579" lon="-2.36661">
        <ele>-33.799999237061</ele>
        <time>2021-11-04T08:46:31.000Z</time>
      </trkpt>
      <trkpt lat="47.28587" lon="-2.36649">
        <ele>-33.799999237061</ele>
        <time>2021-11-04T08:46:35.000Z</time>
      </trkpt>
      <trkpt lat="47.28594" lon="-2.36647">
        <ele>-33.799999237061</ele>
        <time>2021-11-04T08:46:40.000Z</time>
      </trkpt>
      <trkpt lat="47.28598" lon="-2.36645">
        <ele>-33.799999237061</ele>
        <time>2021-11-04T08:46:43.000Z</time>
      </trkpt>
      <trkpt lat="47.28601" lon="-2.36643">
        <ele>-33.200000762939</ele>
        <time>2021-11-04T08:46:45.000Z</time>
      </trkpt>
      <trkpt lat="47.28603" lon="-2.3664">
        <ele>-32.799999237061</ele>
        <time>2021-11-04T08:46:46.000Z</time>
      </trkpt>
      <trkpt lat="47.28605" lon="-2.36639">
        <ele>-32.400001525879</ele>
        <time>2021-11-04T08:46:47.000Z</time>
      </trkpt>
      <trkpt lat="47.28607" lon="-2.36638">
        <ele>-32</ele>
        <time>2021-11-04T08:46:48.000Z</time>
      </trkpt>
      <trkpt lat="47.28608" lon="-2.36637">
        <ele>-31.39999961853</ele>
        <time>2021-11-04T08:46:49.000Z</time>
      </trkpt>
      <trkpt lat="47.28611" lon="-2.36636">
        <ele>-31</ele>
        <time>2021-11-04T08:46:51.000Z</time>
      </trkpt>
      <trkpt lat="47.28614" lon="-2.36634">
        <ele>-30.60000038147</ele>
        <time>2021-11-04T08:46:52.000Z</time>
      </trkpt>
      <trkpt lat="47.28616" lon="-2.36633">
        <ele>-30.200000762939</ele>
        <time>2021-11-04T08:46:53.000Z</time>
      </trkpt>
      <trkpt lat="47.28618" lon="-2.36632">
        <ele>-29.60000038147</ele>
        <time>2021-11-04T08:46:54.000Z</time>
      </trkpt>
      <trkpt lat="47.2862" lon="-2.3663">
        <ele>-29.200000762939</ele>
        <time>2021-11-04T08:46:55.000Z</time>
      </trkpt>
      <trkpt lat="47.28625" lon="-2.36626">
        <ele>-28.799999237061</ele>
        <time>2021-11-04T08:46:58.000Z</time>
      </trkpt>
      <trkpt lat="47.28627" lon="-2.36625">
        <ele>-28.39999961853</ele>
        <time>2021-11-04T08:46:59.000Z</time>
      </trkpt>
      <trkpt lat="47.28629" lon="-2.36623">
        <ele>-28</ele>
        <time>2021-11-04T08:47:00.000Z</time>
      </trkpt>
      <trkpt lat="47.28631" lon="-2.36622">
        <ele>-27.200000762939</ele>
        <time>2021-11-04T08:47:01.000Z</time>
      </trkpt>
      <trkpt lat="47.28644" lon="-2.36614">
        <ele>-27.200000762939</ele>
        <time>2021-11-04T08:47:06.000Z</time>
      </trkpt>
      <trkpt lat="47.28665" lon="-2.3661">
        <ele>-27.200000762939</ele>
        <time>2021-11-04T08:47:13.000Z</time>
      </trkpt>
      <trkpt lat="47.28679" lon="-2.36602">
        <ele>-26.799999237061</ele>
        <time>2021-11-04T08:47:19.000Z</time>
      </trkpt>
      <trkpt lat="47.2868" lon="-2.36599">
        <ele>-26.200000762939</ele>
        <time>2021-11-04T08:47:20.000Z</time>
      </trkpt>
      <trkpt lat="47.28681" lon="-2.36597">
        <ele>-25.799999237061</ele>
        <time>2021-11-04T08:47:21.000Z</time>
      </trkpt>
      <trkpt lat="47.28682" lon="-2.36593">
        <ele>-25.39999961853</ele>
        <time>2021-11-04T08:47:22.000Z</time>
      </trkpt>
      <trkpt lat="47.28684" lon="-2.3659">
        <ele>-25</ele>
        <time>2021-11-04T08:47:23.000Z</time>
      </trkpt>
      <trkpt lat="47.28687" lon="-2.36583">
        <ele>-24.60000038147</ele>
        <time>2021-11-04T08:47:25.000Z</time>
      </trkpt>
      <trkpt lat="47.28688" lon="-2.3658">
        <ele>-24.200000762939</ele>
        <time>2021-11-04T08:47:26.000Z</time>
      </trkpt>
      <trkpt lat="47.28689" lon="-2.36578">
        <ele>-23.799999237061</ele>
        <time>2021-11-04T08:47:27.000Z</time>
      </trkpt>
      <trkpt lat="47.28691" lon="-2.36575">
        <ele>-23.39999961853</ele>
        <time>2021-11-04T08:47:28.000Z</time>
      </trkpt>
      <trkpt lat="47.28692" lon="-2.36573">
        <ele>-23</ele>
        <time>2021-11-04T08:47:29.000Z</time>
      </trkpt>
      <trkpt lat="47.28693" lon="-2.3657">
        <ele>-23</ele>
        <time>2021-11-04T08:47:30.000Z</time>
      </trkpt>
      <trkpt lat="47.28694" lon="-2.36565">
        <ele>-22.60000038147</ele>
        <time>2021-11-04T08:47:32.000Z</time>
      </trkpt>
      <trkpt lat="47.28693" lon="-2.36562">
        <ele>-22.200000762939</ele>
        <time>2021-11-04T08:47:33.000Z</time>
      </trkpt>
      <trkpt lat="47.28693" lon="-2.3656">
        <ele>-21.799999237061</ele>
        <time>2021-11-04T08:47:34.000Z</time>
      </trkpt>
      <trkpt lat="47.28693" lon="-2.36557">
        <ele>-21.39999961853</ele>
        <time>2021-11-04T08:47:35.000Z</time>
      </trkpt>
      <trkpt lat="47.28692" lon="-2.36555">
        <ele>-21</ele>
        <time>2021-11-04T08:47:36.000Z</time>
      </trkpt>
      <trkpt lat="47.28692" lon="-2.36549">
        <ele>-21</ele>
        <time>2021-11-04T08:47:38.000Z</time>
      </trkpt>
      <trkpt lat="47.2869" lon="-2.36537">
        <ele>-20.60000038147</ele>
        <time>2021-11-04T08:47:42.000Z</time>
      </trkpt>
      <trkpt lat="47.2869" lon="-2.36534">
        <ele>-20.200000762939</ele>
        <time>2021-11-04T08:47:43.000Z</time>
      </trkpt>
      <trkpt lat="47.2869" lon="-2.36531">
        <ele>-19.799999237061</ele>
        <time>2021-11-04T08:47:44.000Z</time>
      </trkpt>
      <trkpt lat="47.28689" lon="-2.36528">
        <ele>-19.200000762939</ele>
        <time>2021-11-04T08:47:45.000Z</time>
      </trkpt>
      <trkpt lat="47.28688" lon="-2.36524">
        <ele>-18.799999237061</ele>
        <time>2021-11-04T08:47:46.000Z</time>
      </trkpt>
      <trkpt lat="47.28687" lon="-2.36512">
        <ele>-18</ele>
        <time>2021-11-04T08:47:50.000Z</time>
      </trkpt>
      <trkpt lat="47.28687" lon="-2.36509">
        <ele>-17.60000038147</ele>
        <time>2021-11-04T08:47:51.000Z</time>
      </trkpt>
      <trkpt lat="47.28687" lon="-2.36506">
        <ele>-17.200000762939</ele>
        <time>2021-11-04T08:47:52.000Z</time>
      </trkpt>
      <trkpt lat="47.28687" lon="-2.36503">
        <ele>-16.799999237061</ele>
        <time>2021-11-04T08:47:53.000Z</time>
      </trkpt>
      <trkpt lat="47.28687" lon="-2.36488">
        <ele>-16.799999237061</ele>
        <time>2021-11-04T08:47:57.000Z</time>
      </trkpt>
      <trkpt lat="47.28687" lon="-2.3646">
        <ele>-16.799999237061</ele>
        <time>2021-11-04T08:48:04.000Z</time>
      </trkpt>
      <trkpt lat="47.28691" lon="-2.36429">
        <ele>-16.799999237061</ele>
        <time>2021-11-04T08:48:10.000Z</time>
      </trkpt>
      <trkpt lat="47.28691" lon="-2.36402">
        <ele>-16.799999237061</ele>
        <time>2021-11-04T08:48:14.000Z</time>
      </trkpt>
      <trkpt lat="47.28694" lon="-2.36381">
        <ele>-16.799999237061</ele>
        <time>2021-11-04T08:48:20.000Z</time>
      </trkpt>
      <trkpt lat="47.28697" lon="-2.36375">
        <ele>-17.200000762939</ele>
        <time>2021-11-04T08:48:22.000Z</time>
      </trkpt>
      <trkpt lat="47.28698" lon="-2.36373">
        <ele>-17.60000038147</ele>
        <time>2021-11-04T08:48:23.000Z</time>
      </trkpt>
      <trkpt lat="47.28699" lon="-2.36371">
        <ele>-18</ele>
        <time>2021-11-04T08:48:24.000Z</time>
      </trkpt>
      <trkpt lat="47.28699" lon="-2.36371">
        <ele>-18.39999961853</ele>
        <time>2021-11-04T08:48:25.000Z</time>
      </trkpt>
      <trkpt lat="47.28699" lon="-2.3636">
        <ele>-18.799999237061</ele>
        <time>2021-11-04T08:48:56.000Z</time>
      </trkpt>
      <trkpt lat="47.28699" lon="-2.36348">
        <ele>-19.200000762939</ele>
        <time>2021-11-04T08:48:59.000Z</time>
      </trkpt>
      <trkpt lat="47.28699" lon="-2.36344">
        <ele>-19.60000038147</ele>
        <time>2021-11-04T08:49:00.000Z</time>
      </trkpt>
      <trkpt lat="47.287" lon="-2.36339">
        <ele>-20</ele>
        <time>2021-11-04T08:49:01.000Z</time>
      </trkpt>
      <trkpt lat="47.28701" lon="-2.36334">
        <ele>-20.39999961853</ele>
        <time>2021-11-04T08:49:02.000Z</time>
      </trkpt>
      <trkpt lat="47.28701" lon="-2.36329">
        <ele>-20.799999237061</ele>
        <time>2021-11-04T08:49:03.000Z</time>
      </trkpt>
      <trkpt lat="47.28703" lon="-2.36319">
        <ele>-21.200000762939</ele>
        <time>2021-11-04T08:49:05.000Z</time>
      </trkpt>
      <trkpt lat="47.28704" lon="-2.36313">
        <ele>-21.799999237061</ele>
        <time>2021-11-04T08:49:06.000Z</time>
      </trkpt>
      <trkpt lat="47.28705" lon="-2.36307">
        <ele>-22.200000762939</ele>
        <time>2021-11-04T08:49:07.000Z</time>
      </trkpt>
      <trkpt lat="47.28707" lon="-2.363">
        <ele>-22.60000038147</ele>
        <time>2021-11-04T08:49:08.000Z</time>
      </trkpt>
      <trkpt lat="47.28707" lon="-2.36293">
        <ele>-23</ele>
        <time>2021-11-04T08:49:09.000Z</time>
      </trkpt>
      <trkpt lat="47.28713" lon="-2.36275">
        <ele>-23.60000038147</ele>
        <time>2021-11-04T08:49:12.000Z</time>
      </trkpt>
      <trkpt lat="47.28715" lon="-2.3627">
        <ele>-24</ele>
        <time>2021-11-04T08:49:13.000Z</time>
      </trkpt>
      <trkpt lat="47.28718" lon="-2.36266">
        <ele>-24.39999961853</ele>
        <time>2021-11-04T08:49:14.000Z</time>
      </trkpt>
      <trkpt lat="47.2872" lon="-2.36262">
        <ele>-25</ele>
        <time>2021-11-04T08:49:15.000Z</time>
      </trkpt>
      <trkpt lat="47.28721" lon="-2.3626">
        <ele>-25.39999961853</ele>
        <time>2021-11-04T08:49:16.000Z</time>
      </trkpt>
      <trkpt lat="47.28726" lon="-2.36251">
        <ele>-25.39999961853</ele>
        <time>2021-11-04T08:49:19.000Z</time>
      </trkpt>
      <trkpt lat="47.28736" lon="-2.36238">
        <ele>-25.39999961853</ele>
        <time>2021-11-04T08:49:23.000Z</time>
      </trkpt>
      <trkpt lat="47.28742" lon="-2.36229">
        <ele>-25.799999237061</ele>
        <time>2021-11-04T08:49:26.000Z</time>
      </trkpt>
      <trkpt lat="47.28745" lon="-2.36226">
        <ele>-26.200000762939</ele>
        <time>2021-11-04T08:49:27.000Z</time>
      </trkpt>
      <trkpt lat="47.28747" lon="-2.36225">
        <ele>-26.60000038147</ele>
        <time>2021-11-04T08:49:28.000Z</time>
      </trkpt>
      <trkpt lat="47.28749" lon="-2.36223">
        <ele>-27.39999961853</ele>
        <time>2021-11-04T08:49:29.000Z</time>
      </trkpt>
      <trkpt lat="47.2875" lon="-2.36222">
        <ele>-27.39999961853</ele>
        <time>2021-11-04T08:49:30.000Z</time>
      </trkpt>
      <trkpt lat="47.28751" lon="-2.36221">
        <ele>-27.39999961853</ele>
        <time>2021-11-04T08:49:31.000Z</time>
      </trkpt>
      <trkpt lat="47.28753" lon="-2.36219">
        <ele>-29.39999961853</ele>
        <time>2021-11-04T08:51:56.000Z</time>
      </trkpt>
      <trkpt lat="47.28756" lon="-2.36216">
        <ele>-29.39999961853</ele>
        <time>2021-11-04T08:51:58.000Z</time>
      </trkpt>
      <trkpt lat="47.28771" lon="-2.36201">
        <ele>-29.39999961853</ele>
        <time>2021-11-04T08:52:03.000Z</time>
      </trkpt>
      <trkpt lat="47.28797" lon="-2.36186">
        <ele>-29.39999961853</ele>
        <time>2021-11-04T08:52:08.000Z</time>
      </trkpt>
      <trkpt lat="47.28825" lon="-2.36163">
        <ele>-29.39999961853</ele>
        <time>2021-11-04T08:52:14.000Z</time>
      </trkpt>
      <trkpt lat="47.28849" lon="-2.3613">
        <ele>-29.39999961853</ele>
        <time>2021-11-04T08:52:20.000Z</time>
      </trkpt>
      <trkpt lat="47.28879" lon="-2.36099">
        <ele>-29.39999961853</ele>
        <time>2021-11-04T08:52:27.000Z</time>
      </trkpt>
      <trkpt lat="47.28901" lon="-2.36078">
        <ele>-29.39999961853</ele>
        <time>2021-11-04T08:52:32.000Z</time>
      </trkpt>
      <trkpt lat="47.28914" lon="-2.36065">
        <ele>-29.39999961853</ele>
        <time>2021-11-04T08:52:35.000Z</time>
      </trkpt>
      <trkpt lat="47.28947" lon="-2.36043">
        <ele>-29.39999961853</ele>
        <time>2021-11-04T08:52:42.000Z</time>
      </trkpt>
      <trkpt lat="47.28957" lon="-2.36036">
        <ele>-29.39999961853</ele>
        <time>2021-11-04T08:52:44.000Z</time>
      </trkpt>
      <trkpt lat="47.2898" lon="-2.36015">
        <ele>-29.39999961853</ele>
        <time>2021-11-04T08:52:49.000Z</time>
      </trkpt>
      <trkpt lat="47.29022" lon="-2.35972">
        <ele>-29.39999961853</ele>
        <time>2021-11-04T08:52:59.000Z</time>
      </trkpt>
      <trkpt lat="47.29056" lon="-2.35934">
        <ele>-29.39999961853</ele>
        <time>2021-11-04T08:53:07.000Z</time>
      </trkpt>
      <trkpt lat="47.29085" lon="-2.359">
        <ele>-29.39999961853</ele>
        <time>2021-11-04T08:53:15.000Z</time>
      </trkpt>
      <trkpt lat="47.29117" lon="-2.35862">
        <ele>-29.39999961853</ele>
        <time>2021-11-04T08:53:23.000Z</time>
      </trkpt>
      <trkpt lat="47.29154" lon="-2.35823">
        <ele>-29.39999961853</ele>
        <time>2021-11-04T08:53:32.000Z</time>
      </trkpt>
      <trkpt lat="47.29188" lon="-2.35802">
        <ele>-29.39999961853</ele>
        <time>2021-11-04T08:53:39.000Z</time>
      </trkpt>
      <trkpt lat="47.29228" lon="-2.35769">
        <ele>-29.39999961853</ele>
        <time>2021-11-04T08:53:48.000Z</time>
      </trkpt>
      <trkpt lat="47.29249" lon="-2.35743">
        <ele>-29.39999961853</ele>
        <time>2021-11-04T08:53:54.000Z</time>
      </trkpt>
      <trkpt lat="47.29258" lon="-2.35726">
        <ele>-29.39999961853</ele>
        <time>2021-11-04T08:53:59.000Z</time>
      </trkpt>
      <trkpt lat="47.2927" lon="-2.35731">
        <ele>-29.39999961853</ele>
        <time>2021-11-04T08:54:02.000Z</time>
      </trkpt>
      <trkpt lat="47.29275" lon="-2.35735">
        <ele>-29.39999961853</ele>
        <time>2021-11-04T08:54:03.000Z</time>
      </trkpt>
      <trkpt lat="47.29302" lon="-2.3576">
        <ele>-29.39999961853</ele>
        <time>2021-11-04T08:54:09.000Z</time>
      </trkpt>
      <trkpt lat="47.29324" lon="-2.35782">
        <ele>-29.799999237061</ele>
        <time>2021-11-04T08:54:14.000Z</time>
      </trkpt>
      <trkpt lat="47.29329" lon="-2.35786">
        <ele>-30.39999961853</ele>
        <time>2021-11-04T08:54:15.000Z</time>
      </trkpt>
      <trkpt lat="47.29333" lon="-2.3579">
        <ele>-30.799999237061</ele>
        <time>2021-11-04T08:54:16.000Z</time>
      </trkpt>
      <trkpt lat="47.29338" lon="-2.35795">
        <ele>-31.200000762939</ele>
        <time>2021-11-04T08:54:17.000Z</time>
      </trkpt>
      <trkpt lat="47.29342" lon="-2.358">
        <ele>-31.60000038147</ele>
        <time>2021-11-04T08:54:18.000Z</time>
      </trkpt>
      <trkpt lat="47.29364" lon="-2.3582">
        <ele>-31.60000038147</ele>
        <time>2021-11-04T08:54:23.000Z</time>
      </trkpt>
      <trkpt lat="47.29397" lon="-2.35852">
        <ele>-31.60000038147</ele>
        <time>2021-11-04T08:54:31.000Z</time>
      </trkpt>
      <trkpt lat="47.2941" lon="-2.35865">
        <ele>-31.60000038147</ele>
        <time>2021-11-04T08:54:34.000Z</time>
      </trkpt>
      <trkpt lat="47.29413" lon="-2.35869">
        <ele>-31.60000038147</ele>
        <time>2021-11-04T08:54:35.000Z</time>
      </trkpt>
      <trkpt lat="47.29437" lon="-2.359">
        <ele>-31.60000038147</ele>
        <time>2021-11-04T08:54:42.000Z</time>
      </trkpt>
      <trkpt lat="47.2945" lon="-2.35903">
        <ele>-31.60000038147</ele>
        <time>2021-11-04T08:54:46.000Z</time>
      </trkpt>
      <trkpt lat="47.29454" lon="-2.35903">
        <ele>-31.60000038147</ele>
        <time>2021-11-04T08:54:47.000Z</time>
      </trkpt>
      <trkpt lat="47.2947" lon="-2.35899">
        <ele>-31.60000038147</ele>
        <time>2021-11-04T08:54:51.000Z</time>
      </trkpt>
      <trkpt lat="47.29496" lon="-2.35897">
        <ele>-31.60000038147</ele>
        <time>2021-11-04T08:54:57.000Z</time>
      </trkpt>
      <trkpt lat="47.295" lon="-2.35901">
        <ele>-31.60000038147</ele>
        <time>2021-11-04T08:54:58.000Z</time>
      </trkpt>
      <trkpt lat="47.29508" lon="-2.35924">
        <ele>-31.60000038147</ele>
        <time>2021-11-04T08:55:02.000Z</time>
      </trkpt>
      <trkpt lat="47.29515" lon="-2.35941">
        <ele>-31.60000038147</ele>
        <time>2021-11-04T08:55:06.000Z</time>
      </trkpt>
      <trkpt lat="47.29518" lon="-2.35941">
        <ele>-31.60000038147</ele>
        <time>2021-11-04T08:55:07.000Z</time>
      </trkpt>
      <trkpt lat="47.29534" lon="-2.35932">
        <ele>-31.60000038147</ele>
        <time>2021-11-04T08:55:11.000Z</time>
      </trkpt>
      <trkpt lat="47.29543" lon="-2.35927">
        <ele>-31.60000038147</ele>
        <time>2021-11-04T08:55:13.000Z</time>
      </trkpt>
      <trkpt lat="47.29557" lon="-2.35918">
        <ele>-31.60000038147</ele>
        <time>2021-11-04T08:55:16.000Z</time>
      </trkpt>
      <trkpt lat="47.296" lon="-2.35894">
        <ele>-31.60000038147</ele>
        <time>2021-11-04T08:55:25.000Z</time>
      </trkpt>
      <trkpt lat="47.29634" lon="-2.35874">
        <ele>-31.60000038147</ele>
        <time>2021-11-04T08:55:32.000Z</time>
      </trkpt>
      <trkpt lat="47.29643" lon="-2.35867">
        <ele>-31.60000038147</ele>
        <time>2021-11-04T08:55:34.000Z</time>
      </trkpt>
      <trkpt lat="47.29654" lon="-2.35848">
        <ele>-31.60000038147</ele>
        <time>2021-11-04T08:55:37.000Z</time>
      </trkpt>
      <trkpt lat="47.29669" lon="-2.35835">
        <ele>-31.60000038147</ele>
        <time>2021-11-04T08:55:41.000Z</time>
      </trkpt>
      <trkpt lat="47.2968" lon="-2.35837">
        <ele>-31.60000038147</ele>
        <time>2021-11-04T08:55:43.000Z</time>
      </trkpt>
      <trkpt lat="47.29691" lon="-2.35837">
        <ele>-31.60000038147</ele>
        <time>2021-11-04T08:55:45.000Z</time>
      </trkpt>
      <trkpt lat="47.29697" lon="-2.35836">
        <ele>-31.60000038147</ele>
        <time>2021-11-04T08:55:46.000Z</time>
      </trkpt>
      <trkpt lat="47.29719" lon="-2.35826">
        <ele>-31.60000038147</ele>
        <time>2021-11-04T08:55:50.000Z</time>
      </trkpt>
      <trkpt lat="47.29759" lon="-2.35805">
        <ele>-31.60000038147</ele>
        <time>2021-11-04T08:55:58.000Z</time>
      </trkpt>
      <trkpt lat="47.29764" lon="-2.35803">
        <ele>-31.200000762939</ele>
        <time>2021-11-04T08:55:59.000Z</time>
      </trkpt>
      <trkpt lat="47.29768" lon="-2.35801">
        <ele>-30.799999237061</ele>
        <time>2021-11-04T08:56:00.000Z</time>
      </trkpt>
      <trkpt lat="47.29773" lon="-2.35799">
        <ele>-30.39999961853</ele>
        <time>2021-11-04T08:56:01.000Z</time>
      </trkpt>
      <trkpt lat="47.29778" lon="-2.35797">
        <ele>-29.60000038147</ele>
        <time>2021-11-04T08:56:02.000Z</time>
      </trkpt>
      <trkpt lat="47.29803" lon="-2.35789">
        <ele>-29.60000038147</ele>
        <time>2021-11-04T08:56:07.000Z</time>
      </trkpt>
      <trkpt lat="47.29851" lon="-2.35772">
        <ele>-29.60000038147</ele>
        <time>2021-11-04T08:56:16.000Z</time>
      </trkpt>
      <trkpt lat="47.29884" lon="-2.35759">
        <ele>-30</ele>
        <time>2021-11-04T08:56:22.000Z</time>
      </trkpt>
      <trkpt lat="47.29888" lon="-2.35757">
        <ele>-30.39999961853</ele>
        <time>2021-11-04T08:56:23.000Z</time>
      </trkpt>
      <trkpt lat="47.29891" lon="-2.35754">
        <ele>-31</ele>
        <time>2021-11-04T08:56:24.000Z</time>
      </trkpt>
      <trkpt lat="47.29894" lon="-2.35751">
        <ele>-31.39999961853</ele>
        <time>2021-11-04T08:56:25.000Z</time>
      </trkpt>
      <trkpt lat="47.29895" lon="-2.35747">
        <ele>-31.799999237061</ele>
        <time>2021-11-04T08:56:26.000Z</time>
      </trkpt>
      <trkpt lat="47.29892" lon="-2.35732">
        <ele>-31.799999237061</ele>
        <time>2021-11-04T08:56:29.000Z</time>
      </trkpt>
      <trkpt lat="47.29891" lon="-2.35726">
        <ele>-31.799999237061</ele>
        <time>2021-11-04T08:56:30.000Z</time>
      </trkpt>
      <trkpt lat="47.29882" lon="-2.35688">
        <ele>-31.799999237061</ele>
        <time>2021-11-04T08:56:36.000Z</time>
      </trkpt>
      <trkpt lat="47.29874" lon="-2.35636">
        <ele>-31.799999237061</ele>
        <time>2021-11-04T08:56:43.000Z</time>
      </trkpt>
      <trkpt lat="47.29863" lon="-2.35592">
        <ele>-31.799999237061</ele>
        <time>2021-11-04T08:56:49.000Z</time>
      </trkpt>
      <trkpt lat="47.29849" lon="-2.35543">
        <ele>-32.200000762939</ele>
        <time>2021-11-04T08:56:56.000Z</time>
      </trkpt>
      <trkpt lat="47.29847" lon="-2.35536">
        <ele>-32.599998474121</ele>
        <time>2021-11-04T08:56:57.000Z</time>
      </trkpt>
      <trkpt lat="47.29845" lon="-2.35529">
        <ele>-33</ele>
        <time>2021-11-04T08:56:58.000Z</time>
      </trkpt>
      <trkpt lat="47.29843" lon="-2.35522">
        <ele>-33.400001525879</ele>
        <time>2021-11-04T08:56:59.000Z</time>
      </trkpt>
      <trkpt lat="47.29841" lon="-2.35515">
        <ele>-33.799999237061</ele>
        <time>2021-11-04T08:57:00.000Z</time>
      </trkpt>
      <trkpt lat="47.29834" lon="-2.35492">
        <ele>-33.799999237061</ele>
        <time>2021-11-04T08:57:04.000Z</time>
      </trkpt>
      <trkpt lat="47.29829" lon="-2.35469">
        <ele>-33.799999237061</ele>
        <time>2021-11-04T08:57:08.000Z</time>
      </trkpt>
      <trkpt lat="47.2983" lon="-2.35462">
        <ele>-33.799999237061</ele>
        <time>2021-11-04T08:57:09.000Z</time>
      </trkpt>
      <trkpt lat="47.29839" lon="-2.35443">
        <ele>-33.799999237061</ele>
        <time>2021-11-04T08:57:12.000Z</time>
      </trkpt>
      <trkpt lat="47.29847" lon="-2.35433">
        <ele>-33.799999237061</ele>
        <time>2021-11-04T08:57:14.000Z</time>
      </trkpt>
      <trkpt lat="47.29856" lon="-2.35421">
        <ele>-34.200000762939</ele>
        <time>2021-11-04T08:57:16.000Z</time>
      </trkpt>
      <trkpt lat="47.2986" lon="-2.35416">
        <ele>-34.799999237061</ele>
        <time>2021-11-04T08:57:17.000Z</time>
      </trkpt>
      <trkpt lat="47.29865" lon="-2.35412">
        <ele>-35.200000762939</ele>
        <time>2021-11-04T08:57:18.000Z</time>
      </trkpt>
      <trkpt lat="47.2987" lon="-2.35407">
        <ele>-35.599998474121</ele>
        <time>2021-11-04T08:57:19.000Z</time>
      </trkpt>
      <trkpt lat="47.29875" lon="-2.35402">
        <ele>-36</ele>
        <time>2021-11-04T08:57:20.000Z</time>
      </trkpt>
      <trkpt lat="47.29893" lon="-2.35382">
        <ele>-36</ele>
        <time>2021-11-04T08:57:24.000Z</time>
      </trkpt>
      <trkpt lat="47.2993" lon="-2.35339">
        <ele>-36</ele>
        <time>2021-11-04T08:57:32.000Z</time>
      </trkpt>
      <trkpt lat="47.29968" lon="-2.35291">
        <ele>-36</ele>
        <time>2021-11-04T08:57:41.000Z</time>
      </trkpt>
      <trkpt lat="47.29994" lon="-2.35261">
        <ele>-36</ele>
        <time>2021-11-04T08:57:48.000Z</time>
      </trkpt>
      <trkpt lat="47.29997" lon="-2.35258">
        <ele>-36.400001525879</ele>
        <time>2021-11-04T08:57:49.000Z</time>
      </trkpt>
      <trkpt lat="47.3" lon="-2.35256">
        <ele>-36.799999237061</ele>
        <time>2021-11-04T08:57:50.000Z</time>
      </trkpt>
      <trkpt lat="47.30002" lon="-2.35255">
        <ele>-37.200000762939</ele>
        <time>2021-11-04T08:57:51.000Z</time>
      </trkpt>
      <trkpt lat="47.30004" lon="-2.35254">
        <ele>-37.599998474121</ele>
        <time>2021-11-04T08:57:52.000Z</time>
      </trkpt>
      <trkpt lat="47.30006" lon="-2.35254">
        <ele>-38</ele>
        <time>2021-11-04T08:57:53.000Z</time>
      </trkpt>
      <trkpt lat="47.30013" lon="-2.35251">
        <ele>-38</ele>
        <time>2021-11-04T08:57:58.000Z</time>
      </trkpt>
      <trkpt lat="47.3002" lon="-2.35247">
        <ele>-38</ele>
        <time>2021-11-04T08:58:07.000Z</time>
      </trkpt>
      <trkpt lat="47.30021" lon="-2.35246">
        <ele>-38</ele>
        <time>2021-11-04T08:58:10.000Z</time>
      </trkpt>
      <trkpt lat="47.30027" lon="-2.35244">
        <ele>-38</ele>
        <time>2021-11-04T08:58:16.000Z</time>
      </trkpt>
      <trkpt lat="47.3003" lon="-2.35241">
        <ele>-38</ele>
        <time>2021-11-04T08:58:18.000Z</time>
      </trkpt>
      <trkpt lat="47.30046" lon="-2.35232">
        <ele>-38</ele>
        <time>2021-11-04T08:58:23.000Z</time>
      </trkpt>
      <trkpt lat="47.30059" lon="-2.35223">
        <ele>-38</ele>
        <time>2021-11-04T08:58:28.000Z</time>
      </trkpt>
      <trkpt lat="47.30063" lon="-2.35223">
        <ele>-38</ele>
        <time>2021-11-04T08:58:30.000Z</time>
      </trkpt>
      <trkpt lat="47.30068" lon="-2.35221">
        <ele>-38</ele>
        <time>2021-11-04T08:58:32.000Z</time>
      </trkpt>
      <trkpt lat="47.30083" lon="-2.35214">
        <ele>-38</ele>
        <time>2021-11-04T08:58:36.000Z</time>
      </trkpt>
      <trkpt lat="47.30097" lon="-2.35208">
        <ele>-38</ele>
        <time>2021-11-04T08:58:39.000Z</time>
      </trkpt>
      <trkpt lat="47.30106" lon="-2.35204">
        <ele>-38</ele>
        <time>2021-11-04T08:58:41.000Z</time>
      </trkpt>
      <trkpt lat="47.30111" lon="-2.35201">
        <ele>-38</ele>
        <time>2021-11-04T08:58:42.000Z</time>
      </trkpt>
      <trkpt lat="47.30131" lon="-2.35193">
        <ele>-38</ele>
        <time>2021-11-04T08:58:46.000Z</time>
      </trkpt>
      <trkpt lat="47.3014" lon="-2.35192">
        <ele>-38</ele>
        <time>2021-11-04T08:58:50.000Z</time>
      </trkpt>
      <trkpt lat="47.30149" lon="-2.35193">
        <ele>-38</ele>
        <time>2021-11-04T08:58:57.000Z</time>
      </trkpt>
      <trkpt lat="47.30159" lon="-2.35185">
        <ele>-38</ele>
        <time>2021-11-04T08:59:02.000Z</time>
      </trkpt>
      <trkpt lat="47.30177" lon="-2.35174">
        <ele>-38</ele>
        <time>2021-11-04T08:59:07.000Z</time>
      </trkpt>
      <trkpt lat="47.30196" lon="-2.35169">
        <ele>-38</ele>
        <time>2021-11-04T08:59:11.000Z</time>
      </trkpt>
      <trkpt lat="47.30201" lon="-2.35166">
        <ele>-38</ele>
        <time>2021-11-04T08:59:12.000Z</time>
      </trkpt>
      <trkpt lat="47.3021" lon="-2.35145">
        <ele>-38</ele>
        <time>2021-11-04T08:59:16.000Z</time>
      </trkpt>
      <trkpt lat="47.30208" lon="-2.35126">
        <ele>-38</ele>
        <time>2021-11-04T08:59:19.000Z</time>
      </trkpt>
      <trkpt lat="47.30209" lon="-2.3512">
        <ele>-38</ele>
        <time>2021-11-04T08:59:20.000Z</time>
      </trkpt>
      <trkpt lat="47.30209" lon="-2.35113">
        <ele>-38</ele>
        <time>2021-11-04T08:59:21.000Z</time>
      </trkpt>
      <trkpt lat="47.3021" lon="-2.35093">
        <ele>-37.599998474121</ele>
        <time>2021-11-04T08:59:24.000Z</time>
      </trkpt>
      <trkpt lat="47.3021" lon="-2.35086">
        <ele>-37.200000762939</ele>
        <time>2021-11-04T08:59:25.000Z</time>
      </trkpt>
      <trkpt lat="47.3021" lon="-2.35079">
        <ele>-36.799999237061</ele>
        <time>2021-11-04T08:59:26.000Z</time>
      </trkpt>
      <trkpt lat="47.3021" lon="-2.35073">
        <ele>-36.400001525879</ele>
        <time>2021-11-04T08:59:27.000Z</time>
      </trkpt>
      <trkpt lat="47.3021" lon="-2.35065">
        <ele>-36</ele>
        <time>2021-11-04T08:59:28.000Z</time>
      </trkpt>
      <trkpt lat="47.30209" lon="-2.35031">
        <ele>-36</ele>
        <time>2021-11-04T08:59:33.000Z</time>
      </trkpt>
      <trkpt lat="47.30208" lon="-2.35009">
        <ele>-36</ele>
        <time>2021-11-04T08:59:36.000Z</time>
      </trkpt>
      <trkpt lat="47.30207" lon="-2.34989">
        <ele>-36</ele>
        <time>2021-11-04T08:59:39.000Z</time>
      </trkpt>
      <trkpt lat="47.30207" lon="-2.34971">
        <ele>-35.599998474121</ele>
        <time>2021-11-04T08:59:42.000Z</time>
      </trkpt>
      <trkpt lat="47.30207" lon="-2.34965">
        <ele>-35.200000762939</ele>
        <time>2021-11-04T08:59:43.000Z</time>
      </trkpt>
      <trkpt lat="47.30207" lon="-2.34958">
        <ele>-34.200000762939</ele>
        <time>2021-11-04T08:59:44.000Z</time>
      </trkpt>
      <trkpt lat="47.30208" lon="-2.34952">
        <ele>-33.799999237061</ele>
        <time>2021-11-04T08:59:45.000Z</time>
      </trkpt>
      <trkpt lat="47.30207" lon="-2.3494">
        <ele>-33.799999237061</ele>
        <time>2021-11-04T08:59:47.000Z</time>
      </trkpt>
      <trkpt lat="47.30211" lon="-2.34906">
        <ele>-33.799999237061</ele>
        <time>2021-11-04T08:59:53.000Z</time>
      </trkpt>
      <trkpt lat="47.30215" lon="-2.34903">
        <ele>-33.799999237061</ele>
        <time>2021-11-04T08:59:54.000Z</time>
      </trkpt>
      <trkpt lat="47.30222" lon="-2.34896">
        <ele>-33.799999237061</ele>
        <time>2021-11-04T08:59:56.000Z</time>
      </trkpt>
      <trkpt lat="47.30243" lon="-2.34878">
        <ele>-33.799999237061</ele>
        <time>2021-11-04T09:00:01.000Z</time>
      </trkpt>
      <trkpt lat="47.30267" lon="-2.34861">
        <ele>-33.799999237061</ele>
        <time>2021-11-04T09:00:07.000Z</time>
      </trkpt>
      <trkpt lat="47.30277" lon="-2.34856">
        <ele>-33.799999237061</ele>
        <time>2021-11-04T09:00:09.000Z</time>
      </trkpt>
      <trkpt lat="47.3029" lon="-2.34847">
        <ele>-33.799999237061</ele>
        <time>2021-11-04T09:00:12.000Z</time>
      </trkpt>
      <trkpt lat="47.30306" lon="-2.3483">
        <ele>-33.799999237061</ele>
        <time>2021-11-04T09:00:16.000Z</time>
      </trkpt>
      <trkpt lat="47.3031" lon="-2.34826">
        <ele>-33.799999237061</ele>
        <time>2021-11-04T09:00:17.000Z</time>
      </trkpt>
      <trkpt lat="47.30313" lon="-2.34822">
        <ele>-33.400001525879</ele>
        <time>2021-11-04T09:00:18.000Z</time>
      </trkpt>
      <trkpt lat="47.30316" lon="-2.34817">
        <ele>-33</ele>
        <time>2021-11-04T09:00:19.000Z</time>
      </trkpt>
      <trkpt lat="47.30319" lon="-2.34811">
        <ele>-32.599998474121</ele>
        <time>2021-11-04T09:00:20.000Z</time>
      </trkpt>
      <trkpt lat="47.30322" lon="-2.34805">
        <ele>-32.200000762939</ele>
        <time>2021-11-04T09:00:21.000Z</time>
      </trkpt>
      <trkpt lat="47.30325" lon="-2.34799">
        <ele>-31.799999237061</ele>
        <time>2021-11-04T09:00:22.000Z</time>
      </trkpt>
      <trkpt lat="47.30333" lon="-2.34784">
        <ele>-31.799999237061</ele>
        <time>2021-11-04T09:00:25.000Z</time>
      </trkpt>
      <trkpt lat="47.30343" lon="-2.34773">
        <ele>-31.799999237061</ele>
        <time>2021-11-04T09:00:28.000Z</time>
      </trkpt>
      <trkpt lat="47.30351" lon="-2.34768">
        <ele>-31.799999237061</ele>
        <time>2021-11-04T09:00:30.000Z</time>
      </trkpt>
      <trkpt lat="47.30369" lon="-2.34756">
        <ele>-31.799999237061</ele>
        <time>2021-11-04T09:00:34.000Z</time>
      </trkpt>
      <trkpt lat="47.30373" lon="-2.34752">
        <ele>-31.799999237061</ele>
        <time>2021-11-04T09:00:35.000Z</time>
      </trkpt>
      <trkpt lat="47.30392" lon="-2.3474">
        <ele>-31.799999237061</ele>
        <time>2021-11-04T09:00:39.000Z</time>
      </trkpt>
      <trkpt lat="47.30409" lon="-2.34726">
        <ele>-31.799999237061</ele>
        <time>2021-11-04T09:00:43.000Z</time>
      </trkpt>
      <trkpt lat="47.30419" lon="-2.34717">
        <ele>-31.799999237061</ele>
        <time>2021-11-04T09:00:45.000Z</time>
      </trkpt>
      <trkpt lat="47.30449" lon="-2.3469">
        <ele>-31.799999237061</ele>
        <time>2021-11-04T09:00:51.000Z</time>
      </trkpt>
      <trkpt lat="47.30479" lon="-2.34658">
        <ele>-31.799999237061</ele>
        <time>2021-11-04T09:00:57.000Z</time>
      </trkpt>
      <trkpt lat="47.30493" lon="-2.34641">
        <ele>-31.799999237061</ele>
        <time>2021-11-04T09:01:00.000Z</time>
      </trkpt>
      <trkpt lat="47.30499" lon="-2.34631">
        <ele>-31.799999237061</ele>
        <time>2021-11-04T09:01:02.000Z</time>
      </trkpt>
      <trkpt lat="47.30516" lon="-2.34602">
        <ele>-31.799999237061</ele>
        <time>2021-11-04T09:01:08.000Z</time>
      </trkpt>
      <trkpt lat="47.30527" lon="-2.34587">
        <ele>-31.799999237061</ele>
        <time>2021-11-04T09:01:11.000Z</time>
      </trkpt>
      <trkpt lat="47.30537" lon="-2.34572">
        <ele>-31.799999237061</ele>
        <time>2021-11-04T09:01:14.000Z</time>
      </trkpt>
      <trkpt lat="47.30558" lon="-2.34539">
        <ele>-31.799999237061</ele>
        <time>2021-11-04T09:01:20.000Z</time>
      </trkpt>
      <trkpt lat="47.30578" lon="-2.34503">
        <ele>-31.799999237061</ele>
        <time>2021-11-04T09:01:27.000Z</time>
      </trkpt>
      <trkpt lat="47.30595" lon="-2.34471">
        <ele>-31.799999237061</ele>
        <time>2021-11-04T09:01:33.000Z</time>
      </trkpt>
      <trkpt lat="47.30617" lon="-2.34438">
        <ele>-31.799999237061</ele>
        <time>2021-11-04T09:01:39.000Z</time>
      </trkpt>
      <trkpt lat="47.30642" lon="-2.34409">
        <ele>-31.799999237061</ele>
        <time>2021-11-04T09:01:45.000Z</time>
      </trkpt>
      <trkpt lat="47.30645" lon="-2.34404">
        <ele>-31.799999237061</ele>
        <time>2021-11-04T09:01:46.000Z</time>
      </trkpt>
      <trkpt lat="47.30649" lon="-2.34396">
        <ele>-31.799999237061</ele>
        <time>2021-11-04T09:01:47.000Z</time>
      </trkpt>
      <trkpt lat="47.30663" lon="-2.34371">
        <ele>-31.799999237061</ele>
        <time>2021-11-04T09:01:51.000Z</time>
      </trkpt>
      <trkpt lat="47.30689" lon="-2.34323">
        <ele>-31.799999237061</ele>
        <time>2021-11-04T09:01:58.000Z</time>
      </trkpt>
      <trkpt lat="47.30705" lon="-2.34293">
        <ele>-31.799999237061</ele>
        <time>2021-11-04T09:02:02.000Z</time>
      </trkpt>
      <trkpt lat="47.30717" lon="-2.34266">
        <ele>-31.799999237061</ele>
        <time>2021-11-04T09:02:05.000Z</time>
      </trkpt>
      <trkpt lat="47.30721" lon="-2.34248">
        <ele>-31.799999237061</ele>
        <time>2021-11-04T09:02:07.000Z</time>
      </trkpt>
      <trkpt lat="47.30723" lon="-2.34232">
        <ele>-31.799999237061</ele>
        <time>2021-11-04T09:02:09.000Z</time>
      </trkpt>
      <trkpt lat="47.30725" lon="-2.34226">
        <ele>-31.799999237061</ele>
        <time>2021-11-04T09:02:10.000Z</time>
      </trkpt>
      <trkpt lat="47.3073" lon="-2.34224">
        <ele>-31.799999237061</ele>
        <time>2021-11-04T09:02:11.000Z</time>
      </trkpt>
      <trkpt lat="47.30744" lon="-2.34223">
        <ele>-31.799999237061</ele>
        <time>2021-11-04T09:02:14.000Z</time>
      </trkpt>
      <trkpt lat="47.3076" lon="-2.34217">
        <ele>-31.799999237061</ele>
        <time>2021-11-04T09:02:17.000Z</time>
      </trkpt>
      <trkpt lat="47.30765" lon="-2.34212">
        <ele>-31.799999237061</ele>
        <time>2021-11-04T09:02:18.000Z</time>
      </trkpt>
      <trkpt lat="47.30767" lon="-2.34197">
        <ele>-31.799999237061</ele>
        <time>2021-11-04T09:02:20.000Z</time>
      </trkpt>
      <trkpt lat="47.30768" lon="-2.34175">
        <ele>-31.799999237061</ele>
        <time>2021-11-04T09:02:23.000Z</time>
      </trkpt>
      <trkpt lat="47.30767" lon="-2.34159">
        <ele>-31.799999237061</ele>
        <time>2021-11-04T09:02:25.000Z</time>
      </trkpt>
      <trkpt lat="47.30771" lon="-2.34101">
        <ele>-31.799999237061</ele>
        <time>2021-11-04T09:02:32.000Z</time>
      </trkpt>
      <trkpt lat="47.30776" lon="-2.34049">
        <ele>-31.799999237061</ele>
        <time>2021-11-04T09:02:38.000Z</time>
      </trkpt>
      <trkpt lat="47.30779" lon="-2.34009">
        <ele>-31.799999237061</ele>
        <time>2021-11-04T09:02:43.000Z</time>
      </trkpt>
      <trkpt lat="47.30784" lon="-2.33976">
        <ele>-31.799999237061</ele>
        <time>2021-11-04T09:02:48.000Z</time>
      </trkpt>
      <trkpt lat="47.30795" lon="-2.33967">
        <ele>-31.799999237061</ele>
        <time>2021-11-04T09:02:51.000Z</time>
      </trkpt>
      <trkpt lat="47.308" lon="-2.33965">
        <ele>-31.799999237061</ele>
        <time>2021-11-04T09:02:52.000Z</time>
      </trkpt>
      <trkpt lat="47.30818" lon="-2.33959">
        <ele>-31.799999237061</ele>
        <time>2021-11-04T09:02:55.000Z</time>
      </trkpt>
      <trkpt lat="47.30864" lon="-2.33949">
        <ele>-31.799999237061</ele>
        <time>2021-11-04T09:03:02.000Z</time>
      </trkpt>
      <trkpt lat="47.30914" lon="-2.33944">
        <ele>-31.799999237061</ele>
        <time>2021-11-04T09:03:10.000Z</time>
      </trkpt>
      <trkpt lat="47.30957" lon="-2.33948">
        <ele>-31.799999237061</ele>
        <time>2021-11-04T09:03:17.000Z</time>
      </trkpt>
      <trkpt lat="47.30975" lon="-2.33951">
        <ele>-32.200000762939</ele>
        <time>2021-11-04T09:03:20.000Z</time>
      </trkpt>
      <trkpt lat="47.30982" lon="-2.33952">
        <ele>-32.599998474121</ele>
        <time>2021-11-04T09:03:21.000Z</time>
      </trkpt>
      <trkpt lat="47.30988" lon="-2.33952">
        <ele>-33</ele>
        <time>2021-11-04T09:03:22.000Z</time>
      </trkpt>
      <trkpt lat="47.30994" lon="-2.33952">
        <ele>-33.599998474121</ele>
        <time>2021-11-04T09:03:23.000Z</time>
      </trkpt>
      <trkpt lat="47.31" lon="-2.33952">
        <ele>-34</ele>
        <time>2021-11-04T09:03:24.000Z</time>
      </trkpt>
      <trkpt lat="47.31047" lon="-2.33946">
        <ele>-34</ele>
        <time>2021-11-04T09:03:32.000Z</time>
      </trkpt>
      <trkpt lat="47.31052" lon="-2.33945">
        <ele>-34.400001525879</ele>
        <time>2021-11-04T09:03:33.000Z</time>
      </trkpt>
      <trkpt lat="47.31057" lon="-2.33945">
        <ele>-34.799999237061</ele>
        <time>2021-11-04T09:03:34.000Z</time>
      </trkpt>
      <trkpt lat="47.31062" lon="-2.33942">
        <ele>-35.200000762939</ele>
        <time>2021-11-04T09:03:35.000Z</time>
      </trkpt>
      <trkpt lat="47.31064" lon="-2.33935">
        <ele>-35.599998474121</ele>
        <time>2021-11-04T09:03:36.000Z</time>
      </trkpt>
      <trkpt lat="47.31064" lon="-2.33928">
        <ele>-36</ele>
        <time>2021-11-04T09:03:37.000Z</time>
      </trkpt>
      <trkpt lat="47.31064" lon="-2.33912">
        <ele>-36</ele>
        <time>2021-11-04T09:03:39.000Z</time>
      </trkpt>
      <trkpt lat="47.31064" lon="-2.33904">
        <ele>-36</ele>
        <time>2021-11-04T09:03:40.000Z</time>
      </trkpt>
      <trkpt lat="47.31065" lon="-2.3388">
        <ele>-36</ele>
        <time>2021-11-04T09:03:43.000Z</time>
      </trkpt>
      <trkpt lat="47.31065" lon="-2.33863">
        <ele>-36</ele>
        <time>2021-11-04T09:03:45.000Z</time>
      </trkpt>
      <trkpt lat="47.31071" lon="-2.33808">
        <ele>-36</ele>
        <time>2021-11-04T09:03:52.000Z</time>
      </trkpt>
      <trkpt lat="47.31073" lon="-2.338">
        <ele>-36</ele>
        <time>2021-11-04T09:03:53.000Z</time>
      </trkpt>
      <trkpt lat="47.31082" lon="-2.33779">
        <ele>-36</ele>
        <time>2021-11-04T09:03:56.000Z</time>
      </trkpt>
      <trkpt lat="47.31085" lon="-2.3377">
        <ele>-36</ele>
        <time>2021-11-04T09:03:57.000Z</time>
      </trkpt>
      <trkpt lat="47.31096" lon="-2.33738">
        <ele>-36</ele>
        <time>2021-11-04T09:04:01.000Z</time>
      </trkpt>
      <trkpt lat="47.31098" lon="-2.33729">
        <ele>-36</ele>
        <time>2021-11-04T09:04:02.000Z</time>
      </trkpt>
      <trkpt lat="47.31104" lon="-2.33683">
        <ele>-36</ele>
        <time>2021-11-04T09:04:08.000Z</time>
      </trkpt>
      <trkpt lat="47.31109" lon="-2.33641">
        <ele>-36</ele>
        <time>2021-11-04T09:04:14.000Z</time>
      </trkpt>
      <trkpt lat="47.31113" lon="-2.33588">
        <ele>-36</ele>
        <time>2021-11-04T09:04:21.000Z</time>
      </trkpt>
      <trkpt lat="47.31112" lon="-2.33559">
        <ele>-36</ele>
        <time>2021-11-04T09:04:25.000Z</time>
      </trkpt>
      <trkpt lat="47.31112" lon="-2.33549">
        <ele>-36</ele>
        <time>2021-11-04T09:04:27.000Z</time>
      </trkpt>
      <trkpt lat="47.3111" lon="-2.3353">
        <ele>-36</ele>
        <time>2021-11-04T09:04:30.000Z</time>
      </trkpt>
      <trkpt lat="47.31107" lon="-2.33513">
        <ele>-36</ele>
        <time>2021-11-04T09:04:32.000Z</time>
      </trkpt>
      <trkpt lat="47.311" lon="-2.33458">
        <ele>-36</ele>
        <time>2021-11-04T09:04:37.000Z</time>
      </trkpt>
      <trkpt lat="47.31098" lon="-2.33417">
        <ele>-36.799999237061</ele>
        <time>2021-11-04T09:04:41.000Z</time>
      </trkpt>
      <trkpt lat="47.31098" lon="-2.33407">
        <ele>-37.200000762939</ele>
        <time>2021-11-04T09:04:42.000Z</time>
      </trkpt>
      <trkpt lat="47.31098" lon="-2.33396">
        <ele>-37.799999237061</ele>
        <time>2021-11-04T09:04:43.000Z</time>
      </trkpt>
      <trkpt lat="47.31098" lon="-2.33387">
        <ele>-38.200000762939</ele>
        <time>2021-11-04T09:04:44.000Z</time>
      </trkpt>
      <trkpt lat="47.31098" lon="-2.33309">
        <ele>-38.200000762939</ele>
        <time>2021-11-04T09:04:52.000Z</time>
      </trkpt>
      <trkpt lat="47.31102" lon="-2.33263">
        <ele>-38.599998474121</ele>
        <time>2021-11-04T09:04:57.000Z</time>
      </trkpt>
      <trkpt lat="47.31103" lon="-2.33254">
        <ele>-39</ele>
        <time>2021-11-04T09:04:58.000Z</time>
      </trkpt>
      <trkpt lat="47.31104" lon="-2.33246">
        <ele>-39.400001525879</ele>
        <time>2021-11-04T09:04:59.000Z</time>
      </trkpt>
      <trkpt lat="47.31105" lon="-2.33237">
        <ele>-39.799999237061</ele>
        <time>2021-11-04T09:05:00.000Z</time>
      </trkpt>
      <trkpt lat="47.31106" lon="-2.33229">
        <ele>-40.200000762939</ele>
        <time>2021-11-04T09:05:01.000Z</time>
      </trkpt>
      <trkpt lat="47.31113" lon="-2.33207">
        <ele>-40.200000762939</ele>
        <time>2021-11-04T09:05:04.000Z</time>
      </trkpt>
      <trkpt lat="47.31117" lon="-2.33202">
        <ele>-40.200000762939</ele>
        <time>2021-11-04T09:05:05.000Z</time>
      </trkpt>
      <trkpt lat="47.31132" lon="-2.33193">
        <ele>-40.200000762939</ele>
        <time>2021-11-04T09:05:08.000Z</time>
      </trkpt>
      <trkpt lat="47.31143" lon="-2.33187">
        <ele>-40.200000762939</ele>
        <time>2021-11-04T09:05:10.000Z</time>
      </trkpt>
      <trkpt lat="47.31154" lon="-2.3318">
        <ele>-40.200000762939</ele>
        <time>2021-11-04T09:05:12.000Z</time>
      </trkpt>
      <trkpt lat="47.31176" lon="-2.33164">
        <ele>-40.200000762939</ele>
        <time>2021-11-04T09:05:16.000Z</time>
      </trkpt>
      <trkpt lat="47.3118" lon="-2.3316">
        <ele>-40.599998474121</ele>
        <time>2021-11-04T09:05:17.000Z</time>
      </trkpt>
      <trkpt lat="47.31185" lon="-2.33155">
        <ele>-41</ele>
        <time>2021-11-04T09:05:18.000Z</time>
      </trkpt>
      <trkpt lat="47.31191" lon="-2.33152">
        <ele>-41.400001525879</ele>
        <time>2021-11-04T09:05:19.000Z</time>
      </trkpt>
      <trkpt lat="47.31197" lon="-2.3315">
        <ele>-42</ele>
        <time>2021-11-04T09:05:20.000Z</time>
      </trkpt>
      <trkpt lat="47.31204" lon="-2.33148">
        <ele>-42.400001525879</ele>
        <time>2021-11-04T09:05:21.000Z</time>
      </trkpt>
      <trkpt lat="47.3121" lon="-2.33146">
        <ele>-42.400001525879</ele>
        <time>2021-11-04T09:05:22.000Z</time>
      </trkpt>
      <trkpt lat="47.31228" lon="-2.33145">
        <ele>-42.400001525879</ele>
        <time>2021-11-04T09:05:25.000Z</time>
      </trkpt>
      <trkpt lat="47.31236" lon="-2.33146">
        <ele>-42.400001525879</ele>
        <time>2021-11-04T09:05:26.000Z</time>
      </trkpt>
      <trkpt lat="47.31262" lon="-2.33152">
        <ele>-42.400001525879</ele>
        <time>2021-11-04T09:05:30.000Z</time>
      </trkpt>
      <trkpt lat="47.31302" lon="-2.33173">
        <ele>-42.400001525879</ele>
        <time>2021-11-04T09:05:37.000Z</time>
      </trkpt>
      <trkpt lat="47.31341" lon="-2.33209">
        <ele>-42.400001525879</ele>
        <time>2021-11-04T09:05:45.000Z</time>
      </trkpt>
      <trkpt lat="47.31376" lon="-2.33237">
        <ele>-42.400001525879</ele>
        <time>2021-11-04T09:05:52.000Z</time>
      </trkpt>
      <trkpt lat="47.31418" lon="-2.33267">
        <ele>-42.400001525879</ele>
        <time>2021-11-04T09:06:00.000Z</time>
      </trkpt>
      <trkpt lat="47.31445" lon="-2.33295">
        <ele>-42.400001525879</ele>
        <time>2021-11-04T09:06:06.000Z</time>
      </trkpt>
      <trkpt lat="47.31456" lon="-2.33313">
        <ele>-42.400001525879</ele>
        <time>2021-11-04T09:06:09.000Z</time>
      </trkpt>
      <trkpt lat="47.31463" lon="-2.33325">
        <ele>-42.400001525879</ele>
        <time>2021-11-04T09:06:11.000Z</time>
      </trkpt>
      <trkpt lat="47.31468" lon="-2.33338">
        <ele>-41.799999237061</ele>
        <time>2021-11-04T09:06:13.000Z</time>
      </trkpt>
      <trkpt lat="47.31471" lon="-2.33344">
        <ele>-41.400001525879</ele>
        <time>2021-11-04T09:06:14.000Z</time>
      </trkpt>
      <trkpt lat="47.31474" lon="-2.3335">
        <ele>-41</ele>
        <time>2021-11-04T09:06:15.000Z</time>
      </trkpt>
      <trkpt lat="47.31477" lon="-2.33355">
        <ele>-40.599998474121</ele>
        <time>2021-11-04T09:06:16.000Z</time>
      </trkpt>
      <trkpt lat="47.31481" lon="-2.33361">
        <ele>-40.200000762939</ele>
        <time>2021-11-04T09:06:17.000Z</time>
      </trkpt>
      <trkpt lat="47.31484" lon="-2.33365">
        <ele>-40.200000762939</ele>
        <time>2021-11-04T09:06:18.000Z</time>
      </trkpt>
      <trkpt lat="47.31499" lon="-2.33364">
        <ele>-40.200000762939</ele>
        <time>2021-11-04T09:06:21.000Z</time>
      </trkpt>
      <trkpt lat="47.31509" lon="-2.33359">
        <ele>-40.200000762939</ele>
        <time>2021-11-04T09:06:23.000Z</time>
      </trkpt>
      <trkpt lat="47.3153" lon="-2.33346">
        <ele>-40.200000762939</ele>
        <time>2021-11-04T09:06:27.000Z</time>
      </trkpt>
      <trkpt lat="47.31545" lon="-2.33338">
        <ele>-40.200000762939</ele>
        <time>2021-11-04T09:06:30.000Z</time>
      </trkpt>
      <trkpt lat="47.31562" lon="-2.3333">
        <ele>-40.200000762939</ele>
        <time>2021-11-04T09:06:33.000Z</time>
      </trkpt>
      <trkpt lat="47.31594" lon="-2.33315">
        <ele>-40.200000762939</ele>
        <time>2021-11-04T09:06:39.000Z</time>
      </trkpt>
      <trkpt lat="47.31617" lon="-2.33299">
        <ele>-40.200000762939</ele>
        <time>2021-11-04T09:06:44.000Z</time>
      </trkpt>
      <trkpt lat="47.31626" lon="-2.33292">
        <ele>-40.200000762939</ele>
        <time>2021-11-04T09:06:46.000Z</time>
      </trkpt>
      <trkpt lat="47.31639" lon="-2.33283">
        <ele>-40.200000762939</ele>
        <time>2021-11-04T09:06:49.000Z</time>
      </trkpt>
      <trkpt lat="47.31651" lon="-2.33279">
        <ele>-40.200000762939</ele>
        <time>2021-11-04T09:06:51.000Z</time>
      </trkpt>
      <trkpt lat="47.31685" lon="-2.33265">
        <ele>-40.200000762939</ele>
        <time>2021-11-04T09:06:57.000Z</time>
      </trkpt>
      <trkpt lat="47.3171" lon="-2.33255">
        <ele>-40.599998474121</ele>
        <time>2021-11-04T09:07:02.000Z</time>
      </trkpt>
      <trkpt lat="47.31715" lon="-2.33252">
        <ele>-41</ele>
        <time>2021-11-04T09:07:03.000Z</time>
      </trkpt>
      <trkpt lat="47.31721" lon="-2.3325">
        <ele>-41.599998474121</ele>
        <time>2021-11-04T09:07:04.000Z</time>
      </trkpt>
      <trkpt lat="47.31726" lon="-2.33247">
        <ele>-42</ele>
        <time>2021-11-04T09:07:05.000Z</time>
      </trkpt>
      <trkpt lat="47.3173" lon="-2.33245">
        <ele>-42.400001525879</ele>
        <time>2021-11-04T09:07:06.000Z</time>
      </trkpt>
      <trkpt lat="47.31738" lon="-2.33244">
        <ele>-42.799999237061</ele>
        <time>2021-11-04T09:07:08.000Z</time>
      </trkpt>
      <trkpt lat="47.31742" lon="-2.33246">
        <ele>-43.599998474121</ele>
        <time>2021-11-04T09:07:09.000Z</time>
      </trkpt>
      <trkpt lat="47.31744" lon="-2.33249">
        <ele>-44</ele>
        <time>2021-11-04T09:07:10.000Z</time>
      </trkpt>
      <trkpt lat="47.31746" lon="-2.33254">
        <ele>-44.599998474121</ele>
        <time>2021-11-04T09:07:11.000Z</time>
      </trkpt>
      <trkpt lat="47.31752" lon="-2.33287">
        <ele>-44.599998474121</ele>
        <time>2021-11-04T09:07:17.000Z</time>
      </trkpt>
      <trkpt lat="47.31756" lon="-2.33299">
        <ele>-44.599998474121</ele>
        <time>2021-11-04T09:07:19.000Z</time>
      </trkpt>
      <trkpt lat="47.31768" lon="-2.33318">
        <ele>-44.599998474121</ele>
        <time>2021-11-04T09:07:23.000Z</time>
      </trkpt>
      <trkpt lat="47.31773" lon="-2.33321">
        <ele>-45</ele>
        <time>2021-11-04T09:07:24.000Z</time>
      </trkpt>
      <trkpt lat="47.31778" lon="-2.33321">
        <ele>-45.400001525879</ele>
        <time>2021-11-04T09:07:25.000Z</time>
      </trkpt>
      <trkpt lat="47.31782" lon="-2.33321">
        <ele>-45.799999237061</ele>
        <time>2021-11-04T09:07:26.000Z</time>
      </trkpt>
      <trkpt lat="47.31786" lon="-2.33321">
        <ele>-46.400001525879</ele>
        <time>2021-11-04T09:07:27.000Z</time>
      </trkpt>
      <trkpt lat="47.31789" lon="-2.33319">
        <ele>-46.799999237061</ele>
        <time>2021-11-04T09:07:28.000Z</time>
      </trkpt>
      <trkpt lat="47.31797" lon="-2.33315">
        <ele>-47.200000762939</ele>
        <time>2021-11-04T09:07:30.000Z</time>
      </trkpt>
      <trkpt lat="47.31801" lon="-2.33312">
        <ele>-47.799999237061</ele>
        <time>2021-11-04T09:07:31.000Z</time>
      </trkpt>
      <trkpt lat="47.31805" lon="-2.33309">
        <ele>-48.200000762939</ele>
        <time>2021-11-04T09:07:32.000Z</time>
      </trkpt>
      <trkpt lat="47.31811" lon="-2.33305">
        <ele>-48.599998474121</ele>
        <time>2021-11-04T09:07:33.000Z</time>
      </trkpt>
      <trkpt lat="47.31816" lon="-2.33301">
        <ele>-49.200000762939</ele>
        <time>2021-11-04T09:07:34.000Z</time>
      </trkpt>
      <trkpt lat="47.31821" lon="-2.33298">
        <ele>-49.599998474121</ele>
        <time>2021-11-04T09:07:35.000Z</time>
      </trkpt>
      <trkpt lat="47.31827" lon="-2.33293">
        <ele>-50</ele>
        <time>2021-11-04T09:07:36.000Z</time>
      </trkpt>
      <trkpt lat="47.31831" lon="-2.33288">
        <ele>-50.599998474121</ele>
        <time>2021-11-04T09:07:37.000Z</time>
      </trkpt>
      <trkpt lat="47.31835" lon="-2.33282">
        <ele>-51</ele>
        <time>2021-11-04T09:07:38.000Z</time>
      </trkpt>
      <trkpt lat="47.31839" lon="-2.33275">
        <ele>-51.599998474121</ele>
        <time>2021-11-04T09:07:39.000Z</time>
      </trkpt>
      <trkpt lat="47.31848" lon="-2.33255">
        <ele>-51.599998474121</ele>
        <time>2021-11-04T09:07:42.000Z</time>
      </trkpt>
      <trkpt lat="47.31851" lon="-2.33248">
        <ele>-51.599998474121</ele>
        <time>2021-11-04T09:07:43.000Z</time>
      </trkpt>
      <trkpt lat="47.31853" lon="-2.33241">
        <ele>-52</ele>
        <time>2021-11-04T09:07:44.000Z</time>
      </trkpt>
      <trkpt lat="47.31853" lon="-2.33234">
        <ele>-52.400001525879</ele>
        <time>2021-11-04T09:07:45.000Z</time>
      </trkpt>
      <trkpt lat="47.31854" lon="-2.33227">
        <ele>-52.799999237061</ele>
        <time>2021-11-04T09:07:46.000Z</time>
      </trkpt>
      <trkpt lat="47.31855" lon="-2.3322">
        <ele>-53.200000762939</ele>
        <time>2021-11-04T09:07:47.000Z</time>
      </trkpt>
      <trkpt lat="47.31855" lon="-2.33213">
        <ele>-53.599998474121</ele>
        <time>2021-11-04T09:07:48.000Z</time>
      </trkpt>
      <trkpt lat="47.31858" lon="-2.3318">
        <ele>-53.599998474121</ele>
        <time>2021-11-04T09:07:52.000Z</time>
      </trkpt>
      <trkpt lat="47.31864" lon="-2.33143">
        <ele>-54.200000762939</ele>
        <time>2021-11-04T09:07:56.000Z</time>
      </trkpt>
      <trkpt lat="47.31865" lon="-2.33133">
        <ele>-54.599998474121</ele>
        <time>2021-11-04T09:07:57.000Z</time>
      </trkpt>
      <trkpt lat="47.31866" lon="-2.33123">
        <ele>-55.599998474121</ele>
        <time>2021-11-04T09:07:58.000Z</time>
      </trkpt>
      <trkpt lat="47.31867" lon="-2.33114">
        <ele>-56</ele>
        <time>2021-11-04T09:07:59.000Z</time>
      </trkpt>
      <trkpt lat="47.3187" lon="-2.33084">
        <ele>-56</ele>
        <time>2021-11-04T09:08:02.000Z</time>
      </trkpt>
      <trkpt lat="47.31871" lon="-2.33065">
        <ele>-56.400001525879</ele>
        <time>2021-11-04T09:08:04.000Z</time>
      </trkpt>
      <trkpt lat="47.31872" lon="-2.33056">
        <ele>-56.799999237061</ele>
        <time>2021-11-04T09:08:05.000Z</time>
      </trkpt>
      <trkpt lat="47.31872" lon="-2.33046">
        <ele>-57.200000762939</ele>
        <time>2021-11-04T09:08:06.000Z</time>
      </trkpt>
      <trkpt lat="47.31873" lon="-2.33036">
        <ele>-57.599998474121</ele>
        <time>2021-11-04T09:08:07.000Z</time>
      </trkpt>
      <trkpt lat="47.31873" lon="-2.33027">
        <ele>-58</ele>
        <time>2021-11-04T09:08:08.000Z</time>
      </trkpt>
      <trkpt lat="47.31873" lon="-2.33016">
        <ele>-58</ele>
        <time>2021-11-04T09:08:09.000Z</time>
      </trkpt>
      <trkpt lat="47.31874" lon="-2.32989">
        <ele>-58</ele>
        <time>2021-11-04T09:08:12.000Z</time>
      </trkpt>
      <trkpt lat="47.31876" lon="-2.32972">
        <ele>-58</ele>
        <time>2021-11-04T09:08:14.000Z</time>
      </trkpt>
      <trkpt lat="47.31877" lon="-2.32924">
        <ele>-58</ele>
        <time>2021-11-04T09:08:20.000Z</time>
      </trkpt>
      <trkpt lat="47.31877" lon="-2.32888">
        <ele>-58</ele>
        <time>2021-11-04T09:08:24.000Z</time>
      </trkpt>
      <trkpt lat="47.31879" lon="-2.32867">
        <ele>-58</ele>
        <time>2021-11-04T09:08:26.000Z</time>
      </trkpt>
      <trkpt lat="47.31877" lon="-2.32821">
        <ele>-58</ele>
        <time>2021-11-04T09:08:31.000Z</time>
      </trkpt>
      <trkpt lat="47.31874" lon="-2.32762">
        <ele>-58</ele>
        <time>2021-11-04T09:08:38.000Z</time>
      </trkpt>
      <trkpt lat="47.31871" lon="-2.32748">
        <ele>-57.599998474121</ele>
        <time>2021-11-04T09:08:40.000Z</time>
      </trkpt>
      <trkpt lat="47.31869" lon="-2.32741">
        <ele>-57.200000762939</ele>
        <time>2021-11-04T09:08:41.000Z</time>
      </trkpt>
      <trkpt lat="47.31867" lon="-2.32734">
        <ele>-56.799999237061</ele>
        <time>2021-11-04T09:08:42.000Z</time>
      </trkpt>
      <trkpt lat="47.31865" lon="-2.32727">
        <ele>-56.400001525879</ele>
        <time>2021-11-04T09:08:43.000Z</time>
      </trkpt>
      <trkpt lat="47.31863" lon="-2.3272">
        <ele>-56</ele>
        <time>2021-11-04T09:08:44.000Z</time>
      </trkpt>
      <trkpt lat="47.31847" lon="-2.32673">
        <ele>-56</ele>
        <time>2021-11-04T09:08:51.000Z</time>
      </trkpt>
      <trkpt lat="47.31842" lon="-2.32661">
        <ele>-56</ele>
        <time>2021-11-04T09:08:53.000Z</time>
      </trkpt>
      <trkpt lat="47.31838" lon="-2.32641">
        <ele>-55.599998474121</ele>
        <time>2021-11-04T09:08:56.000Z</time>
      </trkpt>
      <trkpt lat="47.31836" lon="-2.32634">
        <ele>-55.200000762939</ele>
        <time>2021-11-04T09:08:57.000Z</time>
      </trkpt>
      <trkpt lat="47.31834" lon="-2.32627">
        <ele>-54.799999237061</ele>
        <time>2021-11-04T09:08:58.000Z</time>
      </trkpt>
      <trkpt lat="47.31832" lon="-2.3262">
        <ele>-54.400001525879</ele>
        <time>2021-11-04T09:08:59.000Z</time>
      </trkpt>
      <trkpt lat="47.31831" lon="-2.32614">
        <ele>-54</ele>
        <time>2021-11-04T09:09:00.000Z</time>
      </trkpt>
      <trkpt lat="47.31826" lon="-2.32596">
        <ele>-54</ele>
        <time>2021-11-04T09:09:03.000Z</time>
      </trkpt>
      <trkpt lat="47.31816" lon="-2.32552">
        <ele>-54</ele>
        <time>2021-11-04T09:09:10.000Z</time>
      </trkpt>
      <trkpt lat="47.31814" lon="-2.32547">
        <ele>-53.599998474121</ele>
        <time>2021-11-04T09:09:11.000Z</time>
      </trkpt>
      <trkpt lat="47.31813" lon="-2.32541">
        <ele>-53.200000762939</ele>
        <time>2021-11-04T09:09:12.000Z</time>
      </trkpt>
      <trkpt lat="47.31811" lon="-2.32536">
        <ele>-52.400001525879</ele>
        <time>2021-11-04T09:09:13.000Z</time>
      </trkpt>
      <trkpt lat="47.3181" lon="-2.3253">
        <ele>-52</ele>
        <time>2021-11-04T09:09:14.000Z</time>
      </trkpt>
      <trkpt lat="47.31804" lon="-2.32507">
        <ele>-52</ele>
        <time>2021-11-04T09:09:18.000Z</time>
      </trkpt>
      <trkpt lat="47.31798" lon="-2.32487">
        <ele>-51.599998474121</ele>
        <time>2021-11-04T09:09:22.000Z</time>
      </trkpt>
      <trkpt lat="47.31796" lon="-2.32483">
        <ele>-51.200000762939</ele>
        <time>2021-11-04T09:09:23.000Z</time>
      </trkpt>
      <trkpt lat="47.31794" lon="-2.32478">
        <ele>-50.799999237061</ele>
        <time>2021-11-04T09:09:24.000Z</time>
      </trkpt>
      <trkpt lat="47.31793" lon="-2.32473">
        <ele>-50.400001525879</ele>
        <time>2021-11-04T09:09:25.000Z</time>
      </trkpt>
      <trkpt lat="47.31791" lon="-2.32468">
        <ele>-49.799999237061</ele>
        <time>2021-11-04T09:09:26.000Z</time>
      </trkpt>
      <trkpt lat="47.3179" lon="-2.32463">
        <ele>-49.400001525879</ele>
        <time>2021-11-04T09:09:27.000Z</time>
      </trkpt>
      <trkpt lat="47.31789" lon="-2.32457">
        <ele>-49</ele>
        <time>2021-11-04T09:09:28.000Z</time>
      </trkpt>
      <trkpt lat="47.31789" lon="-2.3245">
        <ele>-48.599998474121</ele>
        <time>2021-11-04T09:09:29.000Z</time>
      </trkpt>
      <trkpt lat="47.31788" lon="-2.32443">
        <ele>-48.200000762939</ele>
        <time>2021-11-04T09:09:30.000Z</time>
      </trkpt>
      <trkpt lat="47.31788" lon="-2.32437">
        <ele>-47.799999237061</ele>
        <time>2021-11-04T09:09:31.000Z</time>
      </trkpt>
      <trkpt lat="47.31783" lon="-2.32404">
        <ele>-47.799999237061</ele>
        <time>2021-11-04T09:09:37.000Z</time>
      </trkpt>
      <trkpt lat="47.31779" lon="-2.3238">
        <ele>-47.400001525879</ele>
        <time>2021-11-04T09:09:41.000Z</time>
      </trkpt>
      <trkpt lat="47.31777" lon="-2.32373">
        <ele>-47</ele>
        <time>2021-11-04T09:09:42.000Z</time>
      </trkpt>
      <trkpt lat="47.31776" lon="-2.32367">
        <ele>-46.599998474121</ele>
        <time>2021-11-04T09:09:43.000Z</time>
      </trkpt>
      <trkpt lat="47.31775" lon="-2.3236">
        <ele>-46.200000762939</ele>
        <time>2021-11-04T09:09:44.000Z</time>
      </trkpt>
      <trkpt lat="47.31774" lon="-2.32353">
        <ele>-45.799999237061</ele>
        <time>2021-11-04T09:09:45.000Z</time>
      </trkpt>
      <trkpt lat="47.31766" lon="-2.32314">
        <ele>-45.799999237061</ele>
        <time>2021-11-04T09:09:50.000Z</time>
      </trkpt>
      <trkpt lat="47.3176" lon="-2.32274">
        <ele>-45.799999237061</ele>
        <time>2021-11-04T09:09:56.000Z</time>
      </trkpt>
      <trkpt lat="47.31753" lon="-2.3225">
        <ele>-45.799999237061</ele>
        <time>2021-11-04T09:10:01.000Z</time>
      </trkpt>
      <trkpt lat="47.31753" lon="-2.32241">
        <ele>-45.799999237061</ele>
        <time>2021-11-04T09:10:03.000Z</time>
      </trkpt>
      <trkpt lat="47.31758" lon="-2.32236">
        <ele>-45.799999237061</ele>
        <time>2021-11-04T09:10:05.000Z</time>
      </trkpt>
      <trkpt lat="47.31765" lon="-2.32233">
        <ele>-45.799999237061</ele>
        <time>2021-11-04T09:10:07.000Z</time>
      </trkpt>
      <trkpt lat="47.31773" lon="-2.32232">
        <ele>-45.799999237061</ele>
        <time>2021-11-04T09:10:09.000Z</time>
      </trkpt>
      <trkpt lat="47.31804" lon="-2.32228">
        <ele>-45.799999237061</ele>
        <time>2021-11-04T09:10:16.000Z</time>
      </trkpt>
      <trkpt lat="47.31828" lon="-2.32224">
        <ele>-45.799999237061</ele>
        <time>2021-11-04T09:10:21.000Z</time>
      </trkpt>
      <trkpt lat="47.31833" lon="-2.32222">
        <ele>-45.799999237061</ele>
        <time>2021-11-04T09:10:22.000Z</time>
      </trkpt>
      <trkpt lat="47.31864" lon="-2.32212">
        <ele>-46.599998474121</ele>
        <time>2021-11-04T09:10:27.000Z</time>
      </trkpt>
      <trkpt lat="47.31871" lon="-2.3221">
        <ele>-47</ele>
        <time>2021-11-04T09:10:28.000Z</time>
      </trkpt>
      <trkpt lat="47.31878" lon="-2.32208">
        <ele>-47.599998474121</ele>
        <time>2021-11-04T09:10:29.000Z</time>
      </trkpt>
      <trkpt lat="47.31885" lon="-2.32206">
        <ele>-48</ele>
        <time>2021-11-04T09:10:30.000Z</time>
      </trkpt>
      <trkpt lat="47.319" lon="-2.32204">
        <ele>-48.400001525879</ele>
        <time>2021-11-04T09:10:32.000Z</time>
      </trkpt>
      <trkpt lat="47.31907" lon="-2.32203">
        <ele>-48.799999237061</ele>
        <time>2021-11-04T09:10:33.000Z</time>
      </trkpt>
      <trkpt lat="47.31915" lon="-2.32204">
        <ele>-49.200000762939</ele>
        <time>2021-11-04T09:10:34.000Z</time>
      </trkpt>
      <trkpt lat="47.31923" lon="-2.32205">
        <ele>-49.599998474121</ele>
        <time>2021-11-04T09:10:35.000Z</time>
      </trkpt>
      <trkpt lat="47.31931" lon="-2.32207">
        <ele>-50.200000762939</ele>
        <time>2021-11-04T09:10:36.000Z</time>
      </trkpt>
      <trkpt lat="47.31937" lon="-2.32209">
        <ele>-50.599998474121</ele>
        <time>2021-11-04T09:10:37.000Z</time>
      </trkpt>
      <trkpt lat="47.31943" lon="-2.3221">
        <ele>-51.200000762939</ele>
        <time>2021-11-04T09:10:38.000Z</time>
      </trkpt>
      <trkpt lat="47.31949" lon="-2.32212">
        <ele>-51.799999237061</ele>
        <time>2021-11-04T09:10:39.000Z</time>
      </trkpt>
      <trkpt lat="47.31953" lon="-2.32214">
        <ele>-52.400001525879</ele>
        <time>2021-11-04T09:10:40.000Z</time>
      </trkpt>
      <trkpt lat="47.31957" lon="-2.32217">
        <ele>-53.200000762939</ele>
        <time>2021-11-04T09:10:41.000Z</time>
      </trkpt>
      <trkpt lat="47.31958" lon="-2.32221">
        <ele>-53.799999237061</ele>
        <time>2021-11-04T09:10:42.000Z</time>
      </trkpt>
      <trkpt lat="47.31959" lon="-2.32226">
        <ele>-54.599998474121</ele>
        <time>2021-11-04T09:10:43.000Z</time>
      </trkpt>
      <trkpt lat="47.31958" lon="-2.32231">
        <ele>-55.200000762939</ele>
        <time>2021-11-04T09:10:44.000Z</time>
      </trkpt>
      <trkpt lat="47.31956" lon="-2.32235">
        <ele>-55.200000762939</ele>
        <time>2021-11-04T09:10:45.000Z</time>
      </trkpt>
      <trkpt lat="47.31951" lon="-2.32256">
        <ele>-55.200000762939</ele>
        <time>2021-11-04T09:10:49.000Z</time>
      </trkpt>
      <trkpt lat="47.31952" lon="-2.3226">
        <ele>-55.200000762939</ele>
        <time>2021-11-04T09:10:50.000Z</time>
      </trkpt>
      <trkpt lat="47.31955" lon="-2.32262">
        <ele>-55.599998474121</ele>
        <time>2021-11-04T09:10:51.000Z</time>
      </trkpt>
      <trkpt lat="47.31959" lon="-2.3226">
        <ele>-56.599998474121</ele>
        <time>2021-11-04T09:10:52.000Z</time>
      </trkpt>
      <trkpt lat="47.31963" lon="-2.32255">
        <ele>-57.200000762939</ele>
        <time>2021-11-04T09:10:53.000Z</time>
      </trkpt>
      <trkpt lat="47.31967" lon="-2.32248">
        <ele>-57.599998474121</ele>
        <time>2021-11-04T09:10:54.000Z</time>
      </trkpt>
      <trkpt lat="47.31971" lon="-2.32241">
        <ele>-57.599998474121</ele>
        <time>2021-11-04T09:10:55.000Z</time>
      </trkpt>
      <trkpt lat="47.31976" lon="-2.32233">
        <ele>-58</ele>
        <time>2021-11-04T09:10:56.000Z</time>
      </trkpt>
      <trkpt lat="47.31981" lon="-2.32226">
        <ele>-58.400001525879</ele>
        <time>2021-11-04T09:10:57.000Z</time>
      </trkpt>
      <trkpt lat="47.31987" lon="-2.32219">
        <ele>-58.799999237061</ele>
        <time>2021-11-04T09:10:58.000Z</time>
      </trkpt>
      <trkpt lat="47.31994" lon="-2.32212">
        <ele>-59.400001525879</ele>
        <time>2021-11-04T09:10:59.000Z</time>
      </trkpt>
      <trkpt lat="47.32" lon="-2.32205">
        <ele>-59.799999237061</ele>
        <time>2021-11-04T09:11:00.000Z</time>
      </trkpt>
      <trkpt lat="47.32006" lon="-2.32198">
        <ele>-60.400001525879</ele>
        <time>2021-11-04T09:11:01.000Z</time>
      </trkpt>
      <trkpt lat="47.32034" lon="-2.32181">
        <ele>-62</ele>
        <time>2021-11-04T09:11:05.000Z</time>
      </trkpt>
      <trkpt lat="47.32041" lon="-2.3218">
        <ele>-62</ele>
        <time>2021-11-04T09:11:06.000Z</time>
      </trkpt>
      <trkpt lat="47.32091" lon="-2.32178">
        <ele>-62.400001525879</ele>
        <time>2021-11-04T09:11:13.000Z</time>
      </trkpt>
      <trkpt lat="47.32099" lon="-2.32177">
        <ele>-62.799999237061</ele>
        <time>2021-11-04T09:11:14.000Z</time>
      </trkpt>
      <trkpt lat="47.32106" lon="-2.32176">
        <ele>-63.400001525879</ele>
        <time>2021-11-04T09:11:15.000Z</time>
      </trkpt>
      <trkpt lat="47.32113" lon="-2.32175">
        <ele>-63.799999237061</ele>
        <time>2021-11-04T09:11:16.000Z</time>
      </trkpt>
      <trkpt lat="47.32121" lon="-2.32174">
        <ele>-64.199996948242</ele>
        <time>2021-11-04T09:11:17.000Z</time>
      </trkpt>
      <trkpt lat="47.32142" lon="-2.32165">
        <ele>-64.199996948242</ele>
        <time>2021-11-04T09:11:20.000Z</time>
      </trkpt>
      <trkpt lat="47.3216" lon="-2.32151">
        <ele>-64.599998474121</ele>
        <time>2021-11-04T09:11:23.000Z</time>
      </trkpt>
      <trkpt lat="47.32166" lon="-2.32146">
        <ele>-65</ele>
        <time>2021-11-04T09:11:24.000Z</time>
      </trkpt>
      <trkpt lat="47.3217" lon="-2.32141">
        <ele>-65.400001525879</ele>
        <time>2021-11-04T09:11:25.000Z</time>
      </trkpt>
      <trkpt lat="47.32175" lon="-2.32137">
        <ele>-65.800003051758</ele>
        <time>2021-11-04T09:11:26.000Z</time>
      </trkpt>
      <trkpt lat="47.3218" lon="-2.32133">
        <ele>-66.199996948242</ele>
        <time>2021-11-04T09:11:27.000Z</time>
      </trkpt>
      <trkpt lat="47.32198" lon="-2.3212">
        <ele>-66.199996948242</ele>
        <time>2021-11-04T09:11:31.000Z</time>
      </trkpt>
      <trkpt lat="47.32209" lon="-2.32116">
        <ele>-66.199996948242</ele>
        <time>2021-11-04T09:11:34.000Z</time>
      </trkpt>
      <trkpt lat="47.32219" lon="-2.32113">
        <ele>-66.199996948242</ele>
        <time>2021-11-04T09:11:36.000Z</time>
      </trkpt>
      <trkpt lat="47.32254" lon="-2.32105">
        <ele>-66.199996948242</ele>
        <time>2021-11-04T09:11:43.000Z</time>
      </trkpt>
      <trkpt lat="47.32287" lon="-2.32101">
        <ele>-66.199996948242</ele>
        <time>2021-11-04T09:11:50.000Z</time>
      </trkpt>
      <trkpt lat="47.3231" lon="-2.321">
        <ele>-66.199996948242</ele>
        <time>2021-11-04T09:11:56.000Z</time>
      </trkpt>
      <trkpt lat="47.32336" lon="-2.32106">
        <ele>-66.199996948242</ele>
        <time>2021-11-04T09:12:03.000Z</time>
      </trkpt>
      <trkpt lat="47.32364" lon="-2.32109">
        <ele>-66.199996948242</ele>
        <time>2021-11-04T09:12:10.000Z</time>
      </trkpt>
      <trkpt lat="47.32396" lon="-2.32108">
        <ele>-66.199996948242</ele>
        <time>2021-11-04T09:12:17.000Z</time>
      </trkpt>
      <trkpt lat="47.32431" lon="-2.32104">
        <ele>-66.199996948242</ele>
        <time>2021-11-04T09:12:24.000Z</time>
      </trkpt>
      <trkpt lat="47.32467" lon="-2.32101">
        <ele>-66.199996948242</ele>
        <time>2021-11-04T09:12:30.000Z</time>
      </trkpt>
      <trkpt lat="47.32497" lon="-2.32097">
        <ele>-66.199996948242</ele>
        <time>2021-11-04T09:12:36.000Z</time>
      </trkpt>
      <trkpt lat="47.32525" lon="-2.32097">
        <ele>-66.199996948242</ele>
        <time>2021-11-04T09:12:42.000Z</time>
      </trkpt>
      <trkpt lat="47.32529" lon="-2.32095">
        <ele>-66.199996948242</ele>
        <time>2021-11-04T09:12:43.000Z</time>
      </trkpt>
      <trkpt lat="47.3255" lon="-2.32094">
        <ele>-66.199996948242</ele>
        <time>2021-11-04T09:12:47.000Z</time>
      </trkpt>
      <trkpt lat="47.32579" lon="-2.32093">
        <ele>-66.199996948242</ele>
        <time>2021-11-04T09:12:52.000Z</time>
      </trkpt>
      <trkpt lat="47.32584" lon="-2.32095">
        <ele>-66.199996948242</ele>
        <time>2021-11-04T09:12:53.000Z</time>
      </trkpt>
      <trkpt lat="47.3259" lon="-2.32105">
        <ele>-66.199996948242</ele>
        <time>2021-11-04T09:12:55.000Z</time>
      </trkpt>
      <trkpt lat="47.32588" lon="-2.3213">
        <ele>-66.199996948242</ele>
        <time>2021-11-04T09:12:58.000Z</time>
      </trkpt>
      <trkpt lat="47.32582" lon="-2.32148">
        <ele>-66.599998474121</ele>
        <time>2021-11-04T09:13:00.000Z</time>
      </trkpt>
      <trkpt lat="47.3258" lon="-2.32157">
        <ele>-67</ele>
        <time>2021-11-04T09:13:01.000Z</time>
      </trkpt>
      <trkpt lat="47.32577" lon="-2.32166">
        <ele>-67.599998474121</ele>
        <time>2021-11-04T09:13:02.000Z</time>
      </trkpt>
      <trkpt lat="47.32574" lon="-2.32176">
        <ele>-68</ele>
        <time>2021-11-04T09:13:03.000Z</time>
      </trkpt>
      <trkpt lat="47.32571" lon="-2.32185">
        <ele>-68.400001525879</ele>
        <time>2021-11-04T09:13:04.000Z</time>
      </trkpt>
      <trkpt lat="47.32563" lon="-2.32214">
        <ele>-68.800003051758</ele>
        <time>2021-11-04T09:13:07.000Z</time>
      </trkpt>
      <trkpt lat="47.3256" lon="-2.32224">
        <ele>-69.199996948242</ele>
        <time>2021-11-04T09:13:08.000Z</time>
      </trkpt>
      <trkpt lat="47.32558" lon="-2.32232">
        <ele>-69.599998474121</ele>
        <time>2021-11-04T09:13:09.000Z</time>
      </trkpt>
      <trkpt lat="47.32555" lon="-2.3224">
        <ele>-70</ele>
        <time>2021-11-04T09:13:10.000Z</time>
      </trkpt>
      <trkpt lat="47.32552" lon="-2.32248">
        <ele>-70.400001525879</ele>
        <time>2021-11-04T09:13:11.000Z</time>
      </trkpt>
      <trkpt lat="47.32542" lon="-2.32281">
        <ele>-70.400001525879</ele>
        <time>2021-11-04T09:13:16.000Z</time>
      </trkpt>
      <trkpt lat="47.32539" lon="-2.32294">
        <ele>-70</ele>
        <time>2021-11-04T09:13:18.000Z</time>
      </trkpt>
      <trkpt lat="47.32538" lon="-2.323">
        <ele>-69.599998474121</ele>
        <time>2021-11-04T09:13:19.000Z</time>
      </trkpt>
      <trkpt lat="47.32537" lon="-2.32306">
        <ele>-68.800003051758</ele>
        <time>2021-11-04T09:13:20.000Z</time>
      </trkpt>
      <trkpt lat="47.32537" lon="-2.32311">
        <ele>-68.199996948242</ele>
        <time>2021-11-04T09:13:21.000Z</time>
      </trkpt>
      <trkpt lat="47.32537" lon="-2.32316">
        <ele>-67.800003051758</ele>
        <time>2021-11-04T09:13:22.000Z</time>
      </trkpt>
      <trkpt lat="47.3254" lon="-2.32318">
        <ele>-67.400001525879</ele>
        <time>2021-11-04T09:13:23.000Z</time>
      </trkpt>
      <trkpt lat="47.32543" lon="-2.32319">
        <ele>-67</ele>
        <time>2021-11-04T09:13:24.000Z</time>
      </trkpt>
      <trkpt lat="47.32548" lon="-2.32318">
        <ele>-66.599998474121</ele>
        <time>2021-11-04T09:13:25.000Z</time>
      </trkpt>
      <trkpt lat="47.32553" lon="-2.32317">
        <ele>-66.199996948242</ele>
        <time>2021-11-04T09:13:26.000Z</time>
      </trkpt>
      <trkpt lat="47.32557" lon="-2.32316">
        <ele>-66.199996948242</ele>
        <time>2021-11-04T09:13:27.000Z</time>
      </trkpt>
      <trkpt lat="47.32568" lon="-2.32315">
        <ele>-66.199996948242</ele>
        <time>2021-11-04T09:13:29.000Z</time>
      </trkpt>
      <trkpt lat="47.32608" lon="-2.3231">
        <ele>-66.199996948242</ele>
        <time>2021-11-04T09:13:36.000Z</time>
      </trkpt>
      <trkpt lat="47.32632" lon="-2.3231">
        <ele>-66.199996948242</ele>
        <time>2021-11-04T09:13:41.000Z</time>
      </trkpt>
      <trkpt lat="47.32669" lon="-2.32315">
        <ele>-66.199996948242</ele>
        <time>2021-11-04T09:13:48.000Z</time>
      </trkpt>
      <trkpt lat="47.32703" lon="-2.32326">
        <ele>-66.599998474121</ele>
        <time>2021-11-04T09:13:54.000Z</time>
      </trkpt>
      <trkpt lat="47.32708" lon="-2.32329">
        <ele>-67</ele>
        <time>2021-11-04T09:13:55.000Z</time>
      </trkpt>
      <trkpt lat="47.32714" lon="-2.32332">
        <ele>-67.400001525879</ele>
        <time>2021-11-04T09:13:56.000Z</time>
      </trkpt>
      <trkpt lat="47.3272" lon="-2.32335">
        <ele>-67.800003051758</ele>
        <time>2021-11-04T09:13:57.000Z</time>
      </trkpt>
      <trkpt lat="47.32725" lon="-2.32338">
        <ele>-68.199996948242</ele>
        <time>2021-11-04T09:13:58.000Z</time>
      </trkpt>
      <trkpt lat="47.32759" lon="-2.32358">
        <ele>-68.199996948242</ele>
        <time>2021-11-04T09:14:04.000Z</time>
      </trkpt>
      <trkpt lat="47.32782" lon="-2.32372">
        <ele>-68.599998474121</ele>
        <time>2021-11-04T09:14:08.000Z</time>
      </trkpt>
      <trkpt lat="47.32788" lon="-2.32375">
        <ele>-69.400001525879</ele>
        <time>2021-11-04T09:14:09.000Z</time>
      </trkpt>
      <trkpt lat="47.32794" lon="-2.3238">
        <ele>-69.800003051758</ele>
        <time>2021-11-04T09:14:10.000Z</time>
      </trkpt>
      <trkpt lat="47.32799" lon="-2.32385">
        <ele>-70.199996948242</ele>
        <time>2021-11-04T09:14:11.000Z</time>
      </trkpt>
      <trkpt lat="47.32829" lon="-2.32416">
        <ele>-70.199996948242</ele>
        <time>2021-11-04T09:14:17.000Z</time>
      </trkpt>
      <trkpt lat="47.32872" lon="-2.32447">
        <ele>-70.199996948242</ele>
        <time>2021-11-04T09:14:25.000Z</time>
      </trkpt>
      <trkpt lat="47.32891" lon="-2.3246">
        <ele>-70.199996948242</ele>
        <time>2021-11-04T09:14:29.000Z</time>
      </trkpt>
      <trkpt lat="47.32898" lon="-2.32474">
        <ele>-70.199996948242</ele>
        <time>2021-11-04T09:14:31.000Z</time>
      </trkpt>
      <trkpt lat="47.32902" lon="-2.3249">
        <ele>-70.199996948242</ele>
        <time>2021-11-04T09:14:33.000Z</time>
      </trkpt>
      <trkpt lat="47.32908" lon="-2.32513">
        <ele>-70.199996948242</ele>
        <time>2021-11-04T09:14:36.000Z</time>
      </trkpt>
      <trkpt lat="47.32915" lon="-2.32545">
        <ele>-70.199996948242</ele>
        <time>2021-11-04T09:14:40.000Z</time>
      </trkpt>
      <trkpt lat="47.32917" lon="-2.32562">
        <ele>-70.199996948242</ele>
        <time>2021-11-04T09:14:42.000Z</time>
      </trkpt>
      <trkpt lat="47.32917" lon="-2.32571">
        <ele>-70.199996948242</ele>
        <time>2021-11-04T09:14:43.000Z</time>
      </trkpt>
      <trkpt lat="47.32917" lon="-2.32618">
        <ele>-70.199996948242</ele>
        <time>2021-11-04T09:14:49.000Z</time>
      </trkpt>
      <trkpt lat="47.32917" lon="-2.32631">
        <ele>-70.199996948242</ele>
        <time>2021-11-04T09:14:51.000Z</time>
      </trkpt>
      <trkpt lat="47.32922" lon="-2.32641">
        <ele>-70.199996948242</ele>
        <time>2021-11-04T09:14:53.000Z</time>
      </trkpt>
      <trkpt lat="47.32936" lon="-2.32646">
        <ele>-70.199996948242</ele>
        <time>2021-11-04T09:14:56.000Z</time>
      </trkpt>
      <trkpt lat="47.32951" lon="-2.32644">
        <ele>-70.199996948242</ele>
        <time>2021-11-04T09:14:59.000Z</time>
      </trkpt>
      <trkpt lat="47.32961" lon="-2.3264">
        <ele>-70.199996948242</ele>
        <time>2021-11-04T09:15:01.000Z</time>
      </trkpt>
      <trkpt lat="47.32988" lon="-2.32627">
        <ele>-70.800003051758</ele>
        <time>2021-11-04T09:15:06.000Z</time>
      </trkpt>
      <trkpt lat="47.32994" lon="-2.32626">
        <ele>-71.199996948242</ele>
        <time>2021-11-04T09:15:07.000Z</time>
      </trkpt>
      <trkpt lat="47.33" lon="-2.32626">
        <ele>-71.599998474121</ele>
        <time>2021-11-04T09:15:08.000Z</time>
      </trkpt>
      <trkpt lat="47.33006" lon="-2.32628">
        <ele>-72</ele>
        <time>2021-11-04T09:15:09.000Z</time>
      </trkpt>
      <trkpt lat="47.33011" lon="-2.3263">
        <ele>-72.599998474121</ele>
        <time>2021-11-04T09:15:10.000Z</time>
      </trkpt>
      <trkpt lat="47.33022" lon="-2.32634">
        <ele>-72.599998474121</ele>
        <time>2021-11-04T09:15:12.000Z</time>
      </trkpt>
      <trkpt lat="47.33034" lon="-2.32632">
        <ele>-72.599998474121</ele>
        <time>2021-11-04T09:15:14.000Z</time>
      </trkpt>
      <trkpt lat="47.33045" lon="-2.32625">
        <ele>-72.599998474121</ele>
        <time>2021-11-04T09:15:16.000Z</time>
      </trkpt>
      <trkpt lat="47.3306" lon="-2.32613">
        <ele>-72.599998474121</ele>
        <time>2021-11-04T09:15:19.000Z</time>
      </trkpt>
      <trkpt lat="47.33083" lon="-2.32595">
        <ele>-72.599998474121</ele>
        <time>2021-11-04T09:15:24.000Z</time>
      </trkpt>
      <trkpt lat="47.33108" lon="-2.32572">
        <ele>-72.599998474121</ele>
        <time>2021-11-04T09:15:30.000Z</time>
      </trkpt>
      <trkpt lat="47.33121" lon="-2.32562">
        <ele>-72.599998474121</ele>
        <time>2021-11-04T09:15:33.000Z</time>
      </trkpt>
      <trkpt lat="47.33129" lon="-2.32555">
        <ele>-72.599998474121</ele>
        <time>2021-11-04T09:15:35.000Z</time>
      </trkpt>
      <trkpt lat="47.33138" lon="-2.32547">
        <ele>-72.199996948242</ele>
        <time>2021-11-04T09:15:37.000Z</time>
      </trkpt>
      <trkpt lat="47.33142" lon="-2.32544">
        <ele>-71.800003051758</ele>
        <time>2021-11-04T09:15:38.000Z</time>
      </trkpt>
      <trkpt lat="47.33147" lon="-2.32542">
        <ele>-71.400001525879</ele>
        <time>2021-11-04T09:15:39.000Z</time>
      </trkpt>
      <trkpt lat="47.33151" lon="-2.32538">
        <ele>-71</ele>
        <time>2021-11-04T09:15:40.000Z</time>
      </trkpt>
      <trkpt lat="47.33155" lon="-2.32535">
        <ele>-70.599998474121</ele>
        <time>2021-11-04T09:15:41.000Z</time>
      </trkpt>
      <trkpt lat="47.33179" lon="-2.3252">
        <ele>-70.599998474121</ele>
        <time>2021-11-04T09:15:47.000Z</time>
      </trkpt>
      <trkpt lat="47.33207" lon="-2.32507">
        <ele>-70.599998474121</ele>
        <time>2021-11-04T09:15:53.000Z</time>
      </trkpt>
      <trkpt lat="47.33245" lon="-2.32489">
        <ele>-70.599998474121</ele>
        <time>2021-11-04T09:16:00.000Z</time>
      </trkpt>
      <trkpt lat="47.33277" lon="-2.32474">
        <ele>-70.599998474121</ele>
        <time>2021-11-04T09:16:06.000Z</time>
      </trkpt>
      <trkpt lat="47.33311" lon="-2.32458">
        <ele>-70.599998474121</ele>
        <time>2021-11-04T09:16:13.000Z</time>
      </trkpt>
      <trkpt lat="47.33325" lon="-2.32453">
        <ele>-70.599998474121</ele>
        <time>2021-11-04T09:16:16.000Z</time>
      </trkpt>
      <trkpt lat="47.33335" lon="-2.32445">
        <ele>-70.599998474121</ele>
        <time>2021-11-04T09:16:18.000Z</time>
      </trkpt>
      <trkpt lat="47.33344" lon="-2.32434">
        <ele>-70.599998474121</ele>
        <time>2021-11-04T09:16:20.000Z</time>
      </trkpt>
      <trkpt lat="47.33358" lon="-2.32416">
        <ele>-70.599998474121</ele>
        <time>2021-11-04T09:16:23.000Z</time>
      </trkpt>
      <trkpt lat="47.33397" lon="-2.3238">
        <ele>-70.599998474121</ele>
        <time>2021-11-04T09:16:30.000Z</time>
      </trkpt>
      <trkpt lat="47.33437" lon="-2.32347">
        <ele>-70.599998474121</ele>
        <time>2021-11-04T09:16:37.000Z</time>
      </trkpt>
      <trkpt lat="47.33472" lon="-2.32325">
        <ele>-70.599998474121</ele>
        <time>2021-11-04T09:16:43.000Z</time>
      </trkpt>
      <trkpt lat="47.33509" lon="-2.32308">
        <ele>-70.599998474121</ele>
        <time>2021-11-04T09:16:49.000Z</time>
      </trkpt>
      <trkpt lat="47.33527" lon="-2.32301">
        <ele>-70.599998474121</ele>
        <time>2021-11-04T09:16:52.000Z</time>
      </trkpt>
      <trkpt lat="47.33536" lon="-2.323">
        <ele>-70.599998474121</ele>
        <time>2021-11-04T09:16:54.000Z</time>
      </trkpt>
      <trkpt lat="47.33551" lon="-2.323">
        <ele>-70.599998474121</ele>
        <time>2021-11-04T09:16:57.000Z</time>
      </trkpt>
      <trkpt lat="47.33562" lon="-2.32296">
        <ele>-70.599998474121</ele>
        <time>2021-11-04T09:16:59.000Z</time>
      </trkpt>
      <trkpt lat="47.33589" lon="-2.32288">
        <ele>-70.599998474121</ele>
        <time>2021-11-04T09:17:04.000Z</time>
      </trkpt>
      <trkpt lat="47.33595" lon="-2.32287">
        <ele>-70.599998474121</ele>
        <time>2021-11-04T09:17:05.000Z</time>
      </trkpt>
      <trkpt lat="47.33636" lon="-2.3228">
        <ele>-70.599998474121</ele>
        <time>2021-11-04T09:17:12.000Z</time>
      </trkpt>
      <trkpt lat="47.33674" lon="-2.32266">
        <ele>-70.599998474121</ele>
        <time>2021-11-04T09:17:18.000Z</time>
      </trkpt>
      <trkpt lat="47.33703" lon="-2.32249">
        <ele>-70.599998474121</ele>
        <time>2021-11-04T09:17:23.000Z</time>
      </trkpt>
      <trkpt lat="47.33712" lon="-2.32243">
        <ele>-70.599998474121</ele>
        <time>2021-11-04T09:17:25.000Z</time>
      </trkpt>
      <trkpt lat="47.33727" lon="-2.32234">
        <ele>-70.599998474121</ele>
        <time>2021-11-04T09:17:28.000Z</time>
      </trkpt>
      <trkpt lat="47.33756" lon="-2.32217">
        <ele>-70.599998474121</ele>
        <time>2021-11-04T09:17:33.000Z</time>
      </trkpt>
      <trkpt lat="47.33768" lon="-2.32211">
        <ele>-70.599998474121</ele>
        <time>2021-11-04T09:17:35.000Z</time>
      </trkpt>
      <trkpt lat="47.33794" lon="-2.32204">
        <ele>-70.599998474121</ele>
        <time>2021-11-04T09:17:39.000Z</time>
      </trkpt>
      <trkpt lat="47.33839" lon="-2.32198">
        <ele>-70.599998474121</ele>
        <time>2021-11-04T09:17:46.000Z</time>
      </trkpt>
      <trkpt lat="47.33871" lon="-2.32194">
        <ele>-70.599998474121</ele>
        <time>2021-11-04T09:17:51.000Z</time>
      </trkpt>
      <trkpt lat="47.33885" lon="-2.32194">
        <ele>-70.599998474121</ele>
        <time>2021-11-04T09:17:53.000Z</time>
      </trkpt>
      <trkpt lat="47.33905" lon="-2.32197">
        <ele>-70.599998474121</ele>
        <time>2021-11-04T09:17:56.000Z</time>
      </trkpt>
      <trkpt lat="47.33935" lon="-2.32193">
        <ele>-70.599998474121</ele>
        <time>2021-11-04T09:18:01.000Z</time>
      </trkpt>
      <trkpt lat="47.3394" lon="-2.32192">
        <ele>-70.599998474121</ele>
        <time>2021-11-04T09:18:02.000Z</time>
      </trkpt>
      <trkpt lat="47.33959" lon="-2.32181">
        <ele>-70.599998474121</ele>
        <time>2021-11-04T09:18:06.000Z</time>
      </trkpt>
      <trkpt lat="47.33978" lon="-2.32164">
        <ele>-71</ele>
        <time>2021-11-04T09:18:10.000Z</time>
      </trkpt>
      <trkpt lat="47.33983" lon="-2.3216">
        <ele>-71.400001525879</ele>
        <time>2021-11-04T09:18:11.000Z</time>
      </trkpt>
      <trkpt lat="47.33989" lon="-2.32156">
        <ele>-71.800003051758</ele>
        <time>2021-11-04T09:18:12.000Z</time>
      </trkpt>
      <trkpt lat="47.33995" lon="-2.32152">
        <ele>-72.199996948242</ele>
        <time>2021-11-04T09:18:13.000Z</time>
      </trkpt>
      <trkpt lat="47.34" lon="-2.32148">
        <ele>-72.599998474121</ele>
        <time>2021-11-04T09:18:14.000Z</time>
      </trkpt>
      <trkpt lat="47.34028" lon="-2.3213">
        <ele>-72.599998474121</ele>
        <time>2021-11-04T09:18:19.000Z</time>
      </trkpt>
      <trkpt lat="47.34058" lon="-2.32111">
        <ele>-72.599998474121</ele>
        <time>2021-11-04T09:18:25.000Z</time>
      </trkpt>
      <trkpt lat="47.34087" lon="-2.32093">
        <ele>-72.599998474121</ele>
        <time>2021-11-04T09:18:31.000Z</time>
      </trkpt>
      <trkpt lat="47.34105" lon="-2.32082">
        <ele>-73</ele>
        <time>2021-11-04T09:18:36.000Z</time>
      </trkpt>
      <trkpt lat="47.34107" lon="-2.32082">
        <ele>-73.400001525879</ele>
        <time>2021-11-04T09:18:37.000Z</time>
      </trkpt>
      <trkpt lat="47.34108" lon="-2.32081">
        <ele>-73.800003051758</ele>
        <time>2021-11-04T09:18:38.000Z</time>
      </trkpt>
      <trkpt lat="47.34109" lon="-2.32081">
        <ele>-74.199996948242</ele>
        <time>2021-11-04T09:18:39.000Z</time>
      </trkpt>
      <trkpt lat="47.3411" lon="-2.3208">
        <ele>-74.599998474121</ele>
        <time>2021-11-04T09:18:40.000Z</time>
      </trkpt>
      <trkpt lat="47.34112" lon="-2.32079">
        <ele>-74.599998474121</ele>
        <time>2021-11-04T09:18:41.000Z</time>
      </trkpt>
      <trkpt lat="47.34124" lon="-2.3207">
        <ele>-74.599998474121</ele>
        <time>2021-11-04T09:18:47.000Z</time>
      </trkpt>
      <trkpt lat="47.34143" lon="-2.32056">
        <ele>-74.599998474121</ele>
        <time>2021-11-04T09:18:53.000Z</time>
      </trkpt>
      <trkpt lat="47.34161" lon="-2.32044">
        <ele>-74.599998474121</ele>
        <time>2021-11-04T09:18:58.000Z</time>
      </trkpt>
      <trkpt lat="47.34175" lon="-2.32033">
        <ele>-74.599998474121</ele>
        <time>2021-11-04T09:19:02.000Z</time>
      </trkpt>
      <trkpt lat="47.34181" lon="-2.32034">
        <ele>-74.599998474121</ele>
        <time>2021-11-04T09:19:06.000Z</time>
      </trkpt>
      <trkpt lat="47.34182" lon="-2.32037">
        <ele>-74.599998474121</ele>
        <time>2021-11-04T09:19:07.000Z</time>
      </trkpt>
      <trkpt lat="47.34192" lon="-2.32049">
        <ele>-74.599998474121</ele>
        <time>2021-11-04T09:19:12.000Z</time>
      </trkpt>
      <trkpt lat="47.34195" lon="-2.32051">
        <ele>-74.599998474121</ele>
        <time>2021-11-04T09:19:13.000Z</time>
      </trkpt>
      <trkpt lat="47.34209" lon="-2.32066">
        <ele>-74.599998474121</ele>
        <time>2021-11-04T09:19:18.000Z</time>
      </trkpt>
      <trkpt lat="47.34221" lon="-2.32076">
        <ele>-74.599998474121</ele>
        <time>2021-11-04T09:19:23.000Z</time>
      </trkpt>
      <trkpt lat="47.34236" lon="-2.32091">
        <ele>-74.599998474121</ele>
        <time>2021-11-04T09:19:28.000Z</time>
      </trkpt>
      <trkpt lat="47.34263" lon="-2.32112">
        <ele>-74.599998474121</ele>
        <time>2021-11-04T09:19:34.000Z</time>
      </trkpt>
      <trkpt lat="47.34289" lon="-2.32138">
        <ele>-74.599998474121</ele>
        <time>2021-11-04T09:19:41.000Z</time>
      </trkpt>
      <trkpt lat="47.343" lon="-2.32155">
        <ele>-74.599998474121</ele>
        <time>2021-11-04T09:19:47.000Z</time>
      </trkpt>
      <trkpt lat="47.34304" lon="-2.32159">
        <ele>-74.599998474121</ele>
        <time>2021-11-04T09:19:49.000Z</time>
      </trkpt>
      <trkpt lat="47.34309" lon="-2.32165">
        <ele>-74.599998474121</ele>
        <time>2021-11-04T09:19:53.000Z</time>
      </trkpt>
      <trkpt lat="47.34319" lon="-2.32175">
        <ele>-74.599998474121</ele>
        <time>2021-11-04T09:19:59.000Z</time>
      </trkpt>
      <trkpt lat="47.34332" lon="-2.32187">
        <ele>-74.599998474121</ele>
        <time>2021-11-04T09:20:05.000Z</time>
      </trkpt>
      <trkpt lat="47.34334" lon="-2.32186">
        <ele>-74.599998474121</ele>
        <time>2021-11-04T09:20:06.000Z</time>
      </trkpt>
      <trkpt lat="47.34341" lon="-2.32182">
        <ele>-74.599998474121</ele>
        <time>2021-11-04T09:20:09.000Z</time>
      </trkpt>
      <trkpt lat="47.34345" lon="-2.32179">
        <ele>-74.599998474121</ele>
        <time>2021-11-04T09:20:12.000Z</time>
      </trkpt>
      <trkpt lat="47.3435" lon="-2.32174">
        <ele>-74.599998474121</ele>
        <time>2021-11-04T09:20:18.000Z</time>
      </trkpt>
      <trkpt lat="47.34377" lon="-2.3215">
        <ele>-76.599998474121</ele>
        <time>2021-11-04T09:20:56.000Z</time>
      </trkpt>
      <trkpt lat="47.34379" lon="-2.32148">
        <ele>-76.599998474121</ele>
        <time>2021-11-04T09:20:57.000Z</time>
      </trkpt>
      <trkpt lat="47.34387" lon="-2.32133">
        <ele>-76.599998474121</ele>
        <time>2021-11-04T09:21:04.000Z</time>
      </trkpt>
      <trkpt lat="47.34439" lon="-2.31993">
        <ele>-76.599998474121</ele>
        <time>2021-11-04T09:23:54.000Z</time>
      </trkpt>
      <trkpt lat="47.34442" lon="-2.31986">
        <ele>-76.599998474121</ele>
        <time>2021-11-04T09:23:57.000Z</time>
      </trkpt>
      <trkpt lat="47.34448" lon="-2.3196">
        <ele>-77</ele>
        <time>2021-11-04T09:24:04.000Z</time>
      </trkpt>
      <trkpt lat="47.34448" lon="-2.31957">
        <ele>-77.400001525879</ele>
        <time>2021-11-04T09:24:05.000Z</time>
      </trkpt>
      <trkpt lat="47.34448" lon="-2.31954">
        <ele>-77.800003051758</ele>
        <time>2021-11-04T09:24:06.000Z</time>
      </trkpt>
      <trkpt lat="47.34449" lon="-2.31952">
        <ele>-78.199996948242</ele>
        <time>2021-11-04T09:24:07.000Z</time>
      </trkpt>
      <trkpt lat="47.3445" lon="-2.31948">
        <ele>-78.599998474121</ele>
        <time>2021-11-04T09:24:08.000Z</time>
      </trkpt>
      <trkpt lat="47.3445" lon="-2.31946">
        <ele>-78.599998474121</ele>
        <time>2021-11-04T09:24:09.000Z</time>
      </trkpt>
      <trkpt lat="47.34452" lon="-2.31941">
        <ele>-78.599998474121</ele>
        <time>2021-11-04T09:24:10.000Z</time>
      </trkpt>
      <trkpt lat="47.34454" lon="-2.31927">
        <ele>-78.599998474121</ele>
        <time>2021-11-04T09:24:14.000Z</time>
      </trkpt>
      <trkpt lat="47.34456" lon="-2.31922">
        <ele>-78.599998474121</ele>
        <time>2021-11-04T09:24:16.000Z</time>
      </trkpt>
      <trkpt lat="47.34463" lon="-2.31913">
        <ele>-78.599998474121</ele>
        <time>2021-11-04T09:24:22.000Z</time>
      </trkpt>
      <trkpt lat="47.3447" lon="-2.31907">
        <ele>-78.599998474121</ele>
        <time>2021-11-04T09:24:25.000Z</time>
      </trkpt>
      <trkpt lat="47.34473" lon="-2.31909">
        <ele>-78.599998474121</ele>
        <time>2021-11-04T09:24:27.000Z</time>
      </trkpt>
      <trkpt lat="47.34478" lon="-2.31912">
        <ele>-78.599998474121</ele>
        <time>2021-11-04T09:24:29.000Z</time>
      </trkpt>
      <trkpt lat="47.34488" lon="-2.31918">
        <ele>-78.599998474121</ele>
        <time>2021-11-04T09:24:34.000Z</time>
      </trkpt>
      <trkpt lat="47.34499" lon="-2.31928">
        <ele>-78.599998474121</ele>
        <time>2021-11-04T09:24:41.000Z</time>
      </trkpt>
      <trkpt lat="47.34503" lon="-2.31927">
        <ele>-78.599998474121</ele>
        <time>2021-11-04T09:24:43.000Z</time>
      </trkpt>
      <trkpt lat="47.3451" lon="-2.31927">
        <ele>-78.599998474121</ele>
        <time>2021-11-04T09:24:46.000Z</time>
      </trkpt>
      <trkpt lat="47.34521" lon="-2.31934">
        <ele>-78.599998474121</ele>
        <time>2021-11-04T09:24:51.000Z</time>
      </trkpt>
      <trkpt lat="47.34528" lon="-2.31943">
        <ele>-78.599998474121</ele>
        <time>2021-11-04T09:24:57.000Z</time>
      </trkpt>
      <trkpt lat="47.34537" lon="-2.31955">
        <ele>-78.599998474121</ele>
        <time>2021-11-04T09:25:05.000Z</time>
      </trkpt>
      <trkpt lat="47.34539" lon="-2.31956">
        <ele>-78.599998474121</ele>
        <time>2021-11-04T09:25:06.000Z</time>
      </trkpt>
      <trkpt lat="47.34553" lon="-2.31967">
        <ele>-78.599998474121</ele>
        <time>2021-11-04T09:25:12.000Z</time>
      </trkpt>
      <trkpt lat="47.34571" lon="-2.31976">
        <ele>-78.599998474121</ele>
        <time>2021-11-04T09:25:18.000Z</time>
      </trkpt>
      <trkpt lat="47.34576" lon="-2.31983">
        <ele>-78.599998474121</ele>
        <time>2021-11-04T09:25:24.000Z</time>
      </trkpt>
      <trkpt lat="47.34578" lon="-2.31986">
        <ele>-78.599998474121</ele>
        <time>2021-11-04T09:25:26.000Z</time>
      </trkpt>
      <trkpt lat="47.34604" lon="-2.31996">
        <ele>-78.599998474121</ele>
        <time>2021-11-04T09:26:29.000Z</time>
      </trkpt>
      <trkpt lat="47.34608" lon="-2.31999">
        <ele>-78.599998474121</ele>
        <time>2021-11-04T09:26:31.000Z</time>
      </trkpt>
      <trkpt lat="47.3462" lon="-2.32009">
        <ele>-78.599998474121</ele>
        <time>2021-11-04T09:26:37.000Z</time>
      </trkpt>
      <trkpt lat="47.34632" lon="-2.32013">
        <ele>-78.599998474121</ele>
        <time>2021-11-04T09:26:44.000Z</time>
      </trkpt>
      <trkpt lat="47.34651" lon="-2.32012">
        <ele>-80.599998474121</ele>
        <time>2021-11-04T09:27:03.000Z</time>
      </trkpt>
      <trkpt lat="47.34658" lon="-2.32015">
        <ele>-80.599998474121</ele>
        <time>2021-11-04T09:27:07.000Z</time>
      </trkpt>
      <trkpt lat="47.34661" lon="-2.32015">
        <ele>-80.599998474121</ele>
        <time>2021-11-04T09:27:09.000Z</time>
      </trkpt>
      <trkpt lat="47.34675" lon="-2.32023">
        <ele>-80.599998474121</ele>
        <time>2021-11-04T09:27:16.000Z</time>
      </trkpt>
      <trkpt lat="47.34684" lon="-2.32028">
        <ele>-80.599998474121</ele>
        <time>2021-11-04T09:27:23.000Z</time>
      </trkpt>
      <trkpt lat="47.34697" lon="-2.32032">
        <ele>-80.599998474121</ele>
        <time>2021-11-04T09:27:29.000Z</time>
      </trkpt>
      <trkpt lat="47.34711" lon="-2.32042">
        <ele>-80.599998474121</ele>
        <time>2021-11-04T09:27:35.000Z</time>
      </trkpt>
      <trkpt lat="47.34714" lon="-2.32054">
        <ele>-80.599998474121</ele>
        <time>2021-11-04T09:27:39.000Z</time>
      </trkpt>
      <trkpt lat="47.34713" lon="-2.32062">
        <ele>-80.599998474121</ele>
        <time>2021-11-04T09:27:41.000Z</time>
      </trkpt>
      <trkpt lat="47.34714" lon="-2.32077">
        <ele>-80.599998474121</ele>
        <time>2021-11-04T09:27:45.000Z</time>
      </trkpt>
      <trkpt lat="47.34711" lon="-2.32098">
        <ele>-80.599998474121</ele>
        <time>2021-11-04T09:27:51.000Z</time>
      </trkpt>
      <trkpt lat="47.34707" lon="-2.32117">
        <ele>-80.599998474121</ele>
        <time>2021-11-04T09:27:57.000Z</time>
      </trkpt>
      <trkpt lat="47.34709" lon="-2.32122">
        <ele>-80.599998474121</ele>
        <time>2021-11-04T09:27:59.000Z</time>
      </trkpt>
      <trkpt lat="47.34712" lon="-2.32121">
        <ele>-80.599998474121</ele>
        <time>2021-11-04T09:28:01.000Z</time>
      </trkpt>
      <trkpt lat="47.34715" lon="-2.32119">
        <ele>-80.199996948242</ele>
        <time>2021-11-04T09:28:02.000Z</time>
      </trkpt>
      <trkpt lat="47.34717" lon="-2.32116">
        <ele>-79.800003051758</ele>
        <time>2021-11-04T09:28:03.000Z</time>
      </trkpt>
      <trkpt lat="47.3472" lon="-2.32114">
        <ele>-79.400001525879</ele>
        <time>2021-11-04T09:28:04.000Z</time>
      </trkpt>
      <trkpt lat="47.34722" lon="-2.32111">
        <ele>-79</ele>
        <time>2021-11-04T09:28:05.000Z</time>
      </trkpt>
      <trkpt lat="47.34725" lon="-2.32109">
        <ele>-78.599998474121</ele>
        <time>2021-11-04T09:28:06.000Z</time>
      </trkpt>
      <trkpt lat="47.34729" lon="-2.32107">
        <ele>-78.599998474121</ele>
        <time>2021-11-04T09:28:07.000Z</time>
      </trkpt>
      <trkpt lat="47.34742" lon="-2.32112">
        <ele>-78.599998474121</ele>
        <time>2021-11-04T09:28:11.000Z</time>
      </trkpt>
      <trkpt lat="47.34747" lon="-2.32126">
        <ele>-78.599998474121</ele>
        <time>2021-11-04T09:28:15.000Z</time>
      </trkpt>
      <trkpt lat="47.34756" lon="-2.32147">
        <ele>-78.599998474121</ele>
        <time>2021-11-04T09:28:20.000Z</time>
      </trkpt>
      <trkpt lat="47.3477" lon="-2.32173">
        <ele>-78.599998474121</ele>
        <time>2021-11-04T09:28:26.000Z</time>
      </trkpt>
      <trkpt lat="47.34781" lon="-2.32191">
        <ele>-78.599998474121</ele>
        <time>2021-11-04T09:28:30.000Z</time>
      </trkpt>
      <trkpt lat="47.34783" lon="-2.32196">
        <ele>-78.599998474121</ele>
        <time>2021-11-04T09:28:31.000Z</time>
      </trkpt>
      <trkpt lat="47.34799" lon="-2.32223">
        <ele>-78.599998474121</ele>
        <time>2021-11-04T09:28:37.000Z</time>
      </trkpt>
      <trkpt lat="47.34812" lon="-2.32243">
        <ele>-78.599998474121</ele>
        <time>2021-11-04T09:28:43.000Z</time>
      </trkpt>
      <trkpt lat="47.34815" lon="-2.32253">
        <ele>-78.599998474121</ele>
        <time>2021-11-04T09:28:46.000Z</time>
      </trkpt>
      <trkpt lat="47.34816" lon="-2.32256">
        <ele>-78.599998474121</ele>
        <time>2021-11-04T09:28:48.000Z</time>
      </trkpt>
      <trkpt lat="47.3482" lon="-2.32261">
        <ele>-78.599998474121</ele>
        <time>2021-11-04T09:28:52.000Z</time>
      </trkpt>
      <trkpt lat="47.34827" lon="-2.32266">
        <ele>-78.599998474121</ele>
        <time>2021-11-04T09:28:55.000Z</time>
      </trkpt>
      <trkpt lat="47.34845" lon="-2.32291">
        <ele>-78.599998474121</ele>
        <time>2021-11-04T09:29:01.000Z</time>
      </trkpt>
      <trkpt lat="47.34864" lon="-2.32315">
        <ele>-78.599998474121</ele>
        <time>2021-11-04T09:29:06.000Z</time>
      </trkpt>
      <trkpt lat="47.34866" lon="-2.3232">
        <ele>-78.599998474121</ele>
        <time>2021-11-04T09:29:07.000Z</time>
      </trkpt>
      <trkpt lat="47.34868" lon="-2.3233">
        <ele>-78.599998474121</ele>
        <time>2021-11-04T09:29:09.000Z</time>
      </trkpt>
      <trkpt lat="47.34862" lon="-2.32346">
        <ele>-78.599998474121</ele>
        <time>2021-11-04T09:29:12.000Z</time>
      </trkpt>
      <trkpt lat="47.34848" lon="-2.3237">
        <ele>-78.599998474121</ele>
        <time>2021-11-04T09:29:17.000Z</time>
      </trkpt>
      <trkpt lat="47.34832" lon="-2.32395">
        <ele>-78.599998474121</ele>
        <time>2021-11-04T09:29:22.000Z</time>
      </trkpt>
      <trkpt lat="47.34816" lon="-2.32415">
        <ele>-78.599998474121</ele>
        <time>2021-11-04T09:29:27.000Z</time>
      </trkpt>
      <trkpt lat="47.34796" lon="-2.32445">
        <ele>-78.599998474121</ele>
        <time>2021-11-04T09:29:34.000Z</time>
      </trkpt>
      <trkpt lat="47.34792" lon="-2.32449">
        <ele>-78.599998474121</ele>
        <time>2021-11-04T09:29:35.000Z</time>
      </trkpt>
      <trkpt lat="47.34779" lon="-2.32462">
        <ele>-78.599998474121</ele>
        <time>2021-11-04T09:29:38.000Z</time>
      </trkpt>
      <trkpt lat="47.34755" lon="-2.32488">
        <ele>-78.599998474121</ele>
        <time>2021-11-04T09:29:44.000Z</time>
      </trkpt>
      <trkpt lat="47.34746" lon="-2.32495">
        <ele>-78.599998474121</ele>
        <time>2021-11-04T09:29:46.000Z</time>
      </trkpt>
      <trkpt lat="47.34732" lon="-2.32499">
        <ele>-78.599998474121</ele>
        <time>2021-11-04T09:29:49.000Z</time>
      </trkpt>
      <trkpt lat="47.34709" lon="-2.3251">
        <ele>-78.599998474121</ele>
        <time>2021-11-04T09:29:55.000Z</time>
      </trkpt>
      <trkpt lat="47.34693" lon="-2.32515">
        <ele>-78.599998474121</ele>
        <time>2021-11-04T09:30:00.000Z</time>
      </trkpt>
      <trkpt lat="47.34674" lon="-2.32522">
        <ele>-78.599998474121</ele>
        <time>2021-11-04T09:30:05.000Z</time>
      </trkpt>
      <trkpt lat="47.34663" lon="-2.32544">
        <ele>-78.599998474121</ele>
        <time>2021-11-04T09:30:10.000Z</time>
      </trkpt>
      <trkpt lat="47.34652" lon="-2.32567">
        <ele>-78.599998474121</ele>
        <time>2021-11-04T09:30:15.000Z</time>
      </trkpt>
      <trkpt lat="47.3464" lon="-2.32591">
        <ele>-78.599998474121</ele>
        <time>2021-11-04T09:30:19.000Z</time>
      </trkpt>
      <trkpt lat="47.34634" lon="-2.32602">
        <ele>-78.599998474121</ele>
        <time>2021-11-04T09:30:21.000Z</time>
      </trkpt>
      <trkpt lat="47.34627" lon="-2.32611">
        <ele>-78.599998474121</ele>
        <time>2021-11-04T09:30:23.000Z</time>
      </trkpt>
      <trkpt lat="47.34615" lon="-2.32628">
        <ele>-78.599998474121</ele>
        <time>2021-11-04T09:30:27.000Z</time>
      </trkpt>
      <trkpt lat="47.34593" lon="-2.32656">
        <ele>-78.599998474121</ele>
        <time>2021-11-04T09:30:33.000Z</time>
      </trkpt>
      <trkpt lat="47.34589" lon="-2.3266">
        <ele>-78.199996948242</ele>
        <time>2021-11-04T09:30:34.000Z</time>
      </trkpt>
      <trkpt lat="47.34585" lon="-2.32664">
        <ele>-77.800003051758</ele>
        <time>2021-11-04T09:30:35.000Z</time>
      </trkpt>
      <trkpt lat="47.34581" lon="-2.32668">
        <ele>-77</ele>
        <time>2021-11-04T09:30:36.000Z</time>
      </trkpt>
      <trkpt lat="47.34577" lon="-2.32672">
        <ele>-76.599998474121</ele>
        <time>2021-11-04T09:30:37.000Z</time>
      </trkpt>
      <trkpt lat="47.34565" lon="-2.32684">
        <ele>-76.599998474121</ele>
        <time>2021-11-04T09:30:40.000Z</time>
      </trkpt>
      <trkpt lat="47.34556" lon="-2.32691">
        <ele>-76.599998474121</ele>
        <time>2021-11-04T09:30:42.000Z</time>
      </trkpt>
      <trkpt lat="47.3454" lon="-2.32703">
        <ele>-76.199996948242</ele>
        <time>2021-11-04T09:30:46.000Z</time>
      </trkpt>
      <trkpt lat="47.34535" lon="-2.32706">
        <ele>-75.800003051758</ele>
        <time>2021-11-04T09:30:47.000Z</time>
      </trkpt>
      <trkpt lat="47.34531" lon="-2.32709">
        <ele>-75.400001525879</ele>
        <time>2021-11-04T09:30:48.000Z</time>
      </trkpt>
      <trkpt lat="47.34526" lon="-2.32712">
        <ele>-75</ele>
        <time>2021-11-04T09:30:49.000Z</time>
      </trkpt>
      <trkpt lat="47.34522" lon="-2.32715">
        <ele>-74.400001525879</ele>
        <time>2021-11-04T09:30:50.000Z</time>
      </trkpt>
      <trkpt lat="47.34518" lon="-2.32717">
        <ele>-74.400001525879</ele>
        <time>2021-11-04T09:30:51.000Z</time>
      </trkpt>
      <trkpt lat="47.34513" lon="-2.32719">
        <ele>-74.400001525879</ele>
        <time>2021-11-04T09:30:52.000Z</time>
      </trkpt>
      <trkpt lat="47.345" lon="-2.32727">
        <ele>-74.400001525879</ele>
        <time>2021-11-04T09:30:55.000Z</time>
      </trkpt>
      <trkpt lat="47.34483" lon="-2.32736">
        <ele>-74.400001525879</ele>
        <time>2021-11-04T09:30:59.000Z</time>
      </trkpt>
      <trkpt lat="47.34466" lon="-2.32745">
        <ele>-74.400001525879</ele>
        <time>2021-11-04T09:31:03.000Z</time>
      </trkpt>
      <trkpt lat="47.34462" lon="-2.32748">
        <ele>-74.400001525879</ele>
        <time>2021-11-04T09:31:04.000Z</time>
      </trkpt>
      <trkpt lat="47.34443" lon="-2.32769">
        <ele>-74.400001525879</ele>
        <time>2021-11-04T09:31:09.000Z</time>
      </trkpt>
      <trkpt lat="47.34446" lon="-2.32801">
        <ele>-74.400001525879</ele>
        <time>2021-11-04T09:31:13.000Z</time>
      </trkpt>
      <trkpt lat="47.34447" lon="-2.32816">
        <ele>-75</ele>
        <time>2021-11-04T09:31:15.000Z</time>
      </trkpt>
      <trkpt lat="47.34446" lon="-2.32824">
        <ele>-75.400001525879</ele>
        <time>2021-11-04T09:31:16.000Z</time>
      </trkpt>
      <trkpt lat="47.34443" lon="-2.3283">
        <ele>-76</ele>
        <time>2021-11-04T09:31:17.000Z</time>
      </trkpt>
      <trkpt lat="47.3444" lon="-2.32834">
        <ele>-76.400001525879</ele>
        <time>2021-11-04T09:31:18.000Z</time>
      </trkpt>
      <trkpt lat="47.34436" lon="-2.32837">
        <ele>-76.800003051758</ele>
        <time>2021-11-04T09:31:19.000Z</time>
      </trkpt>
      <trkpt lat="47.34432" lon="-2.3284">
        <ele>-76.800003051758</ele>
        <time>2021-11-04T09:31:20.000Z</time>
      </trkpt>
      <trkpt lat="47.34418" lon="-2.32848">
        <ele>-76.800003051758</ele>
        <time>2021-11-04T09:31:23.000Z</time>
      </trkpt>
      <trkpt lat="47.34413" lon="-2.32851">
        <ele>-76.800003051758</ele>
        <time>2021-11-04T09:31:24.000Z</time>
      </trkpt>
      <trkpt lat="47.34407" lon="-2.32855">
        <ele>-76.800003051758</ele>
        <time>2021-11-04T09:31:25.000Z</time>
      </trkpt>
      <trkpt lat="47.34374" lon="-2.32882">
        <ele>-76.800003051758</ele>
        <time>2021-11-04T09:31:32.000Z</time>
      </trkpt>
      <trkpt lat="47.34358" lon="-2.32903">
        <ele>-76.800003051758</ele>
        <time>2021-11-04T09:31:37.000Z</time>
      </trkpt>
      <trkpt lat="47.34353" lon="-2.32913">
        <ele>-77.199996948242</ele>
        <time>2021-11-04T09:31:39.000Z</time>
      </trkpt>
      <trkpt lat="47.34351" lon="-2.32918">
        <ele>-77.599998474121</ele>
        <time>2021-11-04T09:31:40.000Z</time>
      </trkpt>
      <trkpt lat="47.3435" lon="-2.32923">
        <ele>-78</ele>
        <time>2021-11-04T09:31:41.000Z</time>
      </trkpt>
      <trkpt lat="47.34348" lon="-2.32928">
        <ele>-78.400001525879</ele>
        <time>2021-11-04T09:31:42.000Z</time>
      </trkpt>
      <trkpt lat="47.34348" lon="-2.32933">
        <ele>-78.800003051758</ele>
        <time>2021-11-04T09:31:43.000Z</time>
      </trkpt>
      <trkpt lat="47.34348" lon="-2.32945">
        <ele>-78.800003051758</ele>
        <time>2021-11-04T09:31:45.000Z</time>
      </trkpt>
      <trkpt lat="47.34353" lon="-2.32958">
        <ele>-78.800003051758</ele>
        <time>2021-11-04T09:31:47.000Z</time>
      </trkpt>
      <trkpt lat="47.34357" lon="-2.3297">
        <ele>-78.800003051758</ele>
        <time>2021-11-04T09:31:49.000Z</time>
      </trkpt>
      <trkpt lat="47.34363" lon="-2.32998">
        <ele>-78.800003051758</ele>
        <time>2021-11-04T09:31:53.000Z</time>
      </trkpt>
      <trkpt lat="47.34364" lon="-2.33006">
        <ele>-78.800003051758</ele>
        <time>2021-11-04T09:31:54.000Z</time>
      </trkpt>
      <trkpt lat="47.34364" lon="-2.33019">
        <ele>-78.800003051758</ele>
        <time>2021-11-04T09:31:56.000Z</time>
      </trkpt>
      <trkpt lat="47.34363" lon="-2.33026">
        <ele>-78.800003051758</ele>
        <time>2021-11-04T09:31:57.000Z</time>
      </trkpt>
      <trkpt lat="47.34352" lon="-2.33037">
        <ele>-78.800003051758</ele>
        <time>2021-11-04T09:32:00.000Z</time>
      </trkpt>
      <trkpt lat="47.34344" lon="-2.33042">
        <ele>-78.800003051758</ele>
        <time>2021-11-04T09:32:02.000Z</time>
      </trkpt>
      <trkpt lat="47.34323" lon="-2.33052">
        <ele>-78.800003051758</ele>
        <time>2021-11-04T09:32:07.000Z</time>
      </trkpt>
      <trkpt lat="47.34297" lon="-2.33067">
        <ele>-78.800003051758</ele>
        <time>2021-11-04T09:32:13.000Z</time>
      </trkpt>
      <trkpt lat="47.34269" lon="-2.33083">
        <ele>-78.800003051758</ele>
        <time>2021-11-04T09:32:19.000Z</time>
      </trkpt>
      <trkpt lat="47.34259" lon="-2.331">
        <ele>-78.800003051758</ele>
        <time>2021-11-04T09:32:22.000Z</time>
      </trkpt>
      <trkpt lat="47.34256" lon="-2.33107">
        <ele>-78.800003051758</ele>
        <time>2021-11-04T09:32:23.000Z</time>
      </trkpt>
      <trkpt lat="47.34244" lon="-2.33142">
        <ele>-78.800003051758</ele>
        <time>2021-11-04T09:32:28.000Z</time>
      </trkpt>
      <trkpt lat="47.34238" lon="-2.33163">
        <ele>-78.400001525879</ele>
        <time>2021-11-04T09:32:31.000Z</time>
      </trkpt>
      <trkpt lat="47.34235" lon="-2.33171">
        <ele>-78</ele>
        <time>2021-11-04T09:32:32.000Z</time>
      </trkpt>
      <trkpt lat="47.34232" lon="-2.33179">
        <ele>-77.599998474121</ele>
        <time>2021-11-04T09:32:33.000Z</time>
      </trkpt>
      <trkpt lat="47.3423" lon="-2.33186">
        <ele>-77.199996948242</ele>
        <time>2021-11-04T09:32:34.000Z</time>
      </trkpt>
      <trkpt lat="47.34227" lon="-2.33193">
        <ele>-76.800003051758</ele>
        <time>2021-11-04T09:32:35.000Z</time>
      </trkpt>
      <trkpt lat="47.34225" lon="-2.332">
        <ele>-76.800003051758</ele>
        <time>2021-11-04T09:32:36.000Z</time>
      </trkpt>
      <trkpt lat="47.34213" lon="-2.33239">
        <ele>-76.800003051758</ele>
        <time>2021-11-04T09:32:41.000Z</time>
      </trkpt>
      <trkpt lat="47.34191" lon="-2.3331">
        <ele>-76.800003051758</ele>
        <time>2021-11-04T09:32:50.000Z</time>
      </trkpt>
      <trkpt lat="47.3418" lon="-2.33347">
        <ele>-76.400001525879</ele>
        <time>2021-11-04T09:32:55.000Z</time>
      </trkpt>
      <trkpt lat="47.34178" lon="-2.33354">
        <ele>-76</ele>
        <time>2021-11-04T09:32:56.000Z</time>
      </trkpt>
      <trkpt lat="47.34176" lon="-2.33362">
        <ele>-75.599998474121</ele>
        <time>2021-11-04T09:32:57.000Z</time>
      </trkpt>
      <trkpt lat="47.34173" lon="-2.33369">
        <ele>-75.199996948242</ele>
        <time>2021-11-04T09:32:58.000Z</time>
      </trkpt>
      <trkpt lat="47.34171" lon="-2.33376">
        <ele>-74.800003051758</ele>
        <time>2021-11-04T09:32:59.000Z</time>
      </trkpt>
      <trkpt lat="47.34156" lon="-2.33412">
        <ele>-74.800003051758</ele>
        <time>2021-11-04T09:33:04.000Z</time>
      </trkpt>
      <trkpt lat="47.34152" lon="-2.33418">
        <ele>-74.800003051758</ele>
        <time>2021-11-04T09:33:05.000Z</time>
      </trkpt>
      <trkpt lat="47.34133" lon="-2.33446">
        <ele>-74.800003051758</ele>
        <time>2021-11-04T09:33:10.000Z</time>
      </trkpt>
      <trkpt lat="47.3413" lon="-2.33451">
        <ele>-74.800003051758</ele>
        <time>2021-11-04T09:33:11.000Z</time>
      </trkpt>
      <trkpt lat="47.34118" lon="-2.33466">
        <ele>-74.800003051758</ele>
        <time>2021-11-04T09:33:15.000Z</time>
      </trkpt>
      <trkpt lat="47.34116" lon="-2.33471">
        <ele>-74.800003051758</ele>
        <time>2021-11-04T09:33:18.000Z</time>
      </trkpt>
      <trkpt lat="47.34112" lon="-2.33478">
        <ele>-74.800003051758</ele>
        <time>2021-11-04T09:33:23.000Z</time>
      </trkpt>
      <trkpt lat="47.34102" lon="-2.33489">
        <ele>-74.800003051758</ele>
        <time>2021-11-04T09:33:27.000Z</time>
      </trkpt>
      <trkpt lat="47.3409" lon="-2.33506">
        <ele>-74.400001525879</ele>
        <time>2021-11-04T09:33:31.000Z</time>
      </trkpt>
      <trkpt lat="47.34088" lon="-2.3351">
        <ele>-74</ele>
        <time>2021-11-04T09:33:32.000Z</time>
      </trkpt>
      <trkpt lat="47.34086" lon="-2.33514">
        <ele>-73.599998474121</ele>
        <time>2021-11-04T09:33:33.000Z</time>
      </trkpt>
      <trkpt lat="47.34083" lon="-2.33517">
        <ele>-73.199996948242</ele>
        <time>2021-11-04T09:33:34.000Z</time>
      </trkpt>
      <trkpt lat="47.3408" lon="-2.33521">
        <ele>-72.800003051758</ele>
        <time>2021-11-04T09:33:35.000Z</time>
      </trkpt>
      <trkpt lat="47.34073" lon="-2.3353">
        <ele>-72.800003051758</ele>
        <time>2021-11-04T09:33:37.000Z</time>
      </trkpt>
      <trkpt lat="47.3407" lon="-2.33536">
        <ele>-72.800003051758</ele>
        <time>2021-11-04T09:33:38.000Z</time>
      </trkpt>
      <trkpt lat="47.34056" lon="-2.33569">
        <ele>-72.800003051758</ele>
        <time>2021-11-04T09:33:43.000Z</time>
      </trkpt>
      <trkpt lat="47.34036" lon="-2.33608">
        <ele>-72.800003051758</ele>
        <time>2021-11-04T09:33:50.000Z</time>
      </trkpt>
      <trkpt lat="47.34014" lon="-2.33648">
        <ele>-72.800003051758</ele>
        <time>2021-11-04T09:33:57.000Z</time>
      </trkpt>
      <trkpt lat="47.3401" lon="-2.33654">
        <ele>-72.800003051758</ele>
        <time>2021-11-04T09:33:58.000Z</time>
      </trkpt>
      <trkpt lat="47.34001" lon="-2.33671">
        <ele>-72.400001525879</ele>
        <time>2021-11-04T09:34:01.000Z</time>
      </trkpt>
      <trkpt lat="47.33997" lon="-2.33677">
        <ele>-72</ele>
        <time>2021-11-04T09:34:02.000Z</time>
      </trkpt>
      <trkpt lat="47.33994" lon="-2.33683">
        <ele>-71.599998474121</ele>
        <time>2021-11-04T09:34:03.000Z</time>
      </trkpt>
      <trkpt lat="47.33991" lon="-2.33688">
        <ele>-71.199996948242</ele>
        <time>2021-11-04T09:34:04.000Z</time>
      </trkpt>
      <trkpt lat="47.33987" lon="-2.33693">
        <ele>-70.800003051758</ele>
        <time>2021-11-04T09:34:05.000Z</time>
      </trkpt>
      <trkpt lat="47.33981" lon="-2.33704">
        <ele>-70.800003051758</ele>
        <time>2021-11-04T09:34:07.000Z</time>
      </trkpt>
      <trkpt lat="47.33968" lon="-2.3373">
        <ele>-70.800003051758</ele>
        <time>2021-11-04T09:34:11.000Z</time>
      </trkpt>
      <trkpt lat="47.33945" lon="-2.33769">
        <ele>-70.800003051758</ele>
        <time>2021-11-04T09:34:17.000Z</time>
      </trkpt>
      <trkpt lat="47.33925" lon="-2.33803">
        <ele>-70.800003051758</ele>
        <time>2021-11-04T09:34:23.000Z</time>
      </trkpt>
      <trkpt lat="47.33921" lon="-2.33808">
        <ele>-70.800003051758</ele>
        <time>2021-11-04T09:34:24.000Z</time>
      </trkpt>
      <trkpt lat="47.33913" lon="-2.33822">
        <ele>-70.400001525879</ele>
        <time>2021-11-04T09:34:27.000Z</time>
      </trkpt>
      <trkpt lat="47.33911" lon="-2.33827">
        <ele>-70</ele>
        <time>2021-11-04T09:34:28.000Z</time>
      </trkpt>
      <trkpt lat="47.33908" lon="-2.33831">
        <ele>-69.599998474121</ele>
        <time>2021-11-04T09:34:29.000Z</time>
      </trkpt>
      <trkpt lat="47.33905" lon="-2.33836">
        <ele>-69.199996948242</ele>
        <time>2021-11-04T09:34:30.000Z</time>
      </trkpt>
      <trkpt lat="47.33902" lon="-2.33841">
        <ele>-68.800003051758</ele>
        <time>2021-11-04T09:34:31.000Z</time>
      </trkpt>
      <trkpt lat="47.3389" lon="-2.33862">
        <ele>-68.800003051758</ele>
        <time>2021-11-04T09:34:35.000Z</time>
      </trkpt>
      <trkpt lat="47.33877" lon="-2.33876">
        <ele>-68.800003051758</ele>
        <time>2021-11-04T09:34:41.000Z</time>
      </trkpt>
      <trkpt lat="47.33862" lon="-2.33893">
        <ele>-68.800003051758</ele>
        <time>2021-11-04T09:34:46.000Z</time>
      </trkpt>
      <trkpt lat="47.33835" lon="-2.33915">
        <ele>-68.800003051758</ele>
        <time>2021-11-04T09:34:53.000Z</time>
      </trkpt>
      <trkpt lat="47.33822" lon="-2.33925">
        <ele>-68.400001525879</ele>
        <time>2021-11-04T09:34:56.000Z</time>
      </trkpt>
      <trkpt lat="47.33817" lon="-2.33928">
        <ele>-68</ele>
        <time>2021-11-04T09:34:57.000Z</time>
      </trkpt>
      <trkpt lat="47.33812" lon="-2.33932">
        <ele>-67.400001525879</ele>
        <time>2021-11-04T09:34:58.000Z</time>
      </trkpt>
      <trkpt lat="47.33808" lon="-2.33935">
        <ele>-67</ele>
        <time>2021-11-04T09:34:59.000Z</time>
      </trkpt>
      <trkpt lat="47.33804" lon="-2.33939">
        <ele>-66.599998474121</ele>
        <time>2021-11-04T09:35:00.000Z</time>
      </trkpt>
      <trkpt lat="47.33763" lon="-2.33968">
        <ele>-66.599998474121</ele>
        <time>2021-11-04T09:35:09.000Z</time>
      </trkpt>
      <trkpt lat="47.33738" lon="-2.33991">
        <ele>-66.599998474121</ele>
        <time>2021-11-04T09:35:15.000Z</time>
      </trkpt>
      <trkpt lat="47.33729" lon="-2.33998">
        <ele>-66.599998474121</ele>
        <time>2021-11-04T09:35:17.000Z</time>
      </trkpt>
      <trkpt lat="47.3369" lon="-2.34032">
        <ele>-66.599998474121</ele>
        <time>2021-11-04T09:35:26.000Z</time>
      </trkpt>
      <trkpt lat="47.33664" lon="-2.34055">
        <ele>-66.199996948242</ele>
        <time>2021-11-04T09:35:32.000Z</time>
      </trkpt>
      <trkpt lat="47.33659" lon="-2.34059">
        <ele>-65.400001525879</ele>
        <time>2021-11-04T09:35:33.000Z</time>
      </trkpt>
      <trkpt lat="47.33654" lon="-2.34062">
        <ele>-65</ele>
        <time>2021-11-04T09:35:34.000Z</time>
      </trkpt>
      <trkpt lat="47.3365" lon="-2.34067">
        <ele>-64.599998474121</ele>
        <time>2021-11-04T09:35:35.000Z</time>
      </trkpt>
      <trkpt lat="47.33628" lon="-2.34085">
        <ele>-64.599998474121</ele>
        <time>2021-11-04T09:35:40.000Z</time>
      </trkpt>
      <trkpt lat="47.33597" lon="-2.34109">
        <ele>-64.599998474121</ele>
        <time>2021-11-04T09:35:47.000Z</time>
      </trkpt>
      <trkpt lat="47.3356" lon="-2.34138">
        <ele>-64.599998474121</ele>
        <time>2021-11-04T09:35:55.000Z</time>
      </trkpt>
      <trkpt lat="47.33532" lon="-2.34158">
        <ele>-64.599998474121</ele>
        <time>2021-11-04T09:36:01.000Z</time>
      </trkpt>
      <trkpt lat="47.33503" lon="-2.34178">
        <ele>-64.599998474121</ele>
        <time>2021-11-04T09:36:07.000Z</time>
      </trkpt>
      <trkpt lat="47.33469" lon="-2.34207">
        <ele>-64.199996948242</ele>
        <time>2021-11-04T09:36:14.000Z</time>
      </trkpt>
      <trkpt lat="47.33464" lon="-2.34212">
        <ele>-63.799999237061</ele>
        <time>2021-11-04T09:36:15.000Z</time>
      </trkpt>
      <trkpt lat="47.3346" lon="-2.34216">
        <ele>-63.400001525879</ele>
        <time>2021-11-04T09:36:16.000Z</time>
      </trkpt>
      <trkpt lat="47.33456" lon="-2.34222">
        <ele>-63</ele>
        <time>2021-11-04T09:36:17.000Z</time>
      </trkpt>
      <trkpt lat="47.33452" lon="-2.34228">
        <ele>-62.599998474121</ele>
        <time>2021-11-04T09:36:18.000Z</time>
      </trkpt>
      <trkpt lat="47.33445" lon="-2.3424">
        <ele>-62.599998474121</ele>
        <time>2021-11-04T09:36:20.000Z</time>
      </trkpt>
      <trkpt lat="47.33433" lon="-2.34262">
        <ele>-62.599998474121</ele>
        <time>2021-11-04T09:36:24.000Z</time>
      </trkpt>
      <trkpt lat="47.3343" lon="-2.34275">
        <ele>-62.599998474121</ele>
        <time>2021-11-04T09:36:26.000Z</time>
      </trkpt>
      <trkpt lat="47.33416" lon="-2.34317">
        <ele>-62.599998474121</ele>
        <time>2021-11-04T09:36:32.000Z</time>
      </trkpt>
      <trkpt lat="47.33398" lon="-2.3437">
        <ele>-62.599998474121</ele>
        <time>2021-11-04T09:36:39.000Z</time>
      </trkpt>
      <trkpt lat="47.33381" lon="-2.34421">
        <ele>-62.599998474121</ele>
        <time>2021-11-04T09:36:46.000Z</time>
      </trkpt>
      <trkpt lat="47.33379" lon="-2.34427">
        <ele>-62.200000762939</ele>
        <time>2021-11-04T09:36:47.000Z</time>
      </trkpt>
      <trkpt lat="47.33377" lon="-2.34434">
        <ele>-61.799999237061</ele>
        <time>2021-11-04T09:36:48.000Z</time>
      </trkpt>
      <trkpt lat="47.33375" lon="-2.3444">
        <ele>-61.400001525879</ele>
        <time>2021-11-04T09:36:49.000Z</time>
      </trkpt>
      <trkpt lat="47.33372" lon="-2.34446">
        <ele>-61</ele>
        <time>2021-11-04T09:36:50.000Z</time>
      </trkpt>
      <trkpt lat="47.3337" lon="-2.34452">
        <ele>-60.599998474121</ele>
        <time>2021-11-04T09:36:51.000Z</time>
      </trkpt>
      <trkpt lat="47.33365" lon="-2.34471">
        <ele>-60.599998474121</ele>
        <time>2021-11-04T09:36:54.000Z</time>
      </trkpt>
      <trkpt lat="47.33361" lon="-2.34482">
        <ele>-60.599998474121</ele>
        <time>2021-11-04T09:36:56.000Z</time>
      </trkpt>
      <trkpt lat="47.33354" lon="-2.34496">
        <ele>-60.599998474121</ele>
        <time>2021-11-04T09:36:59.000Z</time>
      </trkpt>
      <trkpt lat="47.33351" lon="-2.34501">
        <ele>-60.599998474121</ele>
        <time>2021-11-04T09:37:00.000Z</time>
      </trkpt>
      <trkpt lat="47.33335" lon="-2.3451">
        <ele>-60.599998474121</ele>
        <time>2021-11-04T09:37:05.000Z</time>
      </trkpt>
      <trkpt lat="47.33322" lon="-2.34503">
        <ele>-61</ele>
        <time>2021-11-04T09:37:08.000Z</time>
      </trkpt>
      <trkpt lat="47.33317" lon="-2.345">
        <ele>-61.400001525879</ele>
        <time>2021-11-04T09:37:09.000Z</time>
      </trkpt>
      <trkpt lat="47.33312" lon="-2.34498">
        <ele>-61.799999237061</ele>
        <time>2021-11-04T09:37:10.000Z</time>
      </trkpt>
      <trkpt lat="47.33306" lon="-2.34496">
        <ele>-62.200000762939</ele>
        <time>2021-11-04T09:37:11.000Z</time>
      </trkpt>
      <trkpt lat="47.33301" lon="-2.34493">
        <ele>-62.599998474121</ele>
        <time>2021-11-04T09:37:12.000Z</time>
      </trkpt>
      <trkpt lat="47.33281" lon="-2.34484">
        <ele>-62.599998474121</ele>
        <time>2021-11-04T09:37:16.000Z</time>
      </trkpt>
      <trkpt lat="47.33275" lon="-2.34481">
        <ele>-62.599998474121</ele>
        <time>2021-11-04T09:37:17.000Z</time>
      </trkpt>
      <trkpt lat="47.33264" lon="-2.34478">
        <ele>-62.599998474121</ele>
        <time>2021-11-04T09:37:19.000Z</time>
      </trkpt>
      <trkpt lat="47.33247" lon="-2.34485">
        <ele>-62.599998474121</ele>
        <time>2021-11-04T09:37:22.000Z</time>
      </trkpt>
      <trkpt lat="47.33235" lon="-2.34494">
        <ele>-62.599998474121</ele>
        <time>2021-11-04T09:37:24.000Z</time>
      </trkpt>
      <trkpt lat="47.33219" lon="-2.34509">
        <ele>-62.599998474121</ele>
        <time>2021-11-04T09:37:27.000Z</time>
      </trkpt>
      <trkpt lat="47.33185" lon="-2.34542">
        <ele>-62.599998474121</ele>
        <time>2021-11-04T09:37:33.000Z</time>
      </trkpt>
      <trkpt lat="47.33175" lon="-2.34552">
        <ele>-63</ele>
        <time>2021-11-04T09:37:35.000Z</time>
      </trkpt>
      <trkpt lat="47.3317" lon="-2.34557">
        <ele>-63.799999237061</ele>
        <time>2021-11-04T09:37:36.000Z</time>
      </trkpt>
      <trkpt lat="47.33164" lon="-2.34562">
        <ele>-64.199996948242</ele>
        <time>2021-11-04T09:37:37.000Z</time>
      </trkpt>
      <trkpt lat="47.33158" lon="-2.34567">
        <ele>-64.599998474121</ele>
        <time>2021-11-04T09:37:38.000Z</time>
      </trkpt>
      <trkpt lat="47.33142" lon="-2.34582">
        <ele>-64.599998474121</ele>
        <time>2021-11-04T09:37:41.000Z</time>
      </trkpt>
      <trkpt lat="47.33102" lon="-2.3462">
        <ele>-64.599998474121</ele>
        <time>2021-11-04T09:37:49.000Z</time>
      </trkpt>
      <trkpt lat="47.33079" lon="-2.3465">
        <ele>-64.599998474121</ele>
        <time>2021-11-04T09:37:55.000Z</time>
      </trkpt>
      <trkpt lat="47.33073" lon="-2.34654">
        <ele>-64.599998474121</ele>
        <time>2021-11-04T09:37:56.000Z</time>
      </trkpt>
      <trkpt lat="47.33055" lon="-2.34673">
        <ele>-64.599998474121</ele>
        <time>2021-11-04T09:38:00.000Z</time>
      </trkpt>
      <trkpt lat="47.33024" lon="-2.34705">
        <ele>-64.599998474121</ele>
        <time>2021-11-04T09:38:07.000Z</time>
      </trkpt>
      <trkpt lat="47.32995" lon="-2.3473">
        <ele>-64.599998474121</ele>
        <time>2021-11-04T09:38:13.000Z</time>
      </trkpt>
      <trkpt lat="47.32974" lon="-2.34743">
        <ele>-64.599998474121</ele>
        <time>2021-11-04T09:38:17.000Z</time>
      </trkpt>
      <trkpt lat="47.32969" lon="-2.34745">
        <ele>-64.199996948242</ele>
        <time>2021-11-04T09:38:18.000Z</time>
      </trkpt>
      <trkpt lat="47.32964" lon="-2.34748">
        <ele>-63.799999237061</ele>
        <time>2021-11-04T09:38:19.000Z</time>
      </trkpt>
      <trkpt lat="47.32959" lon="-2.34751">
        <ele>-63.400001525879</ele>
        <time>2021-11-04T09:38:20.000Z</time>
      </trkpt>
      <trkpt lat="47.32954" lon="-2.34754">
        <ele>-63</ele>
        <time>2021-11-04T09:38:21.000Z</time>
      </trkpt>
      <trkpt lat="47.32949" lon="-2.34757">
        <ele>-62.599998474121</ele>
        <time>2021-11-04T09:38:22.000Z</time>
      </trkpt>
      <trkpt lat="47.32925" lon="-2.3477">
        <ele>-62.599998474121</ele>
        <time>2021-11-04T09:38:27.000Z</time>
      </trkpt>
      <trkpt lat="47.32896" lon="-2.34788">
        <ele>-62</ele>
        <time>2021-11-04T09:38:33.000Z</time>
      </trkpt>
      <trkpt lat="47.32892" lon="-2.34792">
        <ele>-61.599998474121</ele>
        <time>2021-11-04T09:38:34.000Z</time>
      </trkpt>
      <trkpt lat="47.32887" lon="-2.34796">
        <ele>-61.200000762939</ele>
        <time>2021-11-04T09:38:35.000Z</time>
      </trkpt>
      <trkpt lat="47.32882" lon="-2.34799">
        <ele>-60.799999237061</ele>
        <time>2021-11-04T09:38:36.000Z</time>
      </trkpt>
      <trkpt lat="47.32878" lon="-2.34802">
        <ele>-60.400001525879</ele>
        <time>2021-11-04T09:38:37.000Z</time>
      </trkpt>
      <trkpt lat="47.32859" lon="-2.34813">
        <ele>-60.400001525879</ele>
        <time>2021-11-04T09:38:41.000Z</time>
      </trkpt>
      <trkpt lat="47.32823" lon="-2.34838">
        <ele>-60.400001525879</ele>
        <time>2021-11-04T09:38:49.000Z</time>
      </trkpt>
      <trkpt lat="47.32807" lon="-2.34849">
        <ele>-60.400001525879</ele>
        <time>2021-11-04T09:38:54.000Z</time>
      </trkpt>
      <trkpt lat="47.32803" lon="-2.34852">
        <ele>-60.400001525879</ele>
        <time>2021-11-04T09:38:58.000Z</time>
      </trkpt>
      <trkpt lat="47.32791" lon="-2.3486">
        <ele>-60.400001525879</ele>
        <time>2021-11-04T09:43:17.000Z</time>
      </trkpt>
      <trkpt lat="47.3279" lon="-2.34861">
        <ele>-60.400001525879</ele>
        <time>2021-11-04T09:43:18.000Z</time>
      </trkpt>
      <trkpt lat="47.32781" lon="-2.34871">
        <ele>-60.400001525879</ele>
        <time>2021-11-04T09:43:23.000Z</time>
      </trkpt>
      <trkpt lat="47.32759" lon="-2.34888">
        <ele>-60.400001525879</ele>
        <time>2021-11-04T09:43:29.000Z</time>
      </trkpt>
      <trkpt lat="47.32724" lon="-2.34914">
        <ele>-60.400001525879</ele>
        <time>2021-11-04T09:43:37.000Z</time>
      </trkpt>
      <trkpt lat="47.32716" lon="-2.3492">
        <ele>-60.400001525879</ele>
        <time>2021-11-04T09:43:39.000Z</time>
      </trkpt>
      <trkpt lat="47.32701" lon="-2.34929">
        <ele>-60.400001525879</ele>
        <time>2021-11-04T09:43:42.000Z</time>
      </trkpt>
      <trkpt lat="47.32688" lon="-2.34938">
        <ele>-60</ele>
        <time>2021-11-04T09:43:45.000Z</time>
      </trkpt>
      <trkpt lat="47.32684" lon="-2.34941">
        <ele>-59.599998474121</ele>
        <time>2021-11-04T09:43:46.000Z</time>
      </trkpt>
      <trkpt lat="47.32681" lon="-2.34944">
        <ele>-58.799999237061</ele>
        <time>2021-11-04T09:43:47.000Z</time>
      </trkpt>
      <trkpt lat="47.32677" lon="-2.34946">
        <ele>-58.400001525879</ele>
        <time>2021-11-04T09:43:48.000Z</time>
      </trkpt>
      <trkpt lat="47.3267" lon="-2.34953">
        <ele>-58.400001525879</ele>
        <time>2021-11-04T09:43:51.000Z</time>
      </trkpt>
      <trkpt lat="47.32654" lon="-2.34966">
        <ele>-58.400001525879</ele>
        <time>2021-11-04T09:43:57.000Z</time>
      </trkpt>
      <trkpt lat="47.32625" lon="-2.34982">
        <ele>-58.400001525879</ele>
        <time>2021-11-04T09:44:04.000Z</time>
      </trkpt>
      <trkpt lat="47.32591" lon="-2.34997">
        <ele>-58.400001525879</ele>
        <time>2021-11-04T09:44:12.000Z</time>
      </trkpt>
      <trkpt lat="47.32572" lon="-2.35006">
        <ele>-58</ele>
        <time>2021-11-04T09:44:17.000Z</time>
      </trkpt>
      <trkpt lat="47.32568" lon="-2.35008">
        <ele>-57.599998474121</ele>
        <time>2021-11-04T09:44:18.000Z</time>
      </trkpt>
      <trkpt lat="47.32564" lon="-2.3501">
        <ele>-57.200000762939</ele>
        <time>2021-11-04T09:44:19.000Z</time>
      </trkpt>
      <trkpt lat="47.3256" lon="-2.35012">
        <ele>-56.799999237061</ele>
        <time>2021-11-04T09:44:20.000Z</time>
      </trkpt>
      <trkpt lat="47.32555" lon="-2.35014">
        <ele>-56.200000762939</ele>
        <time>2021-11-04T09:44:21.000Z</time>
      </trkpt>
      <trkpt lat="47.32546" lon="-2.35016">
        <ele>-56.200000762939</ele>
        <time>2021-11-04T09:44:23.000Z</time>
      </trkpt>
      <trkpt lat="47.32537" lon="-2.35019">
        <ele>-56.200000762939</ele>
        <time>2021-11-04T09:44:25.000Z</time>
      </trkpt>
      <trkpt lat="47.3252" lon="-2.35025">
        <ele>-56.200000762939</ele>
        <time>2021-11-04T09:44:29.000Z</time>
      </trkpt>
      <trkpt lat="47.32484" lon="-2.35038">
        <ele>-56.200000762939</ele>
        <time>2021-11-04T09:44:37.000Z</time>
      </trkpt>
      <trkpt lat="47.32445" lon="-2.35047">
        <ele>-56.200000762939</ele>
        <time>2021-11-04T09:44:45.000Z</time>
      </trkpt>
      <trkpt lat="47.32438" lon="-2.35048">
        <ele>-56.200000762939</ele>
        <time>2021-11-04T09:44:46.000Z</time>
      </trkpt>
      <trkpt lat="47.32428" lon="-2.35049">
        <ele>-56.200000762939</ele>
        <time>2021-11-04T09:44:48.000Z</time>
      </trkpt>
      <trkpt lat="47.32422" lon="-2.35049">
        <ele>-55.799999237061</ele>
        <time>2021-11-04T09:44:49.000Z</time>
      </trkpt>
      <trkpt lat="47.32417" lon="-2.3505">
        <ele>-55.400001525879</ele>
        <time>2021-11-04T09:44:50.000Z</time>
      </trkpt>
      <trkpt lat="47.32411" lon="-2.3505">
        <ele>-55</ele>
        <time>2021-11-04T09:44:51.000Z</time>
      </trkpt>
      <trkpt lat="47.32405" lon="-2.3505">
        <ele>-54.599998474121</ele>
        <time>2021-11-04T09:44:52.000Z</time>
      </trkpt>
      <trkpt lat="47.32401" lon="-2.35051">
        <ele>-54.200000762939</ele>
        <time>2021-11-04T09:44:53.000Z</time>
      </trkpt>
      <trkpt lat="47.32374" lon="-2.35052">
        <ele>-54.200000762939</ele>
        <time>2021-11-04T09:44:58.000Z</time>
      </trkpt>
      <trkpt lat="47.3234" lon="-2.35053">
        <ele>-54.200000762939</ele>
        <time>2021-11-04T09:45:04.000Z</time>
      </trkpt>
      <trkpt lat="47.32314" lon="-2.3505">
        <ele>-54.599998474121</ele>
        <time>2021-11-04T09:45:08.000Z</time>
      </trkpt>
      <trkpt lat="47.32308" lon="-2.3505">
        <ele>-55</ele>
        <time>2021-11-04T09:45:09.000Z</time>
      </trkpt>
      <trkpt lat="47.32301" lon="-2.35049">
        <ele>-55.400001525879</ele>
        <time>2021-11-04T09:45:10.000Z</time>
      </trkpt>
      <trkpt lat="47.32295" lon="-2.35048">
        <ele>-55.799999237061</ele>
        <time>2021-11-04T09:45:11.000Z</time>
      </trkpt>
      <trkpt lat="47.32288" lon="-2.35047">
        <ele>-56.200000762939</ele>
        <time>2021-11-04T09:45:12.000Z</time>
      </trkpt>
      <trkpt lat="47.32251" lon="-2.35049">
        <ele>-56.200000762939</ele>
        <time>2021-11-04T09:45:18.000Z</time>
      </trkpt>
      <trkpt lat="47.32223" lon="-2.35057">
        <ele>-56.599998474121</ele>
        <time>2021-11-04T09:45:23.000Z</time>
      </trkpt>
      <trkpt lat="47.32218" lon="-2.35059">
        <ele>-57</ele>
        <time>2021-11-04T09:45:24.000Z</time>
      </trkpt>
      <trkpt lat="47.32212" lon="-2.3506">
        <ele>-57.400001525879</ele>
        <time>2021-11-04T09:45:25.000Z</time>
      </trkpt>
      <trkpt lat="47.32206" lon="-2.3506">
        <ele>-58.400001525879</ele>
        <time>2021-11-04T09:45:26.000Z</time>
      </trkpt>
      <trkpt lat="47.32188" lon="-2.35061">
        <ele>-58.400001525879</ele>
        <time>2021-11-04T09:45:29.000Z</time>
      </trkpt>
      <trkpt lat="47.32142" lon="-2.35061">
        <ele>-58.400001525879</ele>
        <time>2021-11-04T09:45:36.000Z</time>
      </trkpt>
      <trkpt lat="47.32123" lon="-2.35062">
        <ele>-58.400001525879</ele>
        <time>2021-11-04T09:45:39.000Z</time>
      </trkpt>
      <trkpt lat="47.321" lon="-2.35063">
        <ele>-58.400001525879</ele>
        <time>2021-11-04T09:45:43.000Z</time>
      </trkpt>
      <trkpt lat="47.32073" lon="-2.35062">
        <ele>-58.400001525879</ele>
        <time>2021-11-04T09:45:48.000Z</time>
      </trkpt>
      <trkpt lat="47.32056" lon="-2.3506">
        <ele>-58.400001525879</ele>
        <time>2021-11-04T09:45:51.000Z</time>
      </trkpt>
      <trkpt lat="47.32051" lon="-2.3506">
        <ele>-58.799999237061</ele>
        <time>2021-11-04T09:45:52.000Z</time>
      </trkpt>
      <trkpt lat="47.32047" lon="-2.35061">
        <ele>-59.200000762939</ele>
        <time>2021-11-04T09:45:53.000Z</time>
      </trkpt>
      <trkpt lat="47.32043" lon="-2.35063">
        <ele>-59.599998474121</ele>
        <time>2021-11-04T09:45:54.000Z</time>
      </trkpt>
      <trkpt lat="47.3204" lon="-2.35066">
        <ele>-60</ele>
        <time>2021-11-04T09:45:55.000Z</time>
      </trkpt>
      <trkpt lat="47.32039" lon="-2.35069">
        <ele>-60.400001525879</ele>
        <time>2021-11-04T09:45:56.000Z</time>
      </trkpt>
      <trkpt lat="47.32041" lon="-2.35081">
        <ele>-60.400001525879</ele>
        <time>2021-11-04T09:45:59.000Z</time>
      </trkpt>
      <trkpt lat="47.32041" lon="-2.35109">
        <ele>-60.400001525879</ele>
        <time>2021-11-04T09:46:04.000Z</time>
      </trkpt>
      <trkpt lat="47.32039" lon="-2.35115">
        <ele>-60.400001525879</ele>
        <time>2021-11-04T09:46:05.000Z</time>
      </trkpt>
      <trkpt lat="47.32031" lon="-2.35125">
        <ele>-60.400001525879</ele>
        <time>2021-11-04T09:46:07.000Z</time>
      </trkpt>
      <trkpt lat="47.32024" lon="-2.35134">
        <ele>-60.400001525879</ele>
        <time>2021-11-04T09:46:09.000Z</time>
      </trkpt>
      <trkpt lat="47.32012" lon="-2.35147">
        <ele>-60.400001525879</ele>
        <time>2021-11-04T09:46:12.000Z</time>
      </trkpt>
      <trkpt lat="47.31979" lon="-2.35179">
        <ele>-60.400001525879</ele>
        <time>2021-11-04T09:46:20.000Z</time>
      </trkpt>
      <trkpt lat="47.3195" lon="-2.35207">
        <ele>-60.400001525879</ele>
        <time>2021-11-04T09:46:27.000Z</time>
      </trkpt>
      <trkpt lat="47.31916" lon="-2.35238">
        <ele>-60.400001525879</ele>
        <time>2021-11-04T09:46:35.000Z</time>
      </trkpt>
      <trkpt lat="47.31912" lon="-2.35242">
        <ele>-60.400001525879</ele>
        <time>2021-11-04T09:46:36.000Z</time>
      </trkpt>
      <trkpt lat="47.31896" lon="-2.35258">
        <ele>-59.599998474121</ele>
        <time>2021-11-04T09:46:40.000Z</time>
      </trkpt>
      <trkpt lat="47.31892" lon="-2.35262">
        <ele>-59.200000762939</ele>
        <time>2021-11-04T09:46:41.000Z</time>
      </trkpt>
      <trkpt lat="47.31888" lon="-2.35266">
        <ele>-58.799999237061</ele>
        <time>2021-11-04T09:46:42.000Z</time>
      </trkpt>
      <trkpt lat="47.31884" lon="-2.3527">
        <ele>-58.400001525879</ele>
        <time>2021-11-04T09:46:43.000Z</time>
      </trkpt>
      <trkpt lat="47.31869" lon="-2.35284">
        <ele>-58.400001525879</ele>
        <time>2021-11-04T09:46:47.000Z</time>
      </trkpt>
      <trkpt lat="47.31848" lon="-2.353">
        <ele>-58.400001525879</ele>
        <time>2021-11-04T09:46:53.000Z</time>
      </trkpt>
      <trkpt lat="47.31823" lon="-2.3532">
        <ele>-58</ele>
        <time>2021-11-04T09:47:00.000Z</time>
      </trkpt>
      <trkpt lat="47.3182" lon="-2.35322">
        <ele>-57.400001525879</ele>
        <time>2021-11-04T09:47:01.000Z</time>
      </trkpt>
      <trkpt lat="47.31816" lon="-2.35324">
        <ele>-57</ele>
        <time>2021-11-04T09:47:02.000Z</time>
      </trkpt>
      <trkpt lat="47.31813" lon="-2.35326">
        <ele>-56.599998474121</ele>
        <time>2021-11-04T09:47:03.000Z</time>
      </trkpt>
      <trkpt lat="47.31811" lon="-2.35328">
        <ele>-56.200000762939</ele>
        <time>2021-11-04T09:47:04.000Z</time>
      </trkpt>
      <trkpt lat="47.31804" lon="-2.35332">
        <ele>-56.200000762939</ele>
        <time>2021-11-04T09:47:06.000Z</time>
      </trkpt>
      <trkpt lat="47.31785" lon="-2.35343">
        <ele>-56.200000762939</ele>
        <time>2021-11-04T09:47:12.000Z</time>
      </trkpt>
      <trkpt lat="47.31781" lon="-2.35344">
        <ele>-55.799999237061</ele>
        <time>2021-11-04T09:47:13.000Z</time>
      </trkpt>
      <trkpt lat="47.31778" lon="-2.35346">
        <ele>-55.400001525879</ele>
        <time>2021-11-04T09:47:14.000Z</time>
      </trkpt>
      <trkpt lat="47.31774" lon="-2.35348">
        <ele>-55</ele>
        <time>2021-11-04T09:47:15.000Z</time>
      </trkpt>
      <trkpt lat="47.31772" lon="-2.3535">
        <ele>-54.599998474121</ele>
        <time>2021-11-04T09:47:16.000Z</time>
      </trkpt>
      <trkpt lat="47.31769" lon="-2.35352">
        <ele>-54</ele>
        <time>2021-11-04T09:47:17.000Z</time>
      </trkpt>
      <trkpt lat="47.31766" lon="-2.35355">
        <ele>-54</ele>
        <time>2021-11-04T09:47:18.000Z</time>
      </trkpt>
      <trkpt lat="47.3176" lon="-2.35364">
        <ele>-54</ele>
        <time>2021-11-04T09:47:21.000Z</time>
      </trkpt>
      <trkpt lat="47.31761" lon="-2.35372">
        <ele>-54</ele>
        <time>2021-11-04T09:47:23.000Z</time>
      </trkpt>
      <trkpt lat="47.31768" lon="-2.35386">
        <ele>-54</ele>
        <time>2021-11-04T09:47:27.000Z</time>
      </trkpt>
      <trkpt lat="47.31772" lon="-2.35391">
        <ele>-54</ele>
        <time>2021-11-04T09:47:29.000Z</time>
      </trkpt>
      <trkpt lat="47.31785" lon="-2.35407">
        <ele>-54</ele>
        <time>2021-11-04T09:47:33.000Z</time>
      </trkpt>
      <trkpt lat="47.31798" lon="-2.35429">
        <ele>-54</ele>
        <time>2021-11-04T09:47:38.000Z</time>
      </trkpt>
      <trkpt lat="47.31803" lon="-2.35437">
        <ele>-54.599998474121</ele>
        <time>2021-11-04T09:47:40.000Z</time>
      </trkpt>
      <trkpt lat="47.31805" lon="-2.35441">
        <ele>-55</ele>
        <time>2021-11-04T09:47:41.000Z</time>
      </trkpt>
      <trkpt lat="47.31807" lon="-2.35446">
        <ele>-55.400001525879</ele>
        <time>2021-11-04T09:47:42.000Z</time>
      </trkpt>
      <trkpt lat="47.31809" lon="-2.3545">
        <ele>-55.799999237061</ele>
        <time>2021-11-04T09:47:43.000Z</time>
      </trkpt>
      <trkpt lat="47.31811" lon="-2.35455">
        <ele>-56.200000762939</ele>
        <time>2021-11-04T09:47:44.000Z</time>
      </trkpt>
      <trkpt lat="47.31813" lon="-2.35465">
        <ele>-56.200000762939</ele>
        <time>2021-11-04T09:47:48.000Z</time>
      </trkpt>
      <trkpt lat="47.31815" lon="-2.3547">
        <ele>-56.200000762939</ele>
        <time>2021-11-04T09:47:51.000Z</time>
      </trkpt>
      <trkpt lat="47.31816" lon="-2.35489">
        <ele>-56.200000762939</ele>
        <time>2021-11-04T09:48:05.000Z</time>
      </trkpt>
      <trkpt lat="47.31817" lon="-2.35492">
        <ele>-56.200000762939</ele>
        <time>2021-11-04T09:48:06.000Z</time>
      </trkpt>
      <trkpt lat="47.31826" lon="-2.35514">
        <ele>-56.200000762939</ele>
        <time>2021-11-04T09:48:11.000Z</time>
      </trkpt>
      <trkpt lat="47.31835" lon="-2.35541">
        <ele>-56.200000762939</ele>
        <time>2021-11-04T09:48:16.000Z</time>
      </trkpt>
      <trkpt lat="47.31829" lon="-2.35565">
        <ele>-56.200000762939</ele>
        <time>2021-11-04T09:48:21.000Z</time>
      </trkpt>
      <trkpt lat="47.31826" lon="-2.35568">
        <ele>-56.200000762939</ele>
        <time>2021-11-04T09:48:22.000Z</time>
      </trkpt>
      <trkpt lat="47.3181" lon="-2.35595">
        <ele>-56.200000762939</ele>
        <time>2021-11-04T09:48:28.000Z</time>
      </trkpt>
      <trkpt lat="47.31792" lon="-2.35626">
        <ele>-56.200000762939</ele>
        <time>2021-11-04T09:48:34.000Z</time>
      </trkpt>
      <trkpt lat="47.31785" lon="-2.35649">
        <ele>-56.200000762939</ele>
        <time>2021-11-04T09:48:38.000Z</time>
      </trkpt>
      <trkpt lat="47.31782" lon="-2.35676">
        <ele>-55.799999237061</ele>
        <time>2021-11-04T09:48:42.000Z</time>
      </trkpt>
      <trkpt lat="47.31782" lon="-2.35683">
        <ele>-54.799999237061</ele>
        <time>2021-11-04T09:48:43.000Z</time>
      </trkpt>
      <trkpt lat="47.31781" lon="-2.3569">
        <ele>-54.400001525879</ele>
        <time>2021-11-04T09:48:44.000Z</time>
      </trkpt>
      <trkpt lat="47.31781" lon="-2.35697">
        <ele>-54</ele>
        <time>2021-11-04T09:48:45.000Z</time>
      </trkpt>
      <trkpt lat="47.3178" lon="-2.3573">
        <ele>-54</ele>
        <time>2021-11-04T09:48:50.000Z</time>
      </trkpt>
      <trkpt lat="47.31779" lon="-2.35748">
        <ele>-53.599998474121</ele>
        <time>2021-11-04T09:48:53.000Z</time>
      </trkpt>
      <trkpt lat="47.31779" lon="-2.35754">
        <ele>-53.200000762939</ele>
        <time>2021-11-04T09:48:54.000Z</time>
      </trkpt>
      <trkpt lat="47.31778" lon="-2.35761">
        <ele>-52.799999237061</ele>
        <time>2021-11-04T09:48:55.000Z</time>
      </trkpt>
      <trkpt lat="47.31778" lon="-2.35767">
        <ele>-52.400001525879</ele>
        <time>2021-11-04T09:48:56.000Z</time>
      </trkpt>
      <trkpt lat="47.31779" lon="-2.35773">
        <ele>-52</ele>
        <time>2021-11-04T09:48:57.000Z</time>
      </trkpt>
      <trkpt lat="47.31783" lon="-2.35802">
        <ele>-52</ele>
        <time>2021-11-04T09:49:02.000Z</time>
      </trkpt>
      <trkpt lat="47.318" lon="-2.35821">
        <ele>-52</ele>
        <time>2021-11-04T09:49:06.000Z</time>
      </trkpt>
      <trkpt lat="47.3182" lon="-2.35845">
        <ele>-52</ele>
        <time>2021-11-04T09:49:12.000Z</time>
      </trkpt>
      <trkpt lat="47.31826" lon="-2.35865">
        <ele>-52</ele>
        <time>2021-11-04T09:49:17.000Z</time>
      </trkpt>
      <trkpt lat="47.31818" lon="-2.3588">
        <ele>-52</ele>
        <time>2021-11-04T09:49:20.000Z</time>
      </trkpt>
      <trkpt lat="47.31796" lon="-2.35892">
        <ele>-52</ele>
        <time>2021-11-04T09:49:26.000Z</time>
      </trkpt>
      <trkpt lat="47.31788" lon="-2.35896">
        <ele>-52</ele>
        <time>2021-11-04T09:49:28.000Z</time>
      </trkpt>
      <trkpt lat="47.31775" lon="-2.35904">
        <ele>-52</ele>
        <time>2021-11-04T09:49:31.000Z</time>
      </trkpt>
      <trkpt lat="47.31771" lon="-2.35906">
        <ele>-52</ele>
        <time>2021-11-04T09:49:32.000Z</time>
      </trkpt>
      <trkpt lat="47.31752" lon="-2.35917">
        <ele>-52</ele>
        <time>2021-11-04T09:49:37.000Z</time>
      </trkpt>
      <trkpt lat="47.31744" lon="-2.35922">
        <ele>-51.599998474121</ele>
        <time>2021-11-04T09:49:39.000Z</time>
      </trkpt>
      <trkpt lat="47.31741" lon="-2.35925">
        <ele>-51.200000762939</ele>
        <time>2021-11-04T09:49:40.000Z</time>
      </trkpt>
      <trkpt lat="47.31736" lon="-2.35928">
        <ele>-50.799999237061</ele>
        <time>2021-11-04T09:49:41.000Z</time>
      </trkpt>
      <trkpt lat="47.31733" lon="-2.35931">
        <ele>-50.400001525879</ele>
        <time>2021-11-04T09:49:42.000Z</time>
      </trkpt>
      <trkpt lat="47.31729" lon="-2.35933">
        <ele>-49.799999237061</ele>
        <time>2021-11-04T09:49:43.000Z</time>
      </trkpt>
      <trkpt lat="47.31725" lon="-2.35936">
        <ele>-49.799999237061</ele>
        <time>2021-11-04T09:49:44.000Z</time>
      </trkpt>
      <trkpt lat="47.31693" lon="-2.35952">
        <ele>-49.799999237061</ele>
        <time>2021-11-04T09:49:52.000Z</time>
      </trkpt>
      <trkpt lat="47.31673" lon="-2.35964">
        <ele>-49.400001525879</ele>
        <time>2021-11-04T09:49:57.000Z</time>
      </trkpt>
      <trkpt lat="47.31669" lon="-2.35967">
        <ele>-49</ele>
        <time>2021-11-04T09:49:58.000Z</time>
      </trkpt>
      <trkpt lat="47.31665" lon="-2.35969">
        <ele>-48.599998474121</ele>
        <time>2021-11-04T09:49:59.000Z</time>
      </trkpt>
      <trkpt lat="47.31662" lon="-2.35971">
        <ele>-48.200000762939</ele>
        <time>2021-11-04T09:50:00.000Z</time>
      </trkpt>
      <trkpt lat="47.31658" lon="-2.35973">
        <ele>-47.799999237061</ele>
        <time>2021-11-04T09:50:01.000Z</time>
      </trkpt>
      <trkpt lat="47.31646" lon="-2.35982">
        <ele>-47.799999237061</ele>
        <time>2021-11-04T09:50:04.000Z</time>
      </trkpt>
      <trkpt lat="47.31639" lon="-2.3599">
        <ele>-47.799999237061</ele>
        <time>2021-11-04T09:50:06.000Z</time>
      </trkpt>
      <trkpt lat="47.31619" lon="-2.36012">
        <ele>-47.799999237061</ele>
        <time>2021-11-04T09:50:12.000Z</time>
      </trkpt>
      <trkpt lat="47.31594" lon="-2.3604">
        <ele>-47.799999237061</ele>
        <time>2021-11-04T09:50:19.000Z</time>
      </trkpt>
      <trkpt lat="47.31591" lon="-2.36043">
        <ele>-47.799999237061</ele>
        <time>2021-11-04T09:50:20.000Z</time>
      </trkpt>
      <trkpt lat="47.31577" lon="-2.36056">
        <ele>-47.400001525879</ele>
        <time>2021-11-04T09:50:24.000Z</time>
      </trkpt>
      <trkpt lat="47.31573" lon="-2.3606">
        <ele>-47</ele>
        <time>2021-11-04T09:50:25.000Z</time>
      </trkpt>
      <trkpt lat="47.3157" lon="-2.36063">
        <ele>-46.599998474121</ele>
        <time>2021-11-04T09:50:26.000Z</time>
      </trkpt>
      <trkpt lat="47.31567" lon="-2.36066">
        <ele>-46.200000762939</ele>
        <time>2021-11-04T09:50:27.000Z</time>
      </trkpt>
      <trkpt lat="47.31563" lon="-2.36069">
        <ele>-45.799999237061</ele>
        <time>2021-11-04T09:50:28.000Z</time>
      </trkpt>
      <trkpt lat="47.31556" lon="-2.36077">
        <ele>-45.799999237061</ele>
        <time>2021-11-04T09:50:30.000Z</time>
      </trkpt>
      <trkpt lat="47.31549" lon="-2.36084">
        <ele>-45.799999237061</ele>
        <time>2021-11-04T09:50:32.000Z</time>
      </trkpt>
      <trkpt lat="47.31535" lon="-2.361">
        <ele>-45.799999237061</ele>
        <time>2021-11-04T09:50:36.000Z</time>
      </trkpt>
      <trkpt lat="47.31509" lon="-2.36128">
        <ele>-45.799999237061</ele>
        <time>2021-11-04T09:50:43.000Z</time>
      </trkpt>
      <trkpt lat="47.31485" lon="-2.36153">
        <ele>-45.799999237061</ele>
        <time>2021-11-04T09:50:49.000Z</time>
      </trkpt>
      <trkpt lat="47.31472" lon="-2.36167">
        <ele>-45.799999237061</ele>
        <time>2021-11-04T09:50:54.000Z</time>
      </trkpt>
      <trkpt lat="47.31464" lon="-2.36175">
        <ele>-45.799999237061</ele>
        <time>2021-11-04T09:50:59.000Z</time>
      </trkpt>
      <trkpt lat="47.31462" lon="-2.36181">
        <ele>-45.799999237061</ele>
        <time>2021-11-04T09:51:09.000Z</time>
      </trkpt>
      <trkpt lat="47.31466" lon="-2.36196">
        <ele>-45.799999237061</ele>
        <time>2021-11-04T09:51:13.000Z</time>
      </trkpt>
      <trkpt lat="47.31468" lon="-2.36202">
        <ele>-45.799999237061</ele>
        <time>2021-11-04T09:51:14.000Z</time>
      </trkpt>
      <trkpt lat="47.31474" lon="-2.36232">
        <ele>-45.799999237061</ele>
        <time>2021-11-04T09:51:19.000Z</time>
      </trkpt>
      <trkpt lat="47.31483" lon="-2.36281">
        <ele>-45.799999237061</ele>
        <time>2021-11-04T09:51:26.000Z</time>
      </trkpt>
      <trkpt lat="47.31491" lon="-2.36324">
        <ele>-45.799999237061</ele>
        <time>2021-11-04T09:51:32.000Z</time>
      </trkpt>
      <trkpt lat="47.31492" lon="-2.36355">
        <ele>-46.599998474121</ele>
        <time>2021-11-04T09:51:36.000Z</time>
      </trkpt>
      <trkpt lat="47.31492" lon="-2.36362">
        <ele>-47</ele>
        <time>2021-11-04T09:51:37.000Z</time>
      </trkpt>
      <trkpt lat="47.31492" lon="-2.36369">
        <ele>-47.599998474121</ele>
        <time>2021-11-04T09:51:38.000Z</time>
      </trkpt>
      <trkpt lat="47.31492" lon="-2.36377">
        <ele>-48</ele>
        <time>2021-11-04T09:51:39.000Z</time>
      </trkpt>
      <trkpt lat="47.31494" lon="-2.36419">
        <ele>-48.400001525879</ele>
        <time>2021-11-04T09:51:44.000Z</time>
      </trkpt>
      <trkpt lat="47.31495" lon="-2.36428">
        <ele>-48.799999237061</ele>
        <time>2021-11-04T09:51:45.000Z</time>
      </trkpt>
      <trkpt lat="47.31495" lon="-2.36436">
        <ele>-49.200000762939</ele>
        <time>2021-11-04T09:51:46.000Z</time>
      </trkpt>
      <trkpt lat="47.31496" lon="-2.36445">
        <ele>-49.799999237061</ele>
        <time>2021-11-04T09:51:47.000Z</time>
      </trkpt>
      <trkpt lat="47.31496" lon="-2.36453">
        <ele>-50.200000762939</ele>
        <time>2021-11-04T09:51:48.000Z</time>
      </trkpt>
      <trkpt lat="47.31497" lon="-2.36461">
        <ele>-50.200000762939</ele>
        <time>2021-11-04T09:51:49.000Z</time>
      </trkpt>
      <trkpt lat="47.31498" lon="-2.36468">
        <ele>-50.200000762939</ele>
        <time>2021-11-04T09:51:50.000Z</time>
      </trkpt>
      <trkpt lat="47.315" lon="-2.36491">
        <ele>-50.200000762939</ele>
        <time>2021-11-04T09:51:53.000Z</time>
      </trkpt>
      <trkpt lat="47.31499" lon="-2.36505">
        <ele>-50.599998474121</ele>
        <time>2021-11-04T09:51:55.000Z</time>
      </trkpt>
      <trkpt lat="47.31499" lon="-2.36513">
        <ele>-51</ele>
        <time>2021-11-04T09:51:56.000Z</time>
      </trkpt>
      <trkpt lat="47.315" lon="-2.3652">
        <ele>-51.400001525879</ele>
        <time>2021-11-04T09:51:57.000Z</time>
      </trkpt>
      <trkpt lat="47.315" lon="-2.36528">
        <ele>-52</ele>
        <time>2021-11-04T09:51:58.000Z</time>
      </trkpt>
      <trkpt lat="47.315" lon="-2.36536">
        <ele>-52.400001525879</ele>
        <time>2021-11-04T09:51:59.000Z</time>
      </trkpt>
      <trkpt lat="47.315" lon="-2.36552">
        <ele>-52.400001525879</ele>
        <time>2021-11-04T09:52:01.000Z</time>
      </trkpt>
      <trkpt lat="47.31501" lon="-2.3658">
        <ele>-52.400001525879</ele>
        <time>2021-11-04T09:52:05.000Z</time>
      </trkpt>
      <trkpt lat="47.31501" lon="-2.36606">
        <ele>-52.400001525879</ele>
        <time>2021-11-04T09:52:09.000Z</time>
      </trkpt>
      <trkpt lat="47.31502" lon="-2.36613">
        <ele>-52.400001525879</ele>
        <time>2021-11-04T09:52:10.000Z</time>
      </trkpt>
      <trkpt lat="47.31508" lon="-2.36639">
        <ele>-52.400001525879</ele>
        <time>2021-11-04T09:52:14.000Z</time>
      </trkpt>
      <trkpt lat="47.31511" lon="-2.36652">
        <ele>-52.400001525879</ele>
        <time>2021-11-04T09:52:16.000Z</time>
      </trkpt>
      <trkpt lat="47.31522" lon="-2.36695">
        <ele>-52.400001525879</ele>
        <time>2021-11-04T09:52:23.000Z</time>
      </trkpt>
      <trkpt lat="47.31533" lon="-2.3673">
        <ele>-52.400001525879</ele>
        <time>2021-11-04T09:52:29.000Z</time>
      </trkpt>
      <trkpt lat="47.31543" lon="-2.36768">
        <ele>-52.400001525879</ele>
        <time>2021-11-04T09:52:35.000Z</time>
      </trkpt>
      <trkpt lat="47.31547" lon="-2.36792">
        <ele>-52</ele>
        <time>2021-11-04T09:52:39.000Z</time>
      </trkpt>
      <trkpt lat="47.31548" lon="-2.36797">
        <ele>-51.400001525879</ele>
        <time>2021-11-04T09:52:40.000Z</time>
      </trkpt>
      <trkpt lat="47.31549" lon="-2.36802">
        <ele>-51</ele>
        <time>2021-11-04T09:52:41.000Z</time>
      </trkpt>
      <trkpt lat="47.3155" lon="-2.36807">
        <ele>-50.599998474121</ele>
        <time>2021-11-04T09:52:42.000Z</time>
      </trkpt>
      <trkpt lat="47.31552" lon="-2.36811">
        <ele>-50.200000762939</ele>
        <time>2021-11-04T09:52:43.000Z</time>
      </trkpt>
      <trkpt lat="47.31554" lon="-2.36822">
        <ele>-50.200000762939</ele>
        <time>2021-11-04T09:52:45.000Z</time>
      </trkpt>
      <trkpt lat="47.31561" lon="-2.36848">
        <ele>-49.400001525879</ele>
        <time>2021-11-04T09:52:50.000Z</time>
      </trkpt>
      <trkpt lat="47.31562" lon="-2.36853">
        <ele>-49</ele>
        <time>2021-11-04T09:52:51.000Z</time>
      </trkpt>
      <trkpt lat="47.31564" lon="-2.36859">
        <ele>-48.400001525879</ele>
        <time>2021-11-04T09:52:52.000Z</time>
      </trkpt>
      <trkpt lat="47.31566" lon="-2.36864">
        <ele>-48</ele>
        <time>2021-11-04T09:52:53.000Z</time>
      </trkpt>
      <trkpt lat="47.31572" lon="-2.36887">
        <ele>-48</ele>
        <time>2021-11-04T09:52:57.000Z</time>
      </trkpt>
      <trkpt lat="47.31576" lon="-2.36901">
        <ele>-47.599998474121</ele>
        <time>2021-11-04T09:53:00.000Z</time>
      </trkpt>
      <trkpt lat="47.31578" lon="-2.36906">
        <ele>-47.200000762939</ele>
        <time>2021-11-04T09:53:01.000Z</time>
      </trkpt>
      <trkpt lat="47.31578" lon="-2.36911">
        <ele>-46.799999237061</ele>
        <time>2021-11-04T09:53:02.000Z</time>
      </trkpt>
      <trkpt lat="47.3158" lon="-2.36916">
        <ele>-46.400001525879</ele>
        <time>2021-11-04T09:53:03.000Z</time>
      </trkpt>
      <trkpt lat="47.31581" lon="-2.36922">
        <ele>-46</ele>
        <time>2021-11-04T09:53:04.000Z</time>
      </trkpt>
      <trkpt lat="47.31591" lon="-2.36948">
        <ele>-46</ele>
        <time>2021-11-04T09:53:09.000Z</time>
      </trkpt>
      <trkpt lat="47.316" lon="-2.36981">
        <ele>-45</ele>
        <time>2021-11-04T09:53:15.000Z</time>
      </trkpt>
      <trkpt lat="47.31602" lon="-2.36986">
        <ele>-44.599998474121</ele>
        <time>2021-11-04T09:53:16.000Z</time>
      </trkpt>
      <trkpt lat="47.31603" lon="-2.36991">
        <ele>-44.200000762939</ele>
        <time>2021-11-04T09:53:17.000Z</time>
      </trkpt>
      <trkpt lat="47.31605" lon="-2.36996">
        <ele>-43.799999237061</ele>
        <time>2021-11-04T09:53:18.000Z</time>
      </trkpt>
      <trkpt lat="47.31616" lon="-2.37033">
        <ele>-43.799999237061</ele>
        <time>2021-11-04T09:53:25.000Z</time>
      </trkpt>
      <trkpt lat="47.31624" lon="-2.37054">
        <ele>-43.400001525879</ele>
        <time>2021-11-04T09:53:29.000Z</time>
      </trkpt>
      <trkpt lat="47.31626" lon="-2.37059">
        <ele>-43</ele>
        <time>2021-11-04T09:53:30.000Z</time>
      </trkpt>
      <trkpt lat="47.31629" lon="-2.37063">
        <ele>-42.599998474121</ele>
        <time>2021-11-04T09:53:31.000Z</time>
      </trkpt>
      <trkpt lat="47.31632" lon="-2.37068">
        <ele>-42.200000762939</ele>
        <time>2021-11-04T09:53:32.000Z</time>
      </trkpt>
      <trkpt lat="47.31635" lon="-2.37073">
        <ele>-41.799999237061</ele>
        <time>2021-11-04T09:53:33.000Z</time>
      </trkpt>
      <trkpt lat="47.31648" lon="-2.37098">
        <ele>-41.799999237061</ele>
        <time>2021-11-04T09:53:38.000Z</time>
      </trkpt>
      <trkpt lat="47.3167" lon="-2.37136">
        <ele>-41.799999237061</ele>
        <time>2021-11-04T09:53:46.000Z</time>
      </trkpt>
      <trkpt lat="47.31684" lon="-2.37161">
        <ele>-41.799999237061</ele>
        <time>2021-11-04T09:53:51.000Z</time>
      </trkpt>
      <trkpt lat="47.31691" lon="-2.37181">
        <ele>-41.799999237061</ele>
        <time>2021-11-04T09:53:54.000Z</time>
      </trkpt>
      <trkpt lat="47.31695" lon="-2.37203">
        <ele>-41.799999237061</ele>
        <time>2021-11-04T09:53:57.000Z</time>
      </trkpt>
      <trkpt lat="47.31683" lon="-2.37233">
        <ele>-41.799999237061</ele>
        <time>2021-11-04T09:54:01.000Z</time>
      </trkpt>
      <trkpt lat="47.31661" lon="-2.37254">
        <ele>-41.799999237061</ele>
        <time>2021-11-04T09:54:06.000Z</time>
      </trkpt>
      <trkpt lat="47.3163" lon="-2.37285">
        <ele>-41.799999237061</ele>
        <time>2021-11-04T09:54:13.000Z</time>
      </trkpt>
      <trkpt lat="47.31625" lon="-2.37292">
        <ele>-41.799999237061</ele>
        <time>2021-11-04T09:54:14.000Z</time>
      </trkpt>
      <trkpt lat="47.31621" lon="-2.37318">
        <ele>-41.799999237061</ele>
        <time>2021-11-04T09:54:17.000Z</time>
      </trkpt>
      <trkpt lat="47.31626" lon="-2.37355">
        <ele>-41.799999237061</ele>
        <time>2021-11-04T09:54:21.000Z</time>
      </trkpt>
      <trkpt lat="47.31636" lon="-2.37407">
        <ele>-41.799999237061</ele>
        <time>2021-11-04T09:54:27.000Z</time>
      </trkpt>
      <trkpt lat="47.31636" lon="-2.37416">
        <ele>-41.799999237061</ele>
        <time>2021-11-04T09:54:28.000Z</time>
      </trkpt>
      <trkpt lat="47.31639" lon="-2.37472">
        <ele>-41.799999237061</ele>
        <time>2021-11-04T09:54:34.000Z</time>
      </trkpt>
      <trkpt lat="47.31638" lon="-2.37492">
        <ele>-41.799999237061</ele>
        <time>2021-11-04T09:54:36.000Z</time>
      </trkpt>
      <trkpt lat="47.3163" lon="-2.37526">
        <ele>-41.799999237061</ele>
        <time>2021-11-04T09:54:40.000Z</time>
      </trkpt>
      <trkpt lat="47.31627" lon="-2.37534">
        <ele>-41.799999237061</ele>
        <time>2021-11-04T09:54:41.000Z</time>
      </trkpt>
      <trkpt lat="47.3162" lon="-2.37559">
        <ele>-41.799999237061</ele>
        <time>2021-11-04T09:54:44.000Z</time>
      </trkpt>
      <trkpt lat="47.31616" lon="-2.37586">
        <ele>-41.799999237061</ele>
        <time>2021-11-04T09:54:47.000Z</time>
      </trkpt>
      <trkpt lat="47.31617" lon="-2.37624">
        <ele>-41.799999237061</ele>
        <time>2021-11-04T09:54:51.000Z</time>
      </trkpt>
      <trkpt lat="47.31618" lon="-2.37632">
        <ele>-41.799999237061</ele>
        <time>2021-11-04T09:54:52.000Z</time>
      </trkpt>
      <trkpt lat="47.31625" lon="-2.37648">
        <ele>-42.200000762939</ele>
        <time>2021-11-04T09:54:54.000Z</time>
      </trkpt>
      <trkpt lat="47.3163" lon="-2.37654">
        <ele>-42.599998474121</ele>
        <time>2021-11-04T09:54:55.000Z</time>
      </trkpt>
      <trkpt lat="47.31635" lon="-2.37659">
        <ele>-43</ele>
        <time>2021-11-04T09:54:56.000Z</time>
      </trkpt>
      <trkpt lat="47.31641" lon="-2.37663">
        <ele>-43.400001525879</ele>
        <time>2021-11-04T09:54:57.000Z</time>
      </trkpt>
      <trkpt lat="47.31646" lon="-2.37667">
        <ele>-43.799999237061</ele>
        <time>2021-11-04T09:54:58.000Z</time>
      </trkpt>
      <trkpt lat="47.31652" lon="-2.3767">
        <ele>-43.799999237061</ele>
        <time>2021-11-04T09:54:59.000Z</time>
      </trkpt>
      <trkpt lat="47.31686" lon="-2.37703">
        <ele>-43.799999237061</ele>
        <time>2021-11-04T09:55:06.000Z</time>
      </trkpt>
      <trkpt lat="47.31692" lon="-2.37708">
        <ele>-43.799999237061</ele>
        <time>2021-11-04T09:55:07.000Z</time>
      </trkpt>
      <trkpt lat="47.31709" lon="-2.37715">
        <ele>-43.799999237061</ele>
        <time>2021-11-04T09:55:10.000Z</time>
      </trkpt>
      <trkpt lat="47.31738" lon="-2.37711">
        <ele>-43.799999237061</ele>
        <time>2021-11-04T09:55:15.000Z</time>
      </trkpt>
      <trkpt lat="47.31749" lon="-2.37705">
        <ele>-43.799999237061</ele>
        <time>2021-11-04T09:55:17.000Z</time>
      </trkpt>
      <trkpt lat="47.31764" lon="-2.37691">
        <ele>-43.799999237061</ele>
        <time>2021-11-04T09:55:20.000Z</time>
      </trkpt>
      <trkpt lat="47.31801" lon="-2.37657">
        <ele>-43.799999237061</ele>
        <time>2021-11-04T09:55:27.000Z</time>
      </trkpt>
      <trkpt lat="47.31816" lon="-2.37651">
        <ele>-43.799999237061</ele>
        <time>2021-11-04T09:55:30.000Z</time>
      </trkpt>
      <trkpt lat="47.31821" lon="-2.37653">
        <ele>-43.799999237061</ele>
        <time>2021-11-04T09:55:31.000Z</time>
      </trkpt>
      <trkpt lat="47.31827" lon="-2.37672">
        <ele>-43.799999237061</ele>
        <time>2021-11-04T09:55:34.000Z</time>
      </trkpt>
      <trkpt lat="47.31824" lon="-2.37696">
        <ele>-43.799999237061</ele>
        <time>2021-11-04T09:55:37.000Z</time>
      </trkpt>
      <trkpt lat="47.31822" lon="-2.37704">
        <ele>-43.799999237061</ele>
        <time>2021-11-04T09:55:38.000Z</time>
      </trkpt>
      <trkpt lat="47.31818" lon="-2.37738">
        <ele>-43.799999237061</ele>
        <time>2021-11-04T09:55:42.000Z</time>
      </trkpt>
      <trkpt lat="47.31817" lon="-2.37756">
        <ele>-43.799999237061</ele>
        <time>2021-11-04T09:55:44.000Z</time>
      </trkpt>
      <trkpt lat="47.31811" lon="-2.37811">
        <ele>-44.200000762939</ele>
        <time>2021-11-04T09:55:50.000Z</time>
      </trkpt>
      <trkpt lat="47.31809" lon="-2.37821">
        <ele>-44.599998474121</ele>
        <time>2021-11-04T09:55:51.000Z</time>
      </trkpt>
      <trkpt lat="47.31808" lon="-2.37832">
        <ele>-45</ele>
        <time>2021-11-04T09:55:52.000Z</time>
      </trkpt>
      <trkpt lat="47.31807" lon="-2.37842">
        <ele>-45.400001525879</ele>
        <time>2021-11-04T09:55:53.000Z</time>
      </trkpt>
      <trkpt lat="47.31806" lon="-2.37851">
        <ele>-45.799999237061</ele>
        <time>2021-11-04T09:55:54.000Z</time>
      </trkpt>
      <trkpt lat="47.31801" lon="-2.3789">
        <ele>-45.799999237061</ele>
        <time>2021-11-04T09:55:58.000Z</time>
      </trkpt>
      <trkpt lat="47.318" lon="-2.37911">
        <ele>-46.200000762939</ele>
        <time>2021-11-04T09:56:00.000Z</time>
      </trkpt>
      <trkpt lat="47.31799" lon="-2.3792">
        <ele>-46.599998474121</ele>
        <time>2021-11-04T09:56:01.000Z</time>
      </trkpt>
      <trkpt lat="47.31799" lon="-2.3793">
        <ele>-47</ele>
        <time>2021-11-04T09:56:02.000Z</time>
      </trkpt>
      <trkpt lat="47.31798" lon="-2.3794">
        <ele>-47.400001525879</ele>
        <time>2021-11-04T09:56:03.000Z</time>
      </trkpt>
      <trkpt lat="47.31797" lon="-2.37949">
        <ele>-47.799999237061</ele>
        <time>2021-11-04T09:56:04.000Z</time>
      </trkpt>
      <trkpt lat="47.31796" lon="-2.37989">
        <ele>-48.599998474121</ele>
        <time>2021-11-04T09:56:08.000Z</time>
      </trkpt>
      <trkpt lat="47.31796" lon="-2.37999">
        <ele>-49.200000762939</ele>
        <time>2021-11-04T09:56:09.000Z</time>
      </trkpt>
      <trkpt lat="47.31796" lon="-2.3801">
        <ele>-49.599998474121</ele>
        <time>2021-11-04T09:56:10.000Z</time>
      </trkpt>
      <trkpt lat="47.31797" lon="-2.38021">
        <ele>-50</ele>
        <time>2021-11-04T09:56:11.000Z</time>
      </trkpt>
      <trkpt lat="47.318" lon="-2.38066">
        <ele>-50</ele>
        <time>2021-11-04T09:56:15.000Z</time>
      </trkpt>
      <trkpt lat="47.31802" lon="-2.38126">
        <ele>-50</ele>
        <time>2021-11-04T09:56:21.000Z</time>
      </trkpt>
      <trkpt lat="47.31805" lon="-2.382">
        <ele>-50</ele>
        <time>2021-11-04T09:56:29.000Z</time>
      </trkpt>
      <trkpt lat="47.31809" lon="-2.38276">
        <ele>-50</ele>
        <time>2021-11-04T09:56:38.000Z</time>
      </trkpt>
      <trkpt lat="47.3181" lon="-2.3829">
        <ele>-50</ele>
        <time>2021-11-04T09:56:40.000Z</time>
      </trkpt>
      <trkpt lat="47.3181" lon="-2.38298">
        <ele>-49.599998474121</ele>
        <time>2021-11-04T09:56:41.000Z</time>
      </trkpt>
      <trkpt lat="47.3181" lon="-2.38306">
        <ele>-49.200000762939</ele>
        <time>2021-11-04T09:56:42.000Z</time>
      </trkpt>
      <trkpt lat="47.3181" lon="-2.38313">
        <ele>-48.599998474121</ele>
        <time>2021-11-04T09:56:43.000Z</time>
      </trkpt>
      <trkpt lat="47.3181" lon="-2.38322">
        <ele>-48.200000762939</ele>
        <time>2021-11-04T09:56:44.000Z</time>
      </trkpt>
      <trkpt lat="47.31811" lon="-2.38329">
        <ele>-47.799999237061</ele>
        <time>2021-11-04T09:56:45.000Z</time>
      </trkpt>
      <trkpt lat="47.31811" lon="-2.38359">
        <ele>-47.799999237061</ele>
        <time>2021-11-04T09:56:49.000Z</time>
      </trkpt>
      <trkpt lat="47.31811" lon="-2.3839">
        <ele>-47.400001525879</ele>
        <time>2021-11-04T09:56:53.000Z</time>
      </trkpt>
      <trkpt lat="47.31811" lon="-2.38397">
        <ele>-47</ele>
        <time>2021-11-04T09:56:54.000Z</time>
      </trkpt>
      <trkpt lat="47.31811" lon="-2.38404">
        <ele>-46.599998474121</ele>
        <time>2021-11-04T09:56:55.000Z</time>
      </trkpt>
      <trkpt lat="47.31811" lon="-2.38412">
        <ele>-46.200000762939</ele>
        <time>2021-11-04T09:56:56.000Z</time>
      </trkpt>
      <trkpt lat="47.31811" lon="-2.38419">
        <ele>-45.599998474121</ele>
        <time>2021-11-04T09:56:57.000Z</time>
      </trkpt>
      <trkpt lat="47.31811" lon="-2.38489">
        <ele>-45.599998474121</ele>
        <time>2021-11-04T09:57:06.000Z</time>
      </trkpt>
      <trkpt lat="47.3181" lon="-2.38517">
        <ele>-45.200000762939</ele>
        <time>2021-11-04T09:57:10.000Z</time>
      </trkpt>
      <trkpt lat="47.3181" lon="-2.38523">
        <ele>-44.799999237061</ele>
        <time>2021-11-04T09:57:11.000Z</time>
      </trkpt>
      <trkpt lat="47.3181" lon="-2.38529">
        <ele>-44.400001525879</ele>
        <time>2021-11-04T09:57:12.000Z</time>
      </trkpt>
      <trkpt lat="47.3181" lon="-2.38535">
        <ele>-44</ele>
        <time>2021-11-04T09:57:13.000Z</time>
      </trkpt>
      <trkpt lat="47.3181" lon="-2.38542">
        <ele>-43.599998474121</ele>
        <time>2021-11-04T09:57:14.000Z</time>
      </trkpt>
      <trkpt lat="47.31812" lon="-2.38569">
        <ele>-43.599998474121</ele>
        <time>2021-11-04T09:57:18.000Z</time>
      </trkpt>
      <trkpt lat="47.31814" lon="-2.38618">
        <ele>-43.599998474121</ele>
        <time>2021-11-04T09:57:24.000Z</time>
      </trkpt>
      <trkpt lat="47.3182" lon="-2.38695">
        <ele>-43.599998474121</ele>
        <time>2021-11-04T09:57:33.000Z</time>
      </trkpt>
      <trkpt lat="47.31823" lon="-2.38757">
        <ele>-43.599998474121</ele>
        <time>2021-11-04T09:57:40.000Z</time>
      </trkpt>
      <trkpt lat="47.31824" lon="-2.38811">
        <ele>-43.599998474121</ele>
        <time>2021-11-04T09:57:46.000Z</time>
      </trkpt>
      <trkpt lat="47.31826" lon="-2.38821">
        <ele>-43.599998474121</ele>
        <time>2021-11-04T09:57:47.000Z</time>
      </trkpt>
      <trkpt lat="47.31838" lon="-2.38876">
        <ele>-43.599998474121</ele>
        <time>2021-11-04T09:57:53.000Z</time>
      </trkpt>
      <trkpt lat="47.3185" lon="-2.38929">
        <ele>-44</ele>
        <time>2021-11-04T09:57:59.000Z</time>
      </trkpt>
      <trkpt lat="47.31853" lon="-2.38938">
        <ele>-44.400001525879</ele>
        <time>2021-11-04T09:58:00.000Z</time>
      </trkpt>
      <trkpt lat="47.31855" lon="-2.38947">
        <ele>-44.799999237061</ele>
        <time>2021-11-04T09:58:01.000Z</time>
      </trkpt>
      <trkpt lat="47.31857" lon="-2.38956">
        <ele>-45.200000762939</ele>
        <time>2021-11-04T09:58:02.000Z</time>
      </trkpt>
      <trkpt lat="47.3186" lon="-2.38965">
        <ele>-45.599998474121</ele>
        <time>2021-11-04T09:58:03.000Z</time>
      </trkpt>
      <trkpt lat="47.31869" lon="-2.3899">
        <ele>-45.599998474121</ele>
        <time>2021-11-04T09:58:06.000Z</time>
      </trkpt>
      <trkpt lat="47.31885" lon="-2.3903">
        <ele>-45.599998474121</ele>
        <time>2021-11-04T09:58:11.000Z</time>
      </trkpt>
      <trkpt lat="47.31887" lon="-2.39037">
        <ele>-45.599998474121</ele>
        <time>2021-11-04T09:58:12.000Z</time>
      </trkpt>
      <trkpt lat="47.31901" lon="-2.39083">
        <ele>-45.599998474121</ele>
        <time>2021-11-04T09:58:18.000Z</time>
      </trkpt>
      <trkpt lat="47.31919" lon="-2.39139">
        <ele>-45.599998474121</ele>
        <time>2021-11-04T09:58:25.000Z</time>
      </trkpt>
      <trkpt lat="47.31935" lon="-2.39194">
        <ele>-45.599998474121</ele>
        <time>2021-11-04T09:58:32.000Z</time>
      </trkpt>
      <trkpt lat="47.31949" lon="-2.39247">
        <ele>-45.599998474121</ele>
        <time>2021-11-04T09:58:39.000Z</time>
      </trkpt>
      <trkpt lat="47.31951" lon="-2.39255">
        <ele>-45.200000762939</ele>
        <time>2021-11-04T09:58:40.000Z</time>
      </trkpt>
      <trkpt lat="47.31953" lon="-2.39262">
        <ele>-44.799999237061</ele>
        <time>2021-11-04T09:58:41.000Z</time>
      </trkpt>
      <trkpt lat="47.31955" lon="-2.3927">
        <ele>-44.400001525879</ele>
        <time>2021-11-04T09:58:42.000Z</time>
      </trkpt>
      <trkpt lat="47.31958" lon="-2.39278">
        <ele>-44</ele>
        <time>2021-11-04T09:58:43.000Z</time>
      </trkpt>
      <trkpt lat="47.3196" lon="-2.39285">
        <ele>-43.400001525879</ele>
        <time>2021-11-04T09:58:44.000Z</time>
      </trkpt>
      <trkpt lat="47.31962" lon="-2.39293">
        <ele>-43.400001525879</ele>
        <time>2021-11-04T09:58:45.000Z</time>
      </trkpt>
      <trkpt lat="47.31971" lon="-2.3933">
        <ele>-43.400001525879</ele>
        <time>2021-11-04T09:58:50.000Z</time>
      </trkpt>
      <trkpt lat="47.31975" lon="-2.39344">
        <ele>-43.400001525879</ele>
        <time>2021-11-04T09:58:52.000Z</time>
      </trkpt>
      <trkpt lat="47.31985" lon="-2.39394">
        <ele>-43.400001525879</ele>
        <time>2021-11-04T09:58:59.000Z</time>
      </trkpt>
      <trkpt lat="47.31991" lon="-2.39417">
        <ele>-42.599998474121</ele>
        <time>2021-11-04T09:59:02.000Z</time>
      </trkpt>
      <trkpt lat="47.31993" lon="-2.39424">
        <ele>-42.200000762939</ele>
        <time>2021-11-04T09:59:03.000Z</time>
      </trkpt>
      <trkpt lat="47.31995" lon="-2.39431">
        <ele>-41.799999237061</ele>
        <time>2021-11-04T09:59:04.000Z</time>
      </trkpt>
      <trkpt lat="47.31996" lon="-2.39438">
        <ele>-41.400001525879</ele>
        <time>2021-11-04T09:59:05.000Z</time>
      </trkpt>
      <trkpt lat="47.31998" lon="-2.39445">
        <ele>-41.400001525879</ele>
        <time>2021-11-04T09:59:06.000Z</time>
      </trkpt>
      <trkpt lat="47.32009" lon="-2.39497">
        <ele>-41.400001525879</ele>
        <time>2021-11-04T09:59:13.000Z</time>
      </trkpt>
      <trkpt lat="47.32017" lon="-2.39533">
        <ele>-41.400001525879</ele>
        <time>2021-11-04T09:59:18.000Z</time>
      </trkpt>
      <trkpt lat="47.32027" lon="-2.39579">
        <ele>-41.400001525879</ele>
        <time>2021-11-04T09:59:24.000Z</time>
      </trkpt>
      <trkpt lat="47.32029" lon="-2.39587">
        <ele>-41</ele>
        <time>2021-11-04T09:59:25.000Z</time>
      </trkpt>
      <trkpt lat="47.32031" lon="-2.39594">
        <ele>-40.599998474121</ele>
        <time>2021-11-04T09:59:26.000Z</time>
      </trkpt>
      <trkpt lat="47.32033" lon="-2.39602">
        <ele>-39.799999237061</ele>
        <time>2021-11-04T09:59:27.000Z</time>
      </trkpt>
      <trkpt lat="47.32035" lon="-2.39609">
        <ele>-39.400001525879</ele>
        <time>2021-11-04T09:59:28.000Z</time>
      </trkpt>
      <trkpt lat="47.32039" lon="-2.39623">
        <ele>-39.400001525879</ele>
        <time>2021-11-04T09:59:30.000Z</time>
      </trkpt>
      <trkpt lat="47.32047" lon="-2.39656">
        <ele>-39.400001525879</ele>
        <time>2021-11-04T09:59:35.000Z</time>
      </trkpt>
      <trkpt lat="47.32055" lon="-2.39692">
        <ele>-39.400001525879</ele>
        <time>2021-11-04T09:59:41.000Z</time>
      </trkpt>
      <trkpt lat="47.32058" lon="-2.39703">
        <ele>-39.400001525879</ele>
        <time>2021-11-04T09:59:43.000Z</time>
      </trkpt>
      <trkpt lat="47.32066" lon="-2.39728">
        <ele>-39.400001525879</ele>
        <time>2021-11-04T09:59:47.000Z</time>
      </trkpt>
      <trkpt lat="47.32071" lon="-2.39747">
        <ele>-39</ele>
        <time>2021-11-04T09:59:50.000Z</time>
      </trkpt>
      <trkpt lat="47.32072" lon="-2.39753">
        <ele>-38.200000762939</ele>
        <time>2021-11-04T09:59:51.000Z</time>
      </trkpt>
      <trkpt lat="47.32075" lon="-2.3976">
        <ele>-37.799999237061</ele>
        <time>2021-11-04T09:59:52.000Z</time>
      </trkpt>
      <trkpt lat="47.32076" lon="-2.39766">
        <ele>-37.400001525879</ele>
        <time>2021-11-04T09:59:53.000Z</time>
      </trkpt>
      <trkpt lat="47.32081" lon="-2.39783">
        <ele>-37.400001525879</ele>
        <time>2021-11-04T09:59:56.000Z</time>
      </trkpt>
      <trkpt lat="47.32089" lon="-2.39798">
        <ele>-37.400001525879</ele>
        <time>2021-11-04T09:59:59.000Z</time>
      </trkpt>
      <trkpt lat="47.3209" lon="-2.39806">
        <ele>-37.400001525879</ele>
        <time>2021-11-04T10:00:01.000Z</time>
      </trkpt>
      <trkpt lat="47.32089" lon="-2.39813">
        <ele>-37.400001525879</ele>
        <time>2021-11-04T10:00:03.000Z</time>
      </trkpt>
      <trkpt lat="47.32079" lon="-2.39826">
        <ele>-37.400001525879</ele>
        <time>2021-11-04T10:00:07.000Z</time>
      </trkpt>
      <trkpt lat="47.32076" lon="-2.39829">
        <ele>-37.400001525879</ele>
        <time>2021-11-04T10:00:08.000Z</time>
      </trkpt>
      <trkpt lat="47.32059" lon="-2.39846">
        <ele>-37.400001525879</ele>
        <time>2021-11-04T10:00:13.000Z</time>
      </trkpt>
      <trkpt lat="47.3203" lon="-2.39871">
        <ele>-37.400001525879</ele>
        <time>2021-11-04T10:00:20.000Z</time>
      </trkpt>
      <trkpt lat="47.31994" lon="-2.39904">
        <ele>-37.400001525879</ele>
        <time>2021-11-04T10:00:26.000Z</time>
      </trkpt>
      <trkpt lat="47.31976" lon="-2.3992">
        <ele>-37.799999237061</ele>
        <time>2021-11-04T10:00:29.000Z</time>
      </trkpt>
      <trkpt lat="47.31971" lon="-2.39925">
        <ele>-38.200000762939</ele>
        <time>2021-11-04T10:00:30.000Z</time>
      </trkpt>
      <trkpt lat="47.31966" lon="-2.3993">
        <ele>-38.599998474121</ele>
        <time>2021-11-04T10:00:31.000Z</time>
      </trkpt>
      <trkpt lat="47.3196" lon="-2.39935">
        <ele>-39</ele>
        <time>2021-11-04T10:00:32.000Z</time>
      </trkpt>
      <trkpt lat="47.31955" lon="-2.39939">
        <ele>-39.400001525879</ele>
        <time>2021-11-04T10:00:33.000Z</time>
      </trkpt>
      <trkpt lat="47.31928" lon="-2.39965">
        <ele>-39.799999237061</ele>
        <time>2021-11-04T10:00:38.000Z</time>
      </trkpt>
      <trkpt lat="47.31923" lon="-2.39971">
        <ele>-40.200000762939</ele>
        <time>2021-11-04T10:00:39.000Z</time>
      </trkpt>
      <trkpt lat="47.31917" lon="-2.39978">
        <ele>-40.599998474121</ele>
        <time>2021-11-04T10:00:40.000Z</time>
      </trkpt>
      <trkpt lat="47.31912" lon="-2.39985">
        <ele>-41.400001525879</ele>
        <time>2021-11-04T10:00:41.000Z</time>
      </trkpt>
      <trkpt lat="47.31889" lon="-2.40016">
        <ele>-41.400001525879</ele>
        <time>2021-11-04T10:00:46.000Z</time>
      </trkpt>
      <trkpt lat="47.31858" lon="-2.4006">
        <ele>-41.400001525879</ele>
        <time>2021-11-04T10:00:53.000Z</time>
      </trkpt>
      <trkpt lat="47.31831" lon="-2.40099">
        <ele>-41.400001525879</ele>
        <time>2021-11-04T10:00:59.000Z</time>
      </trkpt>
      <trkpt lat="47.31794" lon="-2.40149">
        <ele>-41.400001525879</ele>
        <time>2021-11-04T10:01:07.000Z</time>
      </trkpt>
      <trkpt lat="47.31768" lon="-2.40192">
        <ele>-41.400001525879</ele>
        <time>2021-11-04T10:01:14.000Z</time>
      </trkpt>
      <trkpt lat="47.31749" lon="-2.40224">
        <ele>-41.400001525879</ele>
        <time>2021-11-04T10:01:19.000Z</time>
      </trkpt>
      <trkpt lat="47.31742" lon="-2.40237">
        <ele>-41.400001525879</ele>
        <time>2021-11-04T10:01:21.000Z</time>
      </trkpt>
      <trkpt lat="47.31734" lon="-2.40253">
        <ele>-41.400001525879</ele>
        <time>2021-11-04T10:01:24.000Z</time>
      </trkpt>
      <trkpt lat="47.31719" lon="-2.40274">
        <ele>-41.400001525879</ele>
        <time>2021-11-04T10:01:29.000Z</time>
      </trkpt>
      <trkpt lat="47.31696" lon="-2.40301">
        <ele>-41.400001525879</ele>
        <time>2021-11-04T10:01:36.000Z</time>
      </trkpt>
      <trkpt lat="47.31683" lon="-2.40323">
        <ele>-41.400001525879</ele>
        <time>2021-11-04T10:01:41.000Z</time>
      </trkpt>
      <trkpt lat="47.31684" lon="-2.40329">
        <ele>-41.400001525879</ele>
        <time>2021-11-04T10:01:42.000Z</time>
      </trkpt>
      <trkpt lat="47.3169" lon="-2.4034">
        <ele>-41.400001525879</ele>
        <time>2021-11-04T10:01:44.000Z</time>
      </trkpt>
      <trkpt lat="47.31705" lon="-2.40351">
        <ele>-41.400001525879</ele>
        <time>2021-11-04T10:01:47.000Z</time>
      </trkpt>
      <trkpt lat="47.31711" lon="-2.40354">
        <ele>-41.400001525879</ele>
        <time>2021-11-04T10:01:48.000Z</time>
      </trkpt>
      <trkpt lat="47.3174" lon="-2.40376">
        <ele>-41.400001525879</ele>
        <time>2021-11-04T10:01:54.000Z</time>
      </trkpt>
      <trkpt lat="47.31777" lon="-2.40399">
        <ele>-41.400001525879</ele>
        <time>2021-11-04T10:02:01.000Z</time>
      </trkpt>
      <trkpt lat="47.31816" lon="-2.4043">
        <ele>-41.400001525879</ele>
        <time>2021-11-04T10:02:08.000Z</time>
      </trkpt>
      <trkpt lat="47.31847" lon="-2.40452">
        <ele>-41.400001525879</ele>
        <time>2021-11-04T10:02:14.000Z</time>
      </trkpt>
      <trkpt lat="47.31896" lon="-2.40486">
        <ele>-41.400001525879</ele>
        <time>2021-11-04T10:02:24.000Z</time>
      </trkpt>
      <trkpt lat="47.31906" lon="-2.40492">
        <ele>-41</ele>
        <time>2021-11-04T10:02:26.000Z</time>
      </trkpt>
      <trkpt lat="47.31911" lon="-2.40496">
        <ele>-40.599998474121</ele>
        <time>2021-11-04T10:02:27.000Z</time>
      </trkpt>
      <trkpt lat="47.31916" lon="-2.405">
        <ele>-40.200000762939</ele>
        <time>2021-11-04T10:02:28.000Z</time>
      </trkpt>
      <trkpt lat="47.31921" lon="-2.40503">
        <ele>-39.799999237061</ele>
        <time>2021-11-04T10:02:29.000Z</time>
      </trkpt>
      <trkpt lat="47.31926" lon="-2.40507">
        <ele>-39.400001525879</ele>
        <time>2021-11-04T10:02:30.000Z</time>
      </trkpt>
      <trkpt lat="47.31936" lon="-2.40514">
        <ele>-39.400001525879</ele>
        <time>2021-11-04T10:02:32.000Z</time>
      </trkpt>
      <trkpt lat="47.3197" lon="-2.4054">
        <ele>-39.400001525879</ele>
        <time>2021-11-04T10:02:39.000Z</time>
      </trkpt>
      <trkpt lat="47.31993" lon="-2.40557">
        <ele>-39.400001525879</ele>
        <time>2021-11-04T10:02:44.000Z</time>
      </trkpt>
      <trkpt lat="47.32019" lon="-2.40578">
        <ele>-39.400001525879</ele>
        <time>2021-11-04T10:02:49.000Z</time>
      </trkpt>
      <trkpt lat="47.32028" lon="-2.40586">
        <ele>-39</ele>
        <time>2021-11-04T10:02:51.000Z</time>
      </trkpt>
      <trkpt lat="47.32032" lon="-2.4059">
        <ele>-38.599998474121</ele>
        <time>2021-11-04T10:02:52.000Z</time>
      </trkpt>
      <trkpt lat="47.32037" lon="-2.40594">
        <ele>-38.200000762939</ele>
        <time>2021-11-04T10:02:53.000Z</time>
      </trkpt>
      <trkpt lat="47.32043" lon="-2.40599">
        <ele>-37.799999237061</ele>
        <time>2021-11-04T10:02:54.000Z</time>
      </trkpt>
      <trkpt lat="47.32048" lon="-2.40603">
        <ele>-37.400001525879</ele>
        <time>2021-11-04T10:02:55.000Z</time>
      </trkpt>
      <trkpt lat="47.32053" lon="-2.40608">
        <ele>-37.400001525879</ele>
        <time>2021-11-04T10:02:56.000Z</time>
      </trkpt>
      <trkpt lat="47.32082" lon="-2.40637">
        <ele>-37.400001525879</ele>
        <time>2021-11-04T10:03:02.000Z</time>
      </trkpt>
      <trkpt lat="47.32117" lon="-2.40675">
        <ele>-37.400001525879</ele>
        <time>2021-11-04T10:03:09.000Z</time>
      </trkpt>
      <trkpt lat="47.32121" lon="-2.4068">
        <ele>-37.400001525879</ele>
        <time>2021-11-04T10:03:10.000Z</time>
      </trkpt>
      <trkpt lat="47.32143" lon="-2.40705">
        <ele>-37</ele>
        <time>2021-11-04T10:03:15.000Z</time>
      </trkpt>
      <trkpt lat="47.32148" lon="-2.4071">
        <ele>-36.599998474121</ele>
        <time>2021-11-04T10:03:16.000Z</time>
      </trkpt>
      <trkpt lat="47.32152" lon="-2.40716">
        <ele>-36.200000762939</ele>
        <time>2021-11-04T10:03:17.000Z</time>
      </trkpt>
      <trkpt lat="47.32157" lon="-2.40721">
        <ele>-35.799999237061</ele>
        <time>2021-11-04T10:03:18.000Z</time>
      </trkpt>
      <trkpt lat="47.32161" lon="-2.40726">
        <ele>-35.400001525879</ele>
        <time>2021-11-04T10:03:19.000Z</time>
      </trkpt>
      <trkpt lat="47.32188" lon="-2.40762">
        <ele>-35.400001525879</ele>
        <time>2021-11-04T10:03:26.000Z</time>
      </trkpt>
      <trkpt lat="47.32197" lon="-2.40775">
        <ele>-35.400001525879</ele>
        <time>2021-11-04T10:03:30.000Z</time>
      </trkpt>
      <trkpt lat="47.32205" lon="-2.40788">
        <ele>-35.400001525879</ele>
        <time>2021-11-04T10:03:37.000Z</time>
      </trkpt>
      <trkpt lat="47.32215" lon="-2.40802">
        <ele>-35.400001525879</ele>
        <time>2021-11-04T10:03:42.000Z</time>
      </trkpt>
      <trkpt lat="47.32222" lon="-2.40816">
        <ele>-35.400001525879</ele>
        <time>2021-11-04T10:03:46.000Z</time>
      </trkpt>
      <trkpt lat="47.32225" lon="-2.40816">
        <ele>-35.400001525879</ele>
        <time>2021-11-04T10:03:47.000Z</time>
      </trkpt>
      <trkpt lat="47.32229" lon="-2.40823">
        <ele>-35.400001525879</ele>
        <time>2021-11-04T10:03:49.000Z</time>
      </trkpt>
      <trkpt lat="47.32245" lon="-2.40847">
        <ele>-35.400001525879</ele>
        <time>2021-11-04T10:03:54.000Z</time>
      </trkpt>
      <trkpt lat="47.32273" lon="-2.40893">
        <ele>-35.400001525879</ele>
        <time>2021-11-04T10:04:02.000Z</time>
      </trkpt>
      <trkpt lat="47.32304" lon="-2.40951">
        <ele>-35.400001525879</ele>
        <time>2021-11-04T10:04:11.000Z</time>
      </trkpt>
      <trkpt lat="47.32328" lon="-2.40998">
        <ele>-35</ele>
        <time>2021-11-04T10:04:18.000Z</time>
      </trkpt>
      <trkpt lat="47.32332" lon="-2.41004">
        <ele>-34.599998474121</ele>
        <time>2021-11-04T10:04:19.000Z</time>
      </trkpt>
      <trkpt lat="47.32335" lon="-2.4101">
        <ele>-34</ele>
        <time>2021-11-04T10:04:20.000Z</time>
      </trkpt>
      <trkpt lat="47.32338" lon="-2.41016">
        <ele>-33.599998474121</ele>
        <time>2021-11-04T10:04:21.000Z</time>
      </trkpt>
      <trkpt lat="47.32341" lon="-2.41022">
        <ele>-33.200000762939</ele>
        <time>2021-11-04T10:04:22.000Z</time>
      </trkpt>
      <trkpt lat="47.32354" lon="-2.41046">
        <ele>-33.200000762939</ele>
        <time>2021-11-04T10:04:26.000Z</time>
      </trkpt>
      <trkpt lat="47.32372" lon="-2.41081">
        <ele>-33.200000762939</ele>
        <time>2021-11-04T10:04:33.000Z</time>
      </trkpt>
      <trkpt lat="47.32378" lon="-2.41097">
        <ele>-33.200000762939</ele>
        <time>2021-11-04T10:04:36.000Z</time>
      </trkpt>
      <trkpt lat="47.32396" lon="-2.41126">
        <ele>-33.200000762939</ele>
        <time>2021-11-04T10:04:42.000Z</time>
      </trkpt>
      <trkpt lat="47.32408" lon="-2.41148">
        <ele>-33.200000762939</ele>
        <time>2021-11-04T10:04:48.000Z</time>
      </trkpt>
      <trkpt lat="47.32415" lon="-2.41162">
        <ele>-33.200000762939</ele>
        <time>2021-11-04T10:04:54.000Z</time>
      </trkpt>
      <trkpt lat="47.32414" lon="-2.41164">
        <ele>-33.200000762939</ele>
        <time>2021-11-04T10:04:55.000Z</time>
      </trkpt>
      <trkpt lat="47.32409" lon="-2.41172">
        <ele>-33.200000762939</ele>
        <time>2021-11-04T10:04:57.000Z</time>
      </trkpt>
      <trkpt lat="47.32403" lon="-2.41177">
        <ele>-33.200000762939</ele>
        <time>2021-11-04T10:04:59.000Z</time>
      </trkpt>
      <trkpt lat="47.32399" lon="-2.41183">
        <ele>-33.200000762939</ele>
        <time>2021-11-04T10:05:01.000Z</time>
      </trkpt>
      <trkpt lat="47.32393" lon="-2.41192">
        <ele>-33.200000762939</ele>
        <time>2021-11-04T10:05:04.000Z</time>
      </trkpt>
      <trkpt lat="47.32389" lon="-2.41202">
        <ele>-33.200000762939</ele>
        <time>2021-11-04T10:05:06.000Z</time>
      </trkpt>
      <trkpt lat="47.32385" lon="-2.41215">
        <ele>-33.200000762939</ele>
        <time>2021-11-04T10:05:09.000Z</time>
      </trkpt>
      <trkpt lat="47.32388" lon="-2.41225">
        <ele>-33.200000762939</ele>
        <time>2021-11-04T10:05:11.000Z</time>
      </trkpt>
      <trkpt lat="47.32397" lon="-2.41246">
        <ele>-33.200000762939</ele>
        <time>2021-11-04T10:05:17.000Z</time>
      </trkpt>
      <trkpt lat="47.32398" lon="-2.41248">
        <ele>-33.200000762939</ele>
        <time>2021-11-04T10:05:18.000Z</time>
      </trkpt>
      <trkpt lat="47.32403" lon="-2.41256">
        <ele>-33.200000762939</ele>
        <time>2021-11-04T10:05:24.000Z</time>
      </trkpt>
      <trkpt lat="47.32405" lon="-2.41259">
        <ele>-33.200000762939</ele>
        <time>2021-11-04T10:05:28.000Z</time>
      </trkpt>
      <trkpt lat="47.32404" lon="-2.41277">
        <ele>-35.200000762939</ele>
        <time>2021-11-04T10:12:23.000Z</time>
      </trkpt>
      <trkpt lat="47.32405" lon="-2.41279">
        <ele>-35.200000762939</ele>
        <time>2021-11-04T10:12:24.000Z</time>
      </trkpt>
      <trkpt lat="47.32413" lon="-2.41288">
        <ele>-35.200000762939</ele>
        <time>2021-11-04T10:12:28.000Z</time>
      </trkpt>
      <trkpt lat="47.32416" lon="-2.41292">
        <ele>-35.200000762939</ele>
        <time>2021-11-04T10:12:29.000Z</time>
      </trkpt>
      <trkpt lat="47.32424" lon="-2.41298">
        <ele>-35.200000762939</ele>
        <time>2021-11-04T10:12:32.000Z</time>
      </trkpt>
      <trkpt lat="47.32428" lon="-2.41295">
        <ele>-35.200000762939</ele>
        <time>2021-11-04T10:12:34.000Z</time>
      </trkpt>
      <trkpt lat="47.32445" lon="-2.41283">
        <ele>-35.200000762939</ele>
        <time>2021-11-04T10:12:41.000Z</time>
      </trkpt>
      <trkpt lat="47.32462" lon="-2.41287">
        <ele>-35.200000762939</ele>
        <time>2021-11-04T10:12:47.000Z</time>
      </trkpt>
      <trkpt lat="47.32465" lon="-2.4129">
        <ele>-35.200000762939</ele>
        <time>2021-11-04T10:12:48.000Z</time>
      </trkpt>
      <trkpt lat="47.32479" lon="-2.41308">
        <ele>-35.200000762939</ele>
        <time>2021-11-04T10:12:52.000Z</time>
      </trkpt>
      <trkpt lat="47.32501" lon="-2.41351">
        <ele>-35.200000762939</ele>
        <time>2021-11-04T10:13:00.000Z</time>
      </trkpt>
      <trkpt lat="47.32527" lon="-2.41398">
        <ele>-35.200000762939</ele>
        <time>2021-11-04T10:13:10.000Z</time>
      </trkpt>
      <trkpt lat="47.32545" lon="-2.41434">
        <ele>-35.200000762939</ele>
        <time>2021-11-04T10:13:17.000Z</time>
      </trkpt>
      <trkpt lat="47.32567" lon="-2.41472">
        <ele>-35.200000762939</ele>
        <time>2021-11-04T10:13:26.000Z</time>
      </trkpt>
      <trkpt lat="47.32575" lon="-2.41503">
        <ele>-35.200000762939</ele>
        <time>2021-11-04T10:13:32.000Z</time>
      </trkpt>
      <trkpt lat="47.32577" lon="-2.41509">
        <ele>-35.200000762939</ele>
        <time>2021-11-04T10:13:33.000Z</time>
      </trkpt>
      <trkpt lat="47.32585" lon="-2.41522">
        <ele>-35.200000762939</ele>
        <time>2021-11-04T10:13:36.000Z</time>
      </trkpt>
      <trkpt lat="47.32599" lon="-2.41523">
        <ele>-35.200000762939</ele>
        <time>2021-11-04T10:13:39.000Z</time>
      </trkpt>
      <trkpt lat="47.32604" lon="-2.41523">
        <ele>-35.200000762939</ele>
        <time>2021-11-04T10:13:40.000Z</time>
      </trkpt>
      <trkpt lat="47.32643" lon="-2.4153">
        <ele>-35.200000762939</ele>
        <time>2021-11-04T10:13:49.000Z</time>
      </trkpt>
      <trkpt lat="47.32652" lon="-2.41533">
        <ele>-36</ele>
        <time>2021-11-04T10:13:51.000Z</time>
      </trkpt>
      <trkpt lat="47.32657" lon="-2.41534">
        <ele>-36.400001525879</ele>
        <time>2021-11-04T10:13:52.000Z</time>
      </trkpt>
      <trkpt lat="47.32661" lon="-2.41534">
        <ele>-36.799999237061</ele>
        <time>2021-11-04T10:13:53.000Z</time>
      </trkpt>
      <trkpt lat="47.32666" lon="-2.41535">
        <ele>-37.200000762939</ele>
        <time>2021-11-04T10:13:54.000Z</time>
      </trkpt>
      <trkpt lat="47.32685" lon="-2.41539">
        <ele>-37.200000762939</ele>
        <time>2021-11-04T10:13:58.000Z</time>
      </trkpt>
      <trkpt lat="47.32695" lon="-2.41541">
        <ele>-37.200000762939</ele>
        <time>2021-11-04T10:14:01.000Z</time>
      </trkpt>
      <trkpt lat="47.32704" lon="-2.41548">
        <ele>-37.200000762939</ele>
        <time>2021-11-04T10:14:04.000Z</time>
      </trkpt>
      <trkpt lat="47.32705" lon="-2.4155">
        <ele>-37.599998474121</ele>
        <time>2021-11-04T10:14:05.000Z</time>
      </trkpt>
      <trkpt lat="47.32706" lon="-2.41553">
        <ele>-38</ele>
        <time>2021-11-04T10:14:06.000Z</time>
      </trkpt>
      <trkpt lat="47.32706" lon="-2.41555">
        <ele>-38.599998474121</ele>
        <time>2021-11-04T10:14:07.000Z</time>
      </trkpt>
      <trkpt lat="47.32706" lon="-2.41559">
        <ele>-39</ele>
        <time>2021-11-04T10:14:08.000Z</time>
      </trkpt>
      <trkpt lat="47.32705" lon="-2.41564">
        <ele>-39.400001525879</ele>
        <time>2021-11-04T10:14:09.000Z</time>
      </trkpt>
      <trkpt lat="47.32704" lon="-2.41567">
        <ele>-39.400001525879</ele>
        <time>2021-11-04T10:14:10.000Z</time>
      </trkpt>
      <trkpt lat="47.32703" lon="-2.4157">
        <ele>-39.400001525879</ele>
        <time>2021-11-04T10:14:11.000Z</time>
      </trkpt>
      <trkpt lat="47.32703" lon="-2.41573">
        <ele>-39.400001525879</ele>
        <time>2021-11-04T10:14:13.000Z</time>
      </trkpt>
      <trkpt lat="47.32704" lon="-2.41577">
        <ele>-39.400001525879</ele>
        <time>2021-11-04T10:14:16.000Z</time>
      </trkpt>
      <trkpt lat="47.32706" lon="-2.4158">
        <ele>-39.400001525879</ele>
        <time>2021-11-04T10:14:17.000Z</time>
      </trkpt>
      <trkpt lat="47.32708" lon="-2.41587">
        <ele>-39.400001525879</ele>
        <time>2021-11-04T10:14:19.000Z</time>
      </trkpt>
      <trkpt lat="47.32714" lon="-2.41605">
        <ele>-39.400001525879</ele>
        <time>2021-11-04T10:14:22.000Z</time>
      </trkpt>
      <trkpt lat="47.32716" lon="-2.4161">
        <ele>-39.400001525879</ele>
        <time>2021-11-04T10:14:23.000Z</time>
      </trkpt>
      <trkpt lat="47.32719" lon="-2.41622">
        <ele>-39.400001525879</ele>
        <time>2021-11-04T10:14:27.000Z</time>
      </trkpt>
      <trkpt lat="47.32709" lon="-2.41623">
        <ele>-39.400001525879</ele>
        <time>2021-11-04T10:14:31.000Z</time>
      </trkpt>
      <trkpt lat="47.32688" lon="-2.41624">
        <ele>-39.400001525879</ele>
        <time>2021-11-04T10:14:36.000Z</time>
      </trkpt>
      <trkpt lat="47.32679" lon="-2.41622">
        <ele>-39.400001525879</ele>
        <time>2021-11-04T10:14:38.000Z</time>
      </trkpt>
      <trkpt lat="47.3266" lon="-2.41616">
        <ele>-39.400001525879</ele>
        <time>2021-11-04T10:14:42.000Z</time>
      </trkpt>
      <trkpt lat="47.3264" lon="-2.41611">
        <ele>-39</ele>
        <time>2021-11-04T10:14:46.000Z</time>
      </trkpt>
      <trkpt lat="47.32633" lon="-2.41608">
        <ele>-38.599998474121</ele>
        <time>2021-11-04T10:14:48.000Z</time>
      </trkpt>
      <trkpt lat="47.32629" lon="-2.41606">
        <ele>-38.200000762939</ele>
        <time>2021-11-04T10:14:49.000Z</time>
      </trkpt>
      <trkpt lat="47.32624" lon="-2.41604">
        <ele>-37.799999237061</ele>
        <time>2021-11-04T10:14:50.000Z</time>
      </trkpt>
      <trkpt lat="47.32619" lon="-2.41603">
        <ele>-37.200000762939</ele>
        <time>2021-11-04T10:14:51.000Z</time>
      </trkpt>
      <trkpt lat="47.32614" lon="-2.41602">
        <ele>-37.200000762939</ele>
        <time>2021-11-04T10:14:52.000Z</time>
      </trkpt>
      <trkpt lat="47.32609" lon="-2.41602">
        <ele>-37.200000762939</ele>
        <time>2021-11-04T10:14:53.000Z</time>
      </trkpt>
      <trkpt lat="47.32605" lon="-2.41604">
        <ele>-37.200000762939</ele>
        <time>2021-11-04T10:14:54.000Z</time>
      </trkpt>
      <trkpt lat="47.32594" lon="-2.41607">
        <ele>-36.799999237061</ele>
        <time>2021-11-04T10:14:56.000Z</time>
      </trkpt>
      <trkpt lat="47.32589" lon="-2.41607">
        <ele>-36.400001525879</ele>
        <time>2021-11-04T10:14:57.000Z</time>
      </trkpt>
      <trkpt lat="47.32583" lon="-2.41605">
        <ele>-36</ele>
        <time>2021-11-04T10:14:58.000Z</time>
      </trkpt>
      <trkpt lat="47.32578" lon="-2.41602">
        <ele>-35.599998474121</ele>
        <time>2021-11-04T10:14:59.000Z</time>
      </trkpt>
      <trkpt lat="47.32574" lon="-2.41599">
        <ele>-35.200000762939</ele>
        <time>2021-11-04T10:15:00.000Z</time>
      </trkpt>
      <trkpt lat="47.32566" lon="-2.41591">
        <ele>-35.200000762939</ele>
        <time>2021-11-04T10:15:02.000Z</time>
      </trkpt>
      <trkpt lat="47.32558" lon="-2.41583">
        <ele>-35.200000762939</ele>
        <time>2021-11-04T10:15:04.000Z</time>
      </trkpt>
      <trkpt lat="47.32554" lon="-2.4158">
        <ele>-35.200000762939</ele>
        <time>2021-11-04T10:15:05.000Z</time>
      </trkpt>
      <trkpt lat="47.3254" lon="-2.41579">
        <ele>-35.200000762939</ele>
        <time>2021-11-04T10:15:08.000Z</time>
      </trkpt>
      <trkpt lat="47.3253" lon="-2.41581">
        <ele>-35.200000762939</ele>
        <time>2021-11-04T10:15:10.000Z</time>
      </trkpt>
      <trkpt lat="47.32525" lon="-2.41583">
        <ele>-35.200000762939</ele>
        <time>2021-11-04T10:15:11.000Z</time>
      </trkpt>
      <trkpt lat="47.32515" lon="-2.41587">
        <ele>-35.200000762939</ele>
        <time>2021-11-04T10:15:13.000Z</time>
      </trkpt>
      <trkpt lat="47.32488" lon="-2.41588">
        <ele>-35.200000762939</ele>
        <time>2021-11-04T10:15:18.000Z</time>
      </trkpt>
      <trkpt lat="47.32456" lon="-2.41573">
        <ele>-35.200000762939</ele>
        <time>2021-11-04T10:15:24.000Z</time>
      </trkpt>
      <trkpt lat="47.32434" lon="-2.41568">
        <ele>-35.200000762939</ele>
        <time>2021-11-04T10:15:28.000Z</time>
      </trkpt>
      <trkpt lat="47.32423" lon="-2.41567">
        <ele>-35.200000762939</ele>
        <time>2021-11-04T10:15:30.000Z</time>
      </trkpt>
      <trkpt lat="47.324" lon="-2.41567">
        <ele>-35.200000762939</ele>
        <time>2021-11-04T10:15:34.000Z</time>
      </trkpt>
      <trkpt lat="47.32395" lon="-2.41564">
        <ele>-35.200000762939</ele>
        <time>2021-11-04T10:15:35.000Z</time>
      </trkpt>
      <trkpt lat="47.32372" lon="-2.41549">
        <ele>-35.200000762939</ele>
        <time>2021-11-04T10:15:39.000Z</time>
      </trkpt>
      <trkpt lat="47.32359" lon="-2.41547">
        <ele>-35.200000762939</ele>
        <time>2021-11-04T10:15:41.000Z</time>
      </trkpt>
      <trkpt lat="47.32335" lon="-2.41556">
        <ele>-35.200000762939</ele>
        <time>2021-11-04T10:15:45.000Z</time>
      </trkpt>
      <trkpt lat="47.3232" lon="-2.41581">
        <ele>-35.200000762939</ele>
        <time>2021-11-04T10:15:49.000Z</time>
      </trkpt>
      <trkpt lat="47.32314" lon="-2.41606">
        <ele>-35.200000762939</ele>
        <time>2021-11-04T10:15:52.000Z</time>
      </trkpt>
      <trkpt lat="47.3231" lon="-2.41622">
        <ele>-35.200000762939</ele>
        <time>2021-11-04T10:15:54.000Z</time>
      </trkpt>
      <trkpt lat="47.32304" lon="-2.41636">
        <ele>-35.200000762939</ele>
        <time>2021-11-04T10:15:57.000Z</time>
      </trkpt>
      <trkpt lat="47.32303" lon="-2.41638">
        <ele>-35.200000762939</ele>
        <time>2021-11-04T10:15:58.000Z</time>
      </trkpt>
      <trkpt lat="47.32301" lon="-2.41639">
        <ele>-35.200000762939</ele>
        <time>2021-11-04T10:15:59.000Z</time>
      </trkpt>
      <trkpt lat="47.32299" lon="-2.41636">
        <ele>-35.200000762939</ele>
        <time>2021-11-04T10:16:01.000Z</time>
      </trkpt>
      <trkpt lat="47.32299" lon="-2.41627">
        <ele>-35.200000762939</ele>
        <time>2021-11-04T10:16:06.000Z</time>
      </trkpt>
      <trkpt lat="47.32299" lon="-2.41625">
        <ele>-35.200000762939</ele>
        <time>2021-11-04T10:16:08.000Z</time>
      </trkpt>
      <trkpt lat="47.32303" lon="-2.41632">
        <ele>-37.200000762939</ele>
        <time>2021-11-04T10:27:47.000Z</time>
      </trkpt>
      <trkpt lat="47.32304" lon="-2.41632">
        <ele>-37.200000762939</ele>
        <time>2021-11-04T10:27:48.000Z</time>
      </trkpt>
      <trkpt lat="47.32303" lon="-2.41637">
        <ele>-37.200000762939</ele>
        <time>2021-11-04T10:27:51.000Z</time>
      </trkpt>
      <trkpt lat="47.32303" lon="-2.41639">
        <ele>-37.200000762939</ele>
        <time>2021-11-04T10:27:52.000Z</time>
      </trkpt>
      <trkpt lat="47.32302" lon="-2.41641">
        <ele>-37.200000762939</ele>
        <time>2021-11-04T10:27:53.000Z</time>
      </trkpt>
      <trkpt lat="47.323" lon="-2.41659">
        <ele>-37.200000762939</ele>
        <time>2021-11-04T10:27:59.000Z</time>
      </trkpt>
      <trkpt lat="47.32301" lon="-2.4169">
        <ele>-37.200000762939</ele>
        <time>2021-11-04T10:28:08.000Z</time>
      </trkpt>
      <trkpt lat="47.32298" lon="-2.4172">
        <ele>-37.200000762939</ele>
        <time>2021-11-04T10:28:13.000Z</time>
      </trkpt>
      <trkpt lat="47.32295" lon="-2.41726">
        <ele>-37.200000762939</ele>
        <time>2021-11-04T10:28:14.000Z</time>
      </trkpt>
      <trkpt lat="47.32287" lon="-2.41742">
        <ele>-37.200000762939</ele>
        <time>2021-11-04T10:28:17.000Z</time>
      </trkpt>
      <trkpt lat="47.32283" lon="-2.41752">
        <ele>-37.200000762939</ele>
        <time>2021-11-04T10:28:19.000Z</time>
      </trkpt>
      <trkpt lat="47.32282" lon="-2.41758">
        <ele>-37.200000762939</ele>
        <time>2021-11-04T10:28:20.000Z</time>
      </trkpt>
      <trkpt lat="47.32285" lon="-2.41777">
        <ele>-37.200000762939</ele>
        <time>2021-11-04T10:28:23.000Z</time>
      </trkpt>
      <trkpt lat="47.32284" lon="-2.41783">
        <ele>-37.200000762939</ele>
        <time>2021-11-04T10:28:24.000Z</time>
      </trkpt>
      <trkpt lat="47.32278" lon="-2.41794">
        <ele>-37.200000762939</ele>
        <time>2021-11-04T10:28:26.000Z</time>
      </trkpt>
      <trkpt lat="47.32271" lon="-2.41804">
        <ele>-37.200000762939</ele>
        <time>2021-11-04T10:28:28.000Z</time>
      </trkpt>
      <trkpt lat="47.3226" lon="-2.41826">
        <ele>-37.200000762939</ele>
        <time>2021-11-04T10:28:32.000Z</time>
      </trkpt>
      <trkpt lat="47.32247" lon="-2.41855">
        <ele>-37.200000762939</ele>
        <time>2021-11-04T10:28:37.000Z</time>
      </trkpt>
      <trkpt lat="47.32247" lon="-2.41861">
        <ele>-37.599998474121</ele>
        <time>2021-11-04T10:28:38.000Z</time>
      </trkpt>
      <trkpt lat="47.32247" lon="-2.41866">
        <ele>-38</ele>
        <time>2021-11-04T10:28:39.000Z</time>
      </trkpt>
      <trkpt lat="47.32248" lon="-2.41869">
        <ele>-38.400001525879</ele>
        <time>2021-11-04T10:28:40.000Z</time>
      </trkpt>
      <trkpt lat="47.3225" lon="-2.41872">
        <ele>-38.799999237061</ele>
        <time>2021-11-04T10:28:41.000Z</time>
      </trkpt>
      <trkpt lat="47.32251" lon="-2.41875">
        <ele>-39.200000762939</ele>
        <time>2021-11-04T10:28:42.000Z</time>
      </trkpt>
      <trkpt lat="47.32253" lon="-2.4188">
        <ele>-39.200000762939</ele>
        <time>2021-11-04T10:28:43.000Z</time>
      </trkpt>
      <trkpt lat="47.32263" lon="-2.41896">
        <ele>-39.200000762939</ele>
        <time>2021-11-04T10:28:47.000Z</time>
      </trkpt>
      <trkpt lat="47.32287" lon="-2.41929">
        <ele>-39.200000762939</ele>
        <time>2021-11-04T10:28:55.000Z</time>
      </trkpt>
      <trkpt lat="47.32298" lon="-2.41952">
        <ele>-39.200000762939</ele>
        <time>2021-11-04T10:29:00.000Z</time>
      </trkpt>
      <trkpt lat="47.3231" lon="-2.41964">
        <ele>-39.200000762939</ele>
        <time>2021-11-04T10:29:04.000Z</time>
      </trkpt>
      <trkpt lat="47.32328" lon="-2.41981">
        <ele>-39.200000762939</ele>
        <time>2021-11-04T10:29:09.000Z</time>
      </trkpt>
      <trkpt lat="47.32348" lon="-2.41999">
        <ele>-39.200000762939</ele>
        <time>2021-11-04T10:29:15.000Z</time>
      </trkpt>
      <trkpt lat="47.32362" lon="-2.42016">
        <ele>-38.799999237061</ele>
        <time>2021-11-04T10:29:19.000Z</time>
      </trkpt>
      <trkpt lat="47.32367" lon="-2.4202">
        <ele>-38.400001525879</ele>
        <time>2021-11-04T10:29:20.000Z</time>
      </trkpt>
      <trkpt lat="47.32371" lon="-2.42024">
        <ele>-38</ele>
        <time>2021-11-04T10:29:21.000Z</time>
      </trkpt>
      <trkpt lat="47.32375" lon="-2.42029">
        <ele>-37.599998474121</ele>
        <time>2021-11-04T10:29:22.000Z</time>
      </trkpt>
      <trkpt lat="47.32379" lon="-2.42033">
        <ele>-37.200000762939</ele>
        <time>2021-11-04T10:29:23.000Z</time>
      </trkpt>
      <trkpt lat="47.32414" lon="-2.42072">
        <ele>-37.200000762939</ele>
        <time>2021-11-04T10:29:32.000Z</time>
      </trkpt>
      <trkpt lat="47.32418" lon="-2.42076">
        <ele>-36.799999237061</ele>
        <time>2021-11-04T10:29:33.000Z</time>
      </trkpt>
      <trkpt lat="47.32421" lon="-2.4208">
        <ele>-36.400001525879</ele>
        <time>2021-11-04T10:29:34.000Z</time>
      </trkpt>
      <trkpt lat="47.32425" lon="-2.42085">
        <ele>-35.799999237061</ele>
        <time>2021-11-04T10:29:35.000Z</time>
      </trkpt>
      <trkpt lat="47.32428" lon="-2.42089">
        <ele>-35.400001525879</ele>
        <time>2021-11-04T10:29:36.000Z</time>
      </trkpt>
      <trkpt lat="47.32432" lon="-2.42092">
        <ele>-35</ele>
        <time>2021-11-04T10:29:37.000Z</time>
      </trkpt>
      <trkpt lat="47.3244" lon="-2.421">
        <ele>-35</ele>
        <time>2021-11-04T10:29:39.000Z</time>
      </trkpt>
      <trkpt lat="47.32455" lon="-2.42114">
        <ele>-34.599998474121</ele>
        <time>2021-11-04T10:29:43.000Z</time>
      </trkpt>
      <trkpt lat="47.32459" lon="-2.42118">
        <ele>-34.200000762939</ele>
        <time>2021-11-04T10:29:44.000Z</time>
      </trkpt>
      <trkpt lat="47.32462" lon="-2.42121">
        <ele>-33.799999237061</ele>
        <time>2021-11-04T10:29:45.000Z</time>
      </trkpt>
      <trkpt lat="47.32466" lon="-2.42124">
        <ele>-33.400001525879</ele>
        <time>2021-11-04T10:29:46.000Z</time>
      </trkpt>
      <trkpt lat="47.3247" lon="-2.42127">
        <ele>-33</ele>
        <time>2021-11-04T10:29:47.000Z</time>
      </trkpt>
      <trkpt lat="47.32474" lon="-2.42129">
        <ele>-33</ele>
        <time>2021-11-04T10:29:48.000Z</time>
      </trkpt>
      <trkpt lat="47.32486" lon="-2.42136">
        <ele>-33</ele>
        <time>2021-11-04T10:29:51.000Z</time>
      </trkpt>
      <trkpt lat="47.3249" lon="-2.4214">
        <ele>-33</ele>
        <time>2021-11-04T10:29:52.000Z</time>
      </trkpt>
      <trkpt lat="47.32499" lon="-2.42158">
        <ele>-33</ele>
        <time>2021-11-04T10:29:55.000Z</time>
      </trkpt>
      <trkpt lat="47.32502" lon="-2.42165">
        <ele>-33</ele>
        <time>2021-11-04T10:29:56.000Z</time>
      </trkpt>
      <trkpt lat="47.32515" lon="-2.42194">
        <ele>-33.400001525879</ele>
        <time>2021-11-04T10:30:00.000Z</time>
      </trkpt>
      <trkpt lat="47.32519" lon="-2.42201">
        <ele>-33.799999237061</ele>
        <time>2021-11-04T10:30:01.000Z</time>
      </trkpt>
      <trkpt lat="47.32522" lon="-2.42209">
        <ele>-34.400001525879</ele>
        <time>2021-11-04T10:30:02.000Z</time>
      </trkpt>
      <trkpt lat="47.32526" lon="-2.42217">
        <ele>-34.799999237061</ele>
        <time>2021-11-04T10:30:03.000Z</time>
      </trkpt>
      <trkpt lat="47.32529" lon="-2.42225">
        <ele>-35.200000762939</ele>
        <time>2021-11-04T10:30:04.000Z</time>
      </trkpt>
      <trkpt lat="47.32545" lon="-2.42256">
        <ele>-35.599998474121</ele>
        <time>2021-11-04T10:30:08.000Z</time>
      </trkpt>
      <trkpt lat="47.32548" lon="-2.42264">
        <ele>-36.200000762939</ele>
        <time>2021-11-04T10:30:09.000Z</time>
      </trkpt>
      <trkpt lat="47.32552" lon="-2.42271">
        <ele>-36.599998474121</ele>
        <time>2021-11-04T10:30:10.000Z</time>
      </trkpt>
      <trkpt lat="47.32556" lon="-2.42279">
        <ele>-37</ele>
        <time>2021-11-04T10:30:11.000Z</time>
      </trkpt>
      <trkpt lat="47.3256" lon="-2.42286">
        <ele>-37.400001525879</ele>
        <time>2021-11-04T10:30:12.000Z</time>
      </trkpt>
      <trkpt lat="47.32578" lon="-2.42321">
        <ele>-37.400001525879</ele>
        <time>2021-11-04T10:30:17.000Z</time>
      </trkpt>
      <trkpt lat="47.32592" lon="-2.42348">
        <ele>-37.400001525879</ele>
        <time>2021-11-04T10:30:21.000Z</time>
      </trkpt>
      <trkpt lat="47.32605" lon="-2.42369">
        <ele>-37.400001525879</ele>
        <time>2021-11-04T10:30:24.000Z</time>
      </trkpt>
      <trkpt lat="47.32627" lon="-2.4241">
        <ele>-37.400001525879</ele>
        <time>2021-11-04T10:30:30.000Z</time>
      </trkpt>
      <trkpt lat="47.32635" lon="-2.42433">
        <ele>-37.799999237061</ele>
        <time>2021-11-04T10:30:33.000Z</time>
      </trkpt>
      <trkpt lat="47.32638" lon="-2.42441">
        <ele>-38.200000762939</ele>
        <time>2021-11-04T10:30:34.000Z</time>
      </trkpt>
      <trkpt lat="47.32641" lon="-2.42448">
        <ele>-38.599998474121</ele>
        <time>2021-11-04T10:30:35.000Z</time>
      </trkpt>
      <trkpt lat="47.32644" lon="-2.42456">
        <ele>-39</ele>
        <time>2021-11-04T10:30:36.000Z</time>
      </trkpt>
      <trkpt lat="47.32648" lon="-2.42464">
        <ele>-39.400001525879</ele>
        <time>2021-11-04T10:30:37.000Z</time>
      </trkpt>
      <trkpt lat="47.3267" lon="-2.4252">
        <ele>-39.400001525879</ele>
        <time>2021-11-04T10:30:44.000Z</time>
      </trkpt>
      <trkpt lat="47.32687" lon="-2.42574">
        <ele>-39.400001525879</ele>
        <time>2021-11-04T10:30:51.000Z</time>
      </trkpt>
      <trkpt lat="47.32702" lon="-2.42623">
        <ele>-39.400001525879</ele>
        <time>2021-11-04T10:30:58.000Z</time>
      </trkpt>
      <trkpt lat="47.32714" lon="-2.42657">
        <ele>-39.400001525879</ele>
        <time>2021-11-04T10:31:04.000Z</time>
      </trkpt>
      <trkpt lat="47.32715" lon="-2.42661">
        <ele>-39.400001525879</ele>
        <time>2021-11-04T10:31:05.000Z</time>
      </trkpt>
      <trkpt lat="47.32711" lon="-2.42669">
        <ele>-39.400001525879</ele>
        <time>2021-11-04T10:31:07.000Z</time>
      </trkpt>
      <trkpt lat="47.32701" lon="-2.42678">
        <ele>-39.400001525879</ele>
        <time>2021-11-04T10:31:10.000Z</time>
      </trkpt>
      <trkpt lat="47.32699" lon="-2.42681">
        <ele>-39.400001525879</ele>
        <time>2021-11-04T10:31:11.000Z</time>
      </trkpt>
      <trkpt lat="47.32689" lon="-2.42696">
        <ele>-39.400001525879</ele>
        <time>2021-11-04T10:31:15.000Z</time>
      </trkpt>
      <trkpt lat="47.32685" lon="-2.427">
        <ele>-39.400001525879</ele>
        <time>2021-11-04T10:31:16.000Z</time>
      </trkpt>
      <trkpt lat="47.32667" lon="-2.42711">
        <ele>-39.400001525879</ele>
        <time>2021-11-04T10:31:20.000Z</time>
      </trkpt>
      <trkpt lat="47.32653" lon="-2.42724">
        <ele>-39.799999237061</ele>
        <time>2021-11-04T10:31:23.000Z</time>
      </trkpt>
      <trkpt lat="47.32649" lon="-2.4273">
        <ele>-40.200000762939</ele>
        <time>2021-11-04T10:31:24.000Z</time>
      </trkpt>
      <trkpt lat="47.32645" lon="-2.42737">
        <ele>-40.599998474121</ele>
        <time>2021-11-04T10:31:25.000Z</time>
      </trkpt>
      <trkpt lat="47.32641" lon="-2.42743">
        <ele>-41</ele>
        <time>2021-11-04T10:31:26.000Z</time>
      </trkpt>
      <trkpt lat="47.32638" lon="-2.4275">
        <ele>-41.400001525879</ele>
        <time>2021-11-04T10:31:27.000Z</time>
      </trkpt>
      <trkpt lat="47.32627" lon="-2.42777">
        <ele>-41.400001525879</ele>
        <time>2021-11-04T10:31:31.000Z</time>
      </trkpt>
      <trkpt lat="47.32613" lon="-2.42827">
        <ele>-41.400001525879</ele>
        <time>2021-11-04T10:31:38.000Z</time>
      </trkpt>
      <trkpt lat="47.32606" lon="-2.42855">
        <ele>-41</ele>
        <time>2021-11-04T10:31:42.000Z</time>
      </trkpt>
      <trkpt lat="47.32605" lon="-2.42862">
        <ele>-40.599998474121</ele>
        <time>2021-11-04T10:31:43.000Z</time>
      </trkpt>
      <trkpt lat="47.32603" lon="-2.42868">
        <ele>-40.200000762939</ele>
        <time>2021-11-04T10:31:44.000Z</time>
      </trkpt>
      <trkpt lat="47.32602" lon="-2.42875">
        <ele>-39.599998474121</ele>
        <time>2021-11-04T10:31:45.000Z</time>
      </trkpt>
      <trkpt lat="47.326" lon="-2.42881">
        <ele>-39.200000762939</ele>
        <time>2021-11-04T10:31:46.000Z</time>
      </trkpt>
      <trkpt lat="47.32595" lon="-2.42906">
        <ele>-39.200000762939</ele>
        <time>2021-11-04T10:31:50.000Z</time>
      </trkpt>
      <trkpt lat="47.32594" lon="-2.42912">
        <ele>-39.200000762939</ele>
        <time>2021-11-04T10:31:51.000Z</time>
      </trkpt>
      <trkpt lat="47.32595" lon="-2.42936">
        <ele>-39.200000762939</ele>
        <time>2021-11-04T10:31:55.000Z</time>
      </trkpt>
      <trkpt lat="47.32597" lon="-2.42951">
        <ele>-39.200000762939</ele>
        <time>2021-11-04T10:31:59.000Z</time>
      </trkpt>
      <trkpt lat="47.32599" lon="-2.4296">
        <ele>-39.200000762939</ele>
        <time>2021-11-04T10:32:01.000Z</time>
      </trkpt>
      <trkpt lat="47.326" lon="-2.42969">
        <ele>-39.200000762939</ele>
        <time>2021-11-04T10:32:03.000Z</time>
      </trkpt>
      <trkpt lat="47.32603" lon="-2.43005">
        <ele>-39.200000762939</ele>
        <time>2021-11-04T10:32:09.000Z</time>
      </trkpt>
      <trkpt lat="47.32607" lon="-2.43039">
        <ele>-39.200000762939</ele>
        <time>2021-11-04T10:32:15.000Z</time>
      </trkpt>
      <trkpt lat="47.3261" lon="-2.43053">
        <ele>-39.200000762939</ele>
        <time>2021-11-04T10:32:19.000Z</time>
      </trkpt>
      <trkpt lat="47.32614" lon="-2.43065">
        <ele>-39.200000762939</ele>
        <time>2021-11-04T10:32:25.000Z</time>
      </trkpt>
      <trkpt lat="47.3261" lon="-2.43072">
        <ele>-39.200000762939</ele>
        <time>2021-11-04T10:32:28.000Z</time>
      </trkpt>
      <trkpt lat="47.32599" lon="-2.4308">
        <ele>-39.200000762939</ele>
        <time>2021-11-04T10:32:31.000Z</time>
      </trkpt>
      <trkpt lat="47.32594" lon="-2.43082">
        <ele>-39.200000762939</ele>
        <time>2021-11-04T10:32:32.000Z</time>
      </trkpt>
      <trkpt lat="47.32567" lon="-2.43087">
        <ele>-39.200000762939</ele>
        <time>2021-11-04T10:32:37.000Z</time>
      </trkpt>
      <trkpt lat="47.32562" lon="-2.43088">
        <ele>-39.599998474121</ele>
        <time>2021-11-04T10:32:38.000Z</time>
      </trkpt>
      <trkpt lat="47.32557" lon="-2.43089">
        <ele>-40.200000762939</ele>
        <time>2021-11-04T10:32:39.000Z</time>
      </trkpt>
      <trkpt lat="47.32551" lon="-2.43089">
        <ele>-40.599998474121</ele>
        <time>2021-11-04T10:32:40.000Z</time>
      </trkpt>
      <trkpt lat="47.32546" lon="-2.43089">
        <ele>-41</ele>
        <time>2021-11-04T10:32:41.000Z</time>
      </trkpt>
      <trkpt lat="47.3254" lon="-2.43088">
        <ele>-41.400001525879</ele>
        <time>2021-11-04T10:32:42.000Z</time>
      </trkpt>
      <trkpt lat="47.32534" lon="-2.43088">
        <ele>-41.400001525879</ele>
        <time>2021-11-04T10:32:43.000Z</time>
      </trkpt>
      <trkpt lat="47.32496" lon="-2.43086">
        <ele>-41.799999237061</ele>
        <time>2021-11-04T10:32:49.000Z</time>
      </trkpt>
      <trkpt lat="47.32489" lon="-2.43085">
        <ele>-42.200000762939</ele>
        <time>2021-11-04T10:32:50.000Z</time>
      </trkpt>
      <trkpt lat="47.32482" lon="-2.43084">
        <ele>-42.599998474121</ele>
        <time>2021-11-04T10:32:51.000Z</time>
      </trkpt>
      <trkpt lat="47.32475" lon="-2.43084">
        <ele>-43</ele>
        <time>2021-11-04T10:32:52.000Z</time>
      </trkpt>
      <trkpt lat="47.32467" lon="-2.43083">
        <ele>-43.400001525879</ele>
        <time>2021-11-04T10:32:53.000Z</time>
      </trkpt>
      <trkpt lat="47.3245" lon="-2.4308">
        <ele>-43.400001525879</ele>
        <time>2021-11-04T10:32:55.000Z</time>
      </trkpt>
      <trkpt lat="47.32442" lon="-2.43079">
        <ele>-43.799999237061</ele>
        <time>2021-11-04T10:32:56.000Z</time>
      </trkpt>
      <trkpt lat="47.32433" lon="-2.43077">
        <ele>-44.400001525879</ele>
        <time>2021-11-04T10:32:57.000Z</time>
      </trkpt>
      <trkpt lat="47.32424" lon="-2.43075">
        <ele>-44.799999237061</ele>
        <time>2021-11-04T10:32:58.000Z</time>
      </trkpt>
      <trkpt lat="47.32415" lon="-2.43073">
        <ele>-45.400001525879</ele>
        <time>2021-11-04T10:32:59.000Z</time>
      </trkpt>
      <trkpt lat="47.32405" lon="-2.43071">
        <ele>-46</ele>
        <time>2021-11-04T10:33:00.000Z</time>
      </trkpt>
      <trkpt lat="47.32396" lon="-2.43069">
        <ele>-47</ele>
        <time>2021-11-04T10:33:01.000Z</time>
      </trkpt>
      <trkpt lat="47.32386" lon="-2.43069">
        <ele>-47.400001525879</ele>
        <time>2021-11-04T10:33:02.000Z</time>
      </trkpt>
      <trkpt lat="47.32376" lon="-2.43071">
        <ele>-48</ele>
        <time>2021-11-04T10:33:03.000Z</time>
      </trkpt>
      <trkpt lat="47.32366" lon="-2.43074">
        <ele>-48.799999237061</ele>
        <time>2021-11-04T10:33:04.000Z</time>
      </trkpt>
      <trkpt lat="47.32356" lon="-2.43079">
        <ele>-49.400001525879</ele>
        <time>2021-11-04T10:33:05.000Z</time>
      </trkpt>
      <trkpt lat="47.32345" lon="-2.43083">
        <ele>-50</ele>
        <time>2021-11-04T10:33:06.000Z</time>
      </trkpt>
      <trkpt lat="47.32335" lon="-2.43087">
        <ele>-50.400001525879</ele>
        <time>2021-11-04T10:33:07.000Z</time>
      </trkpt>
      <trkpt lat="47.32326" lon="-2.43091">
        <ele>-51</ele>
        <time>2021-11-04T10:33:08.000Z</time>
      </trkpt>
      <trkpt lat="47.32317" lon="-2.43097">
        <ele>-51.599998474121</ele>
        <time>2021-11-04T10:33:09.000Z</time>
      </trkpt>
      <trkpt lat="47.32308" lon="-2.43103">
        <ele>-52</ele>
        <time>2021-11-04T10:33:10.000Z</time>
      </trkpt>
      <trkpt lat="47.32299" lon="-2.43109">
        <ele>-52.599998474121</ele>
        <time>2021-11-04T10:33:11.000Z</time>
      </trkpt>
      <trkpt lat="47.32273" lon="-2.43125">
        <ele>-52.599998474121</ele>
        <time>2021-11-04T10:33:14.000Z</time>
      </trkpt>
      <trkpt lat="47.32217" lon="-2.43147">
        <ele>-52.599998474121</ele>
        <time>2021-11-04T10:33:20.000Z</time>
      </trkpt>
      <trkpt lat="47.32208" lon="-2.4315">
        <ele>-53</ele>
        <time>2021-11-04T10:33:21.000Z</time>
      </trkpt>
      <trkpt lat="47.32199" lon="-2.43154">
        <ele>-53.400001525879</ele>
        <time>2021-11-04T10:33:22.000Z</time>
      </trkpt>
      <trkpt lat="47.3219" lon="-2.43158">
        <ele>-53.799999237061</ele>
        <time>2021-11-04T10:33:23.000Z</time>
      </trkpt>
      <trkpt lat="47.32182" lon="-2.43161">
        <ele>-54.200000762939</ele>
        <time>2021-11-04T10:33:24.000Z</time>
      </trkpt>
      <trkpt lat="47.32173" lon="-2.43165">
        <ele>-54.599998474121</ele>
        <time>2021-11-04T10:33:25.000Z</time>
      </trkpt>
      <trkpt lat="47.32148" lon="-2.43179">
        <ele>-54.599998474121</ele>
        <time>2021-11-04T10:33:28.000Z</time>
      </trkpt>
      <trkpt lat="47.32139" lon="-2.43184">
        <ele>-55.200000762939</ele>
        <time>2021-11-04T10:33:29.000Z</time>
      </trkpt>
      <trkpt lat="47.32131" lon="-2.43188">
        <ele>-55.599998474121</ele>
        <time>2021-11-04T10:33:30.000Z</time>
      </trkpt>
      <trkpt lat="47.32123" lon="-2.43193">
        <ele>-56</ele>
        <time>2021-11-04T10:33:31.000Z</time>
      </trkpt>
      <trkpt lat="47.32115" lon="-2.43197">
        <ele>-56.400001525879</ele>
        <time>2021-11-04T10:33:32.000Z</time>
      </trkpt>
      <trkpt lat="47.32106" lon="-2.43201">
        <ele>-56.799999237061</ele>
        <time>2021-11-04T10:33:33.000Z</time>
      </trkpt>
      <trkpt lat="47.32098" lon="-2.43205">
        <ele>-56.799999237061</ele>
        <time>2021-11-04T10:33:34.000Z</time>
      </trkpt>
      <trkpt lat="47.32066" lon="-2.4322">
        <ele>-57.200000762939</ele>
        <time>2021-11-04T10:33:38.000Z</time>
      </trkpt>
      <trkpt lat="47.32059" lon="-2.43224">
        <ele>-57.799999237061</ele>
        <time>2021-11-04T10:33:39.000Z</time>
      </trkpt>
      <trkpt lat="47.32052" lon="-2.43228">
        <ele>-58.200000762939</ele>
        <time>2021-11-04T10:33:40.000Z</time>
      </trkpt>
      <trkpt lat="47.32045" lon="-2.43234">
        <ele>-58.599998474121</ele>
        <time>2021-11-04T10:33:41.000Z</time>
      </trkpt>
      <trkpt lat="47.32037" lon="-2.43239">
        <ele>-59.200000762939</ele>
        <time>2021-11-04T10:33:42.000Z</time>
      </trkpt>
      <trkpt lat="47.32015" lon="-2.43256">
        <ele>-59.599998474121</ele>
        <time>2021-11-04T10:33:45.000Z</time>
      </trkpt>
      <trkpt lat="47.32007" lon="-2.43261">
        <ele>-60</ele>
        <time>2021-11-04T10:33:46.000Z</time>
      </trkpt>
      <trkpt lat="47.32" lon="-2.43267">
        <ele>-60.400001525879</ele>
        <time>2021-11-04T10:33:47.000Z</time>
      </trkpt>
      <trkpt lat="47.31993" lon="-2.43271">
        <ele>-61</ele>
        <time>2021-11-04T10:33:48.000Z</time>
      </trkpt>
      <trkpt lat="47.31987" lon="-2.43275">
        <ele>-61.400001525879</ele>
        <time>2021-11-04T10:33:49.000Z</time>
      </trkpt>
      <trkpt lat="47.31982" lon="-2.43279">
        <ele>-61.799999237061</ele>
        <time>2021-11-04T10:33:50.000Z</time>
      </trkpt>
      <trkpt lat="47.31977" lon="-2.43282">
        <ele>-62.400001525879</ele>
        <time>2021-11-04T10:33:51.000Z</time>
      </trkpt>
      <trkpt lat="47.31973" lon="-2.43287">
        <ele>-63</ele>
        <time>2021-11-04T10:33:52.000Z</time>
      </trkpt>
      <trkpt lat="47.31971" lon="-2.43293">
        <ele>-63.400001525879</ele>
        <time>2021-11-04T10:33:53.000Z</time>
      </trkpt>
      <trkpt lat="47.3197" lon="-2.43302">
        <ele>-64</ele>
        <time>2021-11-04T10:33:54.000Z</time>
      </trkpt>
      <trkpt lat="47.3197" lon="-2.43312">
        <ele>-64</ele>
        <time>2021-11-04T10:33:55.000Z</time>
      </trkpt>
      <trkpt lat="47.3197" lon="-2.43322">
        <ele>-64</ele>
        <time>2021-11-04T10:33:56.000Z</time>
      </trkpt>
      <trkpt lat="47.31968" lon="-2.43345">
        <ele>-64</ele>
        <time>2021-11-04T10:33:58.000Z</time>
      </trkpt>
      <trkpt lat="47.31966" lon="-2.43356">
        <ele>-64</ele>
        <time>2021-11-04T10:33:59.000Z</time>
      </trkpt>
      <trkpt lat="47.31958" lon="-2.4339">
        <ele>-64.400001525879</ele>
        <time>2021-11-04T10:34:02.000Z</time>
      </trkpt>
      <trkpt lat="47.31955" lon="-2.43401">
        <ele>-64.800003051758</ele>
        <time>2021-11-04T10:34:03.000Z</time>
      </trkpt>
      <trkpt lat="47.31952" lon="-2.43412">
        <ele>-65.199996948242</ele>
        <time>2021-11-04T10:34:04.000Z</time>
      </trkpt>
      <trkpt lat="47.31948" lon="-2.43423">
        <ele>-65.800003051758</ele>
        <time>2021-11-04T10:34:05.000Z</time>
      </trkpt>
      <trkpt lat="47.31944" lon="-2.43434">
        <ele>-66.199996948242</ele>
        <time>2021-11-04T10:34:06.000Z</time>
      </trkpt>
      <trkpt lat="47.3194" lon="-2.43445">
        <ele>-66.800003051758</ele>
        <time>2021-11-04T10:34:07.000Z</time>
      </trkpt>
      <trkpt lat="47.31936" lon="-2.43456">
        <ele>-67.199996948242</ele>
        <time>2021-11-04T10:34:08.000Z</time>
      </trkpt>
      <trkpt lat="47.31932" lon="-2.43468">
        <ele>-67.599998474121</ele>
        <time>2021-11-04T10:34:09.000Z</time>
      </trkpt>
      <trkpt lat="47.31929" lon="-2.4348">
        <ele>-68.199996948242</ele>
        <time>2021-11-04T10:34:10.000Z</time>
      </trkpt>
      <trkpt lat="47.31927" lon="-2.43492">
        <ele>-68.599998474121</ele>
        <time>2021-11-04T10:34:11.000Z</time>
      </trkpt>
      <trkpt lat="47.31925" lon="-2.43505">
        <ele>-69.199996948242</ele>
        <time>2021-11-04T10:34:12.000Z</time>
      </trkpt>
      <trkpt lat="47.31924" lon="-2.43517">
        <ele>-69.599998474121</ele>
        <time>2021-11-04T10:34:13.000Z</time>
      </trkpt>
      <trkpt lat="47.31925" lon="-2.4353">
        <ele>-70</ele>
        <time>2021-11-04T10:34:14.000Z</time>
      </trkpt>
      <trkpt lat="47.31925" lon="-2.43542">
        <ele>-70.599998474121</ele>
        <time>2021-11-04T10:34:15.000Z</time>
      </trkpt>
      <trkpt lat="47.31925" lon="-2.43554">
        <ele>-70.599998474121</ele>
        <time>2021-11-04T10:34:16.000Z</time>
      </trkpt>
      <trkpt lat="47.31926" lon="-2.43577">
        <ele>-70.599998474121</ele>
        <time>2021-11-04T10:34:18.000Z</time>
      </trkpt>
      <trkpt lat="47.31925" lon="-2.43588">
        <ele>-71</ele>
        <time>2021-11-04T10:34:19.000Z</time>
      </trkpt>
      <trkpt lat="47.31923" lon="-2.43598">
        <ele>-71.400001525879</ele>
        <time>2021-11-04T10:34:20.000Z</time>
      </trkpt>
      <trkpt lat="47.31919" lon="-2.43606">
        <ele>-71.800003051758</ele>
        <time>2021-11-04T10:34:21.000Z</time>
      </trkpt>
      <trkpt lat="47.31914" lon="-2.43612">
        <ele>-72.199996948242</ele>
        <time>2021-11-04T10:34:22.000Z</time>
      </trkpt>
      <trkpt lat="47.31907" lon="-2.43617">
        <ele>-72.800003051758</ele>
        <time>2021-11-04T10:34:23.000Z</time>
      </trkpt>
      <trkpt lat="47.31901" lon="-2.43622">
        <ele>-73.400001525879</ele>
        <time>2021-11-04T10:34:24.000Z</time>
      </trkpt>
      <trkpt lat="47.31895" lon="-2.43628">
        <ele>-73.800003051758</ele>
        <time>2021-11-04T10:34:25.000Z</time>
      </trkpt>
      <trkpt lat="47.31891" lon="-2.43634">
        <ele>-74.400001525879</ele>
        <time>2021-11-04T10:34:26.000Z</time>
      </trkpt>
      <trkpt lat="47.31888" lon="-2.43642">
        <ele>-74.800003051758</ele>
        <time>2021-11-04T10:34:27.000Z</time>
      </trkpt>
      <trkpt lat="47.31887" lon="-2.43649">
        <ele>-75.400001525879</ele>
        <time>2021-11-04T10:34:28.000Z</time>
      </trkpt>
      <trkpt lat="47.31887" lon="-2.43654">
        <ele>-75.800003051758</ele>
        <time>2021-11-04T10:34:29.000Z</time>
      </trkpt>
      <trkpt lat="47.31889" lon="-2.43658">
        <ele>-76.199996948242</ele>
        <time>2021-11-04T10:34:30.000Z</time>
      </trkpt>
      <trkpt lat="47.31892" lon="-2.43662">
        <ele>-76.599998474121</ele>
        <time>2021-11-04T10:34:31.000Z</time>
      </trkpt>
      <trkpt lat="47.31894" lon="-2.43665">
        <ele>-77</ele>
        <time>2021-11-04T10:34:32.000Z</time>
      </trkpt>
      <trkpt lat="47.31901" lon="-2.43677">
        <ele>-77</ele>
        <time>2021-11-04T10:34:35.000Z</time>
      </trkpt>
      <trkpt lat="47.31911" lon="-2.43694">
        <ele>-77</ele>
        <time>2021-11-04T10:34:38.000Z</time>
      </trkpt>
      <trkpt lat="47.31914" lon="-2.437">
        <ele>-77</ele>
        <time>2021-11-04T10:34:39.000Z</time>
      </trkpt>
      <trkpt lat="47.3192" lon="-2.43714">
        <ele>-77</ele>
        <time>2021-11-04T10:34:41.000Z</time>
      </trkpt>
      <trkpt lat="47.31929" lon="-2.43737">
        <ele>-77</ele>
        <time>2021-11-04T10:34:44.000Z</time>
      </trkpt>
      <trkpt lat="47.31947" lon="-2.43788">
        <ele>-77</ele>
        <time>2021-11-04T10:34:51.000Z</time>
      </trkpt>
      <trkpt lat="47.3195" lon="-2.43795">
        <ele>-77</ele>
        <time>2021-11-04T10:34:52.000Z</time>
      </trkpt>
      <trkpt lat="47.31965" lon="-2.4382">
        <ele>-77</ele>
        <time>2021-11-04T10:34:56.000Z</time>
      </trkpt>
      <trkpt lat="47.31976" lon="-2.43836">
        <ele>-77</ele>
        <time>2021-11-04T10:34:59.000Z</time>
      </trkpt>
      <trkpt lat="47.31986" lon="-2.43839">
        <ele>-76.599998474121</ele>
        <time>2021-11-04T10:35:01.000Z</time>
      </trkpt>
      <trkpt lat="47.3199" lon="-2.43838">
        <ele>-76.199996948242</ele>
        <time>2021-11-04T10:35:02.000Z</time>
      </trkpt>
      <trkpt lat="47.31993" lon="-2.43835">
        <ele>-75.800003051758</ele>
        <time>2021-11-04T10:35:03.000Z</time>
      </trkpt>
      <trkpt lat="47.31997" lon="-2.43832">
        <ele>-74.800003051758</ele>
        <time>2021-11-04T10:35:04.000Z</time>
      </trkpt>
      <trkpt lat="47.32001" lon="-2.43828">
        <ele>-74.800003051758</ele>
        <time>2021-11-04T10:35:05.000Z</time>
      </trkpt>
      <trkpt lat="47.32013" lon="-2.43815">
        <ele>-74.400001525879</ele>
        <time>2021-11-04T10:35:09.000Z</time>
      </trkpt>
      <trkpt lat="47.32016" lon="-2.43812">
        <ele>-74</ele>
        <time>2021-11-04T10:35:10.000Z</time>
      </trkpt>
      <trkpt lat="47.32019" lon="-2.4381">
        <ele>-73.599998474121</ele>
        <time>2021-11-04T10:35:11.000Z</time>
      </trkpt>
      <trkpt lat="47.32022" lon="-2.43807">
        <ele>-73</ele>
        <time>2021-11-04T10:35:12.000Z</time>
      </trkpt>
      <trkpt lat="47.32025" lon="-2.43805">
        <ele>-72.599998474121</ele>
        <time>2021-11-04T10:35:13.000Z</time>
      </trkpt>
      <trkpt lat="47.32033" lon="-2.43803">
        <ele>-72.199996948242</ele>
        <time>2021-11-04T10:35:16.000Z</time>
      </trkpt>
      <trkpt lat="47.32035" lon="-2.43805">
        <ele>-71.800003051758</ele>
        <time>2021-11-04T10:35:17.000Z</time>
      </trkpt>
      <trkpt lat="47.32037" lon="-2.43808">
        <ele>-71.400001525879</ele>
        <time>2021-11-04T10:35:18.000Z</time>
      </trkpt>
      <trkpt lat="47.3204" lon="-2.43812">
        <ele>-70.800003051758</ele>
        <time>2021-11-04T10:35:19.000Z</time>
      </trkpt>
      <trkpt lat="47.32042" lon="-2.43816">
        <ele>-70.400001525879</ele>
        <time>2021-11-04T10:35:20.000Z</time>
      </trkpt>
      <trkpt lat="47.32049" lon="-2.4383">
        <ele>-70.400001525879</ele>
        <time>2021-11-04T10:35:23.000Z</time>
      </trkpt>
      <trkpt lat="47.32054" lon="-2.4384">
        <ele>-70</ele>
        <time>2021-11-04T10:35:25.000Z</time>
      </trkpt>
      <trkpt lat="47.32057" lon="-2.43845">
        <ele>-69.599998474121</ele>
        <time>2021-11-04T10:35:26.000Z</time>
      </trkpt>
      <trkpt lat="47.32059" lon="-2.4385">
        <ele>-69.199996948242</ele>
        <time>2021-11-04T10:35:27.000Z</time>
      </trkpt>
      <trkpt lat="47.32062" lon="-2.43855">
        <ele>-68.800003051758</ele>
        <time>2021-11-04T10:35:28.000Z</time>
      </trkpt>
      <trkpt lat="47.32065" lon="-2.4386">
        <ele>-68.400001525879</ele>
        <time>2021-11-04T10:35:29.000Z</time>
      </trkpt>
      <trkpt lat="47.32068" lon="-2.43865">
        <ele>-68.400001525879</ele>
        <time>2021-11-04T10:35:30.000Z</time>
      </trkpt>
      <trkpt lat="47.3207" lon="-2.43869">
        <ele>-68.400001525879</ele>
        <time>2021-11-04T10:35:31.000Z</time>
      </trkpt>
      <trkpt lat="47.32085" lon="-2.43892">
        <ele>-68.400001525879</ele>
        <time>2021-11-04T10:35:36.000Z</time>
      </trkpt>
      <trkpt lat="47.32103" lon="-2.43902">
        <ele>-68.400001525879</ele>
        <time>2021-11-04T10:35:41.000Z</time>
      </trkpt>
      <trkpt lat="47.32111" lon="-2.43905">
        <ele>-68</ele>
        <time>2021-11-04T10:35:43.000Z</time>
      </trkpt>
      <trkpt lat="47.32114" lon="-2.43907">
        <ele>-67.599998474121</ele>
        <time>2021-11-04T10:35:44.000Z</time>
      </trkpt>
      <trkpt lat="47.32118" lon="-2.43909">
        <ele>-67</ele>
        <time>2021-11-04T10:35:45.000Z</time>
      </trkpt>
      <trkpt lat="47.32122" lon="-2.43911">
        <ele>-66.599998474121</ele>
        <time>2021-11-04T10:35:46.000Z</time>
      </trkpt>
      <trkpt lat="47.32125" lon="-2.43913">
        <ele>-66.199996948242</ele>
        <time>2021-11-04T10:35:47.000Z</time>
      </trkpt>
      <trkpt lat="47.32128" lon="-2.43916">
        <ele>-66.199996948242</ele>
        <time>2021-11-04T10:35:48.000Z</time>
      </trkpt>
      <trkpt lat="47.32139" lon="-2.43928">
        <ele>-65.800003051758</ele>
        <time>2021-11-04T10:35:52.000Z</time>
      </trkpt>
      <trkpt lat="47.32142" lon="-2.43932">
        <ele>-65.400001525879</ele>
        <time>2021-11-04T10:35:53.000Z</time>
      </trkpt>
      <trkpt lat="47.32144" lon="-2.43936">
        <ele>-64.599998474121</ele>
        <time>2021-11-04T10:35:54.000Z</time>
      </trkpt>
      <trkpt lat="47.32146" lon="-2.43939">
        <ele>-64.199996948242</ele>
        <time>2021-11-04T10:35:55.000Z</time>
      </trkpt>
      <trkpt lat="47.32162" lon="-2.43962">
        <ele>-63.799999237061</ele>
        <time>2021-11-04T10:36:01.000Z</time>
      </trkpt>
      <trkpt lat="47.32164" lon="-2.43966">
        <ele>-63.400001525879</ele>
        <time>2021-11-04T10:36:02.000Z</time>
      </trkpt>
      <trkpt lat="47.32167" lon="-2.4397">
        <ele>-63</ele>
        <time>2021-11-04T10:36:03.000Z</time>
      </trkpt>
      <trkpt lat="47.32169" lon="-2.43974">
        <ele>-62.400001525879</ele>
        <time>2021-11-04T10:36:04.000Z</time>
      </trkpt>
      <trkpt lat="47.32172" lon="-2.43978">
        <ele>-62</ele>
        <time>2021-11-04T10:36:05.000Z</time>
      </trkpt>
      <trkpt lat="47.32191" lon="-2.44005">
        <ele>-62</ele>
        <time>2021-11-04T10:36:12.000Z</time>
      </trkpt>
      <trkpt lat="47.32194" lon="-2.44009">
        <ele>-61.599998474121</ele>
        <time>2021-11-04T10:36:13.000Z</time>
      </trkpt>
      <trkpt lat="47.32197" lon="-2.44013">
        <ele>-61.200000762939</ele>
        <time>2021-11-04T10:36:14.000Z</time>
      </trkpt>
      <trkpt lat="47.322" lon="-2.44017">
        <ele>-60.799999237061</ele>
        <time>2021-11-04T10:36:15.000Z</time>
      </trkpt>
      <trkpt lat="47.32203" lon="-2.44021">
        <ele>-60.400001525879</ele>
        <time>2021-11-04T10:36:16.000Z</time>
      </trkpt>
      <trkpt lat="47.32206" lon="-2.44025">
        <ele>-60</ele>
        <time>2021-11-04T10:36:17.000Z</time>
      </trkpt>
      <trkpt lat="47.32209" lon="-2.44028">
        <ele>-60</ele>
        <time>2021-11-04T10:36:18.000Z</time>
      </trkpt>
      <trkpt lat="47.32223" lon="-2.44049">
        <ele>-60</ele>
        <time>2021-11-04T10:36:24.000Z</time>
      </trkpt>
      <trkpt lat="47.32223" lon="-2.44053">
        <ele>-60</ele>
        <time>2021-11-04T10:36:25.000Z</time>
      </trkpt>
      <trkpt lat="47.32218" lon="-2.44063">
        <ele>-60</ele>
        <time>2021-11-04T10:36:27.000Z</time>
      </trkpt>
      <trkpt lat="47.3221" lon="-2.44071">
        <ele>-60</ele>
        <time>2021-11-04T10:36:29.000Z</time>
      </trkpt>
      <trkpt lat="47.32199" lon="-2.44079">
        <ele>-60</ele>
        <time>2021-11-04T10:36:31.000Z</time>
      </trkpt>
      <trkpt lat="47.3217" lon="-2.4411">
        <ele>-60</ele>
        <time>2021-11-04T10:36:36.000Z</time>
      </trkpt>
      <trkpt lat="47.32164" lon="-2.44116">
        <ele>-60.400001525879</ele>
        <time>2021-11-04T10:36:37.000Z</time>
      </trkpt>
      <trkpt lat="47.32158" lon="-2.44124">
        <ele>-60.799999237061</ele>
        <time>2021-11-04T10:36:38.000Z</time>
      </trkpt>
      <trkpt lat="47.32152" lon="-2.44131">
        <ele>-61.200000762939</ele>
        <time>2021-11-04T10:36:39.000Z</time>
      </trkpt>
      <trkpt lat="47.32146" lon="-2.44138">
        <ele>-61.799999237061</ele>
        <time>2021-11-04T10:36:40.000Z</time>
      </trkpt>
      <trkpt lat="47.32139" lon="-2.44145">
        <ele>-62.200000762939</ele>
        <time>2021-11-04T10:36:41.000Z</time>
      </trkpt>
      <trkpt lat="47.32132" lon="-2.44153">
        <ele>-62.599998474121</ele>
        <time>2021-11-04T10:36:42.000Z</time>
      </trkpt>
      <trkpt lat="47.32125" lon="-2.4416">
        <ele>-63.599998474121</ele>
        <time>2021-11-04T10:36:43.000Z</time>
      </trkpt>
      <trkpt lat="47.32118" lon="-2.44169">
        <ele>-64</ele>
        <time>2021-11-04T10:36:44.000Z</time>
      </trkpt>
      <trkpt lat="47.3211" lon="-2.44178">
        <ele>-64.599998474121</ele>
        <time>2021-11-04T10:36:45.000Z</time>
      </trkpt>
      <trkpt lat="47.32103" lon="-2.44186">
        <ele>-65.199996948242</ele>
        <time>2021-11-04T10:36:46.000Z</time>
      </trkpt>
      <trkpt lat="47.32096" lon="-2.44195">
        <ele>-65.800003051758</ele>
        <time>2021-11-04T10:36:47.000Z</time>
      </trkpt>
      <trkpt lat="47.32089" lon="-2.44204">
        <ele>-66.400001525879</ele>
        <time>2021-11-04T10:36:48.000Z</time>
      </trkpt>
      <trkpt lat="47.32082" lon="-2.44214">
        <ele>-67</ele>
        <time>2021-11-04T10:36:49.000Z</time>
      </trkpt>
      <trkpt lat="47.32075" lon="-2.44223">
        <ele>-67.599998474121</ele>
        <time>2021-11-04T10:36:50.000Z</time>
      </trkpt>
      <trkpt lat="47.32068" lon="-2.44233">
        <ele>-68.199996948242</ele>
        <time>2021-11-04T10:36:51.000Z</time>
      </trkpt>
      <trkpt lat="47.3206" lon="-2.44243">
        <ele>-69</ele>
        <time>2021-11-04T10:36:52.000Z</time>
      </trkpt>
      <trkpt lat="47.32053" lon="-2.44252">
        <ele>-69.599998474121</ele>
        <time>2021-11-04T10:36:53.000Z</time>
      </trkpt>
      <trkpt lat="47.32046" lon="-2.44261">
        <ele>-70.199996948242</ele>
        <time>2021-11-04T10:36:54.000Z</time>
      </trkpt>
      <trkpt lat="47.32039" lon="-2.44271">
        <ele>-70.800003051758</ele>
        <time>2021-11-04T10:36:55.000Z</time>
      </trkpt>
      <trkpt lat="47.32032" lon="-2.44282">
        <ele>-71.400001525879</ele>
        <time>2021-11-04T10:36:56.000Z</time>
      </trkpt>
      <trkpt lat="47.32025" lon="-2.44293">
        <ele>-72</ele>
        <time>2021-11-04T10:36:57.000Z</time>
      </trkpt>
      <trkpt lat="47.32019" lon="-2.44304">
        <ele>-72.800003051758</ele>
        <time>2021-11-04T10:36:58.000Z</time>
      </trkpt>
      <trkpt lat="47.32013" lon="-2.44315">
        <ele>-73.400001525879</ele>
        <time>2021-11-04T10:36:59.000Z</time>
      </trkpt>
      <trkpt lat="47.32006" lon="-2.44326">
        <ele>-74</ele>
        <time>2021-11-04T10:37:00.000Z</time>
      </trkpt>
      <trkpt lat="47.32" lon="-2.44337">
        <ele>-74.599998474121</ele>
        <time>2021-11-04T10:37:01.000Z</time>
      </trkpt>
      <trkpt lat="47.31993" lon="-2.44347">
        <ele>-75.400001525879</ele>
        <time>2021-11-04T10:37:02.000Z</time>
      </trkpt>
      <trkpt lat="47.31986" lon="-2.44357">
        <ele>-76</ele>
        <time>2021-11-04T10:37:03.000Z</time>
      </trkpt>
      <trkpt lat="47.31979" lon="-2.44366">
        <ele>-76.800003051758</ele>
        <time>2021-11-04T10:37:04.000Z</time>
      </trkpt>
      <trkpt lat="47.31973" lon="-2.44376">
        <ele>-77.199996948242</ele>
        <time>2021-11-04T10:37:05.000Z</time>
      </trkpt>
      <trkpt lat="47.31967" lon="-2.44387">
        <ele>-77.800003051758</ele>
        <time>2021-11-04T10:37:06.000Z</time>
      </trkpt>
      <trkpt lat="47.31962" lon="-2.44398">
        <ele>-79</ele>
        <time>2021-11-04T10:37:07.000Z</time>
      </trkpt>
      <trkpt lat="47.31958" lon="-2.44409">
        <ele>-79.599998474121</ele>
        <time>2021-11-04T10:37:08.000Z</time>
      </trkpt>
      <trkpt lat="47.31955" lon="-2.44421">
        <ele>-80</ele>
        <time>2021-11-04T10:37:09.000Z</time>
      </trkpt>
      <trkpt lat="47.31951" lon="-2.44432">
        <ele>-80.400001525879</ele>
        <time>2021-11-04T10:37:10.000Z</time>
      </trkpt>
      <trkpt lat="47.31947" lon="-2.44443">
        <ele>-80.800003051758</ele>
        <time>2021-11-04T10:37:11.000Z</time>
      </trkpt>
      <trkpt lat="47.31943" lon="-2.44453">
        <ele>-81.199996948242</ele>
        <time>2021-11-04T10:37:12.000Z</time>
      </trkpt>
      <trkpt lat="47.31939" lon="-2.44464">
        <ele>-81.599998474121</ele>
        <time>2021-11-04T10:37:13.000Z</time>
      </trkpt>
      <trkpt lat="47.31918" lon="-2.44512">
        <ele>-81.599998474121</ele>
        <time>2021-11-04T10:37:18.000Z</time>
      </trkpt>
      <trkpt lat="47.31895" lon="-2.44571">
        <ele>-81.599998474121</ele>
        <time>2021-11-04T10:37:24.000Z</time>
      </trkpt>
      <trkpt lat="47.31868" lon="-2.44639">
        <ele>-81.599998474121</ele>
        <time>2021-11-04T10:37:31.000Z</time>
      </trkpt>
      <trkpt lat="47.31843" lon="-2.44692">
        <ele>-81.599998474121</ele>
        <time>2021-11-04T10:37:37.000Z</time>
      </trkpt>
      <trkpt lat="47.31828" lon="-2.44713">
        <ele>-81.599998474121</ele>
        <time>2021-11-04T10:37:40.000Z</time>
      </trkpt>
      <trkpt lat="47.31817" lon="-2.44724">
        <ele>-81.599998474121</ele>
        <time>2021-11-04T10:37:42.000Z</time>
      </trkpt>
      <trkpt lat="47.3181" lon="-2.44729">
        <ele>-81.599998474121</ele>
        <time>2021-11-04T10:37:43.000Z</time>
      </trkpt>
      <trkpt lat="47.31804" lon="-2.44732">
        <ele>-82</ele>
        <time>2021-11-04T10:37:44.000Z</time>
      </trkpt>
      <trkpt lat="47.31798" lon="-2.44736">
        <ele>-82.400001525879</ele>
        <time>2021-11-04T10:37:45.000Z</time>
      </trkpt>
      <trkpt lat="47.31791" lon="-2.4474">
        <ele>-82.800003051758</ele>
        <time>2021-11-04T10:37:46.000Z</time>
      </trkpt>
      <trkpt lat="47.31785" lon="-2.44743">
        <ele>-83.199996948242</ele>
        <time>2021-11-04T10:37:47.000Z</time>
      </trkpt>
      <trkpt lat="47.31779" lon="-2.44747">
        <ele>-83.599998474121</ele>
        <time>2021-11-04T10:37:48.000Z</time>
      </trkpt>
      <trkpt lat="47.31756" lon="-2.44766">
        <ele>-83.599998474121</ele>
        <time>2021-11-04T10:37:52.000Z</time>
      </trkpt>
      <trkpt lat="47.31741" lon="-2.44781">
        <ele>-83.599998474121</ele>
        <time>2021-11-04T10:37:55.000Z</time>
      </trkpt>
      <trkpt lat="47.31731" lon="-2.44786">
        <ele>-83.599998474121</ele>
        <time>2021-11-04T10:37:57.000Z</time>
      </trkpt>
      <trkpt lat="47.31726" lon="-2.44785">
        <ele>-83.599998474121</ele>
        <time>2021-11-04T10:37:59.000Z</time>
      </trkpt>
      <trkpt lat="47.31724" lon="-2.44785">
        <ele>-83.599998474121</ele>
        <time>2021-11-04T10:38:00.000Z</time>
      </trkpt>
      <trkpt lat="47.31719" lon="-2.4478">
        <ele>-83.599998474121</ele>
        <time>2021-11-04T10:38:02.000Z</time>
      </trkpt>
      <trkpt lat="47.31717" lon="-2.44776">
        <ele>-83.599998474121</ele>
        <time>2021-11-04T10:38:03.000Z</time>
      </trkpt>
      <trkpt lat="47.31705" lon="-2.44742">
        <ele>-83.599998474121</ele>
        <time>2021-11-04T10:38:08.000Z</time>
      </trkpt>
      <trkpt lat="47.31686" lon="-2.44696">
        <ele>-83.599998474121</ele>
        <time>2021-11-04T10:38:14.000Z</time>
      </trkpt>
      <trkpt lat="47.31657" lon="-2.44628">
        <ele>-83.599998474121</ele>
        <time>2021-11-04T10:38:22.000Z</time>
      </trkpt>
      <trkpt lat="47.31628" lon="-2.4457">
        <ele>-83.599998474121</ele>
        <time>2021-11-04T10:38:29.000Z</time>
      </trkpt>
      <trkpt lat="47.31596" lon="-2.44512">
        <ele>-83.599998474121</ele>
        <time>2021-11-04T10:38:36.000Z</time>
      </trkpt>
      <trkpt lat="47.31586" lon="-2.44482">
        <ele>-84</ele>
        <time>2021-11-04T10:38:39.000Z</time>
      </trkpt>
      <trkpt lat="47.31584" lon="-2.44472">
        <ele>-84.400001525879</ele>
        <time>2021-11-04T10:38:40.000Z</time>
      </trkpt>
      <trkpt lat="47.31582" lon="-2.44461">
        <ele>-84.800003051758</ele>
        <time>2021-11-04T10:38:41.000Z</time>
      </trkpt>
      <trkpt lat="47.3158" lon="-2.44451">
        <ele>-85.199996948242</ele>
        <time>2021-11-04T10:38:42.000Z</time>
      </trkpt>
      <trkpt lat="47.31579" lon="-2.4444">
        <ele>-85.599998474121</ele>
        <time>2021-11-04T10:38:43.000Z</time>
      </trkpt>
      <trkpt lat="47.31573" lon="-2.44398">
        <ele>-85.599998474121</ele>
        <time>2021-11-04T10:38:47.000Z</time>
      </trkpt>
      <trkpt lat="47.31561" lon="-2.44316">
        <ele>-85.599998474121</ele>
        <time>2021-11-04T10:38:55.000Z</time>
      </trkpt>
      <trkpt lat="47.31548" lon="-2.44239">
        <ele>-85.599998474121</ele>
        <time>2021-11-04T10:39:03.000Z</time>
      </trkpt>
      <trkpt lat="47.31542" lon="-2.44211">
        <ele>-85.599998474121</ele>
        <time>2021-11-04T10:39:06.000Z</time>
      </trkpt>
      <trkpt lat="47.31534" lon="-2.44185">
        <ele>-85.599998474121</ele>
        <time>2021-11-04T10:39:09.000Z</time>
      </trkpt>
      <trkpt lat="47.31514" lon="-2.44145">
        <ele>-85.599998474121</ele>
        <time>2021-11-04T10:39:14.000Z</time>
      </trkpt>
      <trkpt lat="47.31483" lon="-2.44104">
        <ele>-85.599998474121</ele>
        <time>2021-11-04T10:39:20.000Z</time>
      </trkpt>
      <trkpt lat="47.3144" lon="-2.44048">
        <ele>-85.599998474121</ele>
        <time>2021-11-04T10:39:28.000Z</time>
      </trkpt>
      <trkpt lat="47.31404" lon="-2.44002">
        <ele>-85.599998474121</ele>
        <time>2021-11-04T10:39:35.000Z</time>
      </trkpt>
      <trkpt lat="47.31366" lon="-2.43944">
        <ele>-85.599998474121</ele>
        <time>2021-11-04T10:39:43.000Z</time>
      </trkpt>
      <trkpt lat="47.31362" lon="-2.43936">
        <ele>-85.599998474121</ele>
        <time>2021-11-04T10:39:44.000Z</time>
      </trkpt>
      <trkpt lat="47.31348" lon="-2.43899">
        <ele>-85.599998474121</ele>
        <time>2021-11-04T10:39:48.000Z</time>
      </trkpt>
      <trkpt lat="47.31323" lon="-2.43837">
        <ele>-85.599998474121</ele>
        <time>2021-11-04T10:39:55.000Z</time>
      </trkpt>
      <trkpt lat="47.31302" lon="-2.43808">
        <ele>-85.599998474121</ele>
        <time>2021-11-04T10:39:59.000Z</time>
      </trkpt>
      <trkpt lat="47.31289" lon="-2.43786">
        <ele>-85.599998474121</ele>
        <time>2021-11-04T10:40:02.000Z</time>
      </trkpt>
      <trkpt lat="47.31283" lon="-2.4377">
        <ele>-85.599998474121</ele>
        <time>2021-11-04T10:40:04.000Z</time>
      </trkpt>
      <trkpt lat="47.31259" lon="-2.43705">
        <ele>-85.599998474121</ele>
        <time>2021-11-04T10:40:12.000Z</time>
      </trkpt>
      <trkpt lat="47.31241" lon="-2.43638">
        <ele>-85.599998474121</ele>
        <time>2021-11-04T10:40:19.000Z</time>
      </trkpt>
      <trkpt lat="47.3123" lon="-2.43568">
        <ele>-85.599998474121</ele>
        <time>2021-11-04T10:40:26.000Z</time>
      </trkpt>
      <trkpt lat="47.3122" lon="-2.43498">
        <ele>-85.599998474121</ele>
        <time>2021-11-04T10:40:33.000Z</time>
      </trkpt>
      <trkpt lat="47.31209" lon="-2.43422">
        <ele>-85.599998474121</ele>
        <time>2021-11-04T10:40:41.000Z</time>
      </trkpt>
      <trkpt lat="47.31196" lon="-2.43346">
        <ele>-85.599998474121</ele>
        <time>2021-11-04T10:40:49.000Z</time>
      </trkpt>
      <trkpt lat="47.31183" lon="-2.43304">
        <ele>-85.599998474121</ele>
        <time>2021-11-04T10:40:54.000Z</time>
      </trkpt>
      <trkpt lat="47.31161" lon="-2.43266">
        <ele>-85.599998474121</ele>
        <time>2021-11-04T10:40:59.000Z</time>
      </trkpt>
      <trkpt lat="47.31121" lon="-2.43204">
        <ele>-85.599998474121</ele>
        <time>2021-11-04T10:41:08.000Z</time>
      </trkpt>
      <trkpt lat="47.31115" lon="-2.43194">
        <ele>-85.599998474121</ele>
        <time>2021-11-04T10:41:10.000Z</time>
      </trkpt>
      <trkpt lat="47.31105" lon="-2.43192">
        <ele>-85.599998474121</ele>
        <time>2021-11-04T10:41:12.000Z</time>
      </trkpt>
      <trkpt lat="47.31084" lon="-2.43204">
        <ele>-85.599998474121</ele>
        <time>2021-11-04T10:41:16.000Z</time>
      </trkpt>
      <trkpt lat="47.31079" lon="-2.43209">
        <ele>-85.599998474121</ele>
        <time>2021-11-04T10:41:17.000Z</time>
      </trkpt>
      <trkpt lat="47.31058" lon="-2.43229">
        <ele>-85.599998474121</ele>
        <time>2021-11-04T10:41:21.000Z</time>
      </trkpt>
      <trkpt lat="47.31047" lon="-2.43241">
        <ele>-85.599998474121</ele>
        <time>2021-11-04T10:41:23.000Z</time>
      </trkpt>
      <trkpt lat="47.31033" lon="-2.43262">
        <ele>-85.599998474121</ele>
        <time>2021-11-04T10:41:26.000Z</time>
      </trkpt>
      <trkpt lat="47.31003" lon="-2.43302">
        <ele>-85.599998474121</ele>
        <time>2021-11-04T10:41:32.000Z</time>
      </trkpt>
      <trkpt lat="47.30971" lon="-2.43319">
        <ele>-85.599998474121</ele>
        <time>2021-11-04T10:41:37.000Z</time>
      </trkpt>
      <trkpt lat="47.30936" lon="-2.43336">
        <ele>-85.599998474121</ele>
        <time>2021-11-04T10:41:42.000Z</time>
      </trkpt>
      <trkpt lat="47.30914" lon="-2.43345">
        <ele>-85.599998474121</ele>
        <time>2021-11-04T10:41:45.000Z</time>
      </trkpt>
      <trkpt lat="47.30892" lon="-2.43354">
        <ele>-85.599998474121</ele>
        <time>2021-11-04T10:41:48.000Z</time>
      </trkpt>
      <trkpt lat="47.30849" lon="-2.43373">
        <ele>-85.599998474121</ele>
        <time>2021-11-04T10:41:54.000Z</time>
      </trkpt>
      <trkpt lat="47.30803" lon="-2.43389">
        <ele>-85.599998474121</ele>
        <time>2021-11-04T10:42:00.000Z</time>
      </trkpt>
      <trkpt lat="47.30764" lon="-2.43389">
        <ele>-85.599998474121</ele>
        <time>2021-11-04T10:42:05.000Z</time>
      </trkpt>
      <trkpt lat="47.30741" lon="-2.4339">
        <ele>-86</ele>
        <time>2021-11-04T10:42:08.000Z</time>
      </trkpt>
      <trkpt lat="47.30733" lon="-2.4339">
        <ele>-86.400001525879</ele>
        <time>2021-11-04T10:42:09.000Z</time>
      </trkpt>
      <trkpt lat="47.30725" lon="-2.43391">
        <ele>-86.800003051758</ele>
        <time>2021-11-04T10:42:10.000Z</time>
      </trkpt>
      <trkpt lat="47.30717" lon="-2.43391">
        <ele>-87.400001525879</ele>
        <time>2021-11-04T10:42:11.000Z</time>
      </trkpt>
      <trkpt lat="47.30709" lon="-2.43392">
        <ele>-87.800003051758</ele>
        <time>2021-11-04T10:42:12.000Z</time>
      </trkpt>
      <trkpt lat="47.30656" lon="-2.43402">
        <ele>-87.800003051758</ele>
        <time>2021-11-04T10:42:19.000Z</time>
      </trkpt>
      <trkpt lat="47.30604" lon="-2.43413">
        <ele>-87.800003051758</ele>
        <time>2021-11-04T10:42:26.000Z</time>
      </trkpt>
      <trkpt lat="47.30553" lon="-2.43421">
        <ele>-87.800003051758</ele>
        <time>2021-11-04T10:42:33.000Z</time>
      </trkpt>
      <trkpt lat="47.30509" lon="-2.43415">
        <ele>-87.800003051758</ele>
        <time>2021-11-04T10:42:39.000Z</time>
      </trkpt>
      <trkpt lat="47.30468" lon="-2.43413">
        <ele>-87.800003051758</ele>
        <time>2021-11-04T10:42:45.000Z</time>
      </trkpt>
      <trkpt lat="47.30462" lon="-2.43414">
        <ele>-87.800003051758</ele>
        <time>2021-11-04T10:42:46.000Z</time>
      </trkpt>
      <trkpt lat="47.30445" lon="-2.4342">
        <ele>-87.800003051758</ele>
        <time>2021-11-04T10:42:49.000Z</time>
      </trkpt>
      <trkpt lat="47.3043" lon="-2.4341">
        <ele>-87.800003051758</ele>
        <time>2021-11-04T10:42:52.000Z</time>
      </trkpt>
      <trkpt lat="47.30424" lon="-2.43384">
        <ele>-87.800003051758</ele>
        <time>2021-11-04T10:42:55.000Z</time>
      </trkpt>
      <trkpt lat="47.30412" lon="-2.4332">
        <ele>-87.800003051758</ele>
        <time>2021-11-04T10:43:02.000Z</time>
      </trkpt>
      <trkpt lat="47.30392" lon="-2.43252">
        <ele>-87.800003051758</ele>
        <time>2021-11-04T10:43:10.000Z</time>
      </trkpt>
      <trkpt lat="47.30378" lon="-2.43237">
        <ele>-87.800003051758</ele>
        <time>2021-11-04T10:43:13.000Z</time>
      </trkpt>
      <trkpt lat="47.30358" lon="-2.43238">
        <ele>-87.800003051758</ele>
        <time>2021-11-04T10:43:16.000Z</time>
      </trkpt>
      <trkpt lat="47.30338" lon="-2.43243">
        <ele>-87.800003051758</ele>
        <time>2021-11-04T10:43:19.000Z</time>
      </trkpt>
      <trkpt lat="47.30325" lon="-2.43247">
        <ele>-87.800003051758</ele>
        <time>2021-11-04T10:43:21.000Z</time>
      </trkpt>
      <trkpt lat="47.30283" lon="-2.43257">
        <ele>-87.800003051758</ele>
        <time>2021-11-04T10:43:27.000Z</time>
      </trkpt>
      <trkpt lat="47.30256" lon="-2.43267">
        <ele>-87.800003051758</ele>
        <time>2021-11-04T10:43:31.000Z</time>
      </trkpt>
      <trkpt lat="47.30236" lon="-2.43275">
        <ele>-87.800003051758</ele>
        <time>2021-11-04T10:43:34.000Z</time>
      </trkpt>
      <trkpt lat="47.30202" lon="-2.43289">
        <ele>-87.800003051758</ele>
        <time>2021-11-04T10:43:39.000Z</time>
      </trkpt>
      <trkpt lat="47.30155" lon="-2.4331">
        <ele>-87.800003051758</ele>
        <time>2021-11-04T10:43:46.000Z</time>
      </trkpt>
      <trkpt lat="47.30107" lon="-2.43323">
        <ele>-87.800003051758</ele>
        <time>2021-11-04T10:43:53.000Z</time>
      </trkpt>
      <trkpt lat="47.30079" lon="-2.4333">
        <ele>-87.800003051758</ele>
        <time>2021-11-04T10:43:57.000Z</time>
      </trkpt>
      <trkpt lat="47.30065" lon="-2.43332">
        <ele>-87.800003051758</ele>
        <time>2021-11-04T10:43:59.000Z</time>
      </trkpt>
      <trkpt lat="47.30038" lon="-2.43336">
        <ele>-87.800003051758</ele>
        <time>2021-11-04T10:44:03.000Z</time>
      </trkpt>
      <trkpt lat="47.30025" lon="-2.43335">
        <ele>-87.800003051758</ele>
        <time>2021-11-04T10:44:05.000Z</time>
      </trkpt>
      <trkpt lat="47.30019" lon="-2.43333">
        <ele>-87.800003051758</ele>
        <time>2021-11-04T10:44:06.000Z</time>
      </trkpt>
      <trkpt lat="47.30002" lon="-2.43321">
        <ele>-87.800003051758</ele>
        <time>2021-11-04T10:44:09.000Z</time>
      </trkpt>
      <trkpt lat="47.29996" lon="-2.43316">
        <ele>-87.800003051758</ele>
        <time>2021-11-04T10:44:10.000Z</time>
      </trkpt>
      <trkpt lat="47.29974" lon="-2.43297">
        <ele>-87.800003051758</ele>
        <time>2021-11-04T10:44:14.000Z</time>
      </trkpt>
      <trkpt lat="47.29968" lon="-2.43295">
        <ele>-87.800003051758</ele>
        <time>2021-11-04T10:44:15.000Z</time>
      </trkpt>
      <trkpt lat="47.29948" lon="-2.43298">
        <ele>-87.800003051758</ele>
        <time>2021-11-04T10:44:18.000Z</time>
      </trkpt>
      <trkpt lat="47.29936" lon="-2.43304">
        <ele>-87.800003051758</ele>
        <time>2021-11-04T10:44:20.000Z</time>
      </trkpt>
      <trkpt lat="47.29913" lon="-2.43313">
        <ele>-87.800003051758</ele>
        <time>2021-11-04T10:44:24.000Z</time>
      </trkpt>
      <trkpt lat="47.29881" lon="-2.43327">
        <ele>-87.800003051758</ele>
        <time>2021-11-04T10:44:30.000Z</time>
      </trkpt>
      <trkpt lat="47.29861" lon="-2.43346">
        <ele>-87.800003051758</ele>
        <time>2021-11-04T10:44:34.000Z</time>
      </trkpt>
      <trkpt lat="47.29824" lon="-2.43386">
        <ele>-87.800003051758</ele>
        <time>2021-11-04T10:44:41.000Z</time>
      </trkpt>
      <trkpt lat="47.29779" lon="-2.43436">
        <ele>-87.800003051758</ele>
        <time>2021-11-04T10:44:49.000Z</time>
      </trkpt>
      <trkpt lat="47.29767" lon="-2.43449">
        <ele>-87.800003051758</ele>
        <time>2021-11-04T10:44:51.000Z</time>
      </trkpt>
      <trkpt lat="47.2972" lon="-2.43492">
        <ele>-87.800003051758</ele>
        <time>2021-11-04T10:44:59.000Z</time>
      </trkpt>
      <trkpt lat="47.29675" lon="-2.43525">
        <ele>-87.800003051758</ele>
        <time>2021-11-04T10:45:07.000Z</time>
      </trkpt>
      <trkpt lat="47.29662" lon="-2.43533">
        <ele>-87.800003051758</ele>
        <time>2021-11-04T10:45:11.000Z</time>
      </trkpt>
      <trkpt lat="47.29657" lon="-2.43536">
        <ele>-87.800003051758</ele>
        <time>2021-11-04T10:45:17.000Z</time>
      </trkpt>
      <trkpt lat="47.29655" lon="-2.43536">
        <ele>-87.800003051758</ele>
        <time>2021-11-04T10:45:18.000Z</time>
      </trkpt>
      <trkpt lat="47.29649" lon="-2.4354">
        <ele>-87.800003051758</ele>
        <time>2021-11-04T10:45:20.000Z</time>
      </trkpt>
      <trkpt lat="47.2964" lon="-2.43551">
        <ele>-87.800003051758</ele>
        <time>2021-11-04T10:45:23.000Z</time>
      </trkpt>
      <trkpt lat="47.29636" lon="-2.43554">
        <ele>-87.800003051758</ele>
        <time>2021-11-04T10:45:24.000Z</time>
      </trkpt>
      <trkpt lat="47.29631" lon="-2.43556">
        <ele>-87.800003051758</ele>
        <time>2021-11-04T10:45:25.000Z</time>
      </trkpt>
      <trkpt lat="47.29624" lon="-2.43548">
        <ele>-87.800003051758</ele>
        <time>2021-11-04T10:45:27.000Z</time>
      </trkpt>
      <trkpt lat="47.29626" lon="-2.43527">
        <ele>-87.800003051758</ele>
        <time>2021-11-04T10:45:30.000Z</time>
      </trkpt>
      <trkpt lat="47.29622" lon="-2.43499">
        <ele>-87.800003051758</ele>
        <time>2021-11-04T10:45:34.000Z</time>
      </trkpt>
      <trkpt lat="47.29611" lon="-2.43496">
        <ele>-87.800003051758</ele>
        <time>2021-11-04T10:45:36.000Z</time>
      </trkpt>
      <trkpt lat="47.29599" lon="-2.43497">
        <ele>-87.800003051758</ele>
        <time>2021-11-04T10:45:38.000Z</time>
      </trkpt>
      <trkpt lat="47.29573" lon="-2.43497">
        <ele>-87.800003051758</ele>
        <time>2021-11-04T10:45:42.000Z</time>
      </trkpt>
      <trkpt lat="47.29524" lon="-2.43488">
        <ele>-87.800003051758</ele>
        <time>2021-11-04T10:45:50.000Z</time>
      </trkpt>
      <trkpt lat="47.29499" lon="-2.43478">
        <ele>-87.800003051758</ele>
        <time>2021-11-04T10:45:55.000Z</time>
      </trkpt>
      <trkpt lat="47.29495" lon="-2.43475">
        <ele>-87.800003051758</ele>
        <time>2021-11-04T10:45:56.000Z</time>
      </trkpt>
      <trkpt lat="47.29472" lon="-2.43463">
        <ele>-87.800003051758</ele>
        <time>2021-11-04T10:46:02.000Z</time>
      </trkpt>
      <trkpt lat="47.2946" lon="-2.43467">
        <ele>-87.800003051758</ele>
        <time>2021-11-04T10:46:07.000Z</time>
      </trkpt>
      <trkpt lat="47.29458" lon="-2.43466">
        <ele>-87.800003051758</ele>
        <time>2021-11-04T10:46:08.000Z</time>
      </trkpt>
      <trkpt lat="47.2945" lon="-2.43461">
        <ele>-87.800003051758</ele>
        <time>2021-11-04T10:46:11.000Z</time>
      </trkpt>
      <trkpt lat="47.2944" lon="-2.43441">
        <ele>-87.800003051758</ele>
        <time>2021-11-04T10:46:15.000Z</time>
      </trkpt>
      <trkpt lat="47.29439" lon="-2.43435">
        <ele>-87.800003051758</ele>
        <time>2021-11-04T10:46:16.000Z</time>
      </trkpt>
      <trkpt lat="47.29437" lon="-2.43417">
        <ele>-87.800003051758</ele>
        <time>2021-11-04T10:46:19.000Z</time>
      </trkpt>
      <trkpt lat="47.29435" lon="-2.43402">
        <ele>-87.800003051758</ele>
        <time>2021-11-04T10:46:21.000Z</time>
      </trkpt>
      <trkpt lat="47.29426" lon="-2.43388">
        <ele>-87.800003051758</ele>
        <time>2021-11-04T10:46:24.000Z</time>
      </trkpt>
      <trkpt lat="47.29417" lon="-2.43386">
        <ele>-87.800003051758</ele>
        <time>2021-11-04T10:46:26.000Z</time>
      </trkpt>
      <trkpt lat="47.29414" lon="-2.43383">
        <ele>-87.800003051758</ele>
        <time>2021-11-04T10:46:27.000Z</time>
      </trkpt>
      <trkpt lat="47.29412" lon="-2.43379">
        <ele>-87.800003051758</ele>
        <time>2021-11-04T10:46:28.000Z</time>
      </trkpt>
      <trkpt lat="47.2941" lon="-2.4336">
        <ele>-87.800003051758</ele>
        <time>2021-11-04T10:46:31.000Z</time>
      </trkpt>
      <trkpt lat="47.29397" lon="-2.43335">
        <ele>-87.800003051758</ele>
        <time>2021-11-04T10:46:35.000Z</time>
      </trkpt>
      <trkpt lat="47.29393" lon="-2.4333">
        <ele>-87.800003051758</ele>
        <time>2021-11-04T10:46:36.000Z</time>
      </trkpt>
      <trkpt lat="47.29371" lon="-2.43301">
        <ele>-87.800003051758</ele>
        <time>2021-11-04T10:46:41.000Z</time>
      </trkpt>
      <trkpt lat="47.29368" lon="-2.43294">
        <ele>-87.800003051758</ele>
        <time>2021-11-04T10:46:42.000Z</time>
      </trkpt>
      <trkpt lat="47.29364" lon="-2.43279">
        <ele>-87.800003051758</ele>
        <time>2021-11-04T10:46:44.000Z</time>
      </trkpt>
      <trkpt lat="47.29363" lon="-2.43263">
        <ele>-87.800003051758</ele>
        <time>2021-11-04T10:46:46.000Z</time>
      </trkpt>
      <trkpt lat="47.29363" lon="-2.43256">
        <ele>-87.800003051758</ele>
        <time>2021-11-04T10:46:47.000Z</time>
      </trkpt>
      <trkpt lat="47.29364" lon="-2.43241">
        <ele>-87.800003051758</ele>
        <time>2021-11-04T10:46:49.000Z</time>
      </trkpt>
      <trkpt lat="47.29376" lon="-2.43216">
        <ele>-87.800003051758</ele>
        <time>2021-11-04T10:46:53.000Z</time>
      </trkpt>
      <trkpt lat="47.29377" lon="-2.43209">
        <ele>-87.800003051758</ele>
        <time>2021-11-04T10:46:54.000Z</time>
      </trkpt>
      <trkpt lat="47.29377" lon="-2.43194">
        <ele>-87.800003051758</ele>
        <time>2021-11-04T10:46:56.000Z</time>
      </trkpt>
      <trkpt lat="47.29375" lon="-2.43178">
        <ele>-87.800003051758</ele>
        <time>2021-11-04T10:46:58.000Z</time>
      </trkpt>
      <trkpt lat="47.29369" lon="-2.43154">
        <ele>-87.800003051758</ele>
        <time>2021-11-04T10:47:01.000Z</time>
      </trkpt>
      <trkpt lat="47.29352" lon="-2.43111">
        <ele>-87.800003051758</ele>
        <time>2021-11-04T10:47:07.000Z</time>
      </trkpt>
      <trkpt lat="47.29341" lon="-2.43092">
        <ele>-87.800003051758</ele>
        <time>2021-11-04T10:47:10.000Z</time>
      </trkpt>
      <trkpt lat="47.29331" lon="-2.43084">
        <ele>-87.800003051758</ele>
        <time>2021-11-04T10:47:12.000Z</time>
      </trkpt>
      <trkpt lat="47.29315" lon="-2.43077">
        <ele>-87.800003051758</ele>
        <time>2021-11-04T10:47:16.000Z</time>
      </trkpt>
      <trkpt lat="47.29306" lon="-2.4306">
        <ele>-87.800003051758</ele>
        <time>2021-11-04T10:47:19.000Z</time>
      </trkpt>
      <trkpt lat="47.29307" lon="-2.43035">
        <ele>-87.800003051758</ele>
        <time>2021-11-04T10:47:22.000Z</time>
      </trkpt>
      <trkpt lat="47.29309" lon="-2.43027">
        <ele>-87.800003051758</ele>
        <time>2021-11-04T10:47:23.000Z</time>
      </trkpt>
      <trkpt lat="47.29312" lon="-2.43005">
        <ele>-87.800003051758</ele>
        <time>2021-11-04T10:47:26.000Z</time>
      </trkpt>
      <trkpt lat="47.29314" lon="-2.4299">
        <ele>-87.800003051758</ele>
        <time>2021-11-04T10:47:28.000Z</time>
      </trkpt>
      <trkpt lat="47.29316" lon="-2.42965">
        <ele>-87.800003051758</ele>
        <time>2021-11-04T10:47:31.000Z</time>
      </trkpt>
      <trkpt lat="47.29313" lon="-2.42947">
        <ele>-87.800003051758</ele>
        <time>2021-11-04T10:47:33.000Z</time>
      </trkpt>
      <trkpt lat="47.29313" lon="-2.42939">
        <ele>-87.800003051758</ele>
        <time>2021-11-04T10:47:34.000Z</time>
      </trkpt>
      <trkpt lat="47.29316" lon="-2.42921">
        <ele>-87.800003051758</ele>
        <time>2021-11-04T10:47:36.000Z</time>
      </trkpt>
      <trkpt lat="47.29327" lon="-2.42874">
        <ele>-87.800003051758</ele>
        <time>2021-11-04T10:47:42.000Z</time>
      </trkpt>
      <trkpt lat="47.29344" lon="-2.42835">
        <ele>-87.800003051758</ele>
        <time>2021-11-04T10:47:47.000Z</time>
      </trkpt>
      <trkpt lat="47.29369" lon="-2.42802">
        <ele>-87.800003051758</ele>
        <time>2021-11-04T10:47:53.000Z</time>
      </trkpt>
      <trkpt lat="47.29377" lon="-2.42791">
        <ele>-87.800003051758</ele>
        <time>2021-11-04T10:47:55.000Z</time>
      </trkpt>
      <trkpt lat="47.2938" lon="-2.42778">
        <ele>-87.800003051758</ele>
        <time>2021-11-04T10:47:57.000Z</time>
      </trkpt>
      <trkpt lat="47.29385" lon="-2.42755">
        <ele>-87.800003051758</ele>
        <time>2021-11-04T10:48:00.000Z</time>
      </trkpt>
      <trkpt lat="47.29392" lon="-2.42733">
        <ele>-87.800003051758</ele>
        <time>2021-11-04T10:48:03.000Z</time>
      </trkpt>
      <trkpt lat="47.29401" lon="-2.42712">
        <ele>-87.800003051758</ele>
        <time>2021-11-04T10:48:06.000Z</time>
      </trkpt>
      <trkpt lat="47.2941" lon="-2.42693">
        <ele>-87.800003051758</ele>
        <time>2021-11-04T10:48:09.000Z</time>
      </trkpt>
      <trkpt lat="47.29417" lon="-2.42673">
        <ele>-87.800003051758</ele>
        <time>2021-11-04T10:48:12.000Z</time>
      </trkpt>
      <trkpt lat="47.29418" lon="-2.42658">
        <ele>-87.800003051758</ele>
        <time>2021-11-04T10:48:14.000Z</time>
      </trkpt>
      <trkpt lat="47.29421" lon="-2.42627">
        <ele>-87.800003051758</ele>
        <time>2021-11-04T10:48:18.000Z</time>
      </trkpt>
      <trkpt lat="47.29422" lon="-2.42612">
        <ele>-87.800003051758</ele>
        <time>2021-11-04T10:48:20.000Z</time>
      </trkpt>
      <trkpt lat="47.29423" lon="-2.42591">
        <ele>-87.800003051758</ele>
        <time>2021-11-04T10:48:23.000Z</time>
      </trkpt>
      <trkpt lat="47.29428" lon="-2.42579">
        <ele>-87.800003051758</ele>
        <time>2021-11-04T10:48:25.000Z</time>
      </trkpt>
      <trkpt lat="47.29439" lon="-2.42566">
        <ele>-87.800003051758</ele>
        <time>2021-11-04T10:48:28.000Z</time>
      </trkpt>
      <trkpt lat="47.29443" lon="-2.42562">
        <ele>-87.800003051758</ele>
        <time>2021-11-04T10:48:29.000Z</time>
      </trkpt>
      <trkpt lat="47.29465" lon="-2.42539">
        <ele>-87.800003051758</ele>
        <time>2021-11-04T10:48:35.000Z</time>
      </trkpt>
      <trkpt lat="47.29468" lon="-2.42535">
        <ele>-87.800003051758</ele>
        <time>2021-11-04T10:48:36.000Z</time>
      </trkpt>
      <trkpt lat="47.29482" lon="-2.42518">
        <ele>-87.800003051758</ele>
        <time>2021-11-04T10:48:40.000Z</time>
      </trkpt>
      <trkpt lat="47.29487" lon="-2.42514">
        <ele>-87.800003051758</ele>
        <time>2021-11-04T10:48:41.000Z</time>
      </trkpt>
      <trkpt lat="47.29507" lon="-2.42493">
        <ele>-87.800003051758</ele>
        <time>2021-11-04T10:48:46.000Z</time>
      </trkpt>
      <trkpt lat="47.29516" lon="-2.42484">
        <ele>-87.800003051758</ele>
        <time>2021-11-04T10:48:48.000Z</time>
      </trkpt>
      <trkpt lat="47.2953" lon="-2.42472">
        <ele>-87.800003051758</ele>
        <time>2021-11-04T10:48:51.000Z</time>
      </trkpt>
      <trkpt lat="47.29548" lon="-2.42444">
        <ele>-87.800003051758</ele>
        <time>2021-11-04T10:48:56.000Z</time>
      </trkpt>
      <trkpt lat="47.29555" lon="-2.42434">
        <ele>-87.800003051758</ele>
        <time>2021-11-04T10:48:58.000Z</time>
      </trkpt>
      <trkpt lat="47.29564" lon="-2.42427">
        <ele>-87.800003051758</ele>
        <time>2021-11-04T10:49:00.000Z</time>
      </trkpt>
      <trkpt lat="47.29568" lon="-2.42424">
        <ele>-87.800003051758</ele>
        <time>2021-11-04T10:49:01.000Z</time>
      </trkpt>
      <trkpt lat="47.2958" lon="-2.42424">
        <ele>-87.800003051758</ele>
        <time>2021-11-04T10:49:04.000Z</time>
      </trkpt>
      <trkpt lat="47.29584" lon="-2.42425">
        <ele>-87.800003051758</ele>
        <time>2021-11-04T10:49:05.000Z</time>
      </trkpt>
      <trkpt lat="47.29611" lon="-2.42433">
        <ele>-87.800003051758</ele>
        <time>2021-11-04T10:49:12.000Z</time>
      </trkpt>
      <trkpt lat="47.29622" lon="-2.42435">
        <ele>-87.800003051758</ele>
        <time>2021-11-04T10:49:17.000Z</time>
      </trkpt>
      <trkpt lat="47.29626" lon="-2.42419">
        <ele>-87.800003051758</ele>
        <time>2021-11-04T10:49:20.000Z</time>
      </trkpt>
      <trkpt lat="47.29627" lon="-2.42412">
        <ele>-87.800003051758</ele>
        <time>2021-11-04T10:49:21.000Z</time>
      </trkpt>
      <trkpt lat="47.29638" lon="-2.42367">
        <ele>-87.800003051758</ele>
        <time>2021-11-04T10:49:27.000Z</time>
      </trkpt>
      <trkpt lat="47.29651" lon="-2.42312">
        <ele>-87.800003051758</ele>
        <time>2021-11-04T10:49:34.000Z</time>
      </trkpt>
      <trkpt lat="47.2966" lon="-2.42269">
        <ele>-87.800003051758</ele>
        <time>2021-11-04T10:49:40.000Z</time>
      </trkpt>
      <trkpt lat="47.29674" lon="-2.42222">
        <ele>-87.800003051758</ele>
        <time>2021-11-04T10:49:47.000Z</time>
      </trkpt>
      <trkpt lat="47.29677" lon="-2.42215">
        <ele>-87.800003051758</ele>
        <time>2021-11-04T10:49:48.000Z</time>
      </trkpt>
      <trkpt lat="47.29698" lon="-2.42179">
        <ele>-87.800003051758</ele>
        <time>2021-11-04T10:49:54.000Z</time>
      </trkpt>
      <trkpt lat="47.29724" lon="-2.42133">
        <ele>-87.800003051758</ele>
        <time>2021-11-04T10:50:01.000Z</time>
      </trkpt>
      <trkpt lat="47.29755" lon="-2.42077">
        <ele>-87.800003051758</ele>
        <time>2021-11-04T10:50:10.000Z</time>
      </trkpt>
      <trkpt lat="47.2978" lon="-2.42032">
        <ele>-87.800003051758</ele>
        <time>2021-11-04T10:50:17.000Z</time>
      </trkpt>
      <trkpt lat="47.29783" lon="-2.42025">
        <ele>-87.800003051758</ele>
        <time>2021-11-04T10:50:18.000Z</time>
      </trkpt>
      <trkpt lat="47.29788" lon="-2.42">
        <ele>-87.800003051758</ele>
        <time>2021-11-04T10:50:21.000Z</time>
      </trkpt>
      <trkpt lat="47.29784" lon="-2.41971">
        <ele>-87.800003051758</ele>
        <time>2021-11-04T10:50:24.000Z</time>
      </trkpt>
      <trkpt lat="47.29782" lon="-2.41962">
        <ele>-87.800003051758</ele>
        <time>2021-11-04T10:50:25.000Z</time>
      </trkpt>
      <trkpt lat="47.29769" lon="-2.41892">
        <ele>-87.800003051758</ele>
        <time>2021-11-04T10:50:33.000Z</time>
      </trkpt>
      <trkpt lat="47.29767" lon="-2.41858">
        <ele>-87.800003051758</ele>
        <time>2021-11-04T10:50:37.000Z</time>
      </trkpt>
      <trkpt lat="47.29768" lon="-2.41841">
        <ele>-87.800003051758</ele>
        <time>2021-11-04T10:50:39.000Z</time>
      </trkpt>
      <trkpt lat="47.29771" lon="-2.41784">
        <ele>-87.800003051758</ele>
        <time>2021-11-04T10:50:46.000Z</time>
      </trkpt>
      <trkpt lat="47.29769" lon="-2.41754">
        <ele>-87.800003051758</ele>
        <time>2021-11-04T10:50:50.000Z</time>
      </trkpt>
      <trkpt lat="47.29766" lon="-2.41748">
        <ele>-87.800003051758</ele>
        <time>2021-11-04T10:50:51.000Z</time>
      </trkpt>
      <trkpt lat="47.29752" lon="-2.41745">
        <ele>-87.800003051758</ele>
        <time>2021-11-04T10:50:54.000Z</time>
      </trkpt>
      <trkpt lat="47.29737" lon="-2.41757">
        <ele>-87.800003051758</ele>
        <time>2021-11-04T10:50:57.000Z</time>
      </trkpt>
      <trkpt lat="47.29724" lon="-2.41772">
        <ele>-87.800003051758</ele>
        <time>2021-11-04T10:51:00.000Z</time>
      </trkpt>
      <trkpt lat="47.29713" lon="-2.41792">
        <ele>-87.800003051758</ele>
        <time>2021-11-04T10:51:03.000Z</time>
      </trkpt>
      <trkpt lat="47.29701" lon="-2.41811">
        <ele>-87.800003051758</ele>
        <time>2021-11-04T10:51:06.000Z</time>
      </trkpt>
      <trkpt lat="47.29692" lon="-2.41818">
        <ele>-87.800003051758</ele>
        <time>2021-11-04T10:51:08.000Z</time>
      </trkpt>
      <trkpt lat="47.29674" lon="-2.41821">
        <ele>-87.800003051758</ele>
        <time>2021-11-04T10:51:12.000Z</time>
      </trkpt>
      <trkpt lat="47.2967" lon="-2.41822">
        <ele>-87.800003051758</ele>
        <time>2021-11-04T10:51:13.000Z</time>
      </trkpt>
      <trkpt lat="47.29661" lon="-2.41825">
        <ele>-87.800003051758</ele>
        <time>2021-11-04T10:51:15.000Z</time>
      </trkpt>
      <trkpt lat="47.29653" lon="-2.41827">
        <ele>-87.800003051758</ele>
        <time>2021-11-04T10:51:17.000Z</time>
      </trkpt>
      <trkpt lat="47.29645" lon="-2.41824">
        <ele>-87.800003051758</ele>
        <time>2021-11-04T10:51:19.000Z</time>
      </trkpt>
      <trkpt lat="47.29638" lon="-2.41811">
        <ele>-87.800003051758</ele>
        <time>2021-11-04T10:51:22.000Z</time>
      </trkpt>
      <trkpt lat="47.29636" lon="-2.41798">
        <ele>-87.800003051758</ele>
        <time>2021-11-04T10:51:24.000Z</time>
      </trkpt>
      <trkpt lat="47.29635" lon="-2.41792">
        <ele>-87.800003051758</ele>
        <time>2021-11-04T10:51:25.000Z</time>
      </trkpt>
      <trkpt lat="47.29635" lon="-2.41778">
        <ele>-87.800003051758</ele>
        <time>2021-11-04T10:51:27.000Z</time>
      </trkpt>
      <trkpt lat="47.29626" lon="-2.41759">
        <ele>-87.800003051758</ele>
        <time>2021-11-04T10:51:30.000Z</time>
      </trkpt>
      <trkpt lat="47.29618" lon="-2.41748">
        <ele>-87.800003051758</ele>
        <time>2021-11-04T10:51:32.000Z</time>
      </trkpt>
      <trkpt lat="47.29606" lon="-2.41733">
        <ele>-87.800003051758</ele>
        <time>2021-11-04T10:51:35.000Z</time>
      </trkpt>
      <trkpt lat="47.29582" lon="-2.41714">
        <ele>-87.800003051758</ele>
        <time>2021-11-04T10:51:40.000Z</time>
      </trkpt>
      <trkpt lat="47.29557" lon="-2.41702">
        <ele>-87.800003051758</ele>
        <time>2021-11-04T10:51:45.000Z</time>
      </trkpt>
      <trkpt lat="47.29543" lon="-2.4168">
        <ele>-87.800003051758</ele>
        <time>2021-11-04T10:51:49.000Z</time>
      </trkpt>
      <trkpt lat="47.29538" lon="-2.41666">
        <ele>-87.800003051758</ele>
        <time>2021-11-04T10:51:51.000Z</time>
      </trkpt>
      <trkpt lat="47.29532" lon="-2.41644">
        <ele>-87.800003051758</ele>
        <time>2021-11-04T10:51:54.000Z</time>
      </trkpt>
      <trkpt lat="47.29528" lon="-2.4162">
        <ele>-87.800003051758</ele>
        <time>2021-11-04T10:51:57.000Z</time>
      </trkpt>
      <trkpt lat="47.29527" lon="-2.41603">
        <ele>-87.800003051758</ele>
        <time>2021-11-04T10:51:59.000Z</time>
      </trkpt>
      <trkpt lat="47.29528" lon="-2.41588">
        <ele>-87.800003051758</ele>
        <time>2021-11-04T10:52:01.000Z</time>
      </trkpt>
      <trkpt lat="47.29532" lon="-2.41573">
        <ele>-87.800003051758</ele>
        <time>2021-11-04T10:52:03.000Z</time>
      </trkpt>
      <trkpt lat="47.29537" lon="-2.41558">
        <ele>-87.800003051758</ele>
        <time>2021-11-04T10:52:05.000Z</time>
      </trkpt>
      <trkpt lat="47.29542" lon="-2.41536">
        <ele>-87.800003051758</ele>
        <time>2021-11-04T10:52:08.000Z</time>
      </trkpt>
      <trkpt lat="47.29542" lon="-2.41527">
        <ele>-87.800003051758</ele>
        <time>2021-11-04T10:52:09.000Z</time>
      </trkpt>
      <trkpt lat="47.29533" lon="-2.41501">
        <ele>-87.800003051758</ele>
        <time>2021-11-04T10:52:13.000Z</time>
      </trkpt>
      <trkpt lat="47.2953" lon="-2.41494">
        <ele>-87.800003051758</ele>
        <time>2021-11-04T10:52:14.000Z</time>
      </trkpt>
      <trkpt lat="47.29519" lon="-2.41477">
        <ele>-87.800003051758</ele>
        <time>2021-11-04T10:52:17.000Z</time>
      </trkpt>
      <trkpt lat="47.29514" lon="-2.41474">
        <ele>-87.800003051758</ele>
        <time>2021-11-04T10:52:18.000Z</time>
      </trkpt>
      <trkpt lat="47.29498" lon="-2.41476">
        <ele>-87.800003051758</ele>
        <time>2021-11-04T10:52:21.000Z</time>
      </trkpt>
      <trkpt lat="47.29488" lon="-2.41482">
        <ele>-87.800003051758</ele>
        <time>2021-11-04T10:52:23.000Z</time>
      </trkpt>
      <trkpt lat="47.29483" lon="-2.41484">
        <ele>-87.800003051758</ele>
        <time>2021-11-04T10:52:24.000Z</time>
      </trkpt>
      <trkpt lat="47.29478" lon="-2.41484">
        <ele>-87.800003051758</ele>
        <time>2021-11-04T10:52:25.000Z</time>
      </trkpt>
      <trkpt lat="47.29457" lon="-2.41482">
        <ele>-87.800003051758</ele>
        <time>2021-11-04T10:52:29.000Z</time>
      </trkpt>
      <trkpt lat="47.29447" lon="-2.41485">
        <ele>-87.800003051758</ele>
        <time>2021-11-04T10:52:31.000Z</time>
      </trkpt>
      <trkpt lat="47.29441" lon="-2.41485">
        <ele>-87.800003051758</ele>
        <time>2021-11-04T10:52:32.000Z</time>
      </trkpt>
      <trkpt lat="47.29432" lon="-2.41483">
        <ele>-87.800003051758</ele>
        <time>2021-11-04T10:52:34.000Z</time>
      </trkpt>
      <trkpt lat="47.29416" lon="-2.41466">
        <ele>-87.800003051758</ele>
        <time>2021-11-04T10:52:38.000Z</time>
      </trkpt>
      <trkpt lat="47.29412" lon="-2.41461">
        <ele>-87.800003051758</ele>
        <time>2021-11-04T10:52:39.000Z</time>
      </trkpt>
      <trkpt lat="47.29401" lon="-2.41445">
        <ele>-87.800003051758</ele>
        <time>2021-11-04T10:52:42.000Z</time>
      </trkpt>
      <trkpt lat="47.29396" lon="-2.41432">
        <ele>-87.800003051758</ele>
        <time>2021-11-04T10:52:44.000Z</time>
      </trkpt>
      <trkpt lat="47.29393" lon="-2.41426">
        <ele>-87.800003051758</ele>
        <time>2021-11-04T10:52:45.000Z</time>
      </trkpt>
      <trkpt lat="47.2938" lon="-2.41394">
        <ele>-87.800003051758</ele>
        <time>2021-11-04T10:52:50.000Z</time>
      </trkpt>
      <trkpt lat="47.2936" lon="-2.41363">
        <ele>-87.800003051758</ele>
        <time>2021-11-04T10:52:56.000Z</time>
      </trkpt>
      <trkpt lat="47.29352" lon="-2.41353">
        <ele>-87.800003051758</ele>
        <time>2021-11-04T10:52:58.000Z</time>
      </trkpt>
      <trkpt lat="47.29349" lon="-2.4134">
        <ele>-87.800003051758</ele>
        <time>2021-11-04T10:53:00.000Z</time>
      </trkpt>
      <trkpt lat="47.29353" lon="-2.4132">
        <ele>-87.800003051758</ele>
        <time>2021-11-04T10:53:03.000Z</time>
      </trkpt>
      <trkpt lat="47.29366" lon="-2.41299">
        <ele>-87.800003051758</ele>
        <time>2021-11-04T10:53:08.000Z</time>
      </trkpt>
      <trkpt lat="47.29369" lon="-2.41297">
        <ele>-87.800003051758</ele>
        <time>2021-11-04T10:53:09.000Z</time>
      </trkpt>
      <trkpt lat="47.29379" lon="-2.4129">
        <ele>-87.800003051758</ele>
        <time>2021-11-04T10:53:14.000Z</time>
      </trkpt>
      <trkpt lat="47.29393" lon="-2.41272">
        <ele>-87.800003051758</ele>
        <time>2021-11-04T10:53:20.000Z</time>
      </trkpt>
      <trkpt lat="47.2941" lon="-2.4124">
        <ele>-87.800003051758</ele>
        <time>2021-11-04T10:53:28.000Z</time>
      </trkpt>
      <trkpt lat="47.29428" lon="-2.41213">
        <ele>-87.800003051758</ele>
        <time>2021-11-04T10:53:34.000Z</time>
      </trkpt>
      <trkpt lat="47.29445" lon="-2.4119">
        <ele>-87.800003051758</ele>
        <time>2021-11-04T10:53:40.000Z</time>
      </trkpt>
      <trkpt lat="47.29458" lon="-2.41173">
        <ele>-87.800003051758</ele>
        <time>2021-11-04T10:53:44.000Z</time>
      </trkpt>
      <trkpt lat="47.29461" lon="-2.41169">
        <ele>-87.400001525879</ele>
        <time>2021-11-04T10:53:45.000Z</time>
      </trkpt>
      <trkpt lat="47.29465" lon="-2.41164">
        <ele>-87</ele>
        <time>2021-11-04T10:53:46.000Z</time>
      </trkpt>
      <trkpt lat="47.29469" lon="-2.4116">
        <ele>-86.400001525879</ele>
        <time>2021-11-04T10:53:47.000Z</time>
      </trkpt>
      <trkpt lat="47.29473" lon="-2.41155">
        <ele>-86</ele>
        <time>2021-11-04T10:53:48.000Z</time>
      </trkpt>
      <trkpt lat="47.29477" lon="-2.41151">
        <ele>-85.599998474121</ele>
        <time>2021-11-04T10:53:49.000Z</time>
      </trkpt>
      <trkpt lat="47.29499" lon="-2.41126">
        <ele>-85.599998474121</ele>
        <time>2021-11-04T10:53:55.000Z</time>
      </trkpt>
      <trkpt lat="47.29529" lon="-2.4109">
        <ele>-85.599998474121</ele>
        <time>2021-11-04T10:54:03.000Z</time>
      </trkpt>
      <trkpt lat="47.29553" lon="-2.41065">
        <ele>-85.599998474121</ele>
        <time>2021-11-04T10:54:09.000Z</time>
      </trkpt>
      <trkpt lat="47.29562" lon="-2.41055">
        <ele>-85.599998474121</ele>
        <time>2021-11-04T10:54:13.000Z</time>
      </trkpt>
      <trkpt lat="47.29566" lon="-2.41049">
        <ele>-85.599998474121</ele>
        <time>2021-11-04T10:54:17.000Z</time>
      </trkpt>
      <trkpt lat="47.29568" lon="-2.4105">
        <ele>-85.599998474121</ele>
        <time>2021-11-04T10:54:18.000Z</time>
      </trkpt>
      <trkpt lat="47.29572" lon="-2.41057">
        <ele>-85.599998474121</ele>
        <time>2021-11-04T10:54:21.000Z</time>
      </trkpt>
      <trkpt lat="47.29573" lon="-2.41059">
        <ele>-85.599998474121</ele>
        <time>2021-11-04T10:54:22.000Z</time>
      </trkpt>
      <trkpt lat="47.2958" lon="-2.41071">
        <ele>-85.599998474121</ele>
        <time>2021-11-04T10:54:27.000Z</time>
      </trkpt>
      <trkpt lat="47.29593" lon="-2.4109">
        <ele>-85.599998474121</ele>
        <time>2021-11-04T10:54:35.000Z</time>
      </trkpt>
      <trkpt lat="47.29605" lon="-2.41105">
        <ele>-85.599998474121</ele>
        <time>2021-11-04T10:54:41.000Z</time>
      </trkpt>
      <trkpt lat="47.29622" lon="-2.41126">
        <ele>-85.599998474121</ele>
        <time>2021-11-04T10:54:47.000Z</time>
      </trkpt>
      <trkpt lat="47.29633" lon="-2.41142">
        <ele>-85.199996948242</ele>
        <time>2021-11-04T10:54:50.000Z</time>
      </trkpt>
      <trkpt lat="47.29637" lon="-2.41147">
        <ele>-84.800003051758</ele>
        <time>2021-11-04T10:54:51.000Z</time>
      </trkpt>
      <trkpt lat="47.29641" lon="-2.41152">
        <ele>-84.400001525879</ele>
        <time>2021-11-04T10:54:52.000Z</time>
      </trkpt>
      <trkpt lat="47.29645" lon="-2.41157">
        <ele>-84</ele>
        <time>2021-11-04T10:54:53.000Z</time>
      </trkpt>
      <trkpt lat="47.29649" lon="-2.41162">
        <ele>-83.599998474121</ele>
        <time>2021-11-04T10:54:54.000Z</time>
      </trkpt>
      <trkpt lat="47.29653" lon="-2.41165">
        <ele>-83.599998474121</ele>
        <time>2021-11-04T10:54:55.000Z</time>
      </trkpt>
      <trkpt lat="47.29672" lon="-2.41182">
        <ele>-83.599998474121</ele>
        <time>2021-11-04T10:55:00.000Z</time>
      </trkpt>
      <trkpt lat="47.29688" lon="-2.41191">
        <ele>-83.599998474121</ele>
        <time>2021-11-04T10:55:05.000Z</time>
      </trkpt>
      <trkpt lat="47.297" lon="-2.41186">
        <ele>-83.599998474121</ele>
        <time>2021-11-04T10:55:08.000Z</time>
      </trkpt>
      <trkpt lat="47.29704" lon="-2.41182">
        <ele>-83.599998474121</ele>
        <time>2021-11-04T10:55:09.000Z</time>
      </trkpt>
      <trkpt lat="47.29729" lon="-2.41153">
        <ele>-83.599998474121</ele>
        <time>2021-11-04T10:55:15.000Z</time>
      </trkpt>
      <trkpt lat="47.29767" lon="-2.41107">
        <ele>-83.599998474121</ele>
        <time>2021-11-04T10:55:23.000Z</time>
      </trkpt>
      <trkpt lat="47.29811" lon="-2.41055">
        <ele>-83.599998474121</ele>
        <time>2021-11-04T10:55:32.000Z</time>
      </trkpt>
      <trkpt lat="47.29816" lon="-2.41049">
        <ele>-83.599998474121</ele>
        <time>2021-11-04T10:55:33.000Z</time>
      </trkpt>
      <trkpt lat="47.29843" lon="-2.4101">
        <ele>-83.599998474121</ele>
        <time>2021-11-04T10:55:39.000Z</time>
      </trkpt>
      <trkpt lat="47.29846" lon="-2.41">
        <ele>-83.599998474121</ele>
        <time>2021-11-04T10:55:40.000Z</time>
      </trkpt>
      <trkpt lat="47.2985" lon="-2.40962">
        <ele>-83.599998474121</ele>
        <time>2021-11-04T10:55:44.000Z</time>
      </trkpt>
      <trkpt lat="47.29859" lon="-2.40882">
        <ele>-83.599998474121</ele>
        <time>2021-11-04T10:55:53.000Z</time>
      </trkpt>
      <trkpt lat="47.29859" lon="-2.40874">
        <ele>-83.599998474121</ele>
        <time>2021-11-04T10:55:54.000Z</time>
      </trkpt>
      <trkpt lat="47.29859" lon="-2.40865">
        <ele>-83.599998474121</ele>
        <time>2021-11-04T10:55:55.000Z</time>
      </trkpt>
      <trkpt lat="47.29857" lon="-2.40832">
        <ele>-83.599998474121</ele>
        <time>2021-11-04T10:55:59.000Z</time>
      </trkpt>
      <trkpt lat="47.29856" lon="-2.40824">
        <ele>-83.599998474121</ele>
        <time>2021-11-04T10:56:00.000Z</time>
      </trkpt>
      <trkpt lat="47.29852" lon="-2.40808">
        <ele>-83.599998474121</ele>
        <time>2021-11-04T10:56:02.000Z</time>
      </trkpt>
      <trkpt lat="47.29845" lon="-2.40776">
        <ele>-83.599998474121</ele>
        <time>2021-11-04T10:56:06.000Z</time>
      </trkpt>
      <trkpt lat="47.2983" lon="-2.4072">
        <ele>-83.599998474121</ele>
        <time>2021-11-04T10:56:13.000Z</time>
      </trkpt>
      <trkpt lat="47.29812" lon="-2.40668">
        <ele>-83.599998474121</ele>
        <time>2021-11-04T10:56:20.000Z</time>
      </trkpt>
      <trkpt lat="47.29804" lon="-2.40646">
        <ele>-83.599998474121</ele>
        <time>2021-11-04T10:56:23.000Z</time>
      </trkpt>
      <trkpt lat="47.29796" lon="-2.40624">
        <ele>-83.599998474121</ele>
        <time>2021-11-04T10:56:26.000Z</time>
      </trkpt>
      <trkpt lat="47.29792" lon="-2.40617">
        <ele>-83.599998474121</ele>
        <time>2021-11-04T10:56:27.000Z</time>
      </trkpt>
      <trkpt lat="47.29786" lon="-2.40597">
        <ele>-83.599998474121</ele>
        <time>2021-11-04T10:56:30.000Z</time>
      </trkpt>
      <trkpt lat="47.29786" lon="-2.40592">
        <ele>-83.599998474121</ele>
        <time>2021-11-04T10:56:31.000Z</time>
      </trkpt>
      <trkpt lat="47.29793" lon="-2.40578">
        <ele>-83.599998474121</ele>
        <time>2021-11-04T10:56:34.000Z</time>
      </trkpt>
      <trkpt lat="47.29796" lon="-2.40574">
        <ele>-83.599998474121</ele>
        <time>2021-11-04T10:56:35.000Z</time>
      </trkpt>
      <trkpt lat="47.298" lon="-2.40561">
        <ele>-83.599998474121</ele>
        <time>2021-11-04T10:56:37.000Z</time>
      </trkpt>
      <trkpt lat="47.298" lon="-2.40554">
        <ele>-83.599998474121</ele>
        <time>2021-11-04T10:56:38.000Z</time>
      </trkpt>
      <trkpt lat="47.29795" lon="-2.40526">
        <ele>-83.599998474121</ele>
        <time>2021-11-04T10:56:42.000Z</time>
      </trkpt>
      <trkpt lat="47.29782" lon="-2.40469">
        <ele>-83.599998474121</ele>
        <time>2021-11-04T10:56:50.000Z</time>
      </trkpt>
      <trkpt lat="47.29779" lon="-2.40456">
        <ele>-83.199996948242</ele>
        <time>2021-11-04T10:56:52.000Z</time>
      </trkpt>
      <trkpt lat="47.29778" lon="-2.40449">
        <ele>-82.800003051758</ele>
        <time>2021-11-04T10:56:53.000Z</time>
      </trkpt>
      <trkpt lat="47.29778" lon="-2.40442">
        <ele>-82.400001525879</ele>
        <time>2021-11-04T10:56:54.000Z</time>
      </trkpt>
      <trkpt lat="47.29778" lon="-2.40435">
        <ele>-82</ele>
        <time>2021-11-04T10:56:55.000Z</time>
      </trkpt>
      <trkpt lat="47.29777" lon="-2.40428">
        <ele>-81.599998474121</ele>
        <time>2021-11-04T10:56:56.000Z</time>
      </trkpt>
      <trkpt lat="47.29778" lon="-2.40408">
        <ele>-81.599998474121</ele>
        <time>2021-11-04T10:56:59.000Z</time>
      </trkpt>
      <trkpt lat="47.29778" lon="-2.40402">
        <ele>-81.599998474121</ele>
        <time>2021-11-04T10:57:00.000Z</time>
      </trkpt>
      <trkpt lat="47.29779" lon="-2.40388">
        <ele>-81.599998474121</ele>
        <time>2021-11-04T10:57:02.000Z</time>
      </trkpt>
      <trkpt lat="47.2978" lon="-2.40381">
        <ele>-81.199996948242</ele>
        <time>2021-11-04T10:57:03.000Z</time>
      </trkpt>
      <trkpt lat="47.29781" lon="-2.40375">
        <ele>-80.800003051758</ele>
        <time>2021-11-04T10:57:04.000Z</time>
      </trkpt>
      <trkpt lat="47.2978" lon="-2.40369">
        <ele>-80.400001525879</ele>
        <time>2021-11-04T10:57:05.000Z</time>
      </trkpt>
      <trkpt lat="47.29781" lon="-2.40362">
        <ele>-79.800003051758</ele>
        <time>2021-11-04T10:57:06.000Z</time>
      </trkpt>
      <trkpt lat="47.2978" lon="-2.40357">
        <ele>-79.400001525879</ele>
        <time>2021-11-04T10:57:07.000Z</time>
      </trkpt>
      <trkpt lat="47.29779" lon="-2.40352">
        <ele>-79.400001525879</ele>
        <time>2021-11-04T10:57:08.000Z</time>
      </trkpt>
      <trkpt lat="47.29777" lon="-2.40349">
        <ele>-79.400001525879</ele>
        <time>2021-11-04T10:57:09.000Z</time>
      </trkpt>
      <trkpt lat="47.2977" lon="-2.40348">
        <ele>-79</ele>
        <time>2021-11-04T10:57:11.000Z</time>
      </trkpt>
      <trkpt lat="47.29767" lon="-2.40349">
        <ele>-78.599998474121</ele>
        <time>2021-11-04T10:57:12.000Z</time>
      </trkpt>
      <trkpt lat="47.29763" lon="-2.40351">
        <ele>-78.199996948242</ele>
        <time>2021-11-04T10:57:13.000Z</time>
      </trkpt>
      <trkpt lat="47.29759" lon="-2.40353">
        <ele>-77.800003051758</ele>
        <time>2021-11-04T10:57:14.000Z</time>
      </trkpt>
      <trkpt lat="47.29755" lon="-2.40355">
        <ele>-77.400001525879</ele>
        <time>2021-11-04T10:57:15.000Z</time>
      </trkpt>
      <trkpt lat="47.2975" lon="-2.40358">
        <ele>-77.400001525879</ele>
        <time>2021-11-04T10:57:16.000Z</time>
      </trkpt>
      <trkpt lat="47.29723" lon="-2.40377">
        <ele>-77.400001525879</ele>
        <time>2021-11-04T10:57:22.000Z</time>
      </trkpt>
      <trkpt lat="47.29714" lon="-2.40383">
        <ele>-77.400001525879</ele>
        <time>2021-11-04T10:57:24.000Z</time>
      </trkpt>
      <trkpt lat="47.297" lon="-2.40383">
        <ele>-77.400001525879</ele>
        <time>2021-11-04T10:57:27.000Z</time>
      </trkpt>
      <trkpt lat="47.29696" lon="-2.40381">
        <ele>-77.400001525879</ele>
        <time>2021-11-04T10:57:28.000Z</time>
      </trkpt>
      <trkpt lat="47.29692" lon="-2.40378">
        <ele>-77.400001525879</ele>
        <time>2021-11-04T10:57:29.000Z</time>
      </trkpt>
      <trkpt lat="47.29684" lon="-2.40365">
        <ele>-77.400001525879</ele>
        <time>2021-11-04T10:57:31.000Z</time>
      </trkpt>
      <trkpt lat="47.29678" lon="-2.40341">
        <ele>-77.400001525879</ele>
        <time>2021-11-04T10:57:34.000Z</time>
      </trkpt>
      <trkpt lat="47.29676" lon="-2.40334">
        <ele>-77.400001525879</ele>
        <time>2021-11-04T10:57:35.000Z</time>
      </trkpt>
      <trkpt lat="47.29673" lon="-2.40327">
        <ele>-77.400001525879</ele>
        <time>2021-11-04T10:57:36.000Z</time>
      </trkpt>
      <trkpt lat="47.29666" lon="-2.4031">
        <ele>-77.400001525879</ele>
        <time>2021-11-04T10:57:39.000Z</time>
      </trkpt>
      <trkpt lat="47.29663" lon="-2.40297">
        <ele>-77.400001525879</ele>
        <time>2021-11-04T10:57:41.000Z</time>
      </trkpt>
      <trkpt lat="47.29663" lon="-2.40291">
        <ele>-77.400001525879</ele>
        <time>2021-11-04T10:57:42.000Z</time>
      </trkpt>
      <trkpt lat="47.2967" lon="-2.40283">
        <ele>-77.400001525879</ele>
        <time>2021-11-04T10:57:44.000Z</time>
      </trkpt>
      <trkpt lat="47.29678" lon="-2.40262">
        <ele>-77.400001525879</ele>
        <time>2021-11-04T10:57:48.000Z</time>
      </trkpt>
      <trkpt lat="47.29675" lon="-2.40246">
        <ele>-77.400001525879</ele>
        <time>2021-11-04T10:57:50.000Z</time>
      </trkpt>
      <trkpt lat="47.29674" lon="-2.40229">
        <ele>-77.400001525879</ele>
        <time>2021-11-04T10:57:52.000Z</time>
      </trkpt>
      <trkpt lat="47.2967" lon="-2.40191">
        <ele>-77.800003051758</ele>
        <time>2021-11-04T10:57:56.000Z</time>
      </trkpt>
      <trkpt lat="47.29669" lon="-2.40181">
        <ele>-78.199996948242</ele>
        <time>2021-11-04T10:57:57.000Z</time>
      </trkpt>
      <trkpt lat="47.29668" lon="-2.40171">
        <ele>-78.599998474121</ele>
        <time>2021-11-04T10:57:58.000Z</time>
      </trkpt>
      <trkpt lat="47.29667" lon="-2.40162">
        <ele>-79</ele>
        <time>2021-11-04T10:57:59.000Z</time>
      </trkpt>
      <trkpt lat="47.29666" lon="-2.40153">
        <ele>-79.400001525879</ele>
        <time>2021-11-04T10:58:00.000Z</time>
      </trkpt>
      <trkpt lat="47.29665" lon="-2.40138">
        <ele>-79.400001525879</ele>
        <time>2021-11-04T10:58:02.000Z</time>
      </trkpt>
      <trkpt lat="47.29662" lon="-2.40134">
        <ele>-79.400001525879</ele>
        <time>2021-11-04T10:58:03.000Z</time>
      </trkpt>
      <trkpt lat="47.29655" lon="-2.4012">
        <ele>-80</ele>
        <time>2021-11-04T10:58:06.000Z</time>
      </trkpt>
      <trkpt lat="47.29654" lon="-2.40115">
        <ele>-80.400001525879</ele>
        <time>2021-11-04T10:58:07.000Z</time>
      </trkpt>
      <trkpt lat="47.29652" lon="-2.4011">
        <ele>-80.800003051758</ele>
        <time>2021-11-04T10:58:08.000Z</time>
      </trkpt>
      <trkpt lat="47.29651" lon="-2.40106">
        <ele>-81.400001525879</ele>
        <time>2021-11-04T10:58:09.000Z</time>
      </trkpt>
      <trkpt lat="47.2965" lon="-2.40102">
        <ele>-81.800003051758</ele>
        <time>2021-11-04T10:58:10.000Z</time>
      </trkpt>
      <trkpt lat="47.29645" lon="-2.40083">
        <ele>-81.800003051758</ele>
        <time>2021-11-04T10:58:15.000Z</time>
      </trkpt>
      <trkpt lat="47.29643" lon="-2.40068">
        <ele>-81.800003051758</ele>
        <time>2021-11-04T10:58:20.000Z</time>
      </trkpt>
      <trkpt lat="47.29641" lon="-2.40065">
        <ele>-82.199996948242</ele>
        <time>2021-11-04T10:58:23.000Z</time>
      </trkpt>
      <trkpt lat="47.29639" lon="-2.40064">
        <ele>-82.599998474121</ele>
        <time>2021-11-04T10:58:24.000Z</time>
      </trkpt>
      <trkpt lat="47.29637" lon="-2.40064">
        <ele>-83</ele>
        <time>2021-11-04T10:58:25.000Z</time>
      </trkpt>
      <trkpt lat="47.29635" lon="-2.40062">
        <ele>-83.400001525879</ele>
        <time>2021-11-04T10:58:26.000Z</time>
      </trkpt>
      <trkpt lat="47.29633" lon="-2.40058">
        <ele>-83.800003051758</ele>
        <time>2021-11-04T10:58:27.000Z</time>
      </trkpt>
      <trkpt lat="47.29631" lon="-2.40053">
        <ele>-83.800003051758</ele>
        <time>2021-11-04T10:58:28.000Z</time>
      </trkpt>
      <trkpt lat="47.29628" lon="-2.40041">
        <ele>-83.800003051758</ele>
        <time>2021-11-04T10:58:30.000Z</time>
      </trkpt>
      <trkpt lat="47.29625" lon="-2.40034">
        <ele>-83.800003051758</ele>
        <time>2021-11-04T10:58:31.000Z</time>
      </trkpt>
      <trkpt lat="47.29623" lon="-2.40028">
        <ele>-83.800003051758</ele>
        <time>2021-11-04T10:58:32.000Z</time>
      </trkpt>
      <trkpt lat="47.29625" lon="-2.40006">
        <ele>-83.800003051758</ele>
        <time>2021-11-04T10:58:35.000Z</time>
      </trkpt>
      <trkpt lat="47.29638" lon="-2.39995">
        <ele>-83.800003051758</ele>
        <time>2021-11-04T10:58:38.000Z</time>
      </trkpt>
      <trkpt lat="47.29642" lon="-2.39992">
        <ele>-83.800003051758</ele>
        <time>2021-11-04T10:58:39.000Z</time>
      </trkpt>
      <trkpt lat="47.29652" lon="-2.39981">
        <ele>-83.800003051758</ele>
        <time>2021-11-04T10:58:42.000Z</time>
      </trkpt>
      <trkpt lat="47.2965" lon="-2.39974">
        <ele>-83.800003051758</ele>
        <time>2021-11-04T10:58:43.000Z</time>
      </trkpt>
      <trkpt lat="47.29642" lon="-2.39958">
        <ele>-83.800003051758</ele>
        <time>2021-11-04T10:58:46.000Z</time>
      </trkpt>
      <trkpt lat="47.29639" lon="-2.39952">
        <ele>-83.800003051758</ele>
        <time>2021-11-04T10:58:47.000Z</time>
      </trkpt>
      <trkpt lat="47.29627" lon="-2.39927">
        <ele>-83.800003051758</ele>
        <time>2021-11-04T10:58:51.000Z</time>
      </trkpt>
      <trkpt lat="47.29605" lon="-2.39878">
        <ele>-83.800003051758</ele>
        <time>2021-11-04T10:58:58.000Z</time>
      </trkpt>
      <trkpt lat="47.29607" lon="-2.39851">
        <ele>-83.800003051758</ele>
        <time>2021-11-04T10:59:01.000Z</time>
      </trkpt>
      <trkpt lat="47.29609" lon="-2.39845">
        <ele>-84.199996948242</ele>
        <time>2021-11-04T10:59:02.000Z</time>
      </trkpt>
      <trkpt lat="47.2961" lon="-2.39838">
        <ele>-84.599998474121</ele>
        <time>2021-11-04T10:59:03.000Z</time>
      </trkpt>
      <trkpt lat="47.29609" lon="-2.3983">
        <ele>-85</ele>
        <time>2021-11-04T10:59:04.000Z</time>
      </trkpt>
      <trkpt lat="47.29605" lon="-2.39823">
        <ele>-85.400001525879</ele>
        <time>2021-11-04T10:59:05.000Z</time>
      </trkpt>
      <trkpt lat="47.29603" lon="-2.39816">
        <ele>-85.800003051758</ele>
        <time>2021-11-04T10:59:06.000Z</time>
      </trkpt>
      <trkpt lat="47.29601" lon="-2.39809">
        <ele>-85.800003051758</ele>
        <time>2021-11-04T10:59:07.000Z</time>
      </trkpt>
      <trkpt lat="47.29604" lon="-2.39793">
        <ele>-85.800003051758</ele>
        <time>2021-11-04T10:59:09.000Z</time>
      </trkpt>
      <trkpt lat="47.29613" lon="-2.39778">
        <ele>-85.800003051758</ele>
        <time>2021-11-04T10:59:12.000Z</time>
      </trkpt>
      <trkpt lat="47.29615" lon="-2.39771">
        <ele>-85.800003051758</ele>
        <time>2021-11-04T10:59:13.000Z</time>
      </trkpt>
      <trkpt lat="47.29614" lon="-2.39755">
        <ele>-85.800003051758</ele>
        <time>2021-11-04T10:59:15.000Z</time>
      </trkpt>
      <trkpt lat="47.29606" lon="-2.39733">
        <ele>-85.800003051758</ele>
        <time>2021-11-04T10:59:18.000Z</time>
      </trkpt>
      <trkpt lat="47.29604" lon="-2.39727">
        <ele>-85.800003051758</ele>
        <time>2021-11-04T10:59:19.000Z</time>
      </trkpt>
      <trkpt lat="47.29596" lon="-2.39707">
        <ele>-85.800003051758</ele>
        <time>2021-11-04T10:59:22.000Z</time>
      </trkpt>
      <trkpt lat="47.29597" lon="-2.39699">
        <ele>-85.800003051758</ele>
        <time>2021-11-04T10:59:23.000Z</time>
      </trkpt>
      <trkpt lat="47.29608" lon="-2.39681">
        <ele>-85.800003051758</ele>
        <time>2021-11-04T10:59:26.000Z</time>
      </trkpt>
      <trkpt lat="47.2962" lon="-2.39663">
        <ele>-85.800003051758</ele>
        <time>2021-11-04T10:59:29.000Z</time>
      </trkpt>
      <trkpt lat="47.29623" lon="-2.39655">
        <ele>-85.800003051758</ele>
        <time>2021-11-04T10:59:30.000Z</time>
      </trkpt>
      <trkpt lat="47.29626" lon="-2.39647">
        <ele>-85.800003051758</ele>
        <time>2021-11-04T10:59:31.000Z</time>
      </trkpt>
      <trkpt lat="47.29632" lon="-2.39609">
        <ele>-85.800003051758</ele>
        <time>2021-11-04T10:59:36.000Z</time>
      </trkpt>
      <trkpt lat="47.29633" lon="-2.39577">
        <ele>-85.800003051758</ele>
        <time>2021-11-04T10:59:41.000Z</time>
      </trkpt>
      <trkpt lat="47.29625" lon="-2.39569">
        <ele>-85.800003051758</ele>
        <time>2021-11-04T10:59:44.000Z</time>
      </trkpt>
      <trkpt lat="47.29615" lon="-2.39569">
        <ele>-85.800003051758</ele>
        <time>2021-11-04T10:59:48.000Z</time>
      </trkpt>
      <trkpt lat="47.29614" lon="-2.3956">
        <ele>-85.800003051758</ele>
        <time>2021-11-04T10:59:52.000Z</time>
      </trkpt>
      <trkpt lat="47.2962" lon="-2.39558">
        <ele>-85.800003051758</ele>
        <time>2021-11-04T10:59:54.000Z</time>
      </trkpt>
      <trkpt lat="47.29625" lon="-2.39555">
        <ele>-85.800003051758</ele>
        <time>2021-11-04T10:59:56.000Z</time>
      </trkpt>
      <trkpt lat="47.29625" lon="-2.39552">
        <ele>-85.400001525879</ele>
        <time>2021-11-04T10:59:57.000Z</time>
      </trkpt>
      <trkpt lat="47.29623" lon="-2.39549">
        <ele>-85</ele>
        <time>2021-11-04T10:59:58.000Z</time>
      </trkpt>
      <trkpt lat="47.2962" lon="-2.39549">
        <ele>-84.599998474121</ele>
        <time>2021-11-04T10:59:59.000Z</time>
      </trkpt>
      <trkpt lat="47.29618" lon="-2.39549">
        <ele>-84.199996948242</ele>
        <time>2021-11-04T11:00:00.000Z</time>
      </trkpt>
      <trkpt lat="47.29614" lon="-2.3955">
        <ele>-83.800003051758</ele>
        <time>2021-11-04T11:00:01.000Z</time>
      </trkpt>
      <trkpt lat="47.29607" lon="-2.39551">
        <ele>-83.800003051758</ele>
        <time>2021-11-04T11:00:03.000Z</time>
      </trkpt>
      <trkpt lat="47.29596" lon="-2.39551">
        <ele>-83.400001525879</ele>
        <time>2021-11-04T11:00:06.000Z</time>
      </trkpt>
      <trkpt lat="47.29594" lon="-2.39551">
        <ele>-83</ele>
        <time>2021-11-04T11:00:07.000Z</time>
      </trkpt>
      <trkpt lat="47.29592" lon="-2.3955">
        <ele>-82.199996948242</ele>
        <time>2021-11-04T11:00:08.000Z</time>
      </trkpt>
      <trkpt lat="47.29589" lon="-2.3955">
        <ele>-81.800003051758</ele>
        <time>2021-11-04T11:00:09.000Z</time>
      </trkpt>
      <trkpt lat="47.2957" lon="-2.39545">
        <ele>-81.800003051758</ele>
        <time>2021-11-04T11:00:14.000Z</time>
      </trkpt>
      <trkpt lat="47.29539" lon="-2.39539">
        <ele>-81.800003051758</ele>
        <time>2021-11-04T11:00:19.000Z</time>
      </trkpt>
      <trkpt lat="47.29531" lon="-2.39537">
        <ele>-82.199996948242</ele>
        <time>2021-11-04T11:00:20.000Z</time>
      </trkpt>
      <trkpt lat="47.29523" lon="-2.39536">
        <ele>-82.599998474121</ele>
        <time>2021-11-04T11:00:21.000Z</time>
      </trkpt>
      <trkpt lat="47.29515" lon="-2.39534">
        <ele>-83</ele>
        <time>2021-11-04T11:00:22.000Z</time>
      </trkpt>
      <trkpt lat="47.29507" lon="-2.39532">
        <ele>-83.400001525879</ele>
        <time>2021-11-04T11:00:23.000Z</time>
      </trkpt>
      <trkpt lat="47.295" lon="-2.39531">
        <ele>-83.800003051758</ele>
        <time>2021-11-04T11:00:24.000Z</time>
      </trkpt>
      <trkpt lat="47.29493" lon="-2.39529">
        <ele>-83.800003051758</ele>
        <time>2021-11-04T11:00:25.000Z</time>
      </trkpt>
      <trkpt lat="47.29445" lon="-2.39519">
        <ele>-84.199996948242</ele>
        <time>2021-11-04T11:00:32.000Z</time>
      </trkpt>
      <trkpt lat="47.29438" lon="-2.39518">
        <ele>-84.599998474121</ele>
        <time>2021-11-04T11:00:33.000Z</time>
      </trkpt>
      <trkpt lat="47.29432" lon="-2.39517">
        <ele>-85</ele>
        <time>2021-11-04T11:00:34.000Z</time>
      </trkpt>
      <trkpt lat="47.29425" lon="-2.39515">
        <ele>-85.400001525879</ele>
        <time>2021-11-04T11:00:35.000Z</time>
      </trkpt>
      <trkpt lat="47.29418" lon="-2.39514">
        <ele>-86</ele>
        <time>2021-11-04T11:00:36.000Z</time>
      </trkpt>
      <trkpt lat="47.2937" lon="-2.39505">
        <ele>-86</ele>
        <time>2021-11-04T11:00:43.000Z</time>
      </trkpt>
      <trkpt lat="47.29325" lon="-2.39497">
        <ele>-86</ele>
        <time>2021-11-04T11:00:50.000Z</time>
      </trkpt>
      <trkpt lat="47.29276" lon="-2.39486">
        <ele>-86</ele>
        <time>2021-11-04T11:00:58.000Z</time>
      </trkpt>
      <trkpt lat="47.29264" lon="-2.39483">
        <ele>-86</ele>
        <time>2021-11-04T11:01:00.000Z</time>
      </trkpt>
      <trkpt lat="47.29234" lon="-2.39478">
        <ele>-86</ele>
        <time>2021-11-04T11:01:05.000Z</time>
      </trkpt>
      <trkpt lat="47.29198" lon="-2.39472">
        <ele>-86</ele>
        <time>2021-11-04T11:01:12.000Z</time>
      </trkpt>
      <trkpt lat="47.29166" lon="-2.39465">
        <ele>-86</ele>
        <time>2021-11-04T11:01:19.000Z</time>
      </trkpt>
      <trkpt lat="47.29156" lon="-2.39461">
        <ele>-86</ele>
        <time>2021-11-04T11:01:24.000Z</time>
      </trkpt>
      <trkpt lat="47.29149" lon="-2.39462">
        <ele>-86</ele>
        <time>2021-11-04T11:01:28.000Z</time>
      </trkpt>
      <trkpt lat="47.29146" lon="-2.39461">
        <ele>-86</ele>
        <time>2021-11-04T11:01:30.000Z</time>
      </trkpt>
      <trkpt lat="47.29143" lon="-2.3946">
        <ele>-86</ele>
        <time>2021-11-04T11:01:32.000Z</time>
      </trkpt>
      <trkpt lat="47.29141" lon="-2.39454">
        <ele>-86</ele>
        <time>2021-11-04T11:01:34.000Z</time>
      </trkpt>
      <trkpt lat="47.29141" lon="-2.39426">
        <ele>-86</ele>
        <time>2021-11-04T11:01:40.000Z</time>
      </trkpt>
      <trkpt lat="47.29137" lon="-2.39404">
        <ele>-86</ele>
        <time>2021-11-04T11:01:44.000Z</time>
      </trkpt>
      <trkpt lat="47.29135" lon="-2.3938">
        <ele>-86</ele>
        <time>2021-11-04T11:01:48.000Z</time>
      </trkpt>
      <trkpt lat="47.29135" lon="-2.39359">
        <ele>-86</ele>
        <time>2021-11-04T11:01:53.000Z</time>
      </trkpt>
      <trkpt lat="47.29141" lon="-2.39361">
        <ele>-86</ele>
        <time>2021-11-04T11:01:56.000Z</time>
      </trkpt>
      <trkpt lat="47.29142" lon="-2.39364">
        <ele>-86.400001525879</ele>
        <time>2021-11-04T11:01:57.000Z</time>
      </trkpt>
      <trkpt lat="47.29144" lon="-2.39368">
        <ele>-86.800003051758</ele>
        <time>2021-11-04T11:01:58.000Z</time>
      </trkpt>
      <trkpt lat="47.29146" lon="-2.3937">
        <ele>-87.199996948242</ele>
        <time>2021-11-04T11:01:59.000Z</time>
      </trkpt>
      <trkpt lat="47.29146" lon="-2.39373">
        <ele>-87.599998474121</ele>
        <time>2021-11-04T11:02:00.000Z</time>
      </trkpt>
      <trkpt lat="47.29147" lon="-2.39375">
        <ele>-88</ele>
        <time>2021-11-04T11:02:01.000Z</time>
      </trkpt>
      <trkpt lat="47.29147" lon="-2.39378">
        <ele>-88</ele>
        <time>2021-11-04T11:02:02.000Z</time>
      </trkpt>
      <trkpt lat="47.29147" lon="-2.39381">
        <ele>-88</ele>
        <time>2021-11-04T11:02:06.000Z</time>
      </trkpt>
      <trkpt lat="47.29146" lon="-2.39378">
        <ele>-88</ele>
        <time>2021-11-04T11:04:01.000Z</time>
      </trkpt>
      <trkpt lat="47.29142" lon="-2.39371">
        <ele>-88</ele>
        <time>2021-11-04T11:04:05.000Z</time>
      </trkpt>
      <trkpt lat="47.2914" lon="-2.3937">
        <ele>-88</ele>
        <time>2021-11-04T11:04:06.000Z</time>
      </trkpt>
      <trkpt lat="47.29131" lon="-2.39369">
        <ele>-88</ele>
        <time>2021-11-04T11:04:09.000Z</time>
      </trkpt>
      <trkpt lat="47.29118" lon="-2.3937">
        <ele>-88</ele>
        <time>2021-11-04T11:04:13.000Z</time>
      </trkpt>
      <trkpt lat="47.29113" lon="-2.39375">
        <ele>-87.599998474121</ele>
        <time>2021-11-04T11:04:15.000Z</time>
      </trkpt>
      <trkpt lat="47.2911" lon="-2.39377">
        <ele>-87.199996948242</ele>
        <time>2021-11-04T11:04:16.000Z</time>
      </trkpt>
      <trkpt lat="47.29108" lon="-2.39378">
        <ele>-86.800003051758</ele>
        <time>2021-11-04T11:04:17.000Z</time>
      </trkpt>
      <trkpt lat="47.29105" lon="-2.3938">
        <ele>-86.400001525879</ele>
        <time>2021-11-04T11:04:18.000Z</time>
      </trkpt>
      <trkpt lat="47.29102" lon="-2.3938">
        <ele>-86</ele>
        <time>2021-11-04T11:04:19.000Z</time>
      </trkpt>
      <trkpt lat="47.29093" lon="-2.39377">
        <ele>-86</ele>
        <time>2021-11-04T11:04:23.000Z</time>
      </trkpt>
      <trkpt lat="47.29085" lon="-2.39368">
        <ele>-86</ele>
        <time>2021-11-04T11:04:26.000Z</time>
      </trkpt>
      <trkpt lat="47.29082" lon="-2.39364">
        <ele>-86</ele>
        <time>2021-11-04T11:04:27.000Z</time>
      </trkpt>
      <trkpt lat="47.29065" lon="-2.39354">
        <ele>-86</ele>
        <time>2021-11-04T11:04:31.000Z</time>
      </trkpt>
      <trkpt lat="47.29031" lon="-2.39339">
        <ele>-86</ele>
        <time>2021-11-04T11:04:37.000Z</time>
      </trkpt>
      <trkpt lat="47.28983" lon="-2.3932">
        <ele>-86</ele>
        <time>2021-11-04T11:04:45.000Z</time>
      </trkpt>
      <trkpt lat="47.28951" lon="-2.39319">
        <ele>-86</ele>
        <time>2021-11-04T11:04:51.000Z</time>
      </trkpt>
      <trkpt lat="47.28942" lon="-2.39304">
        <ele>-86</ele>
        <time>2021-11-04T11:04:54.000Z</time>
      </trkpt>
      <trkpt lat="47.28937" lon="-2.39282">
        <ele>-86</ele>
        <time>2021-11-04T11:04:57.000Z</time>
      </trkpt>
      <trkpt lat="47.28934" lon="-2.39266">
        <ele>-86</ele>
        <time>2021-11-04T11:04:59.000Z</time>
      </trkpt>
      <trkpt lat="47.28933" lon="-2.39241">
        <ele>-86</ele>
        <time>2021-11-04T11:05:02.000Z</time>
      </trkpt>
      <trkpt lat="47.28932" lon="-2.39216">
        <ele>-86</ele>
        <time>2021-11-04T11:05:05.000Z</time>
      </trkpt>
      <trkpt lat="47.28934" lon="-2.39152">
        <ele>-86</ele>
        <time>2021-11-04T11:05:13.000Z</time>
      </trkpt>
      <trkpt lat="47.28944" lon="-2.3908">
        <ele>-86</ele>
        <time>2021-11-04T11:05:22.000Z</time>
      </trkpt>
      <trkpt lat="47.28951" lon="-2.39014">
        <ele>-86</ele>
        <time>2021-11-04T11:05:30.000Z</time>
      </trkpt>
      <trkpt lat="47.28954" lon="-2.38963">
        <ele>-86</ele>
        <time>2021-11-04T11:05:36.000Z</time>
      </trkpt>
      <trkpt lat="47.28959" lon="-2.38884">
        <ele>-86</ele>
        <time>2021-11-04T11:05:45.000Z</time>
      </trkpt>
      <trkpt lat="47.28962" lon="-2.38833">
        <ele>-86</ele>
        <time>2021-11-04T11:05:51.000Z</time>
      </trkpt>
      <trkpt lat="47.28962" lon="-2.38774">
        <ele>-86</ele>
        <time>2021-11-04T11:05:58.000Z</time>
      </trkpt>
      <trkpt lat="47.2896" lon="-2.38715">
        <ele>-86</ele>
        <time>2021-11-04T11:06:05.000Z</time>
      </trkpt>
      <trkpt lat="47.2896" lon="-2.38706">
        <ele>-86</ele>
        <time>2021-11-04T11:06:06.000Z</time>
      </trkpt>
      <trkpt lat="47.28959" lon="-2.38645">
        <ele>-86</ele>
        <time>2021-11-04T11:06:13.000Z</time>
      </trkpt>
      <trkpt lat="47.28956" lon="-2.38572">
        <ele>-86</ele>
        <time>2021-11-04T11:06:21.000Z</time>
      </trkpt>
      <trkpt lat="47.28949" lon="-2.38501">
        <ele>-86</ele>
        <time>2021-11-04T11:06:29.000Z</time>
      </trkpt>
      <trkpt lat="47.28943" lon="-2.38432">
        <ele>-86</ele>
        <time>2021-11-04T11:06:37.000Z</time>
      </trkpt>
      <trkpt lat="47.28938" lon="-2.38363">
        <ele>-86</ele>
        <time>2021-11-04T11:06:45.000Z</time>
      </trkpt>
      <trkpt lat="47.28935" lon="-2.38291">
        <ele>-86</ele>
        <time>2021-11-04T11:06:53.000Z</time>
      </trkpt>
      <trkpt lat="47.28939" lon="-2.38238">
        <ele>-86</ele>
        <time>2021-11-04T11:06:59.000Z</time>
      </trkpt>
      <trkpt lat="47.28929" lon="-2.38218">
        <ele>-86</ele>
        <time>2021-11-04T11:07:02.000Z</time>
      </trkpt>
      <trkpt lat="47.28908" lon="-2.38203">
        <ele>-86</ele>
        <time>2021-11-04T11:07:06.000Z</time>
      </trkpt>
      <trkpt lat="47.28904" lon="-2.38198">
        <ele>-86</ele>
        <time>2021-11-04T11:07:07.000Z</time>
      </trkpt>
      <trkpt lat="47.28902" lon="-2.38175">
        <ele>-86</ele>
        <time>2021-11-04T11:07:10.000Z</time>
      </trkpt>
      <trkpt lat="47.28903" lon="-2.38167">
        <ele>-86</ele>
        <time>2021-11-04T11:07:11.000Z</time>
      </trkpt>
      <trkpt lat="47.28907" lon="-2.38106">
        <ele>-86</ele>
        <time>2021-11-04T11:07:18.000Z</time>
      </trkpt>
      <trkpt lat="47.2891" lon="-2.38045">
        <ele>-86</ele>
        <time>2021-11-04T11:07:25.000Z</time>
      </trkpt>
      <trkpt lat="47.28913" lon="-2.37992">
        <ele>-86</ele>
        <time>2021-11-04T11:07:31.000Z</time>
      </trkpt>
      <trkpt lat="47.28918" lon="-2.37924">
        <ele>-86</ele>
        <time>2021-11-04T11:07:39.000Z</time>
      </trkpt>
      <trkpt lat="47.28922" lon="-2.37865">
        <ele>-86</ele>
        <time>2021-11-04T11:07:46.000Z</time>
      </trkpt>
      <trkpt lat="47.28925" lon="-2.37839">
        <ele>-86</ele>
        <time>2021-11-04T11:07:49.000Z</time>
      </trkpt>
      <trkpt lat="47.28928" lon="-2.37807">
        <ele>-86</ele>
        <time>2021-11-04T11:07:53.000Z</time>
      </trkpt>
      <trkpt lat="47.28932" lon="-2.37757">
        <ele>-86</ele>
        <time>2021-11-04T11:07:59.000Z</time>
      </trkpt>
      <trkpt lat="47.28937" lon="-2.37689">
        <ele>-86</ele>
        <time>2021-11-04T11:08:07.000Z</time>
      </trkpt>
      <trkpt lat="47.28937" lon="-2.37657">
        <ele>-86</ele>
        <time>2021-11-04T11:08:11.000Z</time>
      </trkpt>
      <trkpt lat="47.28935" lon="-2.3765">
        <ele>-86</ele>
        <time>2021-11-04T11:08:12.000Z</time>
      </trkpt>
      <trkpt lat="47.28921" lon="-2.37644">
        <ele>-86</ele>
        <time>2021-11-04T11:08:15.000Z</time>
      </trkpt>
      <trkpt lat="47.28905" lon="-2.37649">
        <ele>-86</ele>
        <time>2021-11-04T11:08:18.000Z</time>
      </trkpt>
      <trkpt lat="47.28894" lon="-2.3765">
        <ele>-86</ele>
        <time>2021-11-04T11:08:20.000Z</time>
      </trkpt>
      <trkpt lat="47.28874" lon="-2.37654">
        <ele>-86</ele>
        <time>2021-11-04T11:08:24.000Z</time>
      </trkpt>
      <trkpt lat="47.28866" lon="-2.3765">
        <ele>-86</ele>
        <time>2021-11-04T11:08:26.000Z</time>
      </trkpt>
      <trkpt lat="47.28861" lon="-2.37632">
        <ele>-86</ele>
        <time>2021-11-04T11:08:29.000Z</time>
      </trkpt>
      <trkpt lat="47.28857" lon="-2.37611">
        <ele>-86</ele>
        <time>2021-11-04T11:08:32.000Z</time>
      </trkpt>
      <trkpt lat="47.28858" lon="-2.37598">
        <ele>-86</ele>
        <time>2021-11-04T11:08:34.000Z</time>
      </trkpt>
      <trkpt lat="47.2886" lon="-2.37586">
        <ele>-85.599998474121</ele>
        <time>2021-11-04T11:08:36.000Z</time>
      </trkpt>
      <trkpt lat="47.28862" lon="-2.3758">
        <ele>-85.199996948242</ele>
        <time>2021-11-04T11:08:37.000Z</time>
      </trkpt>
      <trkpt lat="47.28864" lon="-2.37574">
        <ele>-84.800003051758</ele>
        <time>2021-11-04T11:08:38.000Z</time>
      </trkpt>
      <trkpt lat="47.28866" lon="-2.37568">
        <ele>-84.400001525879</ele>
        <time>2021-11-04T11:08:39.000Z</time>
      </trkpt>
      <trkpt lat="47.28869" lon="-2.37562">
        <ele>-84</ele>
        <time>2021-11-04T11:08:40.000Z</time>
      </trkpt>
      <trkpt lat="47.28882" lon="-2.37533">
        <ele>-84</ele>
        <time>2021-11-04T11:08:45.000Z</time>
      </trkpt>
      <trkpt lat="47.28883" lon="-2.37527">
        <ele>-84</ele>
        <time>2021-11-04T11:08:46.000Z</time>
      </trkpt>
      <trkpt lat="47.28881" lon="-2.37507">
        <ele>-84</ele>
        <time>2021-11-04T11:08:49.000Z</time>
      </trkpt>
      <trkpt lat="47.28879" lon="-2.37501">
        <ele>-84</ele>
        <time>2021-11-04T11:08:50.000Z</time>
      </trkpt>
      <trkpt lat="47.28876" lon="-2.3748">
        <ele>-84</ele>
        <time>2021-11-04T11:08:53.000Z</time>
      </trkpt>
      <trkpt lat="47.28873" lon="-2.37467">
        <ele>-84</ele>
        <time>2021-11-04T11:08:55.000Z</time>
      </trkpt>
      <trkpt lat="47.28867" lon="-2.37424">
        <ele>-84</ele>
        <time>2021-11-04T11:09:01.000Z</time>
      </trkpt>
      <trkpt lat="47.28862" lon="-2.37376">
        <ele>-84</ele>
        <time>2021-11-04T11:09:08.000Z</time>
      </trkpt>
      <trkpt lat="47.28857" lon="-2.37316">
        <ele>-84</ele>
        <time>2021-11-04T11:09:17.000Z</time>
      </trkpt>
      <trkpt lat="47.28856" lon="-2.37288">
        <ele>-84</ele>
        <time>2021-11-04T11:09:22.000Z</time>
      </trkpt>
      <trkpt lat="47.28854" lon="-2.37257">
        <ele>-84</ele>
        <time>2021-11-04T11:09:28.000Z</time>
      </trkpt>
      <trkpt lat="47.2885" lon="-2.3724">
        <ele>-84</ele>
        <time>2021-11-04T11:09:33.000Z</time>
      </trkpt>
      <trkpt lat="47.28845" lon="-2.37234">
        <ele>-84</ele>
        <time>2021-11-04T11:09:35.000Z</time>
      </trkpt>
      <trkpt lat="47.28843" lon="-2.37224">
        <ele>-84</ele>
        <time>2021-11-04T11:09:37.000Z</time>
      </trkpt>
      <trkpt lat="47.28837" lon="-2.3719">
        <ele>-84</ele>
        <time>2021-11-04T11:09:43.000Z</time>
      </trkpt>
      <trkpt lat="47.28836" lon="-2.37185">
        <ele>-84</ele>
        <time>2021-11-04T11:09:44.000Z</time>
      </trkpt>
      <trkpt lat="47.28834" lon="-2.37172">
        <ele>-84</ele>
        <time>2021-11-04T11:09:46.000Z</time>
      </trkpt>
      <trkpt lat="47.28829" lon="-2.37153">
        <ele>-83.599998474121</ele>
        <time>2021-11-04T11:09:49.000Z</time>
      </trkpt>
      <trkpt lat="47.28828" lon="-2.37147">
        <ele>-83.199996948242</ele>
        <time>2021-11-04T11:09:50.000Z</time>
      </trkpt>
      <trkpt lat="47.28828" lon="-2.3714">
        <ele>-82.599998474121</ele>
        <time>2021-11-04T11:09:51.000Z</time>
      </trkpt>
      <trkpt lat="47.28828" lon="-2.37134">
        <ele>-82.199996948242</ele>
        <time>2021-11-04T11:09:52.000Z</time>
      </trkpt>
      <trkpt lat="47.28827" lon="-2.37128">
        <ele>-81.800003051758</ele>
        <time>2021-11-04T11:09:53.000Z</time>
      </trkpt>
      <trkpt lat="47.28828" lon="-2.37119">
        <ele>-81.800003051758</ele>
        <time>2021-11-04T11:09:55.000Z</time>
      </trkpt>
      <trkpt lat="47.2883" lon="-2.3711">
        <ele>-81.800003051758</ele>
        <time>2021-11-04T11:09:58.000Z</time>
      </trkpt>
      <trkpt lat="47.28829" lon="-2.37108">
        <ele>-81.800003051758</ele>
        <time>2021-11-04T11:10:00.000Z</time>
      </trkpt>
      <trkpt lat="47.28827" lon="-2.3711">
        <ele>-81.800003051758</ele>
        <time>2021-11-04T11:10:02.000Z</time>
      </trkpt>
      <trkpt lat="47.28826" lon="-2.37111">
        <ele>-81.400001525879</ele>
        <time>2021-11-04T11:10:03.000Z</time>
      </trkpt>
      <trkpt lat="47.28824" lon="-2.37112">
        <ele>-81</ele>
        <time>2021-11-04T11:10:04.000Z</time>
      </trkpt>
      <trkpt lat="47.28823" lon="-2.37113">
        <ele>-80.400001525879</ele>
        <time>2021-11-04T11:10:05.000Z</time>
      </trkpt>
      <trkpt lat="47.28821" lon="-2.37114">
        <ele>-80</ele>
        <time>2021-11-04T11:10:06.000Z</time>
      </trkpt>
      <trkpt lat="47.28819" lon="-2.37115">
        <ele>-79.599998474121</ele>
        <time>2021-11-04T11:10:07.000Z</time>
      </trkpt>
      <trkpt lat="47.28815" lon="-2.37116">
        <ele>-79.199996948242</ele>
        <time>2021-11-04T11:10:09.000Z</time>
      </trkpt>
      <trkpt lat="47.28813" lon="-2.37117">
        <ele>-78.599998474121</ele>
        <time>2021-11-04T11:10:10.000Z</time>
      </trkpt>
      <trkpt lat="47.28812" lon="-2.37117">
        <ele>-78.199996948242</ele>
        <time>2021-11-04T11:10:11.000Z</time>
      </trkpt>
      <trkpt lat="47.2881" lon="-2.37117">
        <ele>-77.800003051758</ele>
        <time>2021-11-04T11:10:12.000Z</time>
      </trkpt>
      <trkpt lat="47.28808" lon="-2.37117">
        <ele>-77.400001525879</ele>
        <time>2021-11-04T11:10:13.000Z</time>
      </trkpt>
      <trkpt lat="47.28806" lon="-2.37117">
        <ele>-77.400001525879</ele>
        <time>2021-11-04T11:10:14.000Z</time>
      </trkpt>
      <trkpt lat="47.28804" lon="-2.37116">
        <ele>-77.400001525879</ele>
        <time>2021-11-04T11:10:15.000Z</time>
      </trkpt>
      <trkpt lat="47.288" lon="-2.3711">
        <ele>-77</ele>
        <time>2021-11-04T11:10:18.000Z</time>
      </trkpt>
      <trkpt lat="47.28799" lon="-2.37106">
        <ele>-76.599998474121</ele>
        <time>2021-11-04T11:10:19.000Z</time>
      </trkpt>
      <trkpt lat="47.28798" lon="-2.37103">
        <ele>-76.199996948242</ele>
        <time>2021-11-04T11:10:20.000Z</time>
      </trkpt>
      <trkpt lat="47.28797" lon="-2.37099">
        <ele>-75.800003051758</ele>
        <time>2021-11-04T11:10:21.000Z</time>
      </trkpt>
      <trkpt lat="47.28797" lon="-2.37095">
        <ele>-75.400001525879</ele>
        <time>2021-11-04T11:10:22.000Z</time>
      </trkpt>
      <trkpt lat="47.28796" lon="-2.3708">
        <ele>-75.400001525879</ele>
        <time>2021-11-04T11:10:26.000Z</time>
      </trkpt>
      <trkpt lat="47.28795" lon="-2.37073">
        <ele>-75</ele>
        <time>2021-11-04T11:10:28.000Z</time>
      </trkpt>
      <trkpt lat="47.28794" lon="-2.37069">
        <ele>-74.599998474121</ele>
        <time>2021-11-04T11:10:29.000Z</time>
      </trkpt>
      <trkpt lat="47.28793" lon="-2.37066">
        <ele>-74</ele>
        <time>2021-11-04T11:10:30.000Z</time>
      </trkpt>
      <trkpt lat="47.28792" lon="-2.37062">
        <ele>-73.599998474121</ele>
        <time>2021-11-04T11:10:31.000Z</time>
      </trkpt>
      <trkpt lat="47.28791" lon="-2.37059">
        <ele>-73.199996948242</ele>
        <time>2021-11-04T11:10:32.000Z</time>
      </trkpt>
      <trkpt lat="47.28785" lon="-2.37045">
        <ele>-72.800003051758</ele>
        <time>2021-11-04T11:10:37.000Z</time>
      </trkpt>
      <trkpt lat="47.28785" lon="-2.37042">
        <ele>-72.400001525879</ele>
        <time>2021-11-04T11:10:38.000Z</time>
      </trkpt>
      <trkpt lat="47.28784" lon="-2.37038">
        <ele>-72</ele>
        <time>2021-11-04T11:10:39.000Z</time>
      </trkpt>
      <trkpt lat="47.28782" lon="-2.37035">
        <ele>-71.599998474121</ele>
        <time>2021-11-04T11:10:40.000Z</time>
      </trkpt>
      <trkpt lat="47.28781" lon="-2.37031">
        <ele>-71.199996948242</ele>
        <time>2021-11-04T11:10:41.000Z</time>
      </trkpt>
      <trkpt lat="47.28776" lon="-2.37012">
        <ele>-71.199996948242</ele>
        <time>2021-11-04T11:10:45.000Z</time>
      </trkpt>
      <trkpt lat="47.28771" lon="-2.37003">
        <ele>-71.199996948242</ele>
        <time>2021-11-04T11:10:49.000Z</time>
      </trkpt>
      <trkpt lat="47.28768" lon="-2.37001">
        <ele>-70.400001525879</ele>
        <time>2021-11-04T11:10:50.000Z</time>
      </trkpt>
      <trkpt lat="47.28766" lon="-2.36999">
        <ele>-70</ele>
        <time>2021-11-04T11:10:51.000Z</time>
      </trkpt>
      <trkpt lat="47.28764" lon="-2.36995">
        <ele>-69.599998474121</ele>
        <time>2021-11-04T11:10:52.000Z</time>
      </trkpt>
      <trkpt lat="47.28763" lon="-2.36992">
        <ele>-69.199996948242</ele>
        <time>2021-11-04T11:10:53.000Z</time>
      </trkpt>
      <trkpt lat="47.2876" lon="-2.36984">
        <ele>-69.199996948242</ele>
        <time>2021-11-04T11:10:55.000Z</time>
      </trkpt>
      <trkpt lat="47.28757" lon="-2.36968">
        <ele>-69.199996948242</ele>
        <time>2021-11-04T11:11:00.000Z</time>
      </trkpt>
      <trkpt lat="47.28757" lon="-2.36964">
        <ele>-69.599998474121</ele>
        <time>2021-11-04T11:11:01.000Z</time>
      </trkpt>
      <trkpt lat="47.28756" lon="-2.36961">
        <ele>-70.199996948242</ele>
        <time>2021-11-04T11:11:02.000Z</time>
      </trkpt>
      <trkpt lat="47.28754" lon="-2.36955">
        <ele>-70.800003051758</ele>
        <time>2021-11-04T11:11:03.000Z</time>
      </trkpt>
      <trkpt lat="47.28752" lon="-2.3695">
        <ele>-71.199996948242</ele>
        <time>2021-11-04T11:11:04.000Z</time>
      </trkpt>
      <trkpt lat="47.28749" lon="-2.36944">
        <ele>-71.800003051758</ele>
        <time>2021-11-04T11:11:05.000Z</time>
      </trkpt>
      <trkpt lat="47.28745" lon="-2.36938">
        <ele>-72.400001525879</ele>
        <time>2021-11-04T11:11:06.000Z</time>
      </trkpt>
      <trkpt lat="47.2874" lon="-2.36932">
        <ele>-72.800003051758</ele>
        <time>2021-11-04T11:11:07.000Z</time>
      </trkpt>
      <trkpt lat="47.28734" lon="-2.36928">
        <ele>-73.400001525879</ele>
        <time>2021-11-04T11:11:08.000Z</time>
      </trkpt>
      <trkpt lat="47.2873" lon="-2.36923">
        <ele>-74</ele>
        <time>2021-11-04T11:11:09.000Z</time>
      </trkpt>
      <trkpt lat="47.28715" lon="-2.36901">
        <ele>-74</ele>
        <time>2021-11-04T11:11:13.000Z</time>
      </trkpt>
      <trkpt lat="47.28702" lon="-2.3688">
        <ele>-73.599998474121</ele>
        <time>2021-11-04T11:11:17.000Z</time>
      </trkpt>
      <trkpt lat="47.28699" lon="-2.36876">
        <ele>-73.199996948242</ele>
        <time>2021-11-04T11:11:18.000Z</time>
      </trkpt>
      <trkpt lat="47.28697" lon="-2.3687">
        <ele>-72.800003051758</ele>
        <time>2021-11-04T11:11:19.000Z</time>
      </trkpt>
      <trkpt lat="47.28694" lon="-2.36865">
        <ele>-72.400001525879</ele>
        <time>2021-11-04T11:11:20.000Z</time>
      </trkpt>
      <trkpt lat="47.28692" lon="-2.36859">
        <ele>-72</ele>
        <time>2021-11-04T11:11:21.000Z</time>
      </trkpt>
      <trkpt lat="47.28684" lon="-2.36842">
        <ele>-72</ele>
        <time>2021-11-04T11:11:25.000Z</time>
      </trkpt>
      <trkpt lat="47.28673" lon="-2.36817">
        <ele>-72</ele>
        <time>2021-11-04T11:11:31.000Z</time>
      </trkpt>
      <trkpt lat="47.28672" lon="-2.36814">
        <ele>-71.599998474121</ele>
        <time>2021-11-04T11:11:32.000Z</time>
      </trkpt>
      <trkpt lat="47.2867" lon="-2.3681">
        <ele>-71.199996948242</ele>
        <time>2021-11-04T11:11:33.000Z</time>
      </trkpt>
      <trkpt lat="47.28668" lon="-2.36808">
        <ele>-70.599998474121</ele>
        <time>2021-11-04T11:11:34.000Z</time>
      </trkpt>
      <trkpt lat="47.28666" lon="-2.36805">
        <ele>-70.199996948242</ele>
        <time>2021-11-04T11:11:35.000Z</time>
      </trkpt>
      <trkpt lat="47.28665" lon="-2.36804">
        <ele>-69.800003051758</ele>
        <time>2021-11-04T11:11:36.000Z</time>
      </trkpt>
      <trkpt lat="47.28656" lon="-2.368">
        <ele>-69.800003051758</ele>
        <time>2021-11-04T11:11:40.000Z</time>
      </trkpt>
      <trkpt lat="47.28642" lon="-2.3681">
        <ele>-69.800003051758</ele>
        <time>2021-11-04T11:11:44.000Z</time>
      </trkpt>
      <trkpt lat="47.28638" lon="-2.36814">
        <ele>-69.800003051758</ele>
        <time>2021-11-04T11:11:45.000Z</time>
      </trkpt>
      <trkpt lat="47.28612" lon="-2.36841">
        <ele>-69.800003051758</ele>
        <time>2021-11-04T11:11:51.000Z</time>
      </trkpt>
      <trkpt lat="47.28597" lon="-2.36842">
        <ele>-69.800003051758</ele>
        <time>2021-11-04T11:11:54.000Z</time>
      </trkpt>
      <trkpt lat="47.28593" lon="-2.36837">
        <ele>-70.199996948242</ele>
        <time>2021-11-04T11:11:55.000Z</time>
      </trkpt>
      <trkpt lat="47.28589" lon="-2.36832">
        <ele>-70.599998474121</ele>
        <time>2021-11-04T11:11:56.000Z</time>
      </trkpt>
      <trkpt lat="47.28586" lon="-2.36826">
        <ele>-71</ele>
        <time>2021-11-04T11:11:57.000Z</time>
      </trkpt>
      <trkpt lat="47.28583" lon="-2.36821">
        <ele>-71.400001525879</ele>
        <time>2021-11-04T11:11:58.000Z</time>
      </trkpt>
      <trkpt lat="47.2858" lon="-2.36815">
        <ele>-71.800003051758</ele>
        <time>2021-11-04T11:11:59.000Z</time>
      </trkpt>
      <trkpt lat="47.28568" lon="-2.36791">
        <ele>-71.800003051758</ele>
        <time>2021-11-04T11:12:03.000Z</time>
      </trkpt>
      <trkpt lat="47.28549" lon="-2.36752">
        <ele>-71.800003051758</ele>
        <time>2021-11-04T11:12:10.000Z</time>
      </trkpt>
      <trkpt lat="47.28545" lon="-2.36742">
        <ele>-71.400001525879</ele>
        <time>2021-11-04T11:12:12.000Z</time>
      </trkpt>
      <trkpt lat="47.28542" lon="-2.36737">
        <ele>-71</ele>
        <time>2021-11-04T11:12:13.000Z</time>
      </trkpt>
      <trkpt lat="47.2854" lon="-2.36732">
        <ele>-70.599998474121</ele>
        <time>2021-11-04T11:12:14.000Z</time>
      </trkpt>
      <trkpt lat="47.28537" lon="-2.36727">
        <ele>-70.199996948242</ele>
        <time>2021-11-04T11:12:15.000Z</time>
      </trkpt>
      <trkpt lat="47.28535" lon="-2.36723">
        <ele>-69.800003051758</ele>
        <time>2021-11-04T11:12:16.000Z</time>
      </trkpt>
      <trkpt lat="47.28526" lon="-2.36707">
        <ele>-69.400001525879</ele>
        <time>2021-11-04T11:12:20.000Z</time>
      </trkpt>
      <trkpt lat="47.28524" lon="-2.36703">
        <ele>-69</ele>
        <time>2021-11-04T11:12:21.000Z</time>
      </trkpt>
      <trkpt lat="47.28522" lon="-2.36699">
        <ele>-68.599998474121</ele>
        <time>2021-11-04T11:12:22.000Z</time>
      </trkpt>
      <trkpt lat="47.2852" lon="-2.36697">
        <ele>-68.199996948242</ele>
        <time>2021-11-04T11:12:23.000Z</time>
      </trkpt>
      <trkpt lat="47.28518" lon="-2.36694">
        <ele>-67.800003051758</ele>
        <time>2021-11-04T11:12:24.000Z</time>
      </trkpt>
      <trkpt lat="47.28514" lon="-2.36688">
        <ele>-67.800003051758</ele>
        <time>2021-11-04T11:12:27.000Z</time>
      </trkpt>
      <trkpt lat="47.28511" lon="-2.36686">
        <ele>-67.800003051758</ele>
        <time>2021-11-04T11:12:29.000Z</time>
      </trkpt>
      <trkpt lat="47.28506" lon="-2.36681">
        <ele>-67.800003051758</ele>
        <time>2021-11-04T11:12:32.000Z</time>
      </trkpt>
      <trkpt lat="47.28499" lon="-2.36678">
        <ele>-67.800003051758</ele>
        <time>2021-11-04T11:12:37.000Z</time>
      </trkpt>
      <trkpt lat="47.28496" lon="-2.36669">
        <ele>-67.199996948242</ele>
        <time>2021-11-04T11:12:39.000Z</time>
      </trkpt>
      <trkpt lat="47.28495" lon="-2.36664">
        <ele>-66.800003051758</ele>
        <time>2021-11-04T11:12:40.000Z</time>
      </trkpt>
      <trkpt lat="47.28493" lon="-2.36659">
        <ele>-66.400001525879</ele>
        <time>2021-11-04T11:12:41.000Z</time>
      </trkpt>
      <trkpt lat="47.28492" lon="-2.36654">
        <ele>-66</ele>
        <time>2021-11-04T11:12:42.000Z</time>
      </trkpt>
      <trkpt lat="47.28491" lon="-2.36649">
        <ele>-65.599998474121</ele>
        <time>2021-11-04T11:12:43.000Z</time>
      </trkpt>
      <trkpt lat="47.28482" lon="-2.36623">
        <ele>-65.599998474121</ele>
        <time>2021-11-04T11:12:48.000Z</time>
      </trkpt>
      <trkpt lat="47.2847" lon="-2.36574">
        <ele>-65.599998474121</ele>
        <time>2021-11-04T11:12:57.000Z</time>
      </trkpt>
      <trkpt lat="47.28475" lon="-2.36558">
        <ele>-65.599998474121</ele>
        <time>2021-11-04T11:13:00.000Z</time>
      </trkpt>
      <trkpt lat="47.28478" lon="-2.36553">
        <ele>-65.599998474121</ele>
        <time>2021-11-04T11:13:01.000Z</time>
      </trkpt>
      <trkpt lat="47.28488" lon="-2.3654">
        <ele>-65.599998474121</ele>
        <time>2021-11-04T11:13:04.000Z</time>
      </trkpt>
      <trkpt lat="47.28497" lon="-2.36528">
        <ele>-65.599998474121</ele>
        <time>2021-11-04T11:13:07.000Z</time>
      </trkpt>
      <trkpt lat="47.28504" lon="-2.3652">
        <ele>-65.199996948242</ele>
        <time>2021-11-04T11:13:09.000Z</time>
      </trkpt>
      <trkpt lat="47.28507" lon="-2.36517">
        <ele>-64.800003051758</ele>
        <time>2021-11-04T11:13:10.000Z</time>
      </trkpt>
      <trkpt lat="47.2851" lon="-2.36514">
        <ele>-64.400001525879</ele>
        <time>2021-11-04T11:13:11.000Z</time>
      </trkpt>
      <trkpt lat="47.28512" lon="-2.36511">
        <ele>-64</ele>
        <time>2021-11-04T11:13:12.000Z</time>
      </trkpt>
      <trkpt lat="47.28515" lon="-2.36508">
        <ele>-63.599998474121</ele>
        <time>2021-11-04T11:13:13.000Z</time>
      </trkpt>
      <trkpt lat="47.2852" lon="-2.36494">
        <ele>-63.599998474121</ele>
        <time>2021-11-04T11:13:17.000Z</time>
      </trkpt>
      <trkpt lat="47.2852" lon="-2.3649">
        <ele>-63.599998474121</ele>
        <time>2021-11-04T11:13:18.000Z</time>
      </trkpt>
      <trkpt lat="47.2852" lon="-2.36486">
        <ele>-62.799999237061</ele>
        <time>2021-11-04T11:13:19.000Z</time>
      </trkpt>
      <trkpt lat="47.2852" lon="-2.36481">
        <ele>-62.200000762939</ele>
        <time>2021-11-04T11:13:20.000Z</time>
      </trkpt>
      <trkpt lat="47.2852" lon="-2.36477">
        <ele>-61.799999237061</ele>
        <time>2021-11-04T11:13:21.000Z</time>
      </trkpt>
      <trkpt lat="47.28519" lon="-2.36472">
        <ele>-61.400001525879</ele>
        <time>2021-11-04T11:13:22.000Z</time>
      </trkpt>
      <trkpt lat="47.28517" lon="-2.36463">
        <ele>-61.400001525879</ele>
        <time>2021-11-04T11:13:24.000Z</time>
      </trkpt>
      <trkpt lat="47.28506" lon="-2.36445">
        <ele>-61.400001525879</ele>
        <time>2021-11-04T11:13:28.000Z</time>
      </trkpt>
      <trkpt lat="47.28487" lon="-2.36433">
        <ele>-61.400001525879</ele>
        <time>2021-11-04T11:13:33.000Z</time>
      </trkpt>
      <trkpt lat="47.28476" lon="-2.36422">
        <ele>-61.400001525879</ele>
        <time>2021-11-04T11:13:38.000Z</time>
      </trkpt>
      <trkpt lat="47.28474" lon="-2.3642">
        <ele>-61</ele>
        <time>2021-11-04T11:13:39.000Z</time>
      </trkpt>
      <trkpt lat="47.28472" lon="-2.36419">
        <ele>-60.599998474121</ele>
        <time>2021-11-04T11:13:40.000Z</time>
      </trkpt>
      <trkpt lat="47.28471" lon="-2.36418">
        <ele>-60.200000762939</ele>
        <time>2021-11-04T11:13:41.000Z</time>
      </trkpt>
      <trkpt lat="47.28469" lon="-2.36417">
        <ele>-59.799999237061</ele>
        <time>2021-11-04T11:13:42.000Z</time>
      </trkpt>
      <trkpt lat="47.28468" lon="-2.36416">
        <ele>-59.400001525879</ele>
        <time>2021-11-04T11:13:43.000Z</time>
      </trkpt>
      <trkpt lat="47.28466" lon="-2.36415">
        <ele>-59.400001525879</ele>
        <time>2021-11-04T11:13:44.000Z</time>
      </trkpt>
      <trkpt lat="47.28457" lon="-2.36407">
        <ele>-59.400001525879</ele>
        <time>2021-11-04T11:13:47.000Z</time>
      </trkpt>
      <trkpt lat="47.28436" lon="-2.3639">
        <ele>-59.400001525879</ele>
        <time>2021-11-04T11:13:52.000Z</time>
      </trkpt>
      <trkpt lat="47.28433" lon="-2.36386">
        <ele>-59.799999237061</ele>
        <time>2021-11-04T11:13:53.000Z</time>
      </trkpt>
      <trkpt lat="47.28428" lon="-2.36381">
        <ele>-60.200000762939</ele>
        <time>2021-11-04T11:13:54.000Z</time>
      </trkpt>
      <trkpt lat="47.28423" lon="-2.36374">
        <ele>-60.799999237061</ele>
        <time>2021-11-04T11:13:55.000Z</time>
      </trkpt>
      <trkpt lat="47.28419" lon="-2.36367">
        <ele>-61.200000762939</ele>
        <time>2021-11-04T11:13:56.000Z</time>
      </trkpt>
      <trkpt lat="47.28416" lon="-2.36361">
        <ele>-61.599998474121</ele>
        <time>2021-11-04T11:13:57.000Z</time>
      </trkpt>
      <trkpt lat="47.28412" lon="-2.36355">
        <ele>-61.599998474121</ele>
        <time>2021-11-04T11:13:58.000Z</time>
      </trkpt>
      <trkpt lat="47.28398" lon="-2.36344">
        <ele>-61.599998474121</ele>
        <time>2021-11-04T11:14:01.000Z</time>
      </trkpt>
      <trkpt lat="47.28393" lon="-2.36339">
        <ele>-61.599998474121</ele>
        <time>2021-11-04T11:14:02.000Z</time>
      </trkpt>
      <trkpt lat="47.28374" lon="-2.36323">
        <ele>-61.599998474121</ele>
        <time>2021-11-04T11:14:06.000Z</time>
      </trkpt>
      <trkpt lat="47.28365" lon="-2.36316">
        <ele>-62.400001525879</ele>
        <time>2021-11-04T11:14:08.000Z</time>
      </trkpt>
      <trkpt lat="47.28362" lon="-2.36311">
        <ele>-62.799999237061</ele>
        <time>2021-11-04T11:14:09.000Z</time>
      </trkpt>
      <trkpt lat="47.2836" lon="-2.36306">
        <ele>-63.200000762939</ele>
        <time>2021-11-04T11:14:10.000Z</time>
      </trkpt>
      <trkpt lat="47.2836" lon="-2.36297">
        <ele>-63.599998474121</ele>
        <time>2021-11-04T11:14:11.000Z</time>
      </trkpt>
      <trkpt lat="47.28359" lon="-2.36263">
        <ele>-64</ele>
        <time>2021-11-04T11:14:17.000Z</time>
      </trkpt>
      <trkpt lat="47.28357" lon="-2.36258">
        <ele>-64.400001525879</ele>
        <time>2021-11-04T11:14:18.000Z</time>
      </trkpt>
      <trkpt lat="47.28354" lon="-2.36254">
        <ele>-64.800003051758</ele>
        <time>2021-11-04T11:14:19.000Z</time>
      </trkpt>
      <trkpt lat="47.28351" lon="-2.3625">
        <ele>-65.199996948242</ele>
        <time>2021-11-04T11:14:20.000Z</time>
      </trkpt>
      <trkpt lat="47.28348" lon="-2.36246">
        <ele>-65.599998474121</ele>
        <time>2021-11-04T11:14:21.000Z</time>
      </trkpt>
      <trkpt lat="47.28334" lon="-2.36233">
        <ele>-65.599998474121</ele>
        <time>2021-11-04T11:14:24.000Z</time>
      </trkpt>
      <trkpt lat="47.28313" lon="-2.36237">
        <ele>-65.599998474121</ele>
        <time>2021-11-04T11:14:26.000Z</time>
      </trkpt>
      <trkpt lat="47.28298" lon="-2.3624">
        <ele>-65.599998474121</ele>
        <time>2021-11-04T11:14:28.000Z</time>
      </trkpt>
      <trkpt lat="47.28292" lon="-2.36239">
        <ele>-66</ele>
        <time>2021-11-04T11:14:29.000Z</time>
      </trkpt>
      <trkpt lat="47.28286" lon="-2.36236">
        <ele>-66.400001525879</ele>
        <time>2021-11-04T11:14:30.000Z</time>
      </trkpt>
      <trkpt lat="47.28281" lon="-2.36231">
        <ele>-66.800003051758</ele>
        <time>2021-11-04T11:14:31.000Z</time>
      </trkpt>
      <trkpt lat="47.28277" lon="-2.36225">
        <ele>-67.400001525879</ele>
        <time>2021-11-04T11:14:32.000Z</time>
      </trkpt>
      <trkpt lat="47.28274" lon="-2.36219">
        <ele>-67.800003051758</ele>
        <time>2021-11-04T11:14:33.000Z</time>
      </trkpt>
      <trkpt lat="47.28268" lon="-2.36206">
        <ele>-67.800003051758</ele>
        <time>2021-11-04T11:14:35.000Z</time>
      </trkpt>
      <trkpt lat="47.28265" lon="-2.362">
        <ele>-67.800003051758</ele>
        <time>2021-11-04T11:14:36.000Z</time>
      </trkpt>
      <trkpt lat="47.2826" lon="-2.36187">
        <ele>-67.800003051758</ele>
        <time>2021-11-04T11:14:38.000Z</time>
      </trkpt>
      <trkpt lat="47.2825" lon="-2.36154">
        <ele>-67.800003051758</ele>
        <time>2021-11-04T11:14:43.000Z</time>
      </trkpt>
      <trkpt lat="47.28244" lon="-2.36137">
        <ele>-67.800003051758</ele>
        <time>2021-11-04T11:14:47.000Z</time>
      </trkpt>
      <trkpt lat="47.28238" lon="-2.36124">
        <ele>-67.800003051758</ele>
        <time>2021-11-04T11:14:52.000Z</time>
      </trkpt>
      <trkpt lat="47.28228" lon="-2.3611">
        <ele>-67.800003051758</ele>
        <time>2021-11-04T11:14:57.000Z</time>
      </trkpt>
      <trkpt lat="47.28224" lon="-2.36103">
        <ele>-67.800003051758</ele>
        <time>2021-11-04T11:14:59.000Z</time>
      </trkpt>
      <trkpt lat="47.28221" lon="-2.36091">
        <ele>-67.800003051758</ele>
        <time>2021-11-04T11:15:01.000Z</time>
      </trkpt>
      <trkpt lat="47.2821" lon="-2.36059">
        <ele>-67.800003051758</ele>
        <time>2021-11-04T11:15:06.000Z</time>
      </trkpt>
      <trkpt lat="47.28197" lon="-2.36029">
        <ele>-67.800003051758</ele>
        <time>2021-11-04T11:15:12.000Z</time>
      </trkpt>
      <trkpt lat="47.28185" lon="-2.35992">
        <ele>-67.800003051758</ele>
        <time>2021-11-04T11:15:18.000Z</time>
      </trkpt>
      <trkpt lat="47.28177" lon="-2.35969">
        <ele>-67.800003051758</ele>
        <time>2021-11-04T11:15:23.000Z</time>
      </trkpt>
      <trkpt lat="47.28167" lon="-2.35953">
        <ele>-67.800003051758</ele>
        <time>2021-11-04T11:15:27.000Z</time>
      </trkpt>
      <trkpt lat="47.28155" lon="-2.35931">
        <ele>-67.800003051758</ele>
        <time>2021-11-04T11:15:33.000Z</time>
      </trkpt>
      <trkpt lat="47.28148" lon="-2.35922">
        <ele>-67.400001525879</ele>
        <time>2021-11-04T11:15:36.000Z</time>
      </trkpt>
      <trkpt lat="47.28147" lon="-2.35919">
        <ele>-67</ele>
        <time>2021-11-04T11:15:37.000Z</time>
      </trkpt>
      <trkpt lat="47.28145" lon="-2.35916">
        <ele>-66.599998474121</ele>
        <time>2021-11-04T11:15:38.000Z</time>
      </trkpt>
      <trkpt lat="47.28144" lon="-2.35913">
        <ele>-66.199996948242</ele>
        <time>2021-11-04T11:15:39.000Z</time>
      </trkpt>
      <trkpt lat="47.28142" lon="-2.35911">
        <ele>-65.800003051758</ele>
        <time>2021-11-04T11:15:40.000Z</time>
      </trkpt>
      <trkpt lat="47.28128" lon="-2.35893">
        <ele>-65.800003051758</ele>
        <time>2021-11-04T11:15:46.000Z</time>
      </trkpt>
      <trkpt lat="47.28116" lon="-2.35869">
        <ele>-65.800003051758</ele>
        <time>2021-11-04T11:15:51.000Z</time>
      </trkpt>
      <trkpt lat="47.28102" lon="-2.35848">
        <ele>-65.800003051758</ele>
        <time>2021-11-04T11:15:57.000Z</time>
      </trkpt>
      <trkpt lat="47.28088" lon="-2.35828">
        <ele>-65.800003051758</ele>
        <time>2021-11-04T11:16:02.000Z</time>
      </trkpt>
      <trkpt lat="47.28076" lon="-2.35804">
        <ele>-65.800003051758</ele>
        <time>2021-11-04T11:16:07.000Z</time>
      </trkpt>
      <trkpt lat="47.2808" lon="-2.35788">
        <ele>-65.800003051758</ele>
        <time>2021-11-04T11:16:11.000Z</time>
      </trkpt>
      <trkpt lat="47.28084" lon="-2.35765">
        <ele>-65.800003051758</ele>
        <time>2021-11-04T11:16:16.000Z</time>
      </trkpt>
      <trkpt lat="47.28086" lon="-2.35749">
        <ele>-65.199996948242</ele>
        <time>2021-11-04T11:16:19.000Z</time>
      </trkpt>
      <trkpt lat="47.28087" lon="-2.35744">
        <ele>-64.800003051758</ele>
        <time>2021-11-04T11:16:20.000Z</time>
      </trkpt>
      <trkpt lat="47.28088" lon="-2.35738">
        <ele>-64.400001525879</ele>
        <time>2021-11-04T11:16:21.000Z</time>
      </trkpt>
      <trkpt lat="47.28089" lon="-2.35733">
        <ele>-64</ele>
        <time>2021-11-04T11:16:22.000Z</time>
      </trkpt>
      <trkpt lat="47.28091" lon="-2.35727">
        <ele>-63.599998474121</ele>
        <time>2021-11-04T11:16:23.000Z</time>
      </trkpt>
      <trkpt lat="47.28094" lon="-2.35707">
        <ele>-63.599998474121</ele>
        <time>2021-11-04T11:16:27.000Z</time>
      </trkpt>
      <trkpt lat="47.28092" lon="-2.35681">
        <ele>-63.599998474121</ele>
        <time>2021-11-04T11:16:32.000Z</time>
      </trkpt>
      <trkpt lat="47.2809" lon="-2.35674">
        <ele>-63.599998474121</ele>
        <time>2021-11-04T11:16:33.000Z</time>
      </trkpt>
      <trkpt lat="47.28083" lon="-2.35651">
        <ele>-63.599998474121</ele>
        <time>2021-11-04T11:16:36.000Z</time>
      </trkpt>
      <trkpt lat="47.28079" lon="-2.35638">
        <ele>-63.599998474121</ele>
        <time>2021-11-04T11:16:38.000Z</time>
      </trkpt>
      <trkpt lat="47.28078" lon="-2.35632">
        <ele>-64</ele>
        <time>2021-11-04T11:16:39.000Z</time>
      </trkpt>
      <trkpt lat="47.28077" lon="-2.35626">
        <ele>-64.400001525879</ele>
        <time>2021-11-04T11:16:40.000Z</time>
      </trkpt>
      <trkpt lat="47.28077" lon="-2.3562">
        <ele>-65</ele>
        <time>2021-11-04T11:16:41.000Z</time>
      </trkpt>
      <trkpt lat="47.28076" lon="-2.35614">
        <ele>-65.400001525879</ele>
        <time>2021-11-04T11:16:42.000Z</time>
      </trkpt>
      <trkpt lat="47.28075" lon="-2.35608">
        <ele>-66</ele>
        <time>2021-11-04T11:16:43.000Z</time>
      </trkpt>
      <trkpt lat="47.28074" lon="-2.35604">
        <ele>-66.400001525879</ele>
        <time>2021-11-04T11:16:44.000Z</time>
      </trkpt>
      <trkpt lat="47.28074" lon="-2.35599">
        <ele>-67</ele>
        <time>2021-11-04T11:16:45.000Z</time>
      </trkpt>
      <trkpt lat="47.28074" lon="-2.35596">
        <ele>-67.400001525879</ele>
        <time>2021-11-04T11:16:46.000Z</time>
      </trkpt>
      <trkpt lat="47.28073" lon="-2.35593">
        <ele>-68</ele>
        <time>2021-11-04T11:16:47.000Z</time>
      </trkpt>
      <trkpt lat="47.28074" lon="-2.35591">
        <ele>-68</ele>
        <time>2021-11-04T11:16:48.000Z</time>
      </trkpt>
      <trkpt lat="47.28077" lon="-2.3559">
        <ele>-68</ele>
        <time>2021-11-04T11:16:50.000Z</time>
      </trkpt>
      <trkpt lat="47.28082" lon="-2.35598">
        <ele>-68</ele>
        <time>2021-11-04T11:16:55.000Z</time>
      </trkpt>
      <trkpt lat="47.28086" lon="-2.35606">
        <ele>-68</ele>
        <time>2021-11-04T11:16:59.000Z</time>
      </trkpt>
      <trkpt lat="47.28086" lon="-2.35608">
        <ele>-68</ele>
        <time>2021-11-04T11:17:00.000Z</time>
      </trkpt>
      <trkpt lat="47.28087" lon="-2.35609">
        <ele>-68</ele>
        <time>2021-11-04T11:17:01.000Z</time>
      </trkpt>
      <trkpt lat="47.2809" lon="-2.35617">
        <ele>-68</ele>
        <time>2021-11-04T11:17:08.000Z</time>
      </trkpt>
      <trkpt lat="47.28086" lon="-2.35613">
        <ele>-72</ele>
        <time>2021-11-04T11:30:47.000Z</time>
      </trkpt>
      <trkpt lat="47.28076" lon="-2.35609">
        <ele>-72</ele>
        <time>2021-11-04T11:30:51.000Z</time>
      </trkpt>
      <trkpt lat="47.28064" lon="-2.3561">
        <ele>-72</ele>
        <time>2021-11-04T11:30:56.000Z</time>
      </trkpt>
      <trkpt lat="47.28062" lon="-2.35607">
        <ele>-72</ele>
        <time>2021-11-04T11:31:00.000Z</time>
      </trkpt>
      <trkpt lat="47.28061" lon="-2.35607">
        <ele>-72</ele>
        <time>2021-11-04T11:31:01.000Z</time>
      </trkpt>
      <trkpt lat="47.28057" lon="-2.35604">
        <ele>-72</ele>
        <time>2021-11-04T11:31:06.000Z</time>
      </trkpt>
      <trkpt lat="47.28053" lon="-2.35601">
        <ele>-72</ele>
        <time>2021-11-04T11:31:08.000Z</time>
      </trkpt>
      <trkpt lat="47.28034" lon="-2.35599">
        <ele>-72</ele>
        <time>2021-11-04T11:31:14.000Z</time>
      </trkpt>
      <trkpt lat="47.28016" lon="-2.35603">
        <ele>-72</ele>
        <time>2021-11-04T11:31:20.000Z</time>
      </trkpt>
      <trkpt lat="47.27993" lon="-2.35601">
        <ele>-72</ele>
        <time>2021-11-04T11:31:26.000Z</time>
      </trkpt>
      <trkpt lat="47.27982" lon="-2.35595">
        <ele>-72.400001525879</ele>
        <time>2021-11-04T11:31:29.000Z</time>
      </trkpt>
      <trkpt lat="47.27979" lon="-2.35592">
        <ele>-73</ele>
        <time>2021-11-04T11:31:30.000Z</time>
      </trkpt>
      <trkpt lat="47.27977" lon="-2.3559">
        <ele>-73.400001525879</ele>
        <time>2021-11-04T11:31:31.000Z</time>
      </trkpt>
      <trkpt lat="47.27975" lon="-2.35587">
        <ele>-73.800003051758</ele>
        <time>2021-11-04T11:31:32.000Z</time>
      </trkpt>
      <trkpt lat="47.27972" lon="-2.35584">
        <ele>-74.199996948242</ele>
        <time>2021-11-04T11:31:33.000Z</time>
      </trkpt>
      <trkpt lat="47.27967" lon="-2.35581">
        <ele>-74.199996948242</ele>
        <time>2021-11-04T11:31:34.000Z</time>
      </trkpt>
      <trkpt lat="47.27946" lon="-2.35579">
        <ele>-74.199996948242</ele>
        <time>2021-11-04T11:31:38.000Z</time>
      </trkpt>
      <trkpt lat="47.27914" lon="-2.35588">
        <ele>-74.199996948242</ele>
        <time>2021-11-04T11:31:44.000Z</time>
      </trkpt>
      <trkpt lat="47.27869" lon="-2.35599">
        <ele>-74.599998474121</ele>
        <time>2021-11-04T11:31:51.000Z</time>
      </trkpt>
      <trkpt lat="47.27862" lon="-2.35601">
        <ele>-75.599998474121</ele>
        <time>2021-11-04T11:31:52.000Z</time>
      </trkpt>
      <trkpt lat="47.27855" lon="-2.35603">
        <ele>-76</ele>
        <time>2021-11-04T11:31:53.000Z</time>
      </trkpt>
      <trkpt lat="47.27848" lon="-2.35605">
        <ele>-76.400001525879</ele>
        <time>2021-11-04T11:31:54.000Z</time>
      </trkpt>
      <trkpt lat="47.27814" lon="-2.35614">
        <ele>-76.800003051758</ele>
        <time>2021-11-04T11:31:59.000Z</time>
      </trkpt>
      <trkpt lat="47.27808" lon="-2.35616">
        <ele>-77.400001525879</ele>
        <time>2021-11-04T11:32:00.000Z</time>
      </trkpt>
      <trkpt lat="47.27801" lon="-2.35618">
        <ele>-77.800003051758</ele>
        <time>2021-11-04T11:32:01.000Z</time>
      </trkpt>
      <trkpt lat="47.27794" lon="-2.35621">
        <ele>-78.199996948242</ele>
        <time>2021-11-04T11:32:02.000Z</time>
      </trkpt>
      <trkpt lat="47.27787" lon="-2.35624">
        <ele>-78.599998474121</ele>
        <time>2021-11-04T11:32:03.000Z</time>
      </trkpt>
      <trkpt lat="47.27774" lon="-2.35633">
        <ele>-78.599998474121</ele>
        <time>2021-11-04T11:32:05.000Z</time>
      </trkpt>
      <trkpt lat="47.27748" lon="-2.35666">
        <ele>-79</ele>
        <time>2021-11-04T11:32:10.000Z</time>
      </trkpt>
      <trkpt lat="47.27744" lon="-2.35673">
        <ele>-79.400001525879</ele>
        <time>2021-11-04T11:32:11.000Z</time>
      </trkpt>
      <trkpt lat="47.27739" lon="-2.35681">
        <ele>-79.800003051758</ele>
        <time>2021-11-04T11:32:12.000Z</time>
      </trkpt>
      <trkpt lat="47.27734" lon="-2.35688">
        <ele>-80.199996948242</ele>
        <time>2021-11-04T11:32:13.000Z</time>
      </trkpt>
      <trkpt lat="47.27729" lon="-2.35695">
        <ele>-80.599998474121</ele>
        <time>2021-11-04T11:32:14.000Z</time>
      </trkpt>
      <trkpt lat="47.27708" lon="-2.3572">
        <ele>-80.599998474121</ele>
        <time>2021-11-04T11:32:18.000Z</time>
      </trkpt>
      <trkpt lat="47.27685" lon="-2.35741">
        <ele>-81</ele>
        <time>2021-11-04T11:32:22.000Z</time>
      </trkpt>
      <trkpt lat="47.2768" lon="-2.35746">
        <ele>-81.599998474121</ele>
        <time>2021-11-04T11:32:23.000Z</time>
      </trkpt>
      <trkpt lat="47.27674" lon="-2.35747">
        <ele>-82</ele>
        <time>2021-11-04T11:32:24.000Z</time>
      </trkpt>
      <trkpt lat="47.27669" lon="-2.35744">
        <ele>-82.400001525879</ele>
        <time>2021-11-04T11:32:25.000Z</time>
      </trkpt>
      <trkpt lat="47.27664" lon="-2.35741">
        <ele>-82.800003051758</ele>
        <time>2021-11-04T11:32:26.000Z</time>
      </trkpt>
      <trkpt lat="47.27648" lon="-2.35724">
        <ele>-82.800003051758</ele>
        <time>2021-11-04T11:32:29.000Z</time>
      </trkpt>
      <trkpt lat="47.27634" lon="-2.35719">
        <ele>-82.800003051758</ele>
        <time>2021-11-04T11:32:31.000Z</time>
      </trkpt>
      <trkpt lat="47.27612" lon="-2.35713">
        <ele>-82.800003051758</ele>
        <time>2021-11-04T11:32:34.000Z</time>
      </trkpt>
      <trkpt lat="47.27585" lon="-2.35705">
        <ele>-83.199996948242</ele>
        <time>2021-11-04T11:32:38.000Z</time>
      </trkpt>
      <trkpt lat="47.27578" lon="-2.35704">
        <ele>-83.599998474121</ele>
        <time>2021-11-04T11:32:39.000Z</time>
      </trkpt>
      <trkpt lat="47.2757" lon="-2.35702">
        <ele>-84.199996948242</ele>
        <time>2021-11-04T11:32:40.000Z</time>
      </trkpt>
      <trkpt lat="47.27564" lon="-2.357">
        <ele>-85</ele>
        <time>2021-11-04T11:32:41.000Z</time>
      </trkpt>
      <trkpt lat="47.27551" lon="-2.35696">
        <ele>-85</ele>
        <time>2021-11-04T11:32:43.000Z</time>
      </trkpt>
      <trkpt lat="47.275" lon="-2.35683">
        <ele>-85</ele>
        <time>2021-11-04T11:32:51.000Z</time>
      </trkpt>
      <trkpt lat="47.27485" lon="-2.3568">
        <ele>-85</ele>
        <time>2021-11-04T11:32:53.000Z</time>
      </trkpt>
      <trkpt lat="47.27479" lon="-2.35679">
        <ele>-85.400001525879</ele>
        <time>2021-11-04T11:32:54.000Z</time>
      </trkpt>
      <trkpt lat="47.27472" lon="-2.35677">
        <ele>-85.800003051758</ele>
        <time>2021-11-04T11:32:55.000Z</time>
      </trkpt>
      <trkpt lat="47.27465" lon="-2.35676">
        <ele>-86.199996948242</ele>
        <time>2021-11-04T11:32:56.000Z</time>
      </trkpt>
      <trkpt lat="47.27458" lon="-2.35674">
        <ele>-86.800003051758</ele>
        <time>2021-11-04T11:32:57.000Z</time>
      </trkpt>
      <trkpt lat="47.27451" lon="-2.35672">
        <ele>-87.199996948242</ele>
        <time>2021-11-04T11:32:58.000Z</time>
      </trkpt>
      <trkpt lat="47.27412" lon="-2.35665">
        <ele>-87.199996948242</ele>
        <time>2021-11-04T11:33:04.000Z</time>
      </trkpt>
      <trkpt lat="47.27406" lon="-2.35666">
        <ele>-87.199996948242</ele>
        <time>2021-11-04T11:33:05.000Z</time>
      </trkpt>
      <trkpt lat="47.27387" lon="-2.35675">
        <ele>-87.199996948242</ele>
        <time>2021-11-04T11:33:08.000Z</time>
      </trkpt>
      <trkpt lat="47.27381" lon="-2.3568">
        <ele>-87.199996948242</ele>
        <time>2021-11-04T11:33:09.000Z</time>
      </trkpt>
      <trkpt lat="47.27357" lon="-2.35699">
        <ele>-87.599998474121</ele>
        <time>2021-11-04T11:33:13.000Z</time>
      </trkpt>
      <trkpt lat="47.27351" lon="-2.35703">
        <ele>-88</ele>
        <time>2021-11-04T11:33:14.000Z</time>
      </trkpt>
      <trkpt lat="47.27344" lon="-2.35708">
        <ele>-88.400001525879</ele>
        <time>2021-11-04T11:33:15.000Z</time>
      </trkpt>
      <trkpt lat="47.27338" lon="-2.35712">
        <ele>-88.800003051758</ele>
        <time>2021-11-04T11:33:16.000Z</time>
      </trkpt>
      <trkpt lat="47.27333" lon="-2.35716">
        <ele>-89.199996948242</ele>
        <time>2021-11-04T11:33:17.000Z</time>
      </trkpt>
      <trkpt lat="47.27326" lon="-2.35724">
        <ele>-89.199996948242</ele>
        <time>2021-11-04T11:33:20.000Z</time>
      </trkpt>
      <trkpt lat="47.27325" lon="-2.35729">
        <ele>-89.199996948242</ele>
        <time>2021-11-04T11:33:24.000Z</time>
      </trkpt>
      <trkpt lat="47.27324" lon="-2.35732">
        <ele>-89.199996948242</ele>
        <time>2021-11-04T11:33:25.000Z</time>
      </trkpt>
      <trkpt lat="47.27318" lon="-2.35737">
        <ele>-89.199996948242</ele>
        <time>2021-11-04T11:33:28.000Z</time>
      </trkpt>
      <trkpt lat="47.27312" lon="-2.35738">
        <ele>-89.199996948242</ele>
        <time>2021-11-04T11:33:30.000Z</time>
      </trkpt>
      <trkpt lat="47.27309" lon="-2.35737">
        <ele>-89.199996948242</ele>
        <time>2021-11-04T11:33:31.000Z</time>
      </trkpt>
      <trkpt lat="47.27305" lon="-2.3573">
        <ele>-89.199996948242</ele>
        <time>2021-11-04T11:33:33.000Z</time>
      </trkpt>
      <trkpt lat="47.27296" lon="-2.35714">
        <ele>-89.199996948242</ele>
        <time>2021-11-04T11:33:38.000Z</time>
      </trkpt>
      <trkpt lat="47.27289" lon="-2.35691">
        <ele>-89.199996948242</ele>
        <time>2021-11-04T11:33:42.000Z</time>
      </trkpt>
      <trkpt lat="47.27267" lon="-2.35647">
        <ele>-89.199996948242</ele>
        <time>2021-11-04T11:33:50.000Z</time>
      </trkpt>
      <trkpt lat="47.27254" lon="-2.35617">
        <ele>-88.800003051758</ele>
        <time>2021-11-04T11:33:55.000Z</time>
      </trkpt>
      <trkpt lat="47.27252" lon="-2.35611">
        <ele>-88.400001525879</ele>
        <time>2021-11-04T11:33:56.000Z</time>
      </trkpt>
      <trkpt lat="47.27249" lon="-2.35605">
        <ele>-88</ele>
        <time>2021-11-04T11:33:57.000Z</time>
      </trkpt>
      <trkpt lat="47.27247" lon="-2.35599">
        <ele>-87.599998474121</ele>
        <time>2021-11-04T11:33:58.000Z</time>
      </trkpt>
      <trkpt lat="47.27244" lon="-2.35593">
        <ele>-87.199996948242</ele>
        <time>2021-11-04T11:33:59.000Z</time>
      </trkpt>
      <trkpt lat="47.27235" lon="-2.35575">
        <ele>-87.199996948242</ele>
        <time>2021-11-04T11:34:02.000Z</time>
      </trkpt>
      <trkpt lat="47.27227" lon="-2.35558">
        <ele>-87.199996948242</ele>
        <time>2021-11-04T11:34:05.000Z</time>
      </trkpt>
      <trkpt lat="47.27204" lon="-2.35508">
        <ele>-87.199996948242</ele>
        <time>2021-11-04T11:34:13.000Z</time>
      </trkpt>
      <trkpt lat="47.27179" lon="-2.35459">
        <ele>-87.199996948242</ele>
        <time>2021-11-04T11:34:21.000Z</time>
      </trkpt>
      <trkpt lat="47.27147" lon="-2.354">
        <ele>-87.199996948242</ele>
        <time>2021-11-04T11:34:30.000Z</time>
      </trkpt>
      <trkpt lat="47.27109" lon="-2.35333">
        <ele>-87.199996948242</ele>
        <time>2021-11-04T11:34:40.000Z</time>
      </trkpt>
      <trkpt lat="47.27071" lon="-2.35272">
        <ele>-87.199996948242</ele>
        <time>2021-11-04T11:34:49.000Z</time>
      </trkpt>
      <trkpt lat="47.27033" lon="-2.35213">
        <ele>-87.199996948242</ele>
        <time>2021-11-04T11:34:58.000Z</time>
      </trkpt>
      <trkpt lat="47.26999" lon="-2.35163">
        <ele>-87.199996948242</ele>
        <time>2021-11-04T11:35:06.000Z</time>
      </trkpt>
      <trkpt lat="47.26957" lon="-2.351">
        <ele>-87.199996948242</ele>
        <time>2021-11-04T11:35:16.000Z</time>
      </trkpt>
      <trkpt lat="47.26916" lon="-2.35037">
        <ele>-87.199996948242</ele>
        <time>2021-11-04T11:35:26.000Z</time>
      </trkpt>
      <trkpt lat="47.26879" lon="-2.3498">
        <ele>-87.199996948242</ele>
        <time>2021-11-04T11:35:35.000Z</time>
      </trkpt>
      <trkpt lat="47.26845" lon="-2.3493">
        <ele>-87.199996948242</ele>
        <time>2021-11-04T11:35:43.000Z</time>
      </trkpt>
      <trkpt lat="47.26812" lon="-2.34881">
        <ele>-87.199996948242</ele>
        <time>2021-11-04T11:35:51.000Z</time>
      </trkpt>
      <trkpt lat="47.26788" lon="-2.34845">
        <ele>-87.199996948242</ele>
        <time>2021-11-04T11:35:57.000Z</time>
      </trkpt>
      <trkpt lat="47.26759" lon="-2.34806">
        <ele>-87.199996948242</ele>
        <time>2021-11-04T11:36:04.000Z</time>
      </trkpt>
      <trkpt lat="47.26755" lon="-2.34801">
        <ele>-87.199996948242</ele>
        <time>2021-11-04T11:36:05.000Z</time>
      </trkpt>
      <trkpt lat="47.26737" lon="-2.34777">
        <ele>-87.199996948242</ele>
        <time>2021-11-04T11:36:09.000Z</time>
      </trkpt>
      <trkpt lat="47.26692" lon="-2.34724">
        <ele>-87.199996948242</ele>
        <time>2021-11-04T11:36:18.000Z</time>
      </trkpt>
      <trkpt lat="47.26649" lon="-2.3467">
        <ele>-87.199996948242</ele>
        <time>2021-11-04T11:36:27.000Z</time>
      </trkpt>
      <trkpt lat="47.26608" lon="-2.3462">
        <ele>-87.199996948242</ele>
        <time>2021-11-04T11:36:36.000Z</time>
      </trkpt>
      <trkpt lat="47.26575" lon="-2.34584">
        <ele>-87.199996948242</ele>
        <time>2021-11-04T11:36:43.000Z</time>
      </trkpt>
      <trkpt lat="47.26566" lon="-2.34573">
        <ele>-87.199996948242</ele>
        <time>2021-11-04T11:36:45.000Z</time>
      </trkpt>
      <trkpt lat="47.26531" lon="-2.34538">
        <ele>-87.199996948242</ele>
        <time>2021-11-04T11:36:52.000Z</time>
      </trkpt>
      <trkpt lat="47.26499" lon="-2.34513">
        <ele>-87.199996948242</ele>
        <time>2021-11-04T11:36:58.000Z</time>
      </trkpt>
      <trkpt lat="47.2645" lon="-2.34477">
        <ele>-87.199996948242</ele>
        <time>2021-11-04T11:37:07.000Z</time>
      </trkpt>
      <trkpt lat="47.26444" lon="-2.34473">
        <ele>-87.199996948242</ele>
        <time>2021-11-04T11:37:08.000Z</time>
      </trkpt>
      <trkpt lat="47.26396" lon="-2.34436">
        <ele>-87.199996948242</ele>
        <time>2021-11-04T11:37:17.000Z</time>
      </trkpt>
      <trkpt lat="47.26355" lon="-2.34399">
        <ele>-87.199996948242</ele>
        <time>2021-11-04T11:37:25.000Z</time>
      </trkpt>
      <trkpt lat="47.26341" lon="-2.34387">
        <ele>-87.199996948242</ele>
        <time>2021-11-04T11:37:28.000Z</time>
      </trkpt>
      <trkpt lat="47.2633" lon="-2.34383">
        <ele>-87.199996948242</ele>
        <time>2021-11-04T11:37:30.000Z</time>
      </trkpt>
      <trkpt lat="47.26317" lon="-2.34368">
        <ele>-87.199996948242</ele>
        <time>2021-11-04T11:37:33.000Z</time>
      </trkpt>
      <trkpt lat="47.26303" lon="-2.34351">
        <ele>-87.199996948242</ele>
        <time>2021-11-04T11:37:36.000Z</time>
      </trkpt>
      <trkpt lat="47.26298" lon="-2.34346">
        <ele>-87.199996948242</ele>
        <time>2021-11-04T11:37:37.000Z</time>
      </trkpt>
      <trkpt lat="47.26257" lon="-2.34303">
        <ele>-87.199996948242</ele>
        <time>2021-11-04T11:37:45.000Z</time>
      </trkpt>
      <trkpt lat="47.26217" lon="-2.34262">
        <ele>-87.199996948242</ele>
        <time>2021-11-04T11:37:53.000Z</time>
      </trkpt>
      <trkpt lat="47.26172" lon="-2.34214">
        <ele>-87.199996948242</ele>
        <time>2021-11-04T11:38:02.000Z</time>
      </trkpt>
      <trkpt lat="47.26167" lon="-2.34209">
        <ele>-87.199996948242</ele>
        <time>2021-11-04T11:38:03.000Z</time>
      </trkpt>
      <trkpt lat="47.26146" lon="-2.34191">
        <ele>-87.199996948242</ele>
        <time>2021-11-04T11:38:07.000Z</time>
      </trkpt>
      <trkpt lat="47.26134" lon="-2.34186">
        <ele>-87.199996948242</ele>
        <time>2021-11-04T11:38:09.000Z</time>
      </trkpt>
      <trkpt lat="47.26124" lon="-2.34176">
        <ele>-87.199996948242</ele>
        <time>2021-11-04T11:38:11.000Z</time>
      </trkpt>
      <trkpt lat="47.26118" lon="-2.3417">
        <ele>-87.199996948242</ele>
        <time>2021-11-04T11:38:12.000Z</time>
      </trkpt>
      <trkpt lat="47.26094" lon="-2.34157">
        <ele>-87.199996948242</ele>
        <time>2021-11-04T11:38:16.000Z</time>
      </trkpt>
      <trkpt lat="47.26045" lon="-2.34132">
        <ele>-87.199996948242</ele>
        <time>2021-11-04T11:38:24.000Z</time>
      </trkpt>
      <trkpt lat="47.25992" lon="-2.34105">
        <ele>-87.199996948242</ele>
        <time>2021-11-04T11:38:33.000Z</time>
      </trkpt>
      <trkpt lat="47.25958" lon="-2.34089">
        <ele>-87.199996948242</ele>
        <time>2021-11-04T11:38:39.000Z</time>
      </trkpt>
      <trkpt lat="47.25924" lon="-2.34077">
        <ele>-87.199996948242</ele>
        <time>2021-11-04T11:38:45.000Z</time>
      </trkpt>
      <trkpt lat="47.25918" lon="-2.34076">
        <ele>-87.199996948242</ele>
        <time>2021-11-04T11:38:46.000Z</time>
      </trkpt>
      <trkpt lat="47.25912" lon="-2.34075">
        <ele>-87.199996948242</ele>
        <time>2021-11-04T11:38:47.000Z</time>
      </trkpt>
      <trkpt lat="47.25903" lon="-2.34067">
        <ele>-87.199996948242</ele>
        <time>2021-11-04T11:38:49.000Z</time>
      </trkpt>
      <trkpt lat="47.25899" lon="-2.34045">
        <ele>-87.199996948242</ele>
        <time>2021-11-04T11:38:52.000Z</time>
      </trkpt>
      <trkpt lat="47.25908" lon="-2.34013">
        <ele>-87.199996948242</ele>
        <time>2021-11-04T11:38:56.000Z</time>
      </trkpt>
      <trkpt lat="47.25924" lon="-2.33962">
        <ele>-87.199996948242</ele>
        <time>2021-11-04T11:39:02.000Z</time>
      </trkpt>
      <trkpt lat="47.25936" lon="-2.33939">
        <ele>-87.599998474121</ele>
        <time>2021-11-04T11:39:05.000Z</time>
      </trkpt>
      <trkpt lat="47.2594" lon="-2.33932">
        <ele>-88</ele>
        <time>2021-11-04T11:39:06.000Z</time>
      </trkpt>
      <trkpt lat="47.25943" lon="-2.33927">
        <ele>-88.400001525879</ele>
        <time>2021-11-04T11:39:07.000Z</time>
      </trkpt>
      <trkpt lat="47.25945" lon="-2.33922">
        <ele>-88.800003051758</ele>
        <time>2021-11-04T11:39:08.000Z</time>
      </trkpt>
      <trkpt lat="47.25948" lon="-2.33917">
        <ele>-89.199996948242</ele>
        <time>2021-11-04T11:39:09.000Z</time>
      </trkpt>
      <trkpt lat="47.25951" lon="-2.33906">
        <ele>-89.199996948242</ele>
        <time>2021-11-04T11:39:11.000Z</time>
      </trkpt>
      <trkpt lat="47.25963" lon="-2.33868">
        <ele>-89.199996948242</ele>
        <time>2021-11-04T11:39:17.000Z</time>
      </trkpt>
      <trkpt lat="47.25969" lon="-2.33846">
        <ele>-89.199996948242</ele>
        <time>2021-11-04T11:39:20.000Z</time>
      </trkpt>
      <trkpt lat="47.25974" lon="-2.33833">
        <ele>-89.199996948242</ele>
        <time>2021-11-04T11:39:22.000Z</time>
      </trkpt>
      <trkpt lat="47.25975" lon="-2.33826">
        <ele>-89.199996948242</ele>
        <time>2021-11-04T11:39:23.000Z</time>
      </trkpt>
      <trkpt lat="47.25992" lon="-2.33776">
        <ele>-89.199996948242</ele>
        <time>2021-11-04T11:39:30.000Z</time>
      </trkpt>
      <trkpt lat="47.26007" lon="-2.33731">
        <ele>-89.199996948242</ele>
        <time>2021-11-04T11:39:36.000Z</time>
      </trkpt>
      <trkpt lat="47.26014" lon="-2.3371">
        <ele>-89.199996948242</ele>
        <time>2021-11-04T11:39:39.000Z</time>
      </trkpt>
      <trkpt lat="47.26019" lon="-2.33698">
        <ele>-89.199996948242</ele>
        <time>2021-11-04T11:39:41.000Z</time>
      </trkpt>
      <trkpt lat="47.26027" lon="-2.33671">
        <ele>-89.199996948242</ele>
        <time>2021-11-04T11:39:46.000Z</time>
      </trkpt>
      <trkpt lat="47.26029" lon="-2.33668">
        <ele>-89.199996948242</ele>
        <time>2021-11-04T11:39:47.000Z</time>
      </trkpt>
      <trkpt lat="47.26037" lon="-2.33667">
        <ele>-89.199996948242</ele>
        <time>2021-11-04T11:39:49.000Z</time>
      </trkpt>
      <trkpt lat="47.26045" lon="-2.33665">
        <ele>-89.199996948242</ele>
        <time>2021-11-04T11:39:52.000Z</time>
      </trkpt>
      <trkpt lat="47.26046" lon="-2.33663">
        <ele>-89.199996948242</ele>
        <time>2021-11-04T11:39:53.000Z</time>
      </trkpt>
      <trkpt lat="47.26053" lon="-2.33666">
        <ele>-89.199996948242</ele>
        <time>2021-11-04T11:39:57.000Z</time>
      </trkpt>
      <trkpt lat="47.26059" lon="-2.33655">
        <ele>-89.199996948242</ele>
        <time>2021-11-04T11:40:00.000Z</time>
      </trkpt>
      <trkpt lat="47.26061" lon="-2.33649">
        <ele>-89.199996948242</ele>
        <time>2021-11-04T11:40:01.000Z</time>
      </trkpt>
      <trkpt lat="47.2607" lon="-2.33623">
        <ele>-89.199996948242</ele>
        <time>2021-11-04T11:40:05.000Z</time>
      </trkpt>
      <trkpt lat="47.26084" lon="-2.3358">
        <ele>-89.199996948242</ele>
        <time>2021-11-04T11:40:11.000Z</time>
      </trkpt>
      <trkpt lat="47.26105" lon="-2.33521">
        <ele>-89.199996948242</ele>
        <time>2021-11-04T11:40:19.000Z</time>
      </trkpt>
      <trkpt lat="47.26123" lon="-2.33471">
        <ele>-89.199996948242</ele>
        <time>2021-11-04T11:40:26.000Z</time>
      </trkpt>
      <trkpt lat="47.26133" lon="-2.33448">
        <ele>-89.199996948242</ele>
        <time>2021-11-04T11:40:31.000Z</time>
      </trkpt>
      <trkpt lat="47.26136" lon="-2.33433">
        <ele>-89.199996948242</ele>
        <time>2021-11-04T11:40:35.000Z</time>
      </trkpt>
      <trkpt lat="47.26135" lon="-2.33427">
        <ele>-89.199996948242</ele>
        <time>2021-11-04T11:40:36.000Z</time>
      </trkpt>
      <trkpt lat="47.26123" lon="-2.3341">
        <ele>-89.199996948242</ele>
        <time>2021-11-04T11:40:40.000Z</time>
      </trkpt>
      <trkpt lat="47.26119" lon="-2.33406">
        <ele>-89.199996948242</ele>
        <time>2021-11-04T11:40:41.000Z</time>
      </trkpt>
      <trkpt lat="47.26099" lon="-2.33382">
        <ele>-89.199996948242</ele>
        <time>2021-11-04T11:40:46.000Z</time>
      </trkpt>
      <trkpt lat="47.26079" lon="-2.33356">
        <ele>-89.199996948242</ele>
        <time>2021-11-04T11:40:51.000Z</time>
      </trkpt>
      <trkpt lat="47.26076" lon="-2.3335">
        <ele>-89.199996948242</ele>
        <time>2021-11-04T11:40:52.000Z</time>
      </trkpt>
      <trkpt lat="47.26073" lon="-2.33342">
        <ele>-89.199996948242</ele>
        <time>2021-11-04T11:40:53.000Z</time>
      </trkpt>
      <trkpt lat="47.26061" lon="-2.33311">
        <ele>-89.199996948242</ele>
        <time>2021-11-04T11:40:57.000Z</time>
      </trkpt>
      <trkpt lat="47.2604" lon="-2.33249">
        <ele>-89.199996948242</ele>
        <time>2021-11-04T11:41:05.000Z</time>
      </trkpt>
      <trkpt lat="47.26018" lon="-2.33188">
        <ele>-89.199996948242</ele>
        <time>2021-11-04T11:41:13.000Z</time>
      </trkpt>
      <trkpt lat="47.26" lon="-2.33134">
        <ele>-89.199996948242</ele>
        <time>2021-11-04T11:41:20.000Z</time>
      </trkpt>
      <trkpt lat="47.25986" lon="-2.33087">
        <ele>-89.199996948242</ele>
        <time>2021-11-04T11:41:26.000Z</time>
      </trkpt>
      <trkpt lat="47.25983" lon="-2.33079">
        <ele>-89.199996948242</ele>
        <time>2021-11-04T11:41:27.000Z</time>
      </trkpt>
      <trkpt lat="47.25961" lon="-2.33024">
        <ele>-89.199996948242</ele>
        <time>2021-11-04T11:41:34.000Z</time>
      </trkpt>
      <trkpt lat="47.25936" lon="-2.32951">
        <ele>-89.199996948242</ele>
        <time>2021-11-04T11:41:43.000Z</time>
      </trkpt>
      <trkpt lat="47.25919" lon="-2.32902">
        <ele>-89.199996948242</ele>
        <time>2021-11-04T11:41:49.000Z</time>
      </trkpt>
      <trkpt lat="47.259" lon="-2.32849">
        <ele>-89.199996948242</ele>
        <time>2021-11-04T11:41:56.000Z</time>
      </trkpt>
      <trkpt lat="47.25878" lon="-2.32787">
        <ele>-89.199996948242</ele>
        <time>2021-11-04T11:42:04.000Z</time>
      </trkpt>
      <trkpt lat="47.25864" lon="-2.32734">
        <ele>-89.199996948242</ele>
        <time>2021-11-04T11:42:11.000Z</time>
      </trkpt>
      <trkpt lat="47.25863" lon="-2.32728">
        <ele>-89.199996948242</ele>
        <time>2021-11-04T11:42:12.000Z</time>
      </trkpt>
      <trkpt lat="47.25862" lon="-2.32715">
        <ele>-89.199996948242</ele>
        <time>2021-11-04T11:42:14.000Z</time>
      </trkpt>
      <trkpt lat="47.25853" lon="-2.32699">
        <ele>-89.199996948242</ele>
        <time>2021-11-04T11:42:17.000Z</time>
      </trkpt>
      <trkpt lat="47.25846" lon="-2.32678">
        <ele>-89.199996948242</ele>
        <time>2021-11-04T11:42:20.000Z</time>
      </trkpt>
      <trkpt lat="47.25844" lon="-2.3267">
        <ele>-89.199996948242</ele>
        <time>2021-11-04T11:42:21.000Z</time>
      </trkpt>
      <trkpt lat="47.25828" lon="-2.32607">
        <ele>-89.199996948242</ele>
        <time>2021-11-04T11:42:29.000Z</time>
      </trkpt>
      <trkpt lat="47.25814" lon="-2.3255">
        <ele>-89.199996948242</ele>
        <time>2021-11-04T11:42:36.000Z</time>
      </trkpt>
      <trkpt lat="47.25799" lon="-2.3249">
        <ele>-89.199996948242</ele>
        <time>2021-11-04T11:42:44.000Z</time>
      </trkpt>
      <trkpt lat="47.25797" lon="-2.3248">
        <ele>-89.199996948242</ele>
        <time>2021-11-04T11:42:48.000Z</time>
      </trkpt>
      <trkpt lat="47.25797" lon="-2.3248">
        <ele>-89.199996948242</ele>
        <time>2021-11-04T11:42:49.000Z</time>
      </trkpt>
      <trkpt lat="47.25799" lon="-2.32479">
        <ele>-89.199996948242</ele>
        <time>2021-11-04T11:44:17.000Z</time>
      </trkpt>
      <trkpt lat="47.25801" lon="-2.32471">
        <ele>-89.199996948242</ele>
        <time>2021-11-04T11:44:20.000Z</time>
      </trkpt>
      <trkpt lat="47.25802" lon="-2.32469">
        <ele>-89.199996948242</ele>
        <time>2021-11-04T11:44:21.000Z</time>
      </trkpt>
      <trkpt lat="47.2581" lon="-2.32457">
        <ele>-89.199996948242</ele>
        <time>2021-11-04T11:44:25.000Z</time>
      </trkpt>
      <trkpt lat="47.25813" lon="-2.32456">
        <ele>-89.199996948242</ele>
        <time>2021-11-04T11:44:26.000Z</time>
      </trkpt>
      <trkpt lat="47.2582" lon="-2.3246">
        <ele>-89.199996948242</ele>
        <time>2021-11-04T11:44:28.000Z</time>
      </trkpt>
      <trkpt lat="47.25836" lon="-2.32468">
        <ele>-89.199996948242</ele>
        <time>2021-11-04T11:44:32.000Z</time>
      </trkpt>
      <trkpt lat="47.2584" lon="-2.32469">
        <ele>-89.199996948242</ele>
        <time>2021-11-04T11:44:33.000Z</time>
      </trkpt>
      <trkpt lat="47.25848" lon="-2.32471">
        <ele>-89.199996948242</ele>
        <time>2021-11-04T11:44:35.000Z</time>
      </trkpt>
      <trkpt lat="47.25853" lon="-2.32471">
        <ele>-89.199996948242</ele>
        <time>2021-11-04T11:44:36.000Z</time>
      </trkpt>
      <trkpt lat="47.25875" lon="-2.32469">
        <ele>-89.199996948242</ele>
        <time>2021-11-04T11:44:41.000Z</time>
      </trkpt>
      <trkpt lat="47.25893" lon="-2.32463">
        <ele>-89.199996948242</ele>
        <time>2021-11-04T11:44:45.000Z</time>
      </trkpt>
      <trkpt lat="47.25897" lon="-2.32458">
        <ele>-89.199996948242</ele>
        <time>2021-11-04T11:44:46.000Z</time>
      </trkpt>
      <trkpt lat="47.25927" lon="-2.32423">
        <ele>-89.199996948242</ele>
        <time>2021-11-04T11:44:53.000Z</time>
      </trkpt>
      <trkpt lat="47.25953" lon="-2.32389">
        <ele>-89.199996948242</ele>
        <time>2021-11-04T11:45:00.000Z</time>
      </trkpt>
      <trkpt lat="47.25982" lon="-2.32351">
        <ele>-89.199996948242</ele>
        <time>2021-11-04T11:45:08.000Z</time>
      </trkpt>
      <trkpt lat="47.26004" lon="-2.32323">
        <ele>-89.199996948242</ele>
        <time>2021-11-04T11:45:15.000Z</time>
      </trkpt>
      <trkpt lat="47.26025" lon="-2.32298">
        <ele>-89.199996948242</ele>
        <time>2021-11-04T11:45:22.000Z</time>
      </trkpt>
      <trkpt lat="47.26053" lon="-2.32265">
        <ele>-89.199996948242</ele>
        <time>2021-11-04T11:45:30.000Z</time>
      </trkpt>
      <trkpt lat="47.26064" lon="-2.32253">
        <ele>-89.199996948242</ele>
        <time>2021-11-04T11:45:33.000Z</time>
      </trkpt>
      <trkpt lat="47.26074" lon="-2.32241">
        <ele>-89.199996948242</ele>
        <time>2021-11-04T11:45:36.000Z</time>
      </trkpt>
      <trkpt lat="47.26096" lon="-2.3221">
        <ele>-89.199996948242</ele>
        <time>2021-11-04T11:45:43.000Z</time>
      </trkpt>
      <trkpt lat="47.26114" lon="-2.3217">
        <ele>-89.199996948242</ele>
        <time>2021-11-04T11:45:50.000Z</time>
      </trkpt>
      <trkpt lat="47.26127" lon="-2.32135">
        <ele>-89.199996948242</ele>
        <time>2021-11-04T11:45:56.000Z</time>
      </trkpt>
      <trkpt lat="47.26129" lon="-2.32128">
        <ele>-89.199996948242</ele>
        <time>2021-11-04T11:45:57.000Z</time>
      </trkpt>
      <trkpt lat="47.26139" lon="-2.32098">
        <ele>-89.199996948242</ele>
        <time>2021-11-04T11:46:02.000Z</time>
      </trkpt>
      <trkpt lat="47.26142" lon="-2.32086">
        <ele>-89.199996948242</ele>
        <time>2021-11-04T11:46:04.000Z</time>
      </trkpt>
      <trkpt lat="47.26147" lon="-2.32068">
        <ele>-89.199996948242</ele>
        <time>2021-11-04T11:46:07.000Z</time>
      </trkpt>
      <trkpt lat="47.26151" lon="-2.32057">
        <ele>-89.199996948242</ele>
        <time>2021-11-04T11:46:09.000Z</time>
      </trkpt>
      <trkpt lat="47.26166" lon="-2.3202">
        <ele>-89.199996948242</ele>
        <time>2021-11-04T11:46:16.000Z</time>
      </trkpt>
      <trkpt lat="47.26171" lon="-2.32016">
        <ele>-89.199996948242</ele>
        <time>2021-11-04T11:46:18.000Z</time>
      </trkpt>
      <trkpt lat="47.26175" lon="-2.32017">
        <ele>-89.199996948242</ele>
        <time>2021-11-04T11:46:19.000Z</time>
      </trkpt>
      <trkpt lat="47.2619" lon="-2.32021">
        <ele>-89.199996948242</ele>
        <time>2021-11-04T11:46:24.000Z</time>
      </trkpt>
      <trkpt lat="47.26198" lon="-2.32017">
        <ele>-89.199996948242</ele>
        <time>2021-11-04T11:46:29.000Z</time>
      </trkpt>
      <trkpt lat="47.26199" lon="-2.3201">
        <ele>-89.199996948242</ele>
        <time>2021-11-04T11:46:31.000Z</time>
      </trkpt>
      <trkpt lat="47.26203" lon="-2.32002">
        <ele>-89.199996948242</ele>
        <time>2021-11-04T11:46:34.000Z</time>
      </trkpt>
      <trkpt lat="47.26214" lon="-2.31992">
        <ele>-89.199996948242</ele>
        <time>2021-11-04T11:46:39.000Z</time>
      </trkpt>
      <trkpt lat="47.26232" lon="-2.31969">
        <ele>-89.199996948242</ele>
        <time>2021-11-04T11:46:46.000Z</time>
      </trkpt>
      <trkpt lat="47.26246" lon="-2.31951">
        <ele>-89.199996948242</ele>
        <time>2021-11-04T11:46:51.000Z</time>
      </trkpt>
      <trkpt lat="47.26258" lon="-2.31932">
        <ele>-89.199996948242</ele>
        <time>2021-11-04T11:46:57.000Z</time>
      </trkpt>
      <trkpt lat="47.2627" lon="-2.31914">
        <ele>-89.199996948242</ele>
        <time>2021-11-04T11:47:03.000Z</time>
      </trkpt>
      <trkpt lat="47.26285" lon="-2.31899">
        <ele>-89.199996948242</ele>
        <time>2021-11-04T11:47:08.000Z</time>
      </trkpt>
      <trkpt lat="47.26291" lon="-2.31892">
        <ele>-89.199996948242</ele>
        <time>2021-11-04T11:47:12.000Z</time>
      </trkpt>
      <trkpt lat="47.26292" lon="-2.31889">
        <ele>-89.199996948242</ele>
        <time>2021-11-04T11:47:13.000Z</time>
      </trkpt>
      <trkpt lat="47.26296" lon="-2.31868">
        <ele>-89.199996948242</ele>
        <time>2021-11-04T11:47:18.000Z</time>
      </trkpt>
      <trkpt lat="47.263" lon="-2.31838">
        <ele>-89.199996948242</ele>
        <time>2021-11-04T11:47:25.000Z</time>
      </trkpt>
      <trkpt lat="47.26301" lon="-2.31814">
        <ele>-89.199996948242</ele>
        <time>2021-11-04T11:47:30.000Z</time>
      </trkpt>
      <trkpt lat="47.26303" lon="-2.31776">
        <ele>-89.199996948242</ele>
        <time>2021-11-04T11:47:37.000Z</time>
      </trkpt>
      <trkpt lat="47.263" lon="-2.31733">
        <ele>-89.199996948242</ele>
        <time>2021-11-04T11:47:45.000Z</time>
      </trkpt>
      <trkpt lat="47.26301" lon="-2.31727">
        <ele>-89.199996948242</ele>
        <time>2021-11-04T11:47:46.000Z</time>
      </trkpt>
      <trkpt lat="47.26307" lon="-2.31718">
        <ele>-89.199996948242</ele>
        <time>2021-11-04T11:47:48.000Z</time>
      </trkpt>
      <trkpt lat="47.26317" lon="-2.31712">
        <ele>-89.199996948242</ele>
        <time>2021-11-04T11:47:51.000Z</time>
      </trkpt>
      <trkpt lat="47.26323" lon="-2.31708">
        <ele>-89.199996948242</ele>
        <time>2021-11-04T11:47:53.000Z</time>
      </trkpt>
      <trkpt lat="47.26326" lon="-2.31707">
        <ele>-88.400001525879</ele>
        <time>2021-11-04T11:47:54.000Z</time>
      </trkpt>
      <trkpt lat="47.26329" lon="-2.31705">
        <ele>-88</ele>
        <time>2021-11-04T11:47:55.000Z</time>
      </trkpt>
      <trkpt lat="47.26331" lon="-2.31703">
        <ele>-87.400001525879</ele>
        <time>2021-11-04T11:47:56.000Z</time>
      </trkpt>
      <trkpt lat="47.26332" lon="-2.317">
        <ele>-87</ele>
        <time>2021-11-04T11:47:57.000Z</time>
      </trkpt>
      <trkpt lat="47.26333" lon="-2.31696">
        <ele>-87</ele>
        <time>2021-11-04T11:47:58.000Z</time>
      </trkpt>
      <trkpt lat="47.26341" lon="-2.31689">
        <ele>-87</ele>
        <time>2021-11-04T11:48:02.000Z</time>
      </trkpt>
      <trkpt lat="47.26344" lon="-2.31688">
        <ele>-87</ele>
        <time>2021-11-04T11:48:03.000Z</time>
      </trkpt>
      <trkpt lat="47.26352" lon="-2.31682">
        <ele>-86.599998474121</ele>
        <time>2021-11-04T11:48:06.000Z</time>
      </trkpt>
      <trkpt lat="47.26355" lon="-2.31681">
        <ele>-86.199996948242</ele>
        <time>2021-11-04T11:48:07.000Z</time>
      </trkpt>
      <trkpt lat="47.26357" lon="-2.31679">
        <ele>-85.800003051758</ele>
        <time>2021-11-04T11:48:08.000Z</time>
      </trkpt>
      <trkpt lat="47.26361" lon="-2.31678">
        <ele>-85.400001525879</ele>
        <time>2021-11-04T11:48:09.000Z</time>
      </trkpt>
      <trkpt lat="47.26364" lon="-2.31676">
        <ele>-85</ele>
        <time>2021-11-04T11:48:10.000Z</time>
      </trkpt>
      <trkpt lat="47.26373" lon="-2.31672">
        <ele>-85</ele>
        <time>2021-11-04T11:48:13.000Z</time>
      </trkpt>
      <trkpt lat="47.26388" lon="-2.31665">
        <ele>-85</ele>
        <time>2021-11-04T11:48:18.000Z</time>
      </trkpt>
      <trkpt lat="47.26405" lon="-2.31656">
        <ele>-85</ele>
        <time>2021-11-04T11:48:24.000Z</time>
      </trkpt>
      <trkpt lat="47.26413" lon="-2.31648">
        <ele>-85</ele>
        <time>2021-11-04T11:48:27.000Z</time>
      </trkpt>
      <trkpt lat="47.26413" lon="-2.31643">
        <ele>-85</ele>
        <time>2021-11-04T11:48:28.000Z</time>
      </trkpt>
      <trkpt lat="47.26411" lon="-2.31631">
        <ele>-84.599998474121</ele>
        <time>2021-11-04T11:48:31.000Z</time>
      </trkpt>
      <trkpt lat="47.26411" lon="-2.31626">
        <ele>-84.199996948242</ele>
        <time>2021-11-04T11:48:32.000Z</time>
      </trkpt>
      <trkpt lat="47.26411" lon="-2.31621">
        <ele>-83.800003051758</ele>
        <time>2021-11-04T11:48:33.000Z</time>
      </trkpt>
      <trkpt lat="47.2641" lon="-2.31617">
        <ele>-83.400001525879</ele>
        <time>2021-11-04T11:48:34.000Z</time>
      </trkpt>
      <trkpt lat="47.2641" lon="-2.31612">
        <ele>-83</ele>
        <time>2021-11-04T11:48:35.000Z</time>
      </trkpt>
      <trkpt lat="47.2641" lon="-2.31579">
        <ele>-83</ele>
        <time>2021-11-04T11:48:42.000Z</time>
      </trkpt>
      <trkpt lat="47.2641" lon="-2.31556">
        <ele>-83</ele>
        <time>2021-11-04T11:48:48.000Z</time>
      </trkpt>
      <trkpt lat="47.26412" lon="-2.31553">
        <ele>-83</ele>
        <time>2021-11-04T11:48:50.000Z</time>
      </trkpt>
      <trkpt lat="47.26416" lon="-2.31552">
        <ele>-83</ele>
        <time>2021-11-04T11:48:52.000Z</time>
      </trkpt>
      <trkpt lat="47.26417" lon="-2.31552">
        <ele>-83</ele>
        <time>2021-11-04T11:48:54.000Z</time>
      </trkpt>
    </trkseg>
  </trk>
</gpx>